<?xml version="1.0" encoding="UTF-8" standalone="no" ?>
<gpx xmlns="http://www.topografix.com/GPX/1/1" xmlns:xsi="http://www.w3.org/2001/XMLSchema-instance" xsi:schemaLocation="http://www.topografix.com/GPX/1/1 http://www.topografix.com/GPX/1/1/gpx.xsd" version="1.1" creator="VisuGPX - https://www.visugpx.com">
  <metadata>
    <name>CHEZINE CENS CLAUDE PECCOT</name>
    <desc><![CDATA[Rando édifiante à plus d\'un titre !]]></desc>
  </metadata>
  <trk>
    <name><![CDATA[2014-04-27-01]]></name>
    <trkseg>
      <trkpt lat="47.23075" lon="-1.60642">
        <ele>45.068581</ele>
        <time>2014-04-27T07:23:26Z</time>
      </trkpt>
      <trkpt lat="47.23075" lon="-1.60642">
        <ele>45.282028</ele>
        <time>2014-04-27T07:23:27Z</time>
      </trkpt>
      <trkpt lat="47.23072" lon="-1.60671">
        <ele>42.1</ele>
        <time>2014-04-27T07:23:53Z</time>
      </trkpt>
      <trkpt lat="47.23073" lon="-1.60687">
        <ele>40.8</ele>
        <time>2014-04-27T07:24:46Z</time>
      </trkpt>
      <trkpt lat="47.23074" lon="-1.60703">
        <ele>40.2</ele>
        <time>2014-04-27T07:24:51Z</time>
      </trkpt>
      <trkpt lat="47.23076" lon="-1.60719">
        <ele>39.4</ele>
        <time>2014-04-27T07:24:55Z</time>
      </trkpt>
      <trkpt lat="47.23079" lon="-1.60732">
        <ele>38.6</ele>
        <time>2014-04-27T07:24:59Z</time>
      </trkpt>
      <trkpt lat="47.23088" lon="-1.6073">
        <ele>37.1</ele>
        <time>2014-04-27T07:25:05Z</time>
      </trkpt>
      <trkpt lat="47.23097" lon="-1.60722">
        <ele>36.5</ele>
        <time>2014-04-27T07:25:08Z</time>
      </trkpt>
      <trkpt lat="47.23106" lon="-1.60716">
        <ele>35.8</ele>
        <time>2014-04-27T07:25:11Z</time>
      </trkpt>
      <trkpt lat="47.23117" lon="-1.6071">
        <ele>35.2</ele>
        <time>2014-04-27T07:25:14Z</time>
      </trkpt>
      <trkpt lat="47.23128" lon="-1.60703">
        <ele>34.6</ele>
        <time>2014-04-27T07:25:17Z</time>
      </trkpt>
      <trkpt lat="47.23137" lon="-1.60696">
        <ele>34.5</ele>
        <time>2014-04-27T07:25:19Z</time>
      </trkpt>
      <trkpt lat="47.23147" lon="-1.60697">
        <ele>34.2</ele>
        <time>2014-04-27T07:25:22Z</time>
      </trkpt>
      <trkpt lat="47.23155" lon="-1.60708">
        <ele>34</ele>
        <time>2014-04-27T07:25:25Z</time>
      </trkpt>
      <trkpt lat="47.23163" lon="-1.60722">
        <ele>33.7</ele>
        <time>2014-04-27T07:25:28Z</time>
      </trkpt>
      <trkpt lat="47.2317" lon="-1.60734">
        <ele>33.2</ele>
        <time>2014-04-27T07:25:31Z</time>
      </trkpt>
      <trkpt lat="47.23174" lon="-1.60747">
        <ele>32.8</ele>
        <time>2014-04-27T07:25:34Z</time>
      </trkpt>
      <trkpt lat="47.23181" lon="-1.60759">
        <ele>32.6</ele>
        <time>2014-04-27T07:25:37Z</time>
      </trkpt>
      <trkpt lat="47.23193" lon="-1.60766">
        <ele>32.3</ele>
        <time>2014-04-27T07:25:40Z</time>
      </trkpt>
      <trkpt lat="47.23201" lon="-1.60772">
        <ele>32.2</ele>
        <time>2014-04-27T07:25:42Z</time>
      </trkpt>
      <trkpt lat="47.2321" lon="-1.60779">
        <ele>32.2</ele>
        <time>2014-04-27T07:25:45Z</time>
      </trkpt>
      <trkpt lat="47.23217" lon="-1.6079">
        <ele>32</ele>
        <time>2014-04-27T07:25:48Z</time>
      </trkpt>
      <trkpt lat="47.23227" lon="-1.60799">
        <ele>31.7</ele>
        <time>2014-04-27T07:25:51Z</time>
      </trkpt>
      <trkpt lat="47.23236" lon="-1.60808">
        <ele>30.9</ele>
        <time>2014-04-27T07:25:54Z</time>
      </trkpt>
      <trkpt lat="47.23243" lon="-1.60818">
        <ele>30.8</ele>
        <time>2014-04-27T07:25:57Z</time>
      </trkpt>
      <trkpt lat="47.23254" lon="-1.60818">
        <ele>30.7</ele>
        <time>2014-04-27T07:26:00Z</time>
      </trkpt>
      <trkpt lat="47.23262" lon="-1.6081">
        <ele>30.5</ele>
        <time>2014-04-27T07:26:02Z</time>
      </trkpt>
      <trkpt lat="47.23271" lon="-1.608">
        <ele>29.7</ele>
        <time>2014-04-27T07:26:04Z</time>
      </trkpt>
      <trkpt lat="47.23278" lon="-1.60791">
        <ele>28.2</ele>
        <time>2014-04-27T07:26:06Z</time>
      </trkpt>
      <trkpt lat="47.23287" lon="-1.60782">
        <ele>27.4</ele>
        <time>2014-04-27T07:26:08Z</time>
      </trkpt>
      <trkpt lat="47.23295" lon="-1.60776">
        <ele>27.4</ele>
        <time>2014-04-27T07:26:10Z</time>
      </trkpt>
      <trkpt lat="47.23304" lon="-1.6077">
        <ele>27.6</ele>
        <time>2014-04-27T07:26:12Z</time>
      </trkpt>
      <trkpt lat="47.23313" lon="-1.60764">
        <ele>27.9</ele>
        <time>2014-04-27T07:26:14Z</time>
      </trkpt>
      <trkpt lat="47.23323" lon="-1.60758">
        <ele>27.6</ele>
        <time>2014-04-27T07:26:16Z</time>
      </trkpt>
      <trkpt lat="47.23332" lon="-1.60751">
        <ele>27.7</ele>
        <time>2014-04-27T07:26:18Z</time>
      </trkpt>
      <trkpt lat="47.23341" lon="-1.60744">
        <ele>27</ele>
        <time>2014-04-27T07:26:20Z</time>
      </trkpt>
      <trkpt lat="47.2335" lon="-1.60736">
        <ele>25.4</ele>
        <time>2014-04-27T07:26:22Z</time>
      </trkpt>
      <trkpt lat="47.23358" lon="-1.60729">
        <ele>24.7</ele>
        <time>2014-04-27T07:26:24Z</time>
      </trkpt>
      <trkpt lat="47.23366" lon="-1.60722">
        <ele>23</ele>
        <time>2014-04-27T07:26:26Z</time>
      </trkpt>
      <trkpt lat="47.23375" lon="-1.60716">
        <ele>22.2</ele>
        <time>2014-04-27T07:26:29Z</time>
      </trkpt>
      <trkpt lat="47.23385" lon="-1.60716">
        <ele>21.3</ele>
        <time>2014-04-27T07:26:34Z</time>
      </trkpt>
      <trkpt lat="47.23394" lon="-1.60715">
        <ele>20.1</ele>
        <time>2014-04-27T07:26:53Z</time>
      </trkpt>
      <trkpt lat="47.23407" lon="-1.6069">
        <ele>19.2</ele>
        <time>2014-04-27T07:27:01Z</time>
      </trkpt>
      <trkpt lat="47.23416" lon="-1.60678">
        <ele>18.7</ele>
        <time>2014-04-27T07:27:05Z</time>
      </trkpt>
      <trkpt lat="47.23423" lon="-1.60669">
        <ele>18.4</ele>
        <time>2014-04-27T07:27:07Z</time>
      </trkpt>
      <trkpt lat="47.23432" lon="-1.60658">
        <ele>17.9</ele>
        <time>2014-04-27T07:27:10Z</time>
      </trkpt>
      <trkpt lat="47.2344" lon="-1.60648">
        <ele>16.3</ele>
        <time>2014-04-27T07:27:13Z</time>
      </trkpt>
      <trkpt lat="47.23448" lon="-1.60638">
        <ele>15.9</ele>
        <time>2014-04-27T07:27:16Z</time>
      </trkpt>
      <trkpt lat="47.23457" lon="-1.60626">
        <ele>15.5</ele>
        <time>2014-04-27T07:27:19Z</time>
      </trkpt>
      <trkpt lat="47.23466" lon="-1.60616">
        <ele>14.8</ele>
        <time>2014-04-27T07:27:22Z</time>
      </trkpt>
      <trkpt lat="47.23474" lon="-1.6061">
        <ele>14</ele>
        <time>2014-04-27T07:27:25Z</time>
      </trkpt>
      <trkpt lat="47.23484" lon="-1.60605">
        <ele>13.1</ele>
        <time>2014-04-27T07:27:28Z</time>
      </trkpt>
      <trkpt lat="47.23497" lon="-1.6061">
        <ele>12.3</ele>
        <time>2014-04-27T07:27:32Z</time>
      </trkpt>
      <trkpt lat="47.23508" lon="-1.60613">
        <ele>11.6</ele>
        <time>2014-04-27T07:27:34Z</time>
      </trkpt>
      <trkpt lat="47.2352" lon="-1.60605">
        <ele>10.9</ele>
        <time>2014-04-27T07:27:37Z</time>
      </trkpt>
      <trkpt lat="47.2353" lon="-1.606">
        <ele>10.7</ele>
        <time>2014-04-27T07:27:39Z</time>
      </trkpt>
      <trkpt lat="47.23541" lon="-1.60592">
        <ele>10.3</ele>
        <time>2014-04-27T07:27:42Z</time>
      </trkpt>
      <trkpt lat="47.2355" lon="-1.60583">
        <ele>9.4</ele>
        <time>2014-04-27T07:27:45Z</time>
      </trkpt>
      <trkpt lat="47.23563" lon="-1.60584">
        <ele>8.2</ele>
        <time>2014-04-27T07:27:49Z</time>
      </trkpt>
      <trkpt lat="47.23572" lon="-1.60595">
        <ele>7.2</ele>
        <time>2014-04-27T07:27:52Z</time>
      </trkpt>
      <trkpt lat="47.23583" lon="-1.60603">
        <ele>6.2</ele>
        <time>2014-04-27T07:27:56Z</time>
      </trkpt>
      <trkpt lat="47.23598" lon="-1.60626">
        <ele>5.4</ele>
        <time>2014-04-27T07:28:02Z</time>
      </trkpt>
      <trkpt lat="47.23603" lon="-1.60642">
        <ele>5.3</ele>
        <time>2014-04-27T07:28:06Z</time>
      </trkpt>
      <trkpt lat="47.23611" lon="-1.60654">
        <ele>5.3</ele>
        <time>2014-04-27T07:28:09Z</time>
      </trkpt>
      <trkpt lat="47.23619" lon="-1.60664">
        <ele>4.9</ele>
        <time>2014-04-27T07:28:12Z</time>
      </trkpt>
      <trkpt lat="47.23627" lon="-1.60674">
        <ele>4.6</ele>
        <time>2014-04-27T07:28:15Z</time>
      </trkpt>
      <trkpt lat="47.23635" lon="-1.60682">
        <ele>4.5</ele>
        <time>2014-04-27T07:28:17Z</time>
      </trkpt>
      <trkpt lat="47.23644" lon="-1.60693">
        <ele>4.6</ele>
        <time>2014-04-27T07:28:20Z</time>
      </trkpt>
      <trkpt lat="47.23652" lon="-1.60702">
        <ele>4.9</ele>
        <time>2014-04-27T07:28:23Z</time>
      </trkpt>
      <trkpt lat="47.2366" lon="-1.6071">
        <ele>4.9</ele>
        <time>2014-04-27T07:28:26Z</time>
      </trkpt>
      <trkpt lat="47.23668" lon="-1.60717">
        <ele>4.7</ele>
        <time>2014-04-27T07:28:29Z</time>
      </trkpt>
      <trkpt lat="47.23675" lon="-1.60727">
        <ele>4.5</ele>
        <time>2014-04-27T07:28:32Z</time>
      </trkpt>
      <trkpt lat="47.23684" lon="-1.60738">
        <ele>4.4</ele>
        <time>2014-04-27T07:28:35Z</time>
      </trkpt>
      <trkpt lat="47.23689" lon="-1.60749">
        <ele>4.2</ele>
        <time>2014-04-27T07:28:38Z</time>
      </trkpt>
      <trkpt lat="47.23695" lon="-1.60764">
        <ele>4.2</ele>
        <time>2014-04-27T07:28:41Z</time>
      </trkpt>
      <trkpt lat="47.23696" lon="-1.60777">
        <ele>4.2</ele>
        <time>2014-04-27T07:28:44Z</time>
      </trkpt>
      <trkpt lat="47.23692" lon="-1.60794">
        <ele>4</ele>
        <time>2014-04-27T07:28:47Z</time>
      </trkpt>
      <trkpt lat="47.23684" lon="-1.60805">
        <ele>3.9</ele>
        <time>2014-04-27T07:28:49Z</time>
      </trkpt>
      <trkpt lat="47.23676" lon="-1.60819">
        <ele>4</ele>
        <time>2014-04-27T07:28:52Z</time>
      </trkpt>
      <trkpt lat="47.23673" lon="-1.60833">
        <ele>3.8</ele>
        <time>2014-04-27T07:28:57Z</time>
      </trkpt>
      <trkpt lat="47.23683" lon="-1.6086">
        <ele>3.9</ele>
        <time>2014-04-27T07:29:03Z</time>
      </trkpt>
      <trkpt lat="47.23691" lon="-1.60869">
        <ele>4.2</ele>
        <time>2014-04-27T07:29:10Z</time>
      </trkpt>
      <trkpt lat="47.23694" lon="-1.60882">
        <ele>3.8</ele>
        <time>2014-04-27T07:29:14Z</time>
      </trkpt>
      <trkpt lat="47.23695" lon="-1.60898">
        <ele>3.6</ele>
        <time>2014-04-27T07:29:19Z</time>
      </trkpt>
      <trkpt lat="47.23692" lon="-1.60912">
        <ele>3.6</ele>
        <time>2014-04-27T07:29:24Z</time>
      </trkpt>
      <trkpt lat="47.23686" lon="-1.60928">
        <ele>3.4</ele>
        <time>2014-04-27T07:29:28Z</time>
      </trkpt>
      <trkpt lat="47.23681" lon="-1.6094">
        <ele>3.5</ele>
        <time>2014-04-27T07:29:31Z</time>
      </trkpt>
      <trkpt lat="47.23678" lon="-1.60955">
        <ele>3.2</ele>
        <time>2014-04-27T07:29:34Z</time>
      </trkpt>
      <trkpt lat="47.23681" lon="-1.6097">
        <ele>3.2</ele>
        <time>2014-04-27T07:29:37Z</time>
      </trkpt>
      <trkpt lat="47.23684" lon="-1.60987">
        <ele>3.9</ele>
        <time>2014-04-27T07:29:40Z</time>
      </trkpt>
      <trkpt lat="47.23688" lon="-1.61">
        <ele>4.9</ele>
        <time>2014-04-27T07:29:44Z</time>
      </trkpt>
      <trkpt lat="47.23694" lon="-1.61012">
        <ele>5.9</ele>
        <time>2014-04-27T07:29:48Z</time>
      </trkpt>
      <trkpt lat="47.23699" lon="-1.61026">
        <ele>6.8</ele>
        <time>2014-04-27T07:29:52Z</time>
      </trkpt>
      <trkpt lat="47.23698" lon="-1.61043">
        <ele>8</ele>
        <time>2014-04-27T07:29:57Z</time>
      </trkpt>
      <trkpt lat="47.23697" lon="-1.61057">
        <ele>8.5</ele>
        <time>2014-04-27T07:30:01Z</time>
      </trkpt>
      <trkpt lat="47.23705" lon="-1.61061">
        <ele>12.2</ele>
        <time>2014-04-27T07:30:22Z</time>
      </trkpt>
      <trkpt lat="47.23715" lon="-1.61057">
        <ele>13.1</ele>
        <time>2014-04-27T07:30:26Z</time>
      </trkpt>
      <trkpt lat="47.23724" lon="-1.61052">
        <ele>13.6</ele>
        <time>2014-04-27T07:30:29Z</time>
      </trkpt>
      <trkpt lat="47.23733" lon="-1.61045">
        <ele>14.3</ele>
        <time>2014-04-27T07:30:32Z</time>
      </trkpt>
      <trkpt lat="47.23742" lon="-1.61037">
        <ele>15.1</ele>
        <time>2014-04-27T07:30:35Z</time>
      </trkpt>
      <trkpt lat="47.23752" lon="-1.61029">
        <ele>16</ele>
        <time>2014-04-27T07:30:38Z</time>
      </trkpt>
      <trkpt lat="47.23762" lon="-1.61022">
        <ele>16.7</ele>
        <time>2014-04-27T07:30:42Z</time>
      </trkpt>
      <trkpt lat="47.23771" lon="-1.61015">
        <ele>17.5</ele>
        <time>2014-04-27T07:30:46Z</time>
      </trkpt>
      <trkpt lat="47.2378" lon="-1.61008">
        <ele>18.5</ele>
        <time>2014-04-27T07:30:50Z</time>
      </trkpt>
      <trkpt lat="47.23788" lon="-1.61001">
        <ele>19.4</ele>
        <time>2014-04-27T07:30:54Z</time>
      </trkpt>
      <trkpt lat="47.23797" lon="-1.60995">
        <ele>20.4</ele>
        <time>2014-04-27T07:30:58Z</time>
      </trkpt>
      <trkpt lat="47.23806" lon="-1.60989">
        <ele>21.3</ele>
        <time>2014-04-27T07:31:02Z</time>
      </trkpt>
      <trkpt lat="47.23825" lon="-1.60973">
        <ele>22.5</ele>
        <time>2014-04-27T07:31:10Z</time>
      </trkpt>
      <trkpt lat="47.23834" lon="-1.60964">
        <ele>23.2</ele>
        <time>2014-04-27T07:31:14Z</time>
      </trkpt>
      <trkpt lat="47.23843" lon="-1.60954">
        <ele>23.9</ele>
        <time>2014-04-27T07:31:18Z</time>
      </trkpt>
      <trkpt lat="47.23853" lon="-1.60947">
        <ele>24.5</ele>
        <time>2014-04-27T07:31:21Z</time>
      </trkpt>
      <trkpt lat="47.23862" lon="-1.60941">
        <ele>25.1</ele>
        <time>2014-04-27T07:31:24Z</time>
      </trkpt>
      <trkpt lat="47.23872" lon="-1.60937">
        <ele>25.6</ele>
        <time>2014-04-27T07:31:27Z</time>
      </trkpt>
      <trkpt lat="47.23881" lon="-1.60933">
        <ele>26.1</ele>
        <time>2014-04-27T07:31:30Z</time>
      </trkpt>
      <trkpt lat="47.23891" lon="-1.6093">
        <ele>26.6</ele>
        <time>2014-04-27T07:31:33Z</time>
      </trkpt>
      <trkpt lat="47.239" lon="-1.60925">
        <ele>27.1</ele>
        <time>2014-04-27T07:31:36Z</time>
      </trkpt>
      <trkpt lat="47.2391" lon="-1.60921">
        <ele>27.5</ele>
        <time>2014-04-27T07:31:39Z</time>
      </trkpt>
      <trkpt lat="47.2392" lon="-1.60918">
        <ele>27.9</ele>
        <time>2014-04-27T07:31:42Z</time>
      </trkpt>
      <trkpt lat="47.2393" lon="-1.60916">
        <ele>28.3</ele>
        <time>2014-04-27T07:31:45Z</time>
      </trkpt>
      <trkpt lat="47.23939" lon="-1.60912">
        <ele>28.7</ele>
        <time>2014-04-27T07:31:48Z</time>
      </trkpt>
      <trkpt lat="47.23948" lon="-1.60908">
        <ele>29.3</ele>
        <time>2014-04-27T07:31:51Z</time>
      </trkpt>
      <trkpt lat="47.23957" lon="-1.60904">
        <ele>29.7</ele>
        <time>2014-04-27T07:31:54Z</time>
      </trkpt>
      <trkpt lat="47.23966" lon="-1.60899">
        <ele>30</ele>
        <time>2014-04-27T07:31:57Z</time>
      </trkpt>
      <trkpt lat="47.23976" lon="-1.60895">
        <ele>30.4</ele>
        <time>2014-04-27T07:32:00Z</time>
      </trkpt>
      <trkpt lat="47.23985" lon="-1.60892">
        <ele>30.7</ele>
        <time>2014-04-27T07:32:03Z</time>
      </trkpt>
      <trkpt lat="47.24005" lon="-1.60884">
        <ele>30.7</ele>
        <time>2014-04-27T07:32:09Z</time>
      </trkpt>
      <trkpt lat="47.24014" lon="-1.60877">
        <ele>31.5</ele>
        <time>2014-04-27T07:32:14Z</time>
      </trkpt>
      <trkpt lat="47.24025" lon="-1.60877">
        <ele>31.9</ele>
        <time>2014-04-27T07:32:19Z</time>
      </trkpt>
      <trkpt lat="47.24034" lon="-1.6087">
        <ele>32.2</ele>
        <time>2014-04-27T07:32:23Z</time>
      </trkpt>
      <trkpt lat="47.24041" lon="-1.60861">
        <ele>32.3</ele>
        <time>2014-04-27T07:32:26Z</time>
      </trkpt>
      <trkpt lat="47.24045" lon="-1.60846">
        <ele>32.7</ele>
        <time>2014-04-27T07:32:31Z</time>
      </trkpt>
      <trkpt lat="47.2404" lon="-1.60833">
        <ele>33.1</ele>
        <time>2014-04-27T07:32:33Z</time>
      </trkpt>
      <trkpt lat="47.24042" lon="-1.60819">
        <ele>33.2</ele>
        <time>2014-04-27T07:32:38Z</time>
      </trkpt>
      <trkpt lat="47.24051" lon="-1.60813">
        <ele>33.4</ele>
        <time>2014-04-27T07:32:42Z</time>
      </trkpt>
      <trkpt lat="47.24059" lon="-1.60805">
        <ele>33.3</ele>
        <time>2014-04-27T07:32:46Z</time>
      </trkpt>
      <trkpt lat="47.24065" lon="-1.60792">
        <ele>33.2</ele>
        <time>2014-04-27T07:32:50Z</time>
      </trkpt>
      <trkpt lat="47.24071" lon="-1.60781">
        <ele>33.3</ele>
        <time>2014-04-27T07:32:52Z</time>
      </trkpt>
      <trkpt lat="47.2408" lon="-1.60774">
        <ele>33.5</ele>
        <time>2014-04-27T07:32:55Z</time>
      </trkpt>
      <trkpt lat="47.24089" lon="-1.60772">
        <ele>33.7</ele>
        <time>2014-04-27T07:32:58Z</time>
      </trkpt>
      <trkpt lat="47.24101" lon="-1.60778">
        <ele>34</ele>
        <time>2014-04-27T07:33:01Z</time>
      </trkpt>
      <trkpt lat="47.24112" lon="-1.60779">
        <ele>35</ele>
        <time>2014-04-27T07:33:07Z</time>
      </trkpt>
      <trkpt lat="47.24126" lon="-1.60791">
        <ele>36</ele>
        <time>2014-04-27T07:33:13Z</time>
      </trkpt>
      <trkpt lat="47.24132" lon="-1.60805">
        <ele>36.2</ele>
        <time>2014-04-27T07:33:17Z</time>
      </trkpt>
      <trkpt lat="47.24136" lon="-1.60818">
        <ele>40.3</ele>
        <time>2014-04-27T07:34:42Z</time>
      </trkpt>
      <trkpt lat="47.2414" lon="-1.60847">
        <ele>43.9</ele>
        <time>2014-04-27T07:35:12Z</time>
      </trkpt>
      <trkpt lat="47.24144" lon="-1.60861">
        <ele>44.8</ele>
        <time>2014-04-27T07:35:17Z</time>
      </trkpt>
      <trkpt lat="47.24154" lon="-1.60859">
        <ele>44.9</ele>
        <time>2014-04-27T07:35:22Z</time>
      </trkpt>
      <trkpt lat="47.24164" lon="-1.60852">
        <ele>44.9</ele>
        <time>2014-04-27T07:35:26Z</time>
      </trkpt>
      <trkpt lat="47.24174" lon="-1.60852">
        <ele>44.8</ele>
        <time>2014-04-27T07:35:29Z</time>
      </trkpt>
      <trkpt lat="47.24183" lon="-1.60862">
        <ele>44.6</ele>
        <time>2014-04-27T07:35:33Z</time>
      </trkpt>
      <trkpt lat="47.24193" lon="-1.60867">
        <ele>44.3</ele>
        <time>2014-04-27T07:35:37Z</time>
      </trkpt>
      <trkpt lat="47.24203" lon="-1.60869">
        <ele>44</ele>
        <time>2014-04-27T07:35:40Z</time>
      </trkpt>
      <trkpt lat="47.24211" lon="-1.60864">
        <ele>43.3</ele>
        <time>2014-04-27T07:35:43Z</time>
      </trkpt>
      <trkpt lat="47.24228" lon="-1.60855">
        <ele>41.3</ele>
        <time>2014-04-27T07:35:50Z</time>
      </trkpt>
      <trkpt lat="47.24235" lon="-1.60867">
        <ele>41.3</ele>
        <time>2014-04-27T07:35:53Z</time>
      </trkpt>
      <trkpt lat="47.24242" lon="-1.6088">
        <ele>41.2</ele>
        <time>2014-04-27T07:35:56Z</time>
      </trkpt>
      <trkpt lat="47.24243" lon="-1.60897">
        <ele>41</ele>
        <time>2014-04-27T07:36:00Z</time>
      </trkpt>
      <trkpt lat="47.24242" lon="-1.60912">
        <ele>40.7</ele>
        <time>2014-04-27T07:36:03Z</time>
      </trkpt>
      <trkpt lat="47.24244" lon="-1.60929">
        <ele>38.4</ele>
        <time>2014-04-27T07:36:06Z</time>
      </trkpt>
      <trkpt lat="47.24247" lon="-1.60945">
        <ele>36.9</ele>
        <time>2014-04-27T07:36:09Z</time>
      </trkpt>
      <trkpt lat="47.24252" lon="-1.60964">
        <ele>37.4</ele>
        <time>2014-04-27T07:36:12Z</time>
      </trkpt>
      <trkpt lat="47.24255" lon="-1.60982">
        <ele>36.6</ele>
        <time>2014-04-27T07:36:15Z</time>
      </trkpt>
      <trkpt lat="47.24258" lon="-1.61001">
        <ele>34.3</ele>
        <time>2014-04-27T07:36:18Z</time>
      </trkpt>
      <trkpt lat="47.24262" lon="-1.61015">
        <ele>33</ele>
        <time>2014-04-27T07:36:20Z</time>
      </trkpt>
      <trkpt lat="47.24266" lon="-1.61031">
        <ele>31.8</ele>
        <time>2014-04-27T07:36:22Z</time>
      </trkpt>
      <trkpt lat="47.24267" lon="-1.61045">
        <ele>30.7</ele>
        <time>2014-04-27T07:36:24Z</time>
      </trkpt>
      <trkpt lat="47.24265" lon="-1.61062">
        <ele>30.7</ele>
        <time>2014-04-27T07:36:27Z</time>
      </trkpt>
      <trkpt lat="47.24261" lon="-1.61075">
        <ele>29.3</ele>
        <time>2014-04-27T07:37:09Z</time>
      </trkpt>
      <trkpt lat="47.24243" lon="-1.61099">
        <ele>29.7</ele>
        <time>2014-04-27T07:37:17Z</time>
      </trkpt>
      <trkpt lat="47.24234" lon="-1.61111">
        <ele>29.5</ele>
        <time>2014-04-27T07:37:20Z</time>
      </trkpt>
      <trkpt lat="47.24225" lon="-1.61124">
        <ele>29.4</ele>
        <time>2014-04-27T07:37:23Z</time>
      </trkpt>
      <trkpt lat="47.24217" lon="-1.6114">
        <ele>29</ele>
        <time>2014-04-27T07:37:26Z</time>
      </trkpt>
      <trkpt lat="47.2421" lon="-1.61155">
        <ele>28.5</ele>
        <time>2014-04-27T07:37:29Z</time>
      </trkpt>
      <trkpt lat="47.242" lon="-1.61166">
        <ele>28</ele>
        <time>2014-04-27T07:37:32Z</time>
      </trkpt>
      <trkpt lat="47.24191" lon="-1.61171">
        <ele>27.5</ele>
        <time>2014-04-27T07:37:36Z</time>
      </trkpt>
      <trkpt lat="47.24182" lon="-1.61177">
        <ele>27.2</ele>
        <time>2014-04-27T07:37:39Z</time>
      </trkpt>
      <trkpt lat="47.24172" lon="-1.61182">
        <ele>26.8</ele>
        <time>2014-04-27T07:37:42Z</time>
      </trkpt>
      <trkpt lat="47.24161" lon="-1.61188">
        <ele>26.4</ele>
        <time>2014-04-27T07:37:45Z</time>
      </trkpt>
      <trkpt lat="47.24149" lon="-1.61195">
        <ele>26.2</ele>
        <time>2014-04-27T07:37:48Z</time>
      </trkpt>
      <trkpt lat="47.24141" lon="-1.612">
        <ele>25.8</ele>
        <time>2014-04-27T07:37:51Z</time>
      </trkpt>
      <trkpt lat="47.2413" lon="-1.61208">
        <ele>25.4</ele>
        <time>2014-04-27T07:37:55Z</time>
      </trkpt>
      <trkpt lat="47.24122" lon="-1.61216">
        <ele>24.9</ele>
        <time>2014-04-27T07:37:58Z</time>
      </trkpt>
      <trkpt lat="47.24113" lon="-1.61221">
        <ele>24.5</ele>
        <time>2014-04-27T07:38:01Z</time>
      </trkpt>
      <trkpt lat="47.24103" lon="-1.61226">
        <ele>24.3</ele>
        <time>2014-04-27T07:38:04Z</time>
      </trkpt>
      <trkpt lat="47.2409" lon="-1.61227">
        <ele>24.3</ele>
        <time>2014-04-27T07:38:07Z</time>
      </trkpt>
      <trkpt lat="47.24079" lon="-1.61225">
        <ele>24.1</ele>
        <time>2014-04-27T07:38:10Z</time>
      </trkpt>
      <trkpt lat="47.24055" lon="-1.61219">
        <ele>23.8</ele>
        <time>2014-04-27T07:38:15Z</time>
      </trkpt>
      <trkpt lat="47.24046" lon="-1.61217">
        <ele>23.5</ele>
        <time>2014-04-27T07:38:18Z</time>
      </trkpt>
      <trkpt lat="47.24041" lon="-1.61229">
        <ele>23.2</ele>
        <time>2014-04-27T07:38:21Z</time>
      </trkpt>
      <trkpt lat="47.24033" lon="-1.61239">
        <ele>22.8</ele>
        <time>2014-04-27T07:38:25Z</time>
      </trkpt>
      <trkpt lat="47.24023" lon="-1.6124">
        <ele>22.7</ele>
        <time>2014-04-27T07:38:29Z</time>
      </trkpt>
      <trkpt lat="47.24011" lon="-1.61237">
        <ele>22.3</ele>
        <time>2014-04-27T07:38:33Z</time>
      </trkpt>
      <trkpt lat="47.24" lon="-1.61231">
        <ele>21.8</ele>
        <time>2014-04-27T07:38:35Z</time>
      </trkpt>
      <trkpt lat="47.23986" lon="-1.61228">
        <ele>16.6</ele>
        <time>2014-04-27T07:38:37Z</time>
      </trkpt>
      <trkpt lat="47.23971" lon="-1.61227">
        <ele>14.3</ele>
        <time>2014-04-27T07:38:39Z</time>
      </trkpt>
      <trkpt lat="47.23959" lon="-1.61229">
        <ele>12.9</ele>
        <time>2014-04-27T07:38:41Z</time>
      </trkpt>
      <trkpt lat="47.2395" lon="-1.61229">
        <ele>11.2</ele>
        <time>2014-04-27T07:38:43Z</time>
      </trkpt>
      <trkpt lat="47.23938" lon="-1.61234">
        <ele>10.6</ele>
        <time>2014-04-27T07:38:45Z</time>
      </trkpt>
      <trkpt lat="47.23927" lon="-1.61238">
        <ele>9.8</ele>
        <time>2014-04-27T07:38:47Z</time>
      </trkpt>
      <trkpt lat="47.23917" lon="-1.61243">
        <ele>8.8</ele>
        <time>2014-04-27T07:38:49Z</time>
      </trkpt>
      <trkpt lat="47.23904" lon="-1.61249">
        <ele>9.4</ele>
        <time>2014-04-27T07:38:51Z</time>
      </trkpt>
      <trkpt lat="47.2389" lon="-1.61252">
        <ele>9.6</ele>
        <time>2014-04-27T07:38:53Z</time>
      </trkpt>
      <trkpt lat="47.23876" lon="-1.61257">
        <ele>9.5</ele>
        <time>2014-04-27T07:38:55Z</time>
      </trkpt>
      <trkpt lat="47.23862" lon="-1.61264">
        <ele>8.4</ele>
        <time>2014-04-27T07:38:57Z</time>
      </trkpt>
      <trkpt lat="47.23851" lon="-1.61274">
        <ele>6.3</ele>
        <time>2014-04-27T07:38:59Z</time>
      </trkpt>
      <trkpt lat="47.23841" lon="-1.61286">
        <ele>4.7</ele>
        <time>2014-04-27T07:39:01Z</time>
      </trkpt>
      <trkpt lat="47.23832" lon="-1.61295">
        <ele>3.8</ele>
        <time>2014-04-27T07:39:03Z</time>
      </trkpt>
      <trkpt lat="47.2382" lon="-1.61301">
        <ele>2.8</ele>
        <time>2014-04-27T07:39:06Z</time>
      </trkpt>
      <trkpt lat="47.23809" lon="-1.61311">
        <ele>2.3</ele>
        <time>2014-04-27T07:39:09Z</time>
      </trkpt>
      <trkpt lat="47.23802" lon="-1.61322">
        <ele>1.1</ele>
        <time>2014-04-27T07:39:13Z</time>
      </trkpt>
      <trkpt lat="47.23795" lon="-1.61354">
        <ele>0.2</ele>
        <time>2014-04-27T07:39:20Z</time>
      </trkpt>
      <trkpt lat="47.23793" lon="-1.61368">
        <ele>-0.2</ele>
        <time>2014-04-27T07:39:23Z</time>
      </trkpt>
      <trkpt lat="47.23793" lon="-1.61385">
        <ele>-0.6</ele>
        <time>2014-04-27T07:39:26Z</time>
      </trkpt>
      <trkpt lat="47.23793" lon="-1.614">
        <ele>-1</ele>
        <time>2014-04-27T07:39:29Z</time>
      </trkpt>
      <trkpt lat="47.23792" lon="-1.61415">
        <ele>-1.5</ele>
        <time>2014-04-27T07:39:32Z</time>
      </trkpt>
      <trkpt lat="47.23788" lon="-1.61428">
        <ele>-2.6</ele>
        <time>2014-04-27T07:39:34Z</time>
      </trkpt>
      <trkpt lat="47.23782" lon="-1.61447">
        <ele>-2.8</ele>
        <time>2014-04-27T07:39:36Z</time>
      </trkpt>
      <trkpt lat="47.23778" lon="-1.61458">
        <ele>-2.7</ele>
        <time>2014-04-27T07:39:37Z</time>
      </trkpt>
      <trkpt lat="47.23772" lon="-1.61474">
        <ele>-2.3</ele>
        <time>2014-04-27T07:39:39Z</time>
      </trkpt>
      <trkpt lat="47.23767" lon="-1.61486">
        <ele>-1.8</ele>
        <time>2014-04-27T07:39:41Z</time>
      </trkpt>
      <trkpt lat="47.23762" lon="-1.615">
        <ele>-0.9</ele>
        <time>2014-04-27T07:39:44Z</time>
      </trkpt>
      <trkpt lat="47.23759" lon="-1.61518">
        <ele>0.1</ele>
        <time>2014-04-27T07:39:47Z</time>
      </trkpt>
      <trkpt lat="47.23756" lon="-1.61533">
        <ele>0.5</ele>
        <time>2014-04-27T07:39:49Z</time>
      </trkpt>
      <trkpt lat="47.23754" lon="-1.61547">
        <ele>0.8</ele>
        <time>2014-04-27T07:39:52Z</time>
      </trkpt>
      <trkpt lat="47.23763" lon="-1.61556">
        <ele>1.3</ele>
        <time>2014-04-27T07:39:58Z</time>
      </trkpt>
      <trkpt lat="47.23772" lon="-1.61563">
        <ele>1.7</ele>
        <time>2014-04-27T07:40:01Z</time>
      </trkpt>
      <trkpt lat="47.23779" lon="-1.61572">
        <ele>2.5</ele>
        <time>2014-04-27T07:40:07Z</time>
      </trkpt>
      <trkpt lat="47.23779" lon="-1.61587">
        <ele>2.7</ele>
        <time>2014-04-27T07:40:14Z</time>
      </trkpt>
      <trkpt lat="47.23768" lon="-1.61615">
        <ele>3.7</ele>
        <time>2014-04-27T07:40:25Z</time>
      </trkpt>
      <trkpt lat="47.23764" lon="-1.61627">
        <ele>4.5</ele>
        <time>2014-04-27T07:40:28Z</time>
      </trkpt>
      <trkpt lat="47.23759" lon="-1.61642">
        <ele>5.6</ele>
        <time>2014-04-27T07:40:32Z</time>
      </trkpt>
      <trkpt lat="47.23758" lon="-1.61656">
        <ele>6.2</ele>
        <time>2014-04-27T07:40:36Z</time>
      </trkpt>
      <trkpt lat="47.23759" lon="-1.6167">
        <ele>6.8</ele>
        <time>2014-04-27T07:40:43Z</time>
      </trkpt>
      <trkpt lat="47.23758" lon="-1.61683">
        <ele>6.8</ele>
        <time>2014-04-27T07:40:48Z</time>
      </trkpt>
      <trkpt lat="47.2376" lon="-1.61697">
        <ele>7.8</ele>
        <time>2014-04-27T07:40:54Z</time>
      </trkpt>
      <trkpt lat="47.23767" lon="-1.61707">
        <ele>8.8</ele>
        <time>2014-04-27T07:40:59Z</time>
      </trkpt>
      <trkpt lat="47.23771" lon="-1.6172">
        <ele>9.8</ele>
        <time>2014-04-27T07:41:07Z</time>
      </trkpt>
      <trkpt lat="47.23774" lon="-1.61735">
        <ele>10.2</ele>
        <time>2014-04-27T07:41:12Z</time>
      </trkpt>
      <trkpt lat="47.23776" lon="-1.61749">
        <ele>10.9</ele>
        <time>2014-04-27T07:41:16Z</time>
      </trkpt>
      <trkpt lat="47.23786" lon="-1.61773">
        <ele>12</ele>
        <time>2014-04-27T07:41:25Z</time>
      </trkpt>
      <trkpt lat="47.23791" lon="-1.61785">
        <ele>11.8</ele>
        <time>2014-04-27T07:41:28Z</time>
      </trkpt>
      <trkpt lat="47.23796" lon="-1.618">
        <ele>12</ele>
        <time>2014-04-27T07:41:32Z</time>
      </trkpt>
      <trkpt lat="47.23802" lon="-1.61811">
        <ele>11.9</ele>
        <time>2014-04-27T07:41:34Z</time>
      </trkpt>
      <trkpt lat="47.23808" lon="-1.61822">
        <ele>11.6</ele>
        <time>2014-04-27T07:41:37Z</time>
      </trkpt>
      <trkpt lat="47.23814" lon="-1.61837">
        <ele>11.3</ele>
        <time>2014-04-27T07:41:42Z</time>
      </trkpt>
      <trkpt lat="47.23822" lon="-1.61848">
        <ele>11</ele>
        <time>2014-04-27T07:41:47Z</time>
      </trkpt>
      <trkpt lat="47.23827" lon="-1.61859">
        <ele>10.4</ele>
        <time>2014-04-27T07:41:51Z</time>
      </trkpt>
      <trkpt lat="47.23833" lon="-1.61871">
        <ele>9.8</ele>
        <time>2014-04-27T07:41:55Z</time>
      </trkpt>
      <trkpt lat="47.23834" lon="-1.61889">
        <ele>9.1</ele>
        <time>2014-04-27T07:41:59Z</time>
      </trkpt>
      <trkpt lat="47.23831" lon="-1.61902">
        <ele>7.9</ele>
        <time>2014-04-27T07:42:06Z</time>
      </trkpt>
      <trkpt lat="47.23837" lon="-1.61916">
        <ele>7.9</ele>
        <time>2014-04-27T07:42:10Z</time>
      </trkpt>
      <trkpt lat="47.23845" lon="-1.61926">
        <ele>7.9</ele>
        <time>2014-04-27T07:42:14Z</time>
      </trkpt>
      <trkpt lat="47.23851" lon="-1.61937">
        <ele>8.3</ele>
        <time>2014-04-27T07:42:19Z</time>
      </trkpt>
      <trkpt lat="47.23869" lon="-1.61953">
        <ele>8.3</ele>
        <time>2014-04-27T07:42:26Z</time>
      </trkpt>
      <trkpt lat="47.2388" lon="-1.61959">
        <ele>8.5</ele>
        <time>2014-04-27T07:42:29Z</time>
      </trkpt>
      <trkpt lat="47.23891" lon="-1.61964">
        <ele>8.7</ele>
        <time>2014-04-27T07:42:32Z</time>
      </trkpt>
      <trkpt lat="47.23904" lon="-1.61967">
        <ele>9.1</ele>
        <time>2014-04-27T07:42:35Z</time>
      </trkpt>
      <trkpt lat="47.23914" lon="-1.61967">
        <ele>9.6</ele>
        <time>2014-04-27T07:42:38Z</time>
      </trkpt>
      <trkpt lat="47.23925" lon="-1.61968">
        <ele>10.3</ele>
        <time>2014-04-27T07:42:41Z</time>
      </trkpt>
      <trkpt lat="47.23934" lon="-1.61971">
        <ele>11.1</ele>
        <time>2014-04-27T07:42:45Z</time>
      </trkpt>
      <trkpt lat="47.23946" lon="-1.61976">
        <ele>11.4</ele>
        <time>2014-04-27T07:42:49Z</time>
      </trkpt>
      <trkpt lat="47.23954" lon="-1.61981">
        <ele>11.5</ele>
        <time>2014-04-27T07:42:52Z</time>
      </trkpt>
      <trkpt lat="47.23966" lon="-1.6199">
        <ele>11.5</ele>
        <time>2014-04-27T07:42:55Z</time>
      </trkpt>
      <trkpt lat="47.23976" lon="-1.61999">
        <ele>11.4</ele>
        <time>2014-04-27T07:42:58Z</time>
      </trkpt>
      <trkpt lat="47.23985" lon="-1.62005">
        <ele>11.1</ele>
        <time>2014-04-27T07:43:01Z</time>
      </trkpt>
      <trkpt lat="47.23996" lon="-1.62011">
        <ele>10.7</ele>
        <time>2014-04-27T07:43:05Z</time>
      </trkpt>
      <trkpt lat="47.24006" lon="-1.62018">
        <ele>10.4</ele>
        <time>2014-04-27T07:43:08Z</time>
      </trkpt>
      <trkpt lat="47.24012" lon="-1.62028">
        <ele>10.1</ele>
        <time>2014-04-27T07:43:10Z</time>
      </trkpt>
      <trkpt lat="47.24016" lon="-1.62045">
        <ele>9.5</ele>
        <time>2014-04-27T07:43:13Z</time>
      </trkpt>
      <trkpt lat="47.24019" lon="-1.62061">
        <ele>8.8</ele>
        <time>2014-04-27T07:43:17Z</time>
      </trkpt>
      <trkpt lat="47.24021" lon="-1.62074">
        <ele>8.1</ele>
        <time>2014-04-27T07:43:20Z</time>
      </trkpt>
      <trkpt lat="47.24026" lon="-1.62105">
        <ele>4.3</ele>
        <time>2014-04-27T07:43:30Z</time>
      </trkpt>
      <trkpt lat="47.24028" lon="-1.62121">
        <ele>3.2</ele>
        <time>2014-04-27T07:43:33Z</time>
      </trkpt>
      <trkpt lat="47.24028" lon="-1.62138">
        <ele>2.1</ele>
        <time>2014-04-27T07:43:36Z</time>
      </trkpt>
      <trkpt lat="47.24024" lon="-1.62151">
        <ele>1.4</ele>
        <time>2014-04-27T07:43:40Z</time>
      </trkpt>
      <trkpt lat="47.24022" lon="-1.6217">
        <ele>1.4</ele>
        <time>2014-04-27T07:43:43Z</time>
      </trkpt>
      <trkpt lat="47.24021" lon="-1.62184">
        <ele>1.5</ele>
        <time>2014-04-27T07:43:45Z</time>
      </trkpt>
      <trkpt lat="47.2402" lon="-1.622">
        <ele>1.6</ele>
        <time>2014-04-27T07:43:47Z</time>
      </trkpt>
      <trkpt lat="47.24017" lon="-1.62214">
        <ele>1.8</ele>
        <time>2014-04-27T07:43:49Z</time>
      </trkpt>
      <trkpt lat="47.24015" lon="-1.62227">
        <ele>2.1</ele>
        <time>2014-04-27T07:43:51Z</time>
      </trkpt>
      <trkpt lat="47.24013" lon="-1.62242">
        <ele>2.8</ele>
        <time>2014-04-27T07:43:54Z</time>
      </trkpt>
      <trkpt lat="47.24013" lon="-1.62255">
        <ele>3.3</ele>
        <time>2014-04-27T07:43:57Z</time>
      </trkpt>
      <trkpt lat="47.24014" lon="-1.6227">
        <ele>4</ele>
        <time>2014-04-27T07:44:00Z</time>
      </trkpt>
      <trkpt lat="47.24015" lon="-1.62285">
        <ele>4.4</ele>
        <time>2014-04-27T07:44:03Z</time>
      </trkpt>
      <trkpt lat="47.24015" lon="-1.62299">
        <ele>5</ele>
        <time>2014-04-27T07:44:06Z</time>
      </trkpt>
      <trkpt lat="47.24013" lon="-1.62316">
        <ele>5.5</ele>
        <time>2014-04-27T07:44:09Z</time>
      </trkpt>
      <trkpt lat="47.24009" lon="-1.62332">
        <ele>6</ele>
        <time>2014-04-27T07:44:12Z</time>
      </trkpt>
      <trkpt lat="47.24009" lon="-1.62347">
        <ele>6</ele>
        <time>2014-04-27T07:44:15Z</time>
      </trkpt>
      <trkpt lat="47.2401" lon="-1.62364">
        <ele>5.9</ele>
        <time>2014-04-27T07:44:18Z</time>
      </trkpt>
      <trkpt lat="47.24014" lon="-1.62379">
        <ele>6.2</ele>
        <time>2014-04-27T07:44:22Z</time>
      </trkpt>
      <trkpt lat="47.24017" lon="-1.62409">
        <ele>7.5</ele>
        <time>2014-04-27T07:44:28Z</time>
      </trkpt>
      <trkpt lat="47.24012" lon="-1.62422">
        <ele>7.9</ele>
        <time>2014-04-27T07:44:32Z</time>
      </trkpt>
      <trkpt lat="47.24007" lon="-1.62437">
        <ele>8.2</ele>
        <time>2014-04-27T07:44:36Z</time>
      </trkpt>
      <trkpt lat="47.24012" lon="-1.62449">
        <ele>8.2</ele>
        <time>2014-04-27T07:44:40Z</time>
      </trkpt>
      <trkpt lat="47.2402" lon="-1.62459">
        <ele>8.4</ele>
        <time>2014-04-27T07:44:43Z</time>
      </trkpt>
      <trkpt lat="47.24027" lon="-1.62473">
        <ele>8.6</ele>
        <time>2014-04-27T07:44:46Z</time>
      </trkpt>
      <trkpt lat="47.24036" lon="-1.62484">
        <ele>8.7</ele>
        <time>2014-04-27T07:44:49Z</time>
      </trkpt>
      <trkpt lat="47.24045" lon="-1.62496">
        <ele>8.5</ele>
        <time>2014-04-27T07:44:52Z</time>
      </trkpt>
      <trkpt lat="47.24053" lon="-1.62507">
        <ele>8.1</ele>
        <time>2014-04-27T07:44:56Z</time>
      </trkpt>
      <trkpt lat="47.2406" lon="-1.62514">
        <ele>7.5</ele>
        <time>2014-04-27T07:45:00Z</time>
      </trkpt>
      <trkpt lat="47.24067" lon="-1.62524">
        <ele>7.4</ele>
        <time>2014-04-27T07:45:03Z</time>
      </trkpt>
      <trkpt lat="47.24075" lon="-1.62533">
        <ele>7.2</ele>
        <time>2014-04-27T07:45:06Z</time>
      </trkpt>
      <trkpt lat="47.24083" lon="-1.62539">
        <ele>7</ele>
        <time>2014-04-27T07:45:09Z</time>
      </trkpt>
      <trkpt lat="47.24093" lon="-1.62547">
        <ele>7.5</ele>
        <time>2014-04-27T07:45:13Z</time>
      </trkpt>
      <trkpt lat="47.24099" lon="-1.6256">
        <ele>7.5</ele>
        <time>2014-04-27T07:45:16Z</time>
      </trkpt>
      <trkpt lat="47.24101" lon="-1.62574">
        <ele>7.4</ele>
        <time>2014-04-27T07:45:19Z</time>
      </trkpt>
      <trkpt lat="47.24096" lon="-1.62587">
        <ele>7.4</ele>
        <time>2014-04-27T07:45:23Z</time>
      </trkpt>
      <trkpt lat="47.24086" lon="-1.62615">
        <ele>7.7</ele>
        <time>2014-04-27T07:45:30Z</time>
      </trkpt>
      <trkpt lat="47.24079" lon="-1.62629">
        <ele>7.8</ele>
        <time>2014-04-27T07:45:33Z</time>
      </trkpt>
      <trkpt lat="47.24073" lon="-1.6264">
        <ele>7.9</ele>
        <time>2014-04-27T07:45:36Z</time>
      </trkpt>
      <trkpt lat="47.24067" lon="-1.62653">
        <ele>7.9</ele>
        <time>2014-04-27T07:45:40Z</time>
      </trkpt>
      <trkpt lat="47.24061" lon="-1.62665">
        <ele>8.2</ele>
        <time>2014-04-27T07:45:44Z</time>
      </trkpt>
      <trkpt lat="47.2406" lon="-1.62679">
        <ele>8.3</ele>
        <time>2014-04-27T07:45:51Z</time>
      </trkpt>
      <trkpt lat="47.24067" lon="-1.62691">
        <ele>6.4</ele>
        <time>2014-04-27T07:46:00Z</time>
      </trkpt>
      <trkpt lat="47.24075" lon="-1.62702">
        <ele>5.9</ele>
        <time>2014-04-27T07:46:06Z</time>
      </trkpt>
      <trkpt lat="47.24083" lon="-1.62713">
        <ele>6.2</ele>
        <time>2014-04-27T07:46:11Z</time>
      </trkpt>
      <trkpt lat="47.24095" lon="-1.62724">
        <ele>6.9</ele>
        <time>2014-04-27T07:46:17Z</time>
      </trkpt>
      <trkpt lat="47.24101" lon="-1.62736">
        <ele>8.5</ele>
        <time>2014-04-27T07:46:39Z</time>
      </trkpt>
      <trkpt lat="47.24102" lon="-1.62764">
        <ele>7.8</ele>
        <time>2014-04-27T07:47:00Z</time>
      </trkpt>
      <trkpt lat="47.2411" lon="-1.62774">
        <ele>5.1</ele>
        <time>2014-04-27T07:56:34Z</time>
      </trkpt>
      <trkpt lat="47.24126" lon="-1.62792">
        <ele>6.5</ele>
        <time>2014-04-27T07:56:43Z</time>
      </trkpt>
      <trkpt lat="47.24132" lon="-1.62806">
        <ele>7.1</ele>
        <time>2014-04-27T07:56:47Z</time>
      </trkpt>
      <trkpt lat="47.24135" lon="-1.62821">
        <ele>7.7</ele>
        <time>2014-04-27T07:56:51Z</time>
      </trkpt>
      <trkpt lat="47.24142" lon="-1.62831">
        <ele>7.8</ele>
        <time>2014-04-27T07:56:55Z</time>
      </trkpt>
      <trkpt lat="47.24149" lon="-1.6284">
        <ele>7.7</ele>
        <time>2014-04-27T07:56:58Z</time>
      </trkpt>
      <trkpt lat="47.24156" lon="-1.62849">
        <ele>7.6</ele>
        <time>2014-04-27T07:57:01Z</time>
      </trkpt>
      <trkpt lat="47.24162" lon="-1.62863">
        <ele>7.5</ele>
        <time>2014-04-27T07:57:05Z</time>
      </trkpt>
      <trkpt lat="47.24168" lon="-1.62875">
        <ele>7.4</ele>
        <time>2014-04-27T07:57:08Z</time>
      </trkpt>
      <trkpt lat="47.24173" lon="-1.62888">
        <ele>7.2</ele>
        <time>2014-04-27T07:57:11Z</time>
      </trkpt>
      <trkpt lat="47.24177" lon="-1.629">
        <ele>7.1</ele>
        <time>2014-04-27T07:57:14Z</time>
      </trkpt>
      <trkpt lat="47.24183" lon="-1.62911">
        <ele>7</ele>
        <time>2014-04-27T07:57:17Z</time>
      </trkpt>
      <trkpt lat="47.2419" lon="-1.62926">
        <ele>6.6</ele>
        <time>2014-04-27T07:57:21Z</time>
      </trkpt>
      <trkpt lat="47.24197" lon="-1.62942">
        <ele>5.7</ele>
        <time>2014-04-27T07:57:25Z</time>
      </trkpt>
      <trkpt lat="47.24201" lon="-1.62956">
        <ele>4.9</ele>
        <time>2014-04-27T07:57:28Z</time>
      </trkpt>
      <trkpt lat="47.24205" lon="-1.62971">
        <ele>4.2</ele>
        <time>2014-04-27T07:57:32Z</time>
      </trkpt>
      <trkpt lat="47.24205" lon="-1.62985">
        <ele>4.1</ele>
        <time>2014-04-27T07:57:35Z</time>
      </trkpt>
      <trkpt lat="47.24203" lon="-1.63018">
        <ele>4.6</ele>
        <time>2014-04-27T07:57:40Z</time>
      </trkpt>
      <trkpt lat="47.24203" lon="-1.63034">
        <ele>4.9</ele>
        <time>2014-04-27T07:57:42Z</time>
      </trkpt>
      <trkpt lat="47.24203" lon="-1.63049">
        <ele>5.2</ele>
        <time>2014-04-27T07:57:44Z</time>
      </trkpt>
      <trkpt lat="47.24202" lon="-1.63063">
        <ele>5.5</ele>
        <time>2014-04-27T07:57:46Z</time>
      </trkpt>
      <trkpt lat="47.24204" lon="-1.63081">
        <ele>5.9</ele>
        <time>2014-04-27T07:57:49Z</time>
      </trkpt>
      <trkpt lat="47.24208" lon="-1.63095">
        <ele>6.2</ele>
        <time>2014-04-27T07:57:52Z</time>
      </trkpt>
      <trkpt lat="47.24213" lon="-1.6311">
        <ele>6.4</ele>
        <time>2014-04-27T07:57:55Z</time>
      </trkpt>
      <trkpt lat="47.24218" lon="-1.63124">
        <ele>6.2</ele>
        <time>2014-04-27T07:57:58Z</time>
      </trkpt>
      <trkpt lat="47.24222" lon="-1.63137">
        <ele>6.1</ele>
        <time>2014-04-27T07:58:01Z</time>
      </trkpt>
      <trkpt lat="47.2423" lon="-1.6315">
        <ele>6.4</ele>
        <time>2014-04-27T07:58:05Z</time>
      </trkpt>
      <trkpt lat="47.24237" lon="-1.63162">
        <ele>6.7</ele>
        <time>2014-04-27T07:58:09Z</time>
      </trkpt>
      <trkpt lat="47.24245" lon="-1.63173">
        <ele>6.9</ele>
        <time>2014-04-27T07:58:13Z</time>
      </trkpt>
      <trkpt lat="47.24253" lon="-1.63185">
        <ele>7.2</ele>
        <time>2014-04-27T07:58:16Z</time>
      </trkpt>
      <trkpt lat="47.24261" lon="-1.63193">
        <ele>7.4</ele>
        <time>2014-04-27T07:58:18Z</time>
      </trkpt>
      <trkpt lat="47.24271" lon="-1.63202">
        <ele>7.8</ele>
        <time>2014-04-27T07:58:21Z</time>
      </trkpt>
      <trkpt lat="47.2428" lon="-1.6321">
        <ele>8.2</ele>
        <time>2014-04-27T07:58:24Z</time>
      </trkpt>
      <trkpt lat="47.24292" lon="-1.63221">
        <ele>8.4</ele>
        <time>2014-04-27T07:58:27Z</time>
      </trkpt>
      <trkpt lat="47.243" lon="-1.63233">
        <ele>8.7</ele>
        <time>2014-04-27T07:58:30Z</time>
      </trkpt>
      <trkpt lat="47.2431" lon="-1.63248">
        <ele>9</ele>
        <time>2014-04-27T07:58:33Z</time>
      </trkpt>
      <trkpt lat="47.24316" lon="-1.63258">
        <ele>9.2</ele>
        <time>2014-04-27T07:58:35Z</time>
      </trkpt>
      <trkpt lat="47.24326" lon="-1.63271">
        <ele>9.3</ele>
        <time>2014-04-27T07:58:38Z</time>
      </trkpt>
      <trkpt lat="47.2434" lon="-1.63293">
        <ele>9.5</ele>
        <time>2014-04-27T07:58:45Z</time>
      </trkpt>
      <trkpt lat="47.2435" lon="-1.63298">
        <ele>9.9</ele>
        <time>2014-04-27T07:58:49Z</time>
      </trkpt>
      <trkpt lat="47.24358" lon="-1.63307">
        <ele>10.4</ele>
        <time>2014-04-27T07:58:53Z</time>
      </trkpt>
      <trkpt lat="47.24368" lon="-1.63319">
        <ele>10.4</ele>
        <time>2014-04-27T07:58:56Z</time>
      </trkpt>
      <trkpt lat="47.24375" lon="-1.6333">
        <ele>10.5</ele>
        <time>2014-04-27T07:58:58Z</time>
      </trkpt>
      <trkpt lat="47.24378" lon="-1.63343">
        <ele>10.8</ele>
        <time>2014-04-27T07:59:00Z</time>
      </trkpt>
      <trkpt lat="47.2438" lon="-1.6336">
        <ele>11.4</ele>
        <time>2014-04-27T07:59:03Z</time>
      </trkpt>
      <trkpt lat="47.24379" lon="-1.63378">
        <ele>11.8</ele>
        <time>2014-04-27T07:59:06Z</time>
      </trkpt>
      <trkpt lat="47.24374" lon="-1.63391">
        <ele>12.6</ele>
        <time>2014-04-27T07:59:09Z</time>
      </trkpt>
      <trkpt lat="47.24367" lon="-1.63404">
        <ele>12.7</ele>
        <time>2014-04-27T07:59:12Z</time>
      </trkpt>
      <trkpt lat="47.24373" lon="-1.63416">
        <ele>13</ele>
        <time>2014-04-27T07:59:17Z</time>
      </trkpt>
      <trkpt lat="47.24382" lon="-1.63423">
        <ele>14.7</ele>
        <time>2014-04-27T07:59:29Z</time>
      </trkpt>
      <trkpt lat="47.24387" lon="-1.63435">
        <ele>15.4</ele>
        <time>2014-04-27T07:59:34Z</time>
      </trkpt>
      <trkpt lat="47.24392" lon="-1.63449">
        <ele>15.8</ele>
        <time>2014-04-27T07:59:39Z</time>
      </trkpt>
      <trkpt lat="47.24398" lon="-1.63477">
        <ele>16</ele>
        <time>2014-04-27T07:59:46Z</time>
      </trkpt>
      <trkpt lat="47.24398" lon="-1.63491">
        <ele>16.1</ele>
        <time>2014-04-27T07:59:49Z</time>
      </trkpt>
      <trkpt lat="47.244" lon="-1.63504">
        <ele>16.3</ele>
        <time>2014-04-27T07:59:52Z</time>
      </trkpt>
      <trkpt lat="47.24395" lon="-1.63516">
        <ele>16.6</ele>
        <time>2014-04-27T07:59:55Z</time>
      </trkpt>
      <trkpt lat="47.2439" lon="-1.6353">
        <ele>16.6</ele>
        <time>2014-04-27T07:59:58Z</time>
      </trkpt>
      <trkpt lat="47.24388" lon="-1.63546">
        <ele>16.2</ele>
        <time>2014-04-27T08:00:01Z</time>
      </trkpt>
      <trkpt lat="47.24386" lon="-1.63563">
        <ele>16</ele>
        <time>2014-04-27T08:00:04Z</time>
      </trkpt>
      <trkpt lat="47.24386" lon="-1.6358">
        <ele>15.7</ele>
        <time>2014-04-27T08:00:06Z</time>
      </trkpt>
      <trkpt lat="47.24391" lon="-1.63597">
        <ele>14.9</ele>
        <time>2014-04-27T08:00:09Z</time>
      </trkpt>
      <trkpt lat="47.24394" lon="-1.63613">
        <ele>14</ele>
        <time>2014-04-27T08:00:13Z</time>
      </trkpt>
      <trkpt lat="47.24397" lon="-1.63626">
        <ele>14.1</ele>
        <time>2014-04-27T08:00:18Z</time>
      </trkpt>
      <trkpt lat="47.24398" lon="-1.6364">
        <ele>14.4</ele>
        <time>2014-04-27T08:00:23Z</time>
      </trkpt>
      <trkpt lat="47.24399" lon="-1.63654">
        <ele>14.2</ele>
        <time>2014-04-27T08:00:28Z</time>
      </trkpt>
      <trkpt lat="47.24398" lon="-1.63667">
        <ele>14.2</ele>
        <time>2014-04-27T08:00:33Z</time>
      </trkpt>
      <trkpt lat="47.24398" lon="-1.63683">
        <ele>14.1</ele>
        <time>2014-04-27T08:00:38Z</time>
      </trkpt>
      <trkpt lat="47.24396" lon="-1.637">
        <ele>14.1</ele>
        <time>2014-04-27T08:00:43Z</time>
      </trkpt>
      <trkpt lat="47.24391" lon="-1.63728">
        <ele>14.5</ele>
        <time>2014-04-27T08:00:51Z</time>
      </trkpt>
      <trkpt lat="47.24392" lon="-1.63742">
        <ele>14.7</ele>
        <time>2014-04-27T08:00:54Z</time>
      </trkpt>
      <trkpt lat="47.24398" lon="-1.63752">
        <ele>14.8</ele>
        <time>2014-04-27T08:01:02Z</time>
      </trkpt>
      <trkpt lat="47.24403" lon="-1.63741">
        <ele>15.1</ele>
        <time>2014-04-27T08:01:07Z</time>
      </trkpt>
      <trkpt lat="47.24409" lon="-1.63726">
        <ele>15.3</ele>
        <time>2014-04-27T08:01:13Z</time>
      </trkpt>
      <trkpt lat="47.24417" lon="-1.63733">
        <ele>14.7</ele>
        <time>2014-04-27T08:01:24Z</time>
      </trkpt>
      <trkpt lat="47.24427" lon="-1.63737">
        <ele>15.4</ele>
        <time>2014-04-27T08:01:28Z</time>
      </trkpt>
      <trkpt lat="47.24435" lon="-1.63743">
        <ele>16</ele>
        <time>2014-04-27T08:01:32Z</time>
      </trkpt>
      <trkpt lat="47.24443" lon="-1.6375">
        <ele>16.8</ele>
        <time>2014-04-27T08:01:37Z</time>
      </trkpt>
      <trkpt lat="47.24453" lon="-1.63757">
        <ele>17.6</ele>
        <time>2014-04-27T08:01:41Z</time>
      </trkpt>
      <trkpt lat="47.24463" lon="-1.63763">
        <ele>18.2</ele>
        <time>2014-04-27T08:01:45Z</time>
      </trkpt>
      <trkpt lat="47.24482" lon="-1.63778">
        <ele>19.1</ele>
        <time>2014-04-27T08:01:53Z</time>
      </trkpt>
      <trkpt lat="47.24492" lon="-1.63782">
        <ele>19.2</ele>
        <time>2014-04-27T08:01:57Z</time>
      </trkpt>
      <trkpt lat="47.24501" lon="-1.63785">
        <ele>19.3</ele>
        <time>2014-04-27T08:02:01Z</time>
      </trkpt>
      <trkpt lat="47.24511" lon="-1.63793">
        <ele>19.4</ele>
        <time>2014-04-27T08:02:05Z</time>
      </trkpt>
      <trkpt lat="47.24522" lon="-1.63799">
        <ele>19.3</ele>
        <time>2014-04-27T08:02:09Z</time>
      </trkpt>
      <trkpt lat="47.24533" lon="-1.63801">
        <ele>18.8</ele>
        <time>2014-04-27T08:02:13Z</time>
      </trkpt>
      <trkpt lat="47.24545" lon="-1.63801">
        <ele>19</ele>
        <time>2014-04-27T08:02:18Z</time>
      </trkpt>
      <trkpt lat="47.24554" lon="-1.638">
        <ele>19.2</ele>
        <time>2014-04-27T08:02:22Z</time>
      </trkpt>
      <trkpt lat="47.24566" lon="-1.63796">
        <ele>19.4</ele>
        <time>2014-04-27T08:02:25Z</time>
      </trkpt>
      <trkpt lat="47.24575" lon="-1.6379">
        <ele>19.6</ele>
        <time>2014-04-27T08:02:28Z</time>
      </trkpt>
      <trkpt lat="47.24582" lon="-1.63782">
        <ele>19.7</ele>
        <time>2014-04-27T08:02:31Z</time>
      </trkpt>
      <trkpt lat="47.24591" lon="-1.63776">
        <ele>20.1</ele>
        <time>2014-04-27T08:02:35Z</time>
      </trkpt>
      <trkpt lat="47.246" lon="-1.63772">
        <ele>21.1</ele>
        <time>2014-04-27T08:02:39Z</time>
      </trkpt>
      <trkpt lat="47.24609" lon="-1.63765">
        <ele>21.9</ele>
        <time>2014-04-27T08:02:44Z</time>
      </trkpt>
      <trkpt lat="47.2462" lon="-1.63763">
        <ele>22.4</ele>
        <time>2014-04-27T08:02:48Z</time>
      </trkpt>
      <trkpt lat="47.2464" lon="-1.6377">
        <ele>23.2</ele>
        <time>2014-04-27T08:02:54Z</time>
      </trkpt>
      <trkpt lat="47.2465" lon="-1.6378">
        <ele>23.8</ele>
        <time>2014-04-27T08:02:57Z</time>
      </trkpt>
      <trkpt lat="47.24658" lon="-1.63789">
        <ele>24.3</ele>
        <time>2014-04-27T08:03:00Z</time>
      </trkpt>
      <trkpt lat="47.24668" lon="-1.63797">
        <ele>24.9</ele>
        <time>2014-04-27T08:03:03Z</time>
      </trkpt>
      <trkpt lat="47.24678" lon="-1.63799">
        <ele>25.6</ele>
        <time>2014-04-27T08:03:06Z</time>
      </trkpt>
      <trkpt lat="47.24688" lon="-1.63795">
        <ele>26.3</ele>
        <time>2014-04-27T08:03:09Z</time>
      </trkpt>
      <trkpt lat="47.24697" lon="-1.63789">
        <ele>27.2</ele>
        <time>2014-04-27T08:03:12Z</time>
      </trkpt>
      <trkpt lat="47.24705" lon="-1.6378">
        <ele>28</ele>
        <time>2014-04-27T08:03:15Z</time>
      </trkpt>
      <trkpt lat="47.24711" lon="-1.63766">
        <ele>28.8</ele>
        <time>2014-04-27T08:03:19Z</time>
      </trkpt>
      <trkpt lat="47.24716" lon="-1.63753">
        <ele>29.2</ele>
        <time>2014-04-27T08:03:23Z</time>
      </trkpt>
      <trkpt lat="47.24722" lon="-1.63741">
        <ele>29.5</ele>
        <time>2014-04-27T08:03:28Z</time>
      </trkpt>
      <trkpt lat="47.24728" lon="-1.63727">
        <ele>29.7</ele>
        <time>2014-04-27T08:03:33Z</time>
      </trkpt>
      <trkpt lat="47.24735" lon="-1.63716">
        <ele>30.4</ele>
        <time>2014-04-27T08:03:38Z</time>
      </trkpt>
      <trkpt lat="47.24744" lon="-1.63715">
        <ele>30.9</ele>
        <time>2014-04-27T08:03:43Z</time>
      </trkpt>
      <trkpt lat="47.24753" lon="-1.63716">
        <ele>31.1</ele>
        <time>2014-04-27T08:03:46Z</time>
      </trkpt>
      <trkpt lat="47.24762" lon="-1.6372">
        <ele>31.6</ele>
        <time>2014-04-27T08:03:50Z</time>
      </trkpt>
      <trkpt lat="47.2478" lon="-1.63733">
        <ele>32.5</ele>
        <time>2014-04-27T08:04:00Z</time>
      </trkpt>
      <trkpt lat="47.24789" lon="-1.63735">
        <ele>32.5</ele>
        <time>2014-04-27T08:04:05Z</time>
      </trkpt>
      <trkpt lat="47.24799" lon="-1.63739">
        <ele>31.8</ele>
        <time>2014-04-27T08:04:10Z</time>
      </trkpt>
      <trkpt lat="47.24808" lon="-1.63744">
        <ele>31</ele>
        <time>2014-04-27T08:04:14Z</time>
      </trkpt>
      <trkpt lat="47.24818" lon="-1.63749">
        <ele>30</ele>
        <time>2014-04-27T08:04:18Z</time>
      </trkpt>
      <trkpt lat="47.24828" lon="-1.63754">
        <ele>29.2</ele>
        <time>2014-04-27T08:04:23Z</time>
      </trkpt>
      <trkpt lat="47.24839" lon="-1.63758">
        <ele>28.6</ele>
        <time>2014-04-27T08:04:27Z</time>
      </trkpt>
      <trkpt lat="47.24849" lon="-1.63761">
        <ele>28.5</ele>
        <time>2014-04-27T08:04:30Z</time>
      </trkpt>
      <trkpt lat="47.24859" lon="-1.63766">
        <ele>28.5</ele>
        <time>2014-04-27T08:04:35Z</time>
      </trkpt>
      <trkpt lat="47.24867" lon="-1.63773">
        <ele>28.3</ele>
        <time>2014-04-27T08:04:38Z</time>
      </trkpt>
      <trkpt lat="47.24875" lon="-1.6378">
        <ele>28.3</ele>
        <time>2014-04-27T08:04:42Z</time>
      </trkpt>
      <trkpt lat="47.24885" lon="-1.63785">
        <ele>29</ele>
        <time>2014-04-27T08:04:44Z</time>
      </trkpt>
      <trkpt lat="47.24895" lon="-1.63789">
        <ele>29.9</ele>
        <time>2014-04-27T08:04:46Z</time>
      </trkpt>
      <trkpt lat="47.24905" lon="-1.63793">
        <ele>30.7</ele>
        <time>2014-04-27T08:04:48Z</time>
      </trkpt>
      <trkpt lat="47.24916" lon="-1.63796">
        <ele>32</ele>
        <time>2014-04-27T08:04:51Z</time>
      </trkpt>
      <trkpt lat="47.24939" lon="-1.63799">
        <ele>34.4</ele>
        <time>2014-04-27T08:04:57Z</time>
      </trkpt>
      <trkpt lat="47.24948" lon="-1.63805">
        <ele>35.4</ele>
        <time>2014-04-27T08:05:00Z</time>
      </trkpt>
      <trkpt lat="47.24956" lon="-1.63821">
        <ele>36.3</ele>
        <time>2014-04-27T08:05:03Z</time>
      </trkpt>
      <trkpt lat="47.2496" lon="-1.63836">
        <ele>37.3</ele>
        <time>2014-04-27T08:05:06Z</time>
      </trkpt>
      <trkpt lat="47.24964" lon="-1.63849">
        <ele>38.2</ele>
        <time>2014-04-27T08:05:09Z</time>
      </trkpt>
      <trkpt lat="47.24968" lon="-1.63863">
        <ele>38.9</ele>
        <time>2014-04-27T08:05:12Z</time>
      </trkpt>
      <trkpt lat="47.24973" lon="-1.63877">
        <ele>39.6</ele>
        <time>2014-04-27T08:05:15Z</time>
      </trkpt>
      <trkpt lat="47.24979" lon="-1.6389">
        <ele>40.3</ele>
        <time>2014-04-27T08:05:18Z</time>
      </trkpt>
      <trkpt lat="47.24984" lon="-1.63904">
        <ele>40.9</ele>
        <time>2014-04-27T08:05:21Z</time>
      </trkpt>
      <trkpt lat="47.24989" lon="-1.63917">
        <ele>41.5</ele>
        <time>2014-04-27T08:05:24Z</time>
      </trkpt>
      <trkpt lat="47.24995" lon="-1.6393">
        <ele>42</ele>
        <time>2014-04-27T08:05:28Z</time>
      </trkpt>
      <trkpt lat="47.25003" lon="-1.63945">
        <ele>42</ele>
        <time>2014-04-27T08:05:31Z</time>
      </trkpt>
      <trkpt lat="47.25012" lon="-1.63952">
        <ele>41.7</ele>
        <time>2014-04-27T08:05:34Z</time>
      </trkpt>
      <trkpt lat="47.25021" lon="-1.63948">
        <ele>41.5</ele>
        <time>2014-04-27T08:05:37Z</time>
      </trkpt>
      <trkpt lat="47.25029" lon="-1.63941">
        <ele>41.3</ele>
        <time>2014-04-27T08:05:39Z</time>
      </trkpt>
      <trkpt lat="47.25037" lon="-1.63929">
        <ele>41.2</ele>
        <time>2014-04-27T08:05:42Z</time>
      </trkpt>
      <trkpt lat="47.25047" lon="-1.63919">
        <ele>41.2</ele>
        <time>2014-04-27T08:05:45Z</time>
      </trkpt>
      <trkpt lat="47.25056" lon="-1.63913">
        <ele>41.5</ele>
        <time>2014-04-27T08:05:48Z</time>
      </trkpt>
      <trkpt lat="47.25066" lon="-1.63905">
        <ele>41.5</ele>
        <time>2014-04-27T08:05:51Z</time>
      </trkpt>
      <trkpt lat="47.25077" lon="-1.63896">
        <ele>41.7</ele>
        <time>2014-04-27T08:05:53Z</time>
      </trkpt>
      <trkpt lat="47.25093" lon="-1.63875">
        <ele>41.8</ele>
        <time>2014-04-27T08:05:58Z</time>
      </trkpt>
      <trkpt lat="47.25101" lon="-1.63861">
        <ele>41.9</ele>
        <time>2014-04-27T08:06:01Z</time>
      </trkpt>
      <trkpt lat="47.25105" lon="-1.63849">
        <ele>42</ele>
        <time>2014-04-27T08:06:03Z</time>
      </trkpt>
      <trkpt lat="47.25111" lon="-1.63838">
        <ele>41.9</ele>
        <time>2014-04-27T08:06:05Z</time>
      </trkpt>
      <trkpt lat="47.25118" lon="-1.63826">
        <ele>41.9</ele>
        <time>2014-04-27T08:06:07Z</time>
      </trkpt>
      <trkpt lat="47.25126" lon="-1.63814">
        <ele>42.5</ele>
        <time>2014-04-27T08:06:09Z</time>
      </trkpt>
      <trkpt lat="47.25137" lon="-1.63804">
        <ele>42</ele>
        <time>2014-04-27T08:06:12Z</time>
      </trkpt>
      <trkpt lat="47.25149" lon="-1.63797">
        <ele>41.7</ele>
        <time>2014-04-27T08:06:15Z</time>
      </trkpt>
      <trkpt lat="47.25159" lon="-1.63793">
        <ele>41.7</ele>
        <time>2014-04-27T08:06:17Z</time>
      </trkpt>
      <trkpt lat="47.25172" lon="-1.63789">
        <ele>41.8</ele>
        <time>2014-04-27T08:06:19Z</time>
      </trkpt>
      <trkpt lat="47.25184" lon="-1.63792">
        <ele>41.8</ele>
        <time>2014-04-27T08:06:22Z</time>
      </trkpt>
      <trkpt lat="47.25196" lon="-1.63796">
        <ele>41.8</ele>
        <time>2014-04-27T08:06:25Z</time>
      </trkpt>
      <trkpt lat="47.25208" lon="-1.63804">
        <ele>41.7</ele>
        <time>2014-04-27T08:06:28Z</time>
      </trkpt>
      <trkpt lat="47.25215" lon="-1.63812">
        <ele>41.7</ele>
        <time>2014-04-27T08:06:30Z</time>
      </trkpt>
      <trkpt lat="47.25225" lon="-1.63821">
        <ele>41.4</ele>
        <time>2014-04-27T08:06:33Z</time>
      </trkpt>
      <trkpt lat="47.25235" lon="-1.63824">
        <ele>41.1</ele>
        <time>2014-04-27T08:06:36Z</time>
      </trkpt>
      <trkpt lat="47.25244" lon="-1.63823">
        <ele>40.9</ele>
        <time>2014-04-27T08:06:39Z</time>
      </trkpt>
      <trkpt lat="47.25255" lon="-1.63816">
        <ele>40.4</ele>
        <time>2014-04-27T08:06:42Z</time>
      </trkpt>
      <trkpt lat="47.25264" lon="-1.63811">
        <ele>40.1</ele>
        <time>2014-04-27T08:06:44Z</time>
      </trkpt>
      <trkpt lat="47.25274" lon="-1.63802">
        <ele>39.6</ele>
        <time>2014-04-27T08:06:47Z</time>
      </trkpt>
      <trkpt lat="47.25285" lon="-1.63792">
        <ele>39.2</ele>
        <time>2014-04-27T08:06:51Z</time>
      </trkpt>
      <trkpt lat="47.25292" lon="-1.63782">
        <ele>38.9</ele>
        <time>2014-04-27T08:06:55Z</time>
      </trkpt>
      <trkpt lat="47.25302" lon="-1.63756">
        <ele>39.6</ele>
        <time>2014-04-27T08:07:03Z</time>
      </trkpt>
      <trkpt lat="47.25304" lon="-1.63742">
        <ele>39.7</ele>
        <time>2014-04-27T08:07:07Z</time>
      </trkpt>
      <trkpt lat="47.25297" lon="-1.63732">
        <ele>40</ele>
        <time>2014-04-27T08:07:14Z</time>
      </trkpt>
      <trkpt lat="47.25287" lon="-1.63732">
        <ele>39.9</ele>
        <time>2014-04-27T08:07:18Z</time>
      </trkpt>
      <trkpt lat="47.25276" lon="-1.63735">
        <ele>39.8</ele>
        <time>2014-04-27T08:07:22Z</time>
      </trkpt>
      <trkpt lat="47.25265" lon="-1.63733">
        <ele>39.9</ele>
        <time>2014-04-27T08:07:27Z</time>
      </trkpt>
      <trkpt lat="47.25257" lon="-1.63726">
        <ele>40</ele>
        <time>2014-04-27T08:07:30Z</time>
      </trkpt>
      <trkpt lat="47.25249" lon="-1.6372">
        <ele>40.4</ele>
        <time>2014-04-27T08:07:36Z</time>
      </trkpt>
      <trkpt lat="47.25238" lon="-1.63713">
        <ele>41.2</ele>
        <time>2014-04-27T08:07:42Z</time>
      </trkpt>
      <trkpt lat="47.2523" lon="-1.63706">
        <ele>41.5</ele>
        <time>2014-04-27T08:07:45Z</time>
      </trkpt>
      <trkpt lat="47.25222" lon="-1.63697">
        <ele>41.7</ele>
        <time>2014-04-27T08:07:49Z</time>
      </trkpt>
      <trkpt lat="47.25213" lon="-1.63692">
        <ele>41.9</ele>
        <time>2014-04-27T08:07:52Z</time>
      </trkpt>
      <trkpt lat="47.25204" lon="-1.63686">
        <ele>42.9</ele>
        <time>2014-04-27T08:07:57Z</time>
      </trkpt>
      <trkpt lat="47.25188" lon="-1.63663">
        <ele>45.2</ele>
        <time>2014-04-27T08:08:09Z</time>
      </trkpt>
      <trkpt lat="47.25181" lon="-1.63651">
        <ele>45.7</ele>
        <time>2014-04-27T08:08:15Z</time>
      </trkpt>
      <trkpt lat="47.25172" lon="-1.63644">
        <ele>46.2</ele>
        <time>2014-04-27T08:08:22Z</time>
      </trkpt>
      <trkpt lat="47.25162" lon="-1.63643">
        <ele>46.4</ele>
        <time>2014-04-27T08:08:25Z</time>
      </trkpt>
      <trkpt lat="47.2515" lon="-1.6364">
        <ele>46.4</ele>
        <time>2014-04-27T08:08:28Z</time>
      </trkpt>
      <trkpt lat="47.25144" lon="-1.63628">
        <ele>46.4</ele>
        <time>2014-04-27T08:08:33Z</time>
      </trkpt>
      <trkpt lat="47.25144" lon="-1.63612">
        <ele>46.2</ele>
        <time>2014-04-27T08:08:39Z</time>
      </trkpt>
      <trkpt lat="47.25145" lon="-1.63597">
        <ele>46.2</ele>
        <time>2014-04-27T08:08:44Z</time>
      </trkpt>
      <trkpt lat="47.25146" lon="-1.63582">
        <ele>46.2</ele>
        <time>2014-04-27T08:08:48Z</time>
      </trkpt>
      <trkpt lat="47.25147" lon="-1.63569">
        <ele>46.4</ele>
        <time>2014-04-27T08:08:52Z</time>
      </trkpt>
      <trkpt lat="47.25148" lon="-1.63554">
        <ele>46.6</ele>
        <time>2014-04-27T08:08:58Z</time>
      </trkpt>
      <trkpt lat="47.25159" lon="-1.6353">
        <ele>46.8</ele>
        <time>2014-04-27T08:09:07Z</time>
      </trkpt>
      <trkpt lat="47.25168" lon="-1.63527">
        <ele>47</ele>
        <time>2014-04-27T08:09:12Z</time>
      </trkpt>
      <trkpt lat="47.25178" lon="-1.63522">
        <ele>47</ele>
        <time>2014-04-27T08:09:16Z</time>
      </trkpt>
      <trkpt lat="47.25189" lon="-1.63515">
        <ele>47</ele>
        <time>2014-04-27T08:09:21Z</time>
      </trkpt>
      <trkpt lat="47.25197" lon="-1.63511">
        <ele>46.8</ele>
        <time>2014-04-27T08:09:25Z</time>
      </trkpt>
      <trkpt lat="47.25209" lon="-1.63517">
        <ele>46.9</ele>
        <time>2014-04-27T08:09:30Z</time>
      </trkpt>
      <trkpt lat="47.25218" lon="-1.63526">
        <ele>46.7</ele>
        <time>2014-04-27T08:09:33Z</time>
      </trkpt>
      <trkpt lat="47.25225" lon="-1.63534">
        <ele>46.5</ele>
        <time>2014-04-27T08:09:36Z</time>
      </trkpt>
      <trkpt lat="47.25232" lon="-1.63544">
        <ele>46.5</ele>
        <time>2014-04-27T08:09:39Z</time>
      </trkpt>
      <trkpt lat="47.25242" lon="-1.63556">
        <ele>46.2</ele>
        <time>2014-04-27T08:09:42Z</time>
      </trkpt>
      <trkpt lat="47.25251" lon="-1.63567">
        <ele>46.1</ele>
        <time>2014-04-27T08:09:45Z</time>
      </trkpt>
      <trkpt lat="47.25261" lon="-1.63576">
        <ele>46.2</ele>
        <time>2014-04-27T08:09:48Z</time>
      </trkpt>
      <trkpt lat="47.2527" lon="-1.63583">
        <ele>46.2</ele>
        <time>2014-04-27T08:09:51Z</time>
      </trkpt>
      <trkpt lat="47.25278" lon="-1.63592">
        <ele>46.3</ele>
        <time>2014-04-27T08:09:54Z</time>
      </trkpt>
      <trkpt lat="47.25287" lon="-1.63601">
        <ele>46.2</ele>
        <time>2014-04-27T08:09:56Z</time>
      </trkpt>
      <trkpt lat="47.25294" lon="-1.63609">
        <ele>46</ele>
        <time>2014-04-27T08:09:58Z</time>
      </trkpt>
      <trkpt lat="47.25303" lon="-1.63618">
        <ele>45.9</ele>
        <time>2014-04-27T08:10:01Z</time>
      </trkpt>
      <trkpt lat="47.25315" lon="-1.63643">
        <ele>46.3</ele>
        <time>2014-04-27T08:10:07Z</time>
      </trkpt>
      <trkpt lat="47.25312" lon="-1.63657">
        <ele>46.7</ele>
        <time>2014-04-27T08:10:10Z</time>
      </trkpt>
      <trkpt lat="47.2531" lon="-1.63671">
        <ele>46.7</ele>
        <time>2014-04-27T08:10:12Z</time>
      </trkpt>
      <trkpt lat="47.25308" lon="-1.63688">
        <ele>46.8</ele>
        <time>2014-04-27T08:10:14Z</time>
      </trkpt>
      <trkpt lat="47.25306" lon="-1.63707">
        <ele>48</ele>
        <time>2014-04-27T08:10:17Z</time>
      </trkpt>
      <trkpt lat="47.25306" lon="-1.63723">
        <ele>47.8</ele>
        <time>2014-04-27T08:10:20Z</time>
      </trkpt>
      <trkpt lat="47.2531" lon="-1.6374">
        <ele>47.5</ele>
        <time>2014-04-27T08:10:23Z</time>
      </trkpt>
      <trkpt lat="47.25312" lon="-1.63754">
        <ele>47.1</ele>
        <time>2014-04-27T08:10:26Z</time>
      </trkpt>
      <trkpt lat="47.25312" lon="-1.63768">
        <ele>46.8</ele>
        <time>2014-04-27T08:10:29Z</time>
      </trkpt>
      <trkpt lat="47.25316" lon="-1.63785">
        <ele>46</ele>
        <time>2014-04-27T08:10:33Z</time>
      </trkpt>
      <trkpt lat="47.25317" lon="-1.638">
        <ele>45.3</ele>
        <time>2014-04-27T08:10:36Z</time>
      </trkpt>
      <trkpt lat="47.25316" lon="-1.63817">
        <ele>44.3</ele>
        <time>2014-04-27T08:10:39Z</time>
      </trkpt>
      <trkpt lat="47.25316" lon="-1.63831">
        <ele>43.6</ele>
        <time>2014-04-27T08:10:41Z</time>
      </trkpt>
      <trkpt lat="47.25312" lon="-1.63844">
        <ele>42.5</ele>
        <time>2014-04-27T08:10:44Z</time>
      </trkpt>
      <trkpt lat="47.25304" lon="-1.63853">
        <ele>41.9</ele>
        <time>2014-04-27T08:10:47Z</time>
      </trkpt>
      <trkpt lat="47.25294" lon="-1.6386">
        <ele>40.1</ele>
        <time>2014-04-27T08:10:49Z</time>
      </trkpt>
      <trkpt lat="47.25283" lon="-1.63864">
        <ele>40.3</ele>
        <time>2014-04-27T08:10:51Z</time>
      </trkpt>
      <trkpt lat="47.25271" lon="-1.63868">
        <ele>41.3</ele>
        <time>2014-04-27T08:10:53Z</time>
      </trkpt>
      <trkpt lat="47.2526" lon="-1.63873">
        <ele>37.9</ele>
        <time>2014-04-27T08:10:55Z</time>
      </trkpt>
      <trkpt lat="47.2525" lon="-1.63878">
        <ele>37.4</ele>
        <time>2014-04-27T08:10:57Z</time>
      </trkpt>
      <trkpt lat="47.2524" lon="-1.63886">
        <ele>36.9</ele>
        <time>2014-04-27T08:10:59Z</time>
      </trkpt>
      <trkpt lat="47.25231" lon="-1.63897">
        <ele>36.3</ele>
        <time>2014-04-27T08:11:01Z</time>
      </trkpt>
      <trkpt lat="47.25222" lon="-1.63909">
        <ele>35.7</ele>
        <time>2014-04-27T08:11:04Z</time>
      </trkpt>
      <trkpt lat="47.2521" lon="-1.63931">
        <ele>32.8</ele>
        <time>2014-04-27T08:11:08Z</time>
      </trkpt>
      <trkpt lat="47.25203" lon="-1.63944">
        <ele>29.8</ele>
        <time>2014-04-27T08:11:10Z</time>
      </trkpt>
      <trkpt lat="47.25196" lon="-1.63957">
        <ele>27.5</ele>
        <time>2014-04-27T08:11:12Z</time>
      </trkpt>
      <trkpt lat="47.2519" lon="-1.63969">
        <ele>27.3</ele>
        <time>2014-04-27T08:11:14Z</time>
      </trkpt>
      <trkpt lat="47.25185" lon="-1.63986">
        <ele>26.9</ele>
        <time>2014-04-27T08:11:17Z</time>
      </trkpt>
      <trkpt lat="47.25179" lon="-1.63999">
        <ele>26.6</ele>
        <time>2014-04-27T08:11:20Z</time>
      </trkpt>
      <trkpt lat="47.25172" lon="-1.64013">
        <ele>22.4</ele>
        <time>2014-04-27T08:11:23Z</time>
      </trkpt>
      <trkpt lat="47.25163" lon="-1.64027">
        <ele>21.8</ele>
        <time>2014-04-27T08:11:26Z</time>
      </trkpt>
      <trkpt lat="47.25154" lon="-1.64041">
        <ele>21.3</ele>
        <time>2014-04-27T08:11:29Z</time>
      </trkpt>
      <trkpt lat="47.25148" lon="-1.64052">
        <ele>21.2</ele>
        <time>2014-04-27T08:11:31Z</time>
      </trkpt>
      <trkpt lat="47.25144" lon="-1.64065">
        <ele>21.2</ele>
        <time>2014-04-27T08:11:33Z</time>
      </trkpt>
      <trkpt lat="47.25139" lon="-1.64081">
        <ele>21.4</ele>
        <time>2014-04-27T08:11:36Z</time>
      </trkpt>
      <trkpt lat="47.25133" lon="-1.64099">
        <ele>21.7</ele>
        <time>2014-04-27T08:11:39Z</time>
      </trkpt>
      <trkpt lat="47.25128" lon="-1.6411">
        <ele>22</ele>
        <time>2014-04-27T08:11:41Z</time>
      </trkpt>
      <trkpt lat="47.25119" lon="-1.64125">
        <ele>22.4</ele>
        <time>2014-04-27T08:11:44Z</time>
      </trkpt>
      <trkpt lat="47.25108" lon="-1.64138">
        <ele>22.7</ele>
        <time>2014-04-27T08:11:47Z</time>
      </trkpt>
      <trkpt lat="47.25099" lon="-1.64148">
        <ele>23.3</ele>
        <time>2014-04-27T08:11:50Z</time>
      </trkpt>
      <trkpt lat="47.2509" lon="-1.6416">
        <ele>23.7</ele>
        <time>2014-04-27T08:11:53Z</time>
      </trkpt>
      <trkpt lat="47.25082" lon="-1.64171">
        <ele>23.7</ele>
        <time>2014-04-27T08:11:56Z</time>
      </trkpt>
      <trkpt lat="47.25074" lon="-1.64182">
        <ele>24.1</ele>
        <time>2014-04-27T08:12:00Z</time>
      </trkpt>
      <trkpt lat="47.25064" lon="-1.64181">
        <ele>24.5</ele>
        <time>2014-04-27T08:12:02Z</time>
      </trkpt>
      <trkpt lat="47.25053" lon="-1.64178">
        <ele>25.3</ele>
        <time>2014-04-27T08:12:04Z</time>
      </trkpt>
      <trkpt lat="47.25042" lon="-1.64177">
        <ele>26.5</ele>
        <time>2014-04-27T08:12:07Z</time>
      </trkpt>
      <trkpt lat="47.25021" lon="-1.64183">
        <ele>37.3</ele>
        <time>2014-04-27T08:12:12Z</time>
      </trkpt>
      <trkpt lat="47.25011" lon="-1.64187">
        <ele>41.6</ele>
        <time>2014-04-27T08:12:14Z</time>
      </trkpt>
      <trkpt lat="47.25002" lon="-1.6419">
        <ele>44.8</ele>
        <time>2014-04-27T08:12:16Z</time>
      </trkpt>
      <trkpt lat="47.24993" lon="-1.64194">
        <ele>47.3</ele>
        <time>2014-04-27T08:12:18Z</time>
      </trkpt>
      <trkpt lat="47.24984" lon="-1.64198">
        <ele>47.8</ele>
        <time>2014-04-27T08:12:20Z</time>
      </trkpt>
      <trkpt lat="47.24972" lon="-1.64203">
        <ele>46.5</ele>
        <time>2014-04-27T08:12:23Z</time>
      </trkpt>
      <trkpt lat="47.24963" lon="-1.64208">
        <ele>46.9</ele>
        <time>2014-04-27T08:12:25Z</time>
      </trkpt>
      <trkpt lat="47.2495" lon="-1.64214">
        <ele>47</ele>
        <time>2014-04-27T08:12:28Z</time>
      </trkpt>
      <trkpt lat="47.2494" lon="-1.6422">
        <ele>46.3</ele>
        <time>2014-04-27T08:12:30Z</time>
      </trkpt>
      <trkpt lat="47.24932" lon="-1.64234">
        <ele>46</ele>
        <time>2014-04-27T08:12:33Z</time>
      </trkpt>
      <trkpt lat="47.24929" lon="-1.64254">
        <ele>45.7</ele>
        <time>2014-04-27T08:12:36Z</time>
      </trkpt>
      <trkpt lat="47.24932" lon="-1.64273">
        <ele>44.1</ele>
        <time>2014-04-27T08:12:39Z</time>
      </trkpt>
      <trkpt lat="47.24937" lon="-1.64289">
        <ele>43.9</ele>
        <time>2014-04-27T08:12:41Z</time>
      </trkpt>
      <trkpt lat="47.2494" lon="-1.64303">
        <ele>43.7</ele>
        <time>2014-04-27T08:12:43Z</time>
      </trkpt>
      <trkpt lat="47.24946" lon="-1.64316">
        <ele>43.2</ele>
        <time>2014-04-27T08:12:45Z</time>
      </trkpt>
      <trkpt lat="47.24951" lon="-1.64334">
        <ele>41.7</ele>
        <time>2014-04-27T08:12:48Z</time>
      </trkpt>
      <trkpt lat="47.24955" lon="-1.64352">
        <ele>42.5</ele>
        <time>2014-04-27T08:12:51Z</time>
      </trkpt>
      <trkpt lat="47.24959" lon="-1.6437">
        <ele>42.5</ele>
        <time>2014-04-27T08:12:54Z</time>
      </trkpt>
      <trkpt lat="47.24963" lon="-1.64384">
        <ele>41.8</ele>
        <time>2014-04-27T08:12:56Z</time>
      </trkpt>
      <trkpt lat="47.24968" lon="-1.64403">
        <ele>41.5</ele>
        <time>2014-04-27T08:12:59Z</time>
      </trkpt>
      <trkpt lat="47.24972" lon="-1.64416">
        <ele>41.6</ele>
        <time>2014-04-27T08:13:01Z</time>
      </trkpt>
      <trkpt lat="47.24975" lon="-1.64429">
        <ele>41.6</ele>
        <time>2014-04-27T08:13:03Z</time>
      </trkpt>
      <trkpt lat="47.24978" lon="-1.64442">
        <ele>41.7</ele>
        <time>2014-04-27T08:13:05Z</time>
      </trkpt>
      <trkpt lat="47.24982" lon="-1.64455">
        <ele>42.5</ele>
        <time>2014-04-27T08:13:07Z</time>
      </trkpt>
      <trkpt lat="47.24988" lon="-1.64469">
        <ele>43.3</ele>
        <time>2014-04-27T08:13:09Z</time>
      </trkpt>
      <trkpt lat="47.24996" lon="-1.64495">
        <ele>43.7</ele>
        <time>2014-04-27T08:13:13Z</time>
      </trkpt>
      <trkpt lat="47.24999" lon="-1.64508">
        <ele>43.6</ele>
        <time>2014-04-27T08:13:15Z</time>
      </trkpt>
      <trkpt lat="47.25006" lon="-1.64523">
        <ele>43.2</ele>
        <time>2014-04-27T08:13:18Z</time>
      </trkpt>
      <trkpt lat="47.25012" lon="-1.64541">
        <ele>43</ele>
        <time>2014-04-27T08:13:21Z</time>
      </trkpt>
      <trkpt lat="47.25015" lon="-1.64555">
        <ele>42.9</ele>
        <time>2014-04-27T08:13:23Z</time>
      </trkpt>
      <trkpt lat="47.25018" lon="-1.6457">
        <ele>42.9</ele>
        <time>2014-04-27T08:13:25Z</time>
      </trkpt>
      <trkpt lat="47.25026" lon="-1.64583">
        <ele>42.9</ele>
        <time>2014-04-27T08:13:28Z</time>
      </trkpt>
      <trkpt lat="47.25035" lon="-1.64582">
        <ele>42.6</ele>
        <time>2014-04-27T08:13:32Z</time>
      </trkpt>
      <trkpt lat="47.25044" lon="-1.64571">
        <ele>42.3</ele>
        <time>2014-04-27T08:13:35Z</time>
      </trkpt>
      <trkpt lat="47.25052" lon="-1.64563">
        <ele>42.1</ele>
        <time>2014-04-27T08:13:37Z</time>
      </trkpt>
      <trkpt lat="47.25059" lon="-1.64553">
        <ele>42.3</ele>
        <time>2014-04-27T08:13:39Z</time>
      </trkpt>
      <trkpt lat="47.25069" lon="-1.64543">
        <ele>42.6</ele>
        <time>2014-04-27T08:13:42Z</time>
      </trkpt>
      <trkpt lat="47.25079" lon="-1.64534">
        <ele>42.8</ele>
        <time>2014-04-27T08:13:45Z</time>
      </trkpt>
      <trkpt lat="47.25088" lon="-1.64525">
        <ele>43.3</ele>
        <time>2014-04-27T08:13:48Z</time>
      </trkpt>
      <trkpt lat="47.25099" lon="-1.64529">
        <ele>43.6</ele>
        <time>2014-04-27T08:13:51Z</time>
      </trkpt>
      <trkpt lat="47.25104" lon="-1.64545">
        <ele>43.9</ele>
        <time>2014-04-27T08:13:55Z</time>
      </trkpt>
      <trkpt lat="47.25104" lon="-1.64564">
        <ele>43.8</ele>
        <time>2014-04-27T08:13:58Z</time>
      </trkpt>
      <trkpt lat="47.25104" lon="-1.64579">
        <ele>42.7</ele>
        <time>2014-04-27T08:14:01Z</time>
      </trkpt>
      <trkpt lat="47.25105" lon="-1.64596">
        <ele>42.2</ele>
        <time>2014-04-27T08:14:04Z</time>
      </trkpt>
      <trkpt lat="47.25106" lon="-1.6461">
        <ele>41.9</ele>
        <time>2014-04-27T08:14:06Z</time>
      </trkpt>
      <trkpt lat="47.25105" lon="-1.6463">
        <ele>41.2</ele>
        <time>2014-04-27T08:14:09Z</time>
      </trkpt>
      <trkpt lat="47.25103" lon="-1.64643">
        <ele>38.8</ele>
        <time>2014-04-27T08:14:11Z</time>
      </trkpt>
      <trkpt lat="47.25099" lon="-1.6468">
        <ele>37.2</ele>
        <time>2014-04-27T08:14:16Z</time>
      </trkpt>
      <trkpt lat="47.25096" lon="-1.64698">
        <ele>39.4</ele>
        <time>2014-04-27T08:14:18Z</time>
      </trkpt>
      <trkpt lat="47.25094" lon="-1.64717">
        <ele>41.1</ele>
        <time>2014-04-27T08:14:20Z</time>
      </trkpt>
      <trkpt lat="47.25092" lon="-1.64732">
        <ele>42.3</ele>
        <time>2014-04-27T08:14:22Z</time>
      </trkpt>
      <trkpt lat="47.25089" lon="-1.64748">
        <ele>43.3</ele>
        <time>2014-04-27T08:14:24Z</time>
      </trkpt>
      <trkpt lat="47.25088" lon="-1.64765">
        <ele>44.4</ele>
        <time>2014-04-27T08:14:26Z</time>
      </trkpt>
      <trkpt lat="47.25086" lon="-1.64781">
        <ele>43.8</ele>
        <time>2014-04-27T08:14:28Z</time>
      </trkpt>
      <trkpt lat="47.25083" lon="-1.648">
        <ele>42.4</ele>
        <time>2014-04-27T08:14:31Z</time>
      </trkpt>
      <trkpt lat="47.25084" lon="-1.64815">
        <ele>42.1</ele>
        <time>2014-04-27T08:14:34Z</time>
      </trkpt>
      <trkpt lat="47.25091" lon="-1.64823">
        <ele>41.6</ele>
        <time>2014-04-27T08:14:37Z</time>
      </trkpt>
      <trkpt lat="47.251" lon="-1.6483">
        <ele>41.4</ele>
        <time>2014-04-27T08:14:40Z</time>
      </trkpt>
      <trkpt lat="47.25109" lon="-1.64835">
        <ele>41.2</ele>
        <time>2014-04-27T08:14:43Z</time>
      </trkpt>
      <trkpt lat="47.25119" lon="-1.64841">
        <ele>41.1</ele>
        <time>2014-04-27T08:14:46Z</time>
      </trkpt>
      <trkpt lat="47.25129" lon="-1.64848">
        <ele>41.2</ele>
        <time>2014-04-27T08:14:49Z</time>
      </trkpt>
      <trkpt lat="47.25137" lon="-1.64854">
        <ele>41.3</ele>
        <time>2014-04-27T08:14:53Z</time>
      </trkpt>
      <trkpt lat="47.25146" lon="-1.64862">
        <ele>41.5</ele>
        <time>2014-04-27T08:14:58Z</time>
      </trkpt>
      <trkpt lat="47.25154" lon="-1.64871">
        <ele>41.9</ele>
        <time>2014-04-27T08:15:02Z</time>
      </trkpt>
      <trkpt lat="47.25161" lon="-1.64883">
        <ele>41.7</ele>
        <time>2014-04-27T08:15:09Z</time>
      </trkpt>
      <trkpt lat="47.25163" lon="-1.64898">
        <ele>41.7</ele>
        <time>2014-04-27T08:15:13Z</time>
      </trkpt>
      <trkpt lat="47.25172" lon="-1.64926">
        <ele>42</ele>
        <time>2014-04-27T08:15:20Z</time>
      </trkpt>
      <trkpt lat="47.25177" lon="-1.64939">
        <ele>41.7</ele>
        <time>2014-04-27T08:15:24Z</time>
      </trkpt>
      <trkpt lat="47.25178" lon="-1.64953">
        <ele>41</ele>
        <time>2014-04-27T08:15:27Z</time>
      </trkpt>
      <trkpt lat="47.25178" lon="-1.6497">
        <ele>39.8</ele>
        <time>2014-04-27T08:15:31Z</time>
      </trkpt>
      <trkpt lat="47.25179" lon="-1.64984">
        <ele>37.9</ele>
        <time>2014-04-27T08:15:35Z</time>
      </trkpt>
      <trkpt lat="47.2518" lon="-1.64998">
        <ele>35.6</ele>
        <time>2014-04-27T08:15:39Z</time>
      </trkpt>
      <trkpt lat="47.25181" lon="-1.65011">
        <ele>33.8</ele>
        <time>2014-04-27T08:15:42Z</time>
      </trkpt>
      <trkpt lat="47.25182" lon="-1.65028">
        <ele>31.7</ele>
        <time>2014-04-27T08:15:45Z</time>
      </trkpt>
      <trkpt lat="47.25184" lon="-1.65044">
        <ele>29.1</ele>
        <time>2014-04-27T08:15:49Z</time>
      </trkpt>
      <trkpt lat="47.25184" lon="-1.65059">
        <ele>27.6</ele>
        <time>2014-04-27T08:15:52Z</time>
      </trkpt>
      <trkpt lat="47.25184" lon="-1.65085">
        <ele>26.7</ele>
        <time>2014-04-27T08:15:55Z</time>
      </trkpt>
      <trkpt lat="47.25181" lon="-1.65099">
        <ele>26.9</ele>
        <time>2014-04-27T08:15:57Z</time>
      </trkpt>
      <trkpt lat="47.25177" lon="-1.65115">
        <ele>27.5</ele>
        <time>2014-04-27T08:16:00Z</time>
      </trkpt>
      <trkpt lat="47.25173" lon="-1.65128">
        <ele>28.1</ele>
        <time>2014-04-27T08:16:03Z</time>
      </trkpt>
      <trkpt lat="47.25167" lon="-1.6515">
        <ele>28.7</ele>
        <time>2014-04-27T08:16:06Z</time>
      </trkpt>
      <trkpt lat="47.25163" lon="-1.65166">
        <ele>29.1</ele>
        <time>2014-04-27T08:16:09Z</time>
      </trkpt>
      <trkpt lat="47.25159" lon="-1.65181">
        <ele>29.4</ele>
        <time>2014-04-27T08:16:11Z</time>
      </trkpt>
      <trkpt lat="47.25155" lon="-1.65195">
        <ele>29.8</ele>
        <time>2014-04-27T08:16:13Z</time>
      </trkpt>
      <trkpt lat="47.25157" lon="-1.65224">
        <ele>32.3</ele>
        <time>2014-04-27T08:16:17Z</time>
      </trkpt>
      <trkpt lat="47.25162" lon="-1.65237">
        <ele>32.3</ele>
        <time>2014-04-27T08:16:19Z</time>
      </trkpt>
      <trkpt lat="47.25165" lon="-1.65256">
        <ele>31.6</ele>
        <time>2014-04-27T08:16:22Z</time>
      </trkpt>
      <trkpt lat="47.25162" lon="-1.6528">
        <ele>29.6</ele>
        <time>2014-04-27T08:16:25Z</time>
      </trkpt>
      <trkpt lat="47.25158" lon="-1.65298">
        <ele>29.7</ele>
        <time>2014-04-27T08:16:27Z</time>
      </trkpt>
      <trkpt lat="47.25154" lon="-1.65312">
        <ele>29.3</ele>
        <time>2014-04-27T08:16:29Z</time>
      </trkpt>
      <trkpt lat="47.25151" lon="-1.65325">
        <ele>29.3</ele>
        <time>2014-04-27T08:16:31Z</time>
      </trkpt>
      <trkpt lat="47.25146" lon="-1.65339">
        <ele>28.7</ele>
        <time>2014-04-27T08:16:33Z</time>
      </trkpt>
      <trkpt lat="47.25143" lon="-1.65352">
        <ele>26.9</ele>
        <time>2014-04-27T08:16:35Z</time>
      </trkpt>
      <trkpt lat="47.25138" lon="-1.6537">
        <ele>26.6</ele>
        <time>2014-04-27T08:16:37Z</time>
      </trkpt>
      <trkpt lat="47.25132" lon="-1.65391">
        <ele>28.4</ele>
        <time>2014-04-27T08:16:39Z</time>
      </trkpt>
      <trkpt lat="47.25125" lon="-1.65406">
        <ele>31.7</ele>
        <time>2014-04-27T08:16:41Z</time>
      </trkpt>
      <trkpt lat="47.25118" lon="-1.65418">
        <ele>33.8</ele>
        <time>2014-04-27T08:16:43Z</time>
      </trkpt>
      <trkpt lat="47.25113" lon="-1.65428">
        <ele>36.7</ele>
        <time>2014-04-27T08:16:45Z</time>
      </trkpt>
      <trkpt lat="47.25108" lon="-1.65443">
        <ele>37.8</ele>
        <time>2014-04-27T08:16:47Z</time>
      </trkpt>
      <trkpt lat="47.25106" lon="-1.65456">
        <ele>38.1</ele>
        <time>2014-04-27T08:16:49Z</time>
      </trkpt>
      <trkpt lat="47.25105" lon="-1.65478">
        <ele>38.1</ele>
        <time>2014-04-27T08:16:52Z</time>
      </trkpt>
      <trkpt lat="47.25103" lon="-1.65495">
        <ele>36.5</ele>
        <time>2014-04-27T08:16:54Z</time>
      </trkpt>
      <trkpt lat="47.25101" lon="-1.65512">
        <ele>34.2</ele>
        <time>2014-04-27T08:16:56Z</time>
      </trkpt>
      <trkpt lat="47.25097" lon="-1.65529">
        <ele>32.9</ele>
        <time>2014-04-27T08:16:58Z</time>
      </trkpt>
      <trkpt lat="47.25094" lon="-1.65542">
        <ele>33</ele>
        <time>2014-04-27T08:17:00Z</time>
      </trkpt>
      <trkpt lat="47.25088" lon="-1.6556">
        <ele>32</ele>
        <time>2014-04-27T08:17:02Z</time>
      </trkpt>
      <trkpt lat="47.25084" lon="-1.65575">
        <ele>30.6</ele>
        <time>2014-04-27T08:17:04Z</time>
      </trkpt>
      <trkpt lat="47.2508" lon="-1.65593">
        <ele>30.2</ele>
        <time>2014-04-27T08:17:06Z</time>
      </trkpt>
      <trkpt lat="47.25076" lon="-1.65611">
        <ele>29.8</ele>
        <time>2014-04-27T08:17:08Z</time>
      </trkpt>
      <trkpt lat="47.25073" lon="-1.65628">
        <ele>28.4</ele>
        <time>2014-04-27T08:17:10Z</time>
      </trkpt>
      <trkpt lat="47.25072" lon="-1.65646">
        <ele>27.2</ele>
        <time>2014-04-27T08:17:13Z</time>
      </trkpt>
      <trkpt lat="47.25077" lon="-1.6566">
        <ele>25.2</ele>
        <time>2014-04-27T08:17:15Z</time>
      </trkpt>
      <trkpt lat="47.25097" lon="-1.65674">
        <ele>25.6</ele>
        <time>2014-04-27T08:17:20Z</time>
      </trkpt>
      <trkpt lat="47.25108" lon="-1.65678">
        <ele>28.4</ele>
        <time>2014-04-27T08:17:22Z</time>
      </trkpt>
      <trkpt lat="47.25119" lon="-1.65682">
        <ele>31.1</ele>
        <time>2014-04-27T08:17:24Z</time>
      </trkpt>
      <trkpt lat="47.2513" lon="-1.65685">
        <ele>34</ele>
        <time>2014-04-27T08:17:26Z</time>
      </trkpt>
      <trkpt lat="47.2514" lon="-1.65689">
        <ele>36.8</ele>
        <time>2014-04-27T08:17:28Z</time>
      </trkpt>
      <trkpt lat="47.25153" lon="-1.65691">
        <ele>38.3</ele>
        <time>2014-04-27T08:17:31Z</time>
      </trkpt>
      <trkpt lat="47.25162" lon="-1.65693">
        <ele>38.8</ele>
        <time>2014-04-27T08:17:33Z</time>
      </trkpt>
      <trkpt lat="47.25174" lon="-1.65697">
        <ele>39.1</ele>
        <time>2014-04-27T08:17:36Z</time>
      </trkpt>
      <trkpt lat="47.25182" lon="-1.65711">
        <ele>39.5</ele>
        <time>2014-04-27T08:17:39Z</time>
      </trkpt>
      <trkpt lat="47.25185" lon="-1.65725">
        <ele>39.4</ele>
        <time>2014-04-27T08:17:42Z</time>
      </trkpt>
      <trkpt lat="47.25188" lon="-1.6574">
        <ele>39</ele>
        <time>2014-04-27T08:17:45Z</time>
      </trkpt>
      <trkpt lat="47.25193" lon="-1.65755">
        <ele>38.5</ele>
        <time>2014-04-27T08:17:48Z</time>
      </trkpt>
      <trkpt lat="47.25197" lon="-1.65769">
        <ele>38.1</ele>
        <time>2014-04-27T08:17:51Z</time>
      </trkpt>
      <trkpt lat="47.25202" lon="-1.65784">
        <ele>38.1</ele>
        <time>2014-04-27T08:17:54Z</time>
      </trkpt>
      <trkpt lat="47.25208" lon="-1.658">
        <ele>37.9</ele>
        <time>2014-04-27T08:17:57Z</time>
      </trkpt>
      <trkpt lat="47.25212" lon="-1.65813">
        <ele>37.8</ele>
        <time>2014-04-27T08:18:00Z</time>
      </trkpt>
      <trkpt lat="47.25216" lon="-1.65828">
        <ele>38</ele>
        <time>2014-04-27T08:18:03Z</time>
      </trkpt>
      <trkpt lat="47.25222" lon="-1.65843">
        <ele>38.3</ele>
        <time>2014-04-27T08:18:06Z</time>
      </trkpt>
      <trkpt lat="47.25226" lon="-1.65857">
        <ele>38.6</ele>
        <time>2014-04-27T08:18:09Z</time>
      </trkpt>
      <trkpt lat="47.25229" lon="-1.65871">
        <ele>38.8</ele>
        <time>2014-04-27T08:18:12Z</time>
      </trkpt>
      <trkpt lat="47.25233" lon="-1.65885">
        <ele>39</ele>
        <time>2014-04-27T08:18:15Z</time>
      </trkpt>
      <trkpt lat="47.25238" lon="-1.65898">
        <ele>39.1</ele>
        <time>2014-04-27T08:18:17Z</time>
      </trkpt>
      <trkpt lat="47.25247" lon="-1.65931">
        <ele>39.9</ele>
        <time>2014-04-27T08:18:23Z</time>
      </trkpt>
      <trkpt lat="47.25252" lon="-1.65948">
        <ele>40.2</ele>
        <time>2014-04-27T08:18:26Z</time>
      </trkpt>
      <trkpt lat="47.25258" lon="-1.65964">
        <ele>40.3</ele>
        <time>2014-04-27T08:18:29Z</time>
      </trkpt>
      <trkpt lat="47.25264" lon="-1.65976">
        <ele>40.7</ele>
        <time>2014-04-27T08:18:32Z</time>
      </trkpt>
      <trkpt lat="47.2527" lon="-1.6599">
        <ele>42.1</ele>
        <time>2014-04-27T08:18:35Z</time>
      </trkpt>
      <trkpt lat="47.25278" lon="-1.66004">
        <ele>42.8</ele>
        <time>2014-04-27T08:18:38Z</time>
      </trkpt>
      <trkpt lat="47.25284" lon="-1.66018">
        <ele>43.2</ele>
        <time>2014-04-27T08:18:41Z</time>
      </trkpt>
      <trkpt lat="47.25291" lon="-1.6603">
        <ele>42</ele>
        <time>2014-04-27T08:18:44Z</time>
      </trkpt>
      <trkpt lat="47.25297" lon="-1.66041">
        <ele>41.7</ele>
        <time>2014-04-27T08:18:46Z</time>
      </trkpt>
      <trkpt lat="47.25306" lon="-1.66057">
        <ele>41</ele>
        <time>2014-04-27T08:18:49Z</time>
      </trkpt>
      <trkpt lat="47.25313" lon="-1.66068">
        <ele>40.9</ele>
        <time>2014-04-27T08:18:51Z</time>
      </trkpt>
      <trkpt lat="47.25319" lon="-1.66079">
        <ele>41.2</ele>
        <time>2014-04-27T08:18:53Z</time>
      </trkpt>
      <trkpt lat="47.25324" lon="-1.6609">
        <ele>42</ele>
        <time>2014-04-27T08:18:55Z</time>
      </trkpt>
      <trkpt lat="47.25326" lon="-1.66108">
        <ele>42.4</ele>
        <time>2014-04-27T08:18:57Z</time>
      </trkpt>
      <trkpt lat="47.25326" lon="-1.66126">
        <ele>42.3</ele>
        <time>2014-04-27T08:18:59Z</time>
      </trkpt>
      <trkpt lat="47.25325" lon="-1.66139">
        <ele>42.7</ele>
        <time>2014-04-27T08:19:01Z</time>
      </trkpt>
      <trkpt lat="47.25323" lon="-1.66155">
        <ele>42.7</ele>
        <time>2014-04-27T08:19:03Z</time>
      </trkpt>
      <trkpt lat="47.25322" lon="-1.6617">
        <ele>42</ele>
        <time>2014-04-27T08:19:05Z</time>
      </trkpt>
      <trkpt lat="47.25321" lon="-1.66185">
        <ele>40.9</ele>
        <time>2014-04-27T08:19:07Z</time>
      </trkpt>
      <trkpt lat="47.25321" lon="-1.66205">
        <ele>41.3</ele>
        <time>2014-04-27T08:19:10Z</time>
      </trkpt>
      <trkpt lat="47.25321" lon="-1.66222">
        <ele>41.3</ele>
        <time>2014-04-27T08:19:13Z</time>
      </trkpt>
      <trkpt lat="47.25321" lon="-1.66237">
        <ele>41.2</ele>
        <time>2014-04-27T08:19:15Z</time>
      </trkpt>
      <trkpt lat="47.25322" lon="-1.66257">
        <ele>39.9</ele>
        <time>2014-04-27T08:19:18Z</time>
      </trkpt>
      <trkpt lat="47.25323" lon="-1.66287">
        <ele>40.4</ele>
        <time>2014-04-27T08:19:22Z</time>
      </trkpt>
      <trkpt lat="47.25322" lon="-1.66302">
        <ele>42.4</ele>
        <time>2014-04-27T08:19:24Z</time>
      </trkpt>
      <trkpt lat="47.25324" lon="-1.66321">
        <ele>43.1</ele>
        <time>2014-04-27T08:19:27Z</time>
      </trkpt>
      <trkpt lat="47.25326" lon="-1.6634">
        <ele>42.5</ele>
        <time>2014-04-27T08:19:30Z</time>
      </trkpt>
      <trkpt lat="47.25327" lon="-1.66357">
        <ele>42.3</ele>
        <time>2014-04-27T08:19:33Z</time>
      </trkpt>
      <trkpt lat="47.25327" lon="-1.66375">
        <ele>42.2</ele>
        <time>2014-04-27T08:19:36Z</time>
      </trkpt>
      <trkpt lat="47.25327" lon="-1.66393">
        <ele>42.8</ele>
        <time>2014-04-27T08:19:39Z</time>
      </trkpt>
      <trkpt lat="47.25327" lon="-1.66413">
        <ele>43.4</ele>
        <time>2014-04-27T08:19:42Z</time>
      </trkpt>
      <trkpt lat="47.25326" lon="-1.66427">
        <ele>43</ele>
        <time>2014-04-27T08:19:44Z</time>
      </trkpt>
      <trkpt lat="47.25326" lon="-1.66441">
        <ele>41.9</ele>
        <time>2014-04-27T08:19:46Z</time>
      </trkpt>
      <trkpt lat="47.25326" lon="-1.66456">
        <ele>40.9</ele>
        <time>2014-04-27T08:19:48Z</time>
      </trkpt>
      <trkpt lat="47.25326" lon="-1.66471">
        <ele>39.3</ele>
        <time>2014-04-27T08:19:50Z</time>
      </trkpt>
      <trkpt lat="47.25326" lon="-1.66487">
        <ele>37.5</ele>
        <time>2014-04-27T08:19:52Z</time>
      </trkpt>
      <trkpt lat="47.25328" lon="-1.66505">
        <ele>36.5</ele>
        <time>2014-04-27T08:19:55Z</time>
      </trkpt>
      <trkpt lat="47.25335" lon="-1.66515">
        <ele>35.9</ele>
        <time>2014-04-27T08:20:00Z</time>
      </trkpt>
      <trkpt lat="47.25347" lon="-1.6651">
        <ele>34.1</ele>
        <time>2014-04-27T08:20:07Z</time>
      </trkpt>
      <trkpt lat="47.25361" lon="-1.66501">
        <ele>34.1</ele>
        <time>2014-04-27T08:20:09Z</time>
      </trkpt>
      <trkpt lat="47.25373" lon="-1.66495">
        <ele>34</ele>
        <time>2014-04-27T08:20:11Z</time>
      </trkpt>
      <trkpt lat="47.25387" lon="-1.6649">
        <ele>34</ele>
        <time>2014-04-27T08:20:13Z</time>
      </trkpt>
      <trkpt lat="47.25399" lon="-1.66486">
        <ele>33.9</ele>
        <time>2014-04-27T08:20:16Z</time>
      </trkpt>
      <trkpt lat="47.2541" lon="-1.66484">
        <ele>33.9</ele>
        <time>2014-04-27T08:20:20Z</time>
      </trkpt>
      <trkpt lat="47.25432" lon="-1.66474">
        <ele>35.3</ele>
        <time>2014-04-27T08:20:29Z</time>
      </trkpt>
      <trkpt lat="47.2544" lon="-1.66467">
        <ele>35.6</ele>
        <time>2014-04-27T08:20:32Z</time>
      </trkpt>
      <trkpt lat="47.25449" lon="-1.66457">
        <ele>35.7</ele>
        <time>2014-04-27T08:20:35Z</time>
      </trkpt>
      <trkpt lat="47.25457" lon="-1.66445">
        <ele>36.1</ele>
        <time>2014-04-27T08:20:39Z</time>
      </trkpt>
      <trkpt lat="47.25464" lon="-1.66434">
        <ele>36.2</ele>
        <time>2014-04-27T08:20:42Z</time>
      </trkpt>
      <trkpt lat="47.2547" lon="-1.6642">
        <ele>36.2</ele>
        <time>2014-04-27T08:20:45Z</time>
      </trkpt>
      <trkpt lat="47.25478" lon="-1.66411">
        <ele>36.3</ele>
        <time>2014-04-27T08:20:48Z</time>
      </trkpt>
      <trkpt lat="47.25486" lon="-1.66397">
        <ele>36.5</ele>
        <time>2014-04-27T08:20:51Z</time>
      </trkpt>
      <trkpt lat="47.25491" lon="-1.66385">
        <ele>36.5</ele>
        <time>2014-04-27T08:20:54Z</time>
      </trkpt>
      <trkpt lat="47.25497" lon="-1.66374">
        <ele>36.6</ele>
        <time>2014-04-27T08:20:57Z</time>
      </trkpt>
      <trkpt lat="47.25506" lon="-1.66367">
        <ele>36.9</ele>
        <time>2014-04-27T08:21:00Z</time>
      </trkpt>
      <trkpt lat="47.25517" lon="-1.66362">
        <ele>37.2</ele>
        <time>2014-04-27T08:21:04Z</time>
      </trkpt>
      <trkpt lat="47.25526" lon="-1.66354">
        <ele>37.4</ele>
        <time>2014-04-27T08:21:08Z</time>
      </trkpt>
      <trkpt lat="47.25533" lon="-1.6634">
        <ele>37.5</ele>
        <time>2014-04-27T08:21:11Z</time>
      </trkpt>
      <trkpt lat="47.25539" lon="-1.66325">
        <ele>37.4</ele>
        <time>2014-04-27T08:21:14Z</time>
      </trkpt>
      <trkpt lat="47.25544" lon="-1.66309">
        <ele>37.5</ele>
        <time>2014-04-27T08:21:17Z</time>
      </trkpt>
      <trkpt lat="47.25549" lon="-1.66295">
        <ele>37.6</ele>
        <time>2014-04-27T08:21:19Z</time>
      </trkpt>
      <trkpt lat="47.25555" lon="-1.66278">
        <ele>37.7</ele>
        <time>2014-04-27T08:21:22Z</time>
      </trkpt>
      <trkpt lat="47.25568" lon="-1.66246">
        <ele>37.5</ele>
        <time>2014-04-27T08:21:28Z</time>
      </trkpt>
      <trkpt lat="47.25575" lon="-1.66229">
        <ele>37.7</ele>
        <time>2014-04-27T08:21:31Z</time>
      </trkpt>
      <trkpt lat="47.25582" lon="-1.66215">
        <ele>38.1</ele>
        <time>2014-04-27T08:21:34Z</time>
      </trkpt>
      <trkpt lat="47.25587" lon="-1.66203">
        <ele>38.4</ele>
        <time>2014-04-27T08:21:36Z</time>
      </trkpt>
      <trkpt lat="47.25595" lon="-1.6619">
        <ele>38.7</ele>
        <time>2014-04-27T08:21:39Z</time>
      </trkpt>
      <trkpt lat="47.25603" lon="-1.66177">
        <ele>39.1</ele>
        <time>2014-04-27T08:21:42Z</time>
      </trkpt>
      <trkpt lat="47.2561" lon="-1.66165">
        <ele>39.5</ele>
        <time>2014-04-27T08:21:46Z</time>
      </trkpt>
      <trkpt lat="47.25616" lon="-1.66155">
        <ele>39.7</ele>
        <time>2014-04-27T08:21:49Z</time>
      </trkpt>
      <trkpt lat="47.25621" lon="-1.66142">
        <ele>39.6</ele>
        <time>2014-04-27T08:21:52Z</time>
      </trkpt>
      <trkpt lat="47.25628" lon="-1.66129">
        <ele>39.5</ele>
        <time>2014-04-27T08:21:55Z</time>
      </trkpt>
      <trkpt lat="47.25634" lon="-1.66119">
        <ele>39.6</ele>
        <time>2014-04-27T08:21:58Z</time>
      </trkpt>
      <trkpt lat="47.2564" lon="-1.66107">
        <ele>39.7</ele>
        <time>2014-04-27T08:22:01Z</time>
      </trkpt>
      <trkpt lat="47.25646" lon="-1.66094">
        <ele>39.8</ele>
        <time>2014-04-27T08:22:04Z</time>
      </trkpt>
      <trkpt lat="47.25651" lon="-1.6608">
        <ele>40.2</ele>
        <time>2014-04-27T08:22:08Z</time>
      </trkpt>
      <trkpt lat="47.25659" lon="-1.66063">
        <ele>40</ele>
        <time>2014-04-27T08:22:12Z</time>
      </trkpt>
      <trkpt lat="47.25665" lon="-1.66049">
        <ele>39.9</ele>
        <time>2014-04-27T08:22:15Z</time>
      </trkpt>
      <trkpt lat="47.25671" lon="-1.66036">
        <ele>40.1</ele>
        <time>2014-04-27T08:22:18Z</time>
      </trkpt>
      <trkpt lat="47.25677" lon="-1.66023">
        <ele>40.7</ele>
        <time>2014-04-27T08:22:21Z</time>
      </trkpt>
      <trkpt lat="47.25685" lon="-1.66008">
        <ele>41</ele>
        <time>2014-04-27T08:22:24Z</time>
      </trkpt>
      <trkpt lat="47.25698" lon="-1.65983">
        <ele>41.6</ele>
        <time>2014-04-27T08:22:30Z</time>
      </trkpt>
      <trkpt lat="47.25702" lon="-1.65972">
        <ele>41.9</ele>
        <time>2014-04-27T08:22:33Z</time>
      </trkpt>
      <trkpt lat="47.25708" lon="-1.6596">
        <ele>42.2</ele>
        <time>2014-04-27T08:22:36Z</time>
      </trkpt>
      <trkpt lat="47.25716" lon="-1.65946">
        <ele>42.5</ele>
        <time>2014-04-27T08:22:39Z</time>
      </trkpt>
      <trkpt lat="47.25721" lon="-1.65934">
        <ele>42.9</ele>
        <time>2014-04-27T08:22:42Z</time>
      </trkpt>
      <trkpt lat="47.25727" lon="-1.65919">
        <ele>43.1</ele>
        <time>2014-04-27T08:22:45Z</time>
      </trkpt>
      <trkpt lat="47.25733" lon="-1.65906">
        <ele>43.3</ele>
        <time>2014-04-27T08:22:48Z</time>
      </trkpt>
      <trkpt lat="47.25739" lon="-1.65893">
        <ele>43.7</ele>
        <time>2014-04-27T08:22:51Z</time>
      </trkpt>
      <trkpt lat="47.25746" lon="-1.65883">
        <ele>44.2</ele>
        <time>2014-04-27T08:22:54Z</time>
      </trkpt>
      <trkpt lat="47.25753" lon="-1.65872">
        <ele>44.2</ele>
        <time>2014-04-27T08:22:57Z</time>
      </trkpt>
      <trkpt lat="47.2576" lon="-1.6586">
        <ele>44.2</ele>
        <time>2014-04-27T08:23:00Z</time>
      </trkpt>
      <trkpt lat="47.25768" lon="-1.65845">
        <ele>44.6</ele>
        <time>2014-04-27T08:23:03Z</time>
      </trkpt>
      <trkpt lat="47.25775" lon="-1.65831">
        <ele>45.2</ele>
        <time>2014-04-27T08:23:06Z</time>
      </trkpt>
      <trkpt lat="47.25781" lon="-1.65821">
        <ele>45.9</ele>
        <time>2014-04-27T08:23:09Z</time>
      </trkpt>
      <trkpt lat="47.25788" lon="-1.65806">
        <ele>46.7</ele>
        <time>2014-04-27T08:23:13Z</time>
      </trkpt>
      <trkpt lat="47.25793" lon="-1.65794">
        <ele>47.3</ele>
        <time>2014-04-27T08:23:16Z</time>
      </trkpt>
      <trkpt lat="47.25799" lon="-1.65779">
        <ele>47.6</ele>
        <time>2014-04-27T08:23:20Z</time>
      </trkpt>
      <trkpt lat="47.25805" lon="-1.65768">
        <ele>48.3</ele>
        <time>2014-04-27T08:23:24Z</time>
      </trkpt>
      <trkpt lat="47.25811" lon="-1.65755">
        <ele>48.9</ele>
        <time>2014-04-27T08:23:28Z</time>
      </trkpt>
      <trkpt lat="47.25822" lon="-1.65733">
        <ele>49.8</ele>
        <time>2014-04-27T08:23:35Z</time>
      </trkpt>
      <trkpt lat="47.25828" lon="-1.65719">
        <ele>50.2</ele>
        <time>2014-04-27T08:23:39Z</time>
      </trkpt>
      <trkpt lat="47.25834" lon="-1.65705">
        <ele>50.8</ele>
        <time>2014-04-27T08:23:43Z</time>
      </trkpt>
      <trkpt lat="47.25839" lon="-1.65694">
        <ele>51.3</ele>
        <time>2014-04-27T08:23:46Z</time>
      </trkpt>
      <trkpt lat="47.25846" lon="-1.65684">
        <ele>51.6</ele>
        <time>2014-04-27T08:23:49Z</time>
      </trkpt>
      <trkpt lat="47.25853" lon="-1.6567">
        <ele>51.9</ele>
        <time>2014-04-27T08:23:52Z</time>
      </trkpt>
      <trkpt lat="47.25859" lon="-1.65657">
        <ele>52.3</ele>
        <time>2014-04-27T08:23:56Z</time>
      </trkpt>
      <trkpt lat="47.25864" lon="-1.65642">
        <ele>52.5</ele>
        <time>2014-04-27T08:24:00Z</time>
      </trkpt>
      <trkpt lat="47.25871" lon="-1.65629">
        <ele>52.6</ele>
        <time>2014-04-27T08:24:03Z</time>
      </trkpt>
      <trkpt lat="47.25878" lon="-1.65619">
        <ele>52.7</ele>
        <time>2014-04-27T08:24:06Z</time>
      </trkpt>
      <trkpt lat="47.25885" lon="-1.65605">
        <ele>52.9</ele>
        <time>2014-04-27T08:24:09Z</time>
      </trkpt>
      <trkpt lat="47.25891" lon="-1.65594">
        <ele>53.2</ele>
        <time>2014-04-27T08:24:11Z</time>
      </trkpt>
      <trkpt lat="47.25898" lon="-1.6558">
        <ele>53.8</ele>
        <time>2014-04-27T08:24:14Z</time>
      </trkpt>
      <trkpt lat="47.25906" lon="-1.65567">
        <ele>54.6</ele>
        <time>2014-04-27T08:24:17Z</time>
      </trkpt>
      <trkpt lat="47.25913" lon="-1.65556">
        <ele>55.3</ele>
        <time>2014-04-27T08:24:20Z</time>
      </trkpt>
      <trkpt lat="47.2592" lon="-1.65543">
        <ele>56.1</ele>
        <time>2014-04-27T08:24:23Z</time>
      </trkpt>
      <trkpt lat="47.25924" lon="-1.65531">
        <ele>57</ele>
        <time>2014-04-27T08:24:27Z</time>
      </trkpt>
      <trkpt lat="47.2593" lon="-1.65518">
        <ele>57.9</ele>
        <time>2014-04-27T08:24:32Z</time>
      </trkpt>
      <trkpt lat="47.25939" lon="-1.65506">
        <ele>59.8</ele>
        <time>2014-04-27T08:24:52Z</time>
      </trkpt>
      <trkpt lat="47.25944" lon="-1.65493">
        <ele>60.5</ele>
        <time>2014-04-27T08:24:59Z</time>
      </trkpt>
      <trkpt lat="47.25954" lon="-1.65492">
        <ele>61.9</ele>
        <time>2014-04-27T08:25:11Z</time>
      </trkpt>
      <trkpt lat="47.25955" lon="-1.65507">
        <ele>61.9</ele>
        <time>2014-04-27T08:25:16Z</time>
      </trkpt>
      <trkpt lat="47.25956" lon="-1.65524">
        <ele>61.8</ele>
        <time>2014-04-27T08:25:20Z</time>
      </trkpt>
      <trkpt lat="47.25958" lon="-1.65541">
        <ele>61.8</ele>
        <time>2014-04-27T08:25:23Z</time>
      </trkpt>
      <trkpt lat="47.2596" lon="-1.65555">
        <ele>62.1</ele>
        <time>2014-04-27T08:25:26Z</time>
      </trkpt>
      <trkpt lat="47.25961" lon="-1.65571">
        <ele>62.2</ele>
        <time>2014-04-27T08:25:29Z</time>
      </trkpt>
      <trkpt lat="47.25963" lon="-1.65585">
        <ele>62.2</ele>
        <time>2014-04-27T08:25:32Z</time>
      </trkpt>
      <trkpt lat="47.25965" lon="-1.65603">
        <ele>62.2</ele>
        <time>2014-04-27T08:25:35Z</time>
      </trkpt>
      <trkpt lat="47.25971" lon="-1.65634">
        <ele>62.3</ele>
        <time>2014-04-27T08:25:41Z</time>
      </trkpt>
      <trkpt lat="47.25974" lon="-1.65651">
        <ele>62.5</ele>
        <time>2014-04-27T08:25:44Z</time>
      </trkpt>
      <trkpt lat="47.25977" lon="-1.65666">
        <ele>62.7</ele>
        <time>2014-04-27T08:25:47Z</time>
      </trkpt>
      <trkpt lat="47.25979" lon="-1.65681">
        <ele>62.8</ele>
        <time>2014-04-27T08:25:50Z</time>
      </trkpt>
      <trkpt lat="47.2598" lon="-1.65697">
        <ele>62.7</ele>
        <time>2014-04-27T08:25:53Z</time>
      </trkpt>
      <trkpt lat="47.25981" lon="-1.65711">
        <ele>62.8</ele>
        <time>2014-04-27T08:25:56Z</time>
      </trkpt>
      <trkpt lat="47.25984" lon="-1.65727">
        <ele>62.8</ele>
        <time>2014-04-27T08:25:59Z</time>
      </trkpt>
      <trkpt lat="47.25987" lon="-1.65743">
        <ele>62.8</ele>
        <time>2014-04-27T08:26:02Z</time>
      </trkpt>
      <trkpt lat="47.2599" lon="-1.65757">
        <ele>62.8</ele>
        <time>2014-04-27T08:26:05Z</time>
      </trkpt>
      <trkpt lat="47.25994" lon="-1.65774">
        <ele>62.7</ele>
        <time>2014-04-27T08:26:09Z</time>
      </trkpt>
      <trkpt lat="47.25997" lon="-1.6579">
        <ele>62.7</ele>
        <time>2014-04-27T08:26:12Z</time>
      </trkpt>
      <trkpt lat="47.25998" lon="-1.65807">
        <ele>62.7</ele>
        <time>2014-04-27T08:26:16Z</time>
      </trkpt>
      <trkpt lat="47.26002" lon="-1.65821">
        <ele>62.6</ele>
        <time>2014-04-27T08:26:19Z</time>
      </trkpt>
      <trkpt lat="47.26005" lon="-1.65838">
        <ele>62.7</ele>
        <time>2014-04-27T08:26:22Z</time>
      </trkpt>
      <trkpt lat="47.26009" lon="-1.65853">
        <ele>62.6</ele>
        <time>2014-04-27T08:26:25Z</time>
      </trkpt>
      <trkpt lat="47.26012" lon="-1.65868">
        <ele>62.5</ele>
        <time>2014-04-27T08:26:28Z</time>
      </trkpt>
      <trkpt lat="47.26015" lon="-1.65881">
        <ele>62.5</ele>
        <time>2014-04-27T08:26:31Z</time>
      </trkpt>
      <trkpt lat="47.26024" lon="-1.6589">
        <ele>62.4</ele>
        <time>2014-04-27T08:26:35Z</time>
      </trkpt>
      <trkpt lat="47.26034" lon="-1.65902">
        <ele>62.3</ele>
        <time>2014-04-27T08:26:38Z</time>
      </trkpt>
      <trkpt lat="47.26051" lon="-1.65906">
        <ele>62</ele>
        <time>2014-04-27T08:26:44Z</time>
      </trkpt>
      <trkpt lat="47.26061" lon="-1.65901">
        <ele>61.8</ele>
        <time>2014-04-27T08:26:47Z</time>
      </trkpt>
      <trkpt lat="47.26072" lon="-1.65898">
        <ele>61.7</ele>
        <time>2014-04-27T08:26:50Z</time>
      </trkpt>
      <trkpt lat="47.26083" lon="-1.65894">
        <ele>61.5</ele>
        <time>2014-04-27T08:26:53Z</time>
      </trkpt>
      <trkpt lat="47.26094" lon="-1.6589">
        <ele>61.5</ele>
        <time>2014-04-27T08:26:56Z</time>
      </trkpt>
      <trkpt lat="47.26107" lon="-1.65887">
        <ele>60.8</ele>
        <time>2014-04-27T08:26:59Z</time>
      </trkpt>
      <trkpt lat="47.26119" lon="-1.65885">
        <ele>59.6</ele>
        <time>2014-04-27T08:27:02Z</time>
      </trkpt>
      <trkpt lat="47.26131" lon="-1.65885">
        <ele>58.6</ele>
        <time>2014-04-27T08:27:05Z</time>
      </trkpt>
      <trkpt lat="47.2614" lon="-1.65887">
        <ele>58.5</ele>
        <time>2014-04-27T08:27:07Z</time>
      </trkpt>
      <trkpt lat="47.26148" lon="-1.65891">
        <ele>60.2</ele>
        <time>2014-04-27T08:27:09Z</time>
      </trkpt>
      <trkpt lat="47.26159" lon="-1.65898">
        <ele>62.2</ele>
        <time>2014-04-27T08:27:12Z</time>
      </trkpt>
      <trkpt lat="47.26169" lon="-1.65904">
        <ele>62.3</ele>
        <time>2014-04-27T08:27:15Z</time>
      </trkpt>
      <trkpt lat="47.26182" lon="-1.65906">
        <ele>62.2</ele>
        <time>2014-04-27T08:27:18Z</time>
      </trkpt>
      <trkpt lat="47.26193" lon="-1.65904">
        <ele>62.1</ele>
        <time>2014-04-27T08:27:20Z</time>
      </trkpt>
      <trkpt lat="47.26203" lon="-1.659">
        <ele>62.3</ele>
        <time>2014-04-27T08:27:22Z</time>
      </trkpt>
      <trkpt lat="47.26212" lon="-1.65896">
        <ele>62.6</ele>
        <time>2014-04-27T08:27:24Z</time>
      </trkpt>
      <trkpt lat="47.2622" lon="-1.65892">
        <ele>62.9</ele>
        <time>2014-04-27T08:27:26Z</time>
      </trkpt>
      <trkpt lat="47.26229" lon="-1.65888">
        <ele>62.8</ele>
        <time>2014-04-27T08:27:28Z</time>
      </trkpt>
      <trkpt lat="47.26242" lon="-1.65883">
        <ele>62.2</ele>
        <time>2014-04-27T08:27:31Z</time>
      </trkpt>
      <trkpt lat="47.26253" lon="-1.65876">
        <ele>61.6</ele>
        <time>2014-04-27T08:27:34Z</time>
      </trkpt>
      <trkpt lat="47.26259" lon="-1.6586">
        <ele>61.4</ele>
        <time>2014-04-27T08:27:38Z</time>
      </trkpt>
      <trkpt lat="47.26259" lon="-1.65846">
        <ele>61</ele>
        <time>2014-04-27T08:27:40Z</time>
      </trkpt>
      <trkpt lat="47.26259" lon="-1.65811">
        <ele>58.1</ele>
        <time>2014-04-27T08:27:45Z</time>
      </trkpt>
      <trkpt lat="47.26261" lon="-1.65798">
        <ele>57.7</ele>
        <time>2014-04-27T08:27:47Z</time>
      </trkpt>
      <trkpt lat="47.26263" lon="-1.65784">
        <ele>57.6</ele>
        <time>2014-04-27T08:27:49Z</time>
      </trkpt>
      <trkpt lat="47.26268" lon="-1.65766">
        <ele>58.4</ele>
        <time>2014-04-27T08:27:52Z</time>
      </trkpt>
      <trkpt lat="47.26273" lon="-1.65751">
        <ele>58.6</ele>
        <time>2014-04-27T08:27:55Z</time>
      </trkpt>
      <trkpt lat="47.26278" lon="-1.65735">
        <ele>58.6</ele>
        <time>2014-04-27T08:27:58Z</time>
      </trkpt>
      <trkpt lat="47.26281" lon="-1.65721">
        <ele>58.5</ele>
        <time>2014-04-27T08:28:01Z</time>
      </trkpt>
      <trkpt lat="47.26283" lon="-1.65707">
        <ele>58.4</ele>
        <time>2014-04-27T08:28:05Z</time>
      </trkpt>
      <trkpt lat="47.26293" lon="-1.65703">
        <ele>58.4</ele>
        <time>2014-04-27T08:28:11Z</time>
      </trkpt>
      <trkpt lat="47.26302" lon="-1.65711">
        <ele>58.5</ele>
        <time>2014-04-27T08:28:14Z</time>
      </trkpt>
      <trkpt lat="47.26312" lon="-1.65716">
        <ele>58.5</ele>
        <time>2014-04-27T08:28:17Z</time>
      </trkpt>
      <trkpt lat="47.26322" lon="-1.65719">
        <ele>58.3</ele>
        <time>2014-04-27T08:28:19Z</time>
      </trkpt>
      <trkpt lat="47.26333" lon="-1.65721">
        <ele>58.1</ele>
        <time>2014-04-27T08:28:21Z</time>
      </trkpt>
      <trkpt lat="47.26345" lon="-1.65719">
        <ele>58.9</ele>
        <time>2014-04-27T08:28:23Z</time>
      </trkpt>
      <trkpt lat="47.26355" lon="-1.65715">
        <ele>59.1</ele>
        <time>2014-04-27T08:28:25Z</time>
      </trkpt>
      <trkpt lat="47.26366" lon="-1.65712">
        <ele>58.7</ele>
        <time>2014-04-27T08:28:27Z</time>
      </trkpt>
      <trkpt lat="47.26376" lon="-1.65709">
        <ele>58.1</ele>
        <time>2014-04-27T08:28:29Z</time>
      </trkpt>
      <trkpt lat="47.26386" lon="-1.65705">
        <ele>57.2</ele>
        <time>2014-04-27T08:28:31Z</time>
      </trkpt>
      <trkpt lat="47.26395" lon="-1.65703">
        <ele>56.1</ele>
        <time>2014-04-27T08:28:33Z</time>
      </trkpt>
      <trkpt lat="47.26405" lon="-1.65703">
        <ele>55.7</ele>
        <time>2014-04-27T08:28:35Z</time>
      </trkpt>
      <trkpt lat="47.26416" lon="-1.65711">
        <ele>53.7</ele>
        <time>2014-04-27T08:28:38Z</time>
      </trkpt>
      <trkpt lat="47.26421" lon="-1.65724">
        <ele>52.6</ele>
        <time>2014-04-27T08:28:40Z</time>
      </trkpt>
      <trkpt lat="47.26427" lon="-1.65736">
        <ele>51.7</ele>
        <time>2014-04-27T08:28:43Z</time>
      </trkpt>
      <trkpt lat="47.26446" lon="-1.65743">
        <ele>51.2</ele>
        <time>2014-04-27T08:29:02Z</time>
      </trkpt>
      <trkpt lat="47.26455" lon="-1.65748">
        <ele>51</ele>
        <time>2014-04-27T08:29:05Z</time>
      </trkpt>
      <trkpt lat="47.26466" lon="-1.65757">
        <ele>50.8</ele>
        <time>2014-04-27T08:29:08Z</time>
      </trkpt>
      <trkpt lat="47.26475" lon="-1.65765">
        <ele>48.1</ele>
        <time>2014-04-27T08:29:10Z</time>
      </trkpt>
      <trkpt lat="47.26484" lon="-1.65782">
        <ele>45.1</ele>
        <time>2014-04-27T08:29:12Z</time>
      </trkpt>
      <trkpt lat="47.26493" lon="-1.658">
        <ele>41.4</ele>
        <time>2014-04-27T08:29:14Z</time>
      </trkpt>
      <trkpt lat="47.26502" lon="-1.65817">
        <ele>38.5</ele>
        <time>2014-04-27T08:29:16Z</time>
      </trkpt>
      <trkpt lat="47.26509" lon="-1.65833">
        <ele>36</ele>
        <time>2014-04-27T08:29:18Z</time>
      </trkpt>
      <trkpt lat="47.26517" lon="-1.65843">
        <ele>35.7</ele>
        <time>2014-04-27T08:29:21Z</time>
      </trkpt>
      <trkpt lat="47.26525" lon="-1.65854">
        <ele>35.3</ele>
        <time>2014-04-27T08:29:24Z</time>
      </trkpt>
      <trkpt lat="47.26524" lon="-1.65872">
        <ele>34.7</ele>
        <time>2014-04-27T08:29:27Z</time>
      </trkpt>
      <trkpt lat="47.26521" lon="-1.65886">
        <ele>34.2</ele>
        <time>2014-04-27T08:29:29Z</time>
      </trkpt>
      <trkpt lat="47.26519" lon="-1.65903">
        <ele>33.6</ele>
        <time>2014-04-27T08:29:31Z</time>
      </trkpt>
      <trkpt lat="47.26519" lon="-1.65918">
        <ele>30.7</ele>
        <time>2014-04-27T08:29:33Z</time>
      </trkpt>
      <trkpt lat="47.26523" lon="-1.65937">
        <ele>30</ele>
        <time>2014-04-27T08:29:36Z</time>
      </trkpt>
      <trkpt lat="47.26526" lon="-1.6595">
        <ele>29.5</ele>
        <time>2014-04-27T08:29:38Z</time>
      </trkpt>
      <trkpt lat="47.26532" lon="-1.6596">
        <ele>28.3</ele>
        <time>2014-04-27T08:29:46Z</time>
      </trkpt>
      <trkpt lat="47.2653" lon="-1.65986">
        <ele>30.9</ele>
        <time>2014-04-27T08:30:44Z</time>
      </trkpt>
      <trkpt lat="47.2653" lon="-1.66001">
        <ele>31.5</ele>
        <time>2014-04-27T08:30:48Z</time>
      </trkpt>
      <trkpt lat="47.26536" lon="-1.66029">
        <ele>31.8</ele>
        <time>2014-04-27T08:30:56Z</time>
      </trkpt>
      <trkpt lat="47.26544" lon="-1.66038">
        <ele>31.8</ele>
        <time>2014-04-27T08:30:59Z</time>
      </trkpt>
      <trkpt lat="47.26554" lon="-1.66044">
        <ele>31.7</ele>
        <time>2014-04-27T08:31:02Z</time>
      </trkpt>
      <trkpt lat="47.26564" lon="-1.66045">
        <ele>31.6</ele>
        <time>2014-04-27T08:31:05Z</time>
      </trkpt>
      <trkpt lat="47.26578" lon="-1.6605">
        <ele>31.6</ele>
        <time>2014-04-27T08:31:08Z</time>
      </trkpt>
      <trkpt lat="47.26587" lon="-1.66053">
        <ele>31.6</ele>
        <time>2014-04-27T08:31:10Z</time>
      </trkpt>
      <trkpt lat="47.26598" lon="-1.66059">
        <ele>31.4</ele>
        <time>2014-04-27T08:31:12Z</time>
      </trkpt>
      <trkpt lat="47.26607" lon="-1.66061">
        <ele>30</ele>
        <time>2014-04-27T08:31:14Z</time>
      </trkpt>
      <trkpt lat="47.26616" lon="-1.66067">
        <ele>29.9</ele>
        <time>2014-04-27T08:31:16Z</time>
      </trkpt>
      <trkpt lat="47.26624" lon="-1.66073">
        <ele>29.2</ele>
        <time>2014-04-27T08:31:18Z</time>
      </trkpt>
      <trkpt lat="47.26632" lon="-1.66081">
        <ele>29</ele>
        <time>2014-04-27T08:31:20Z</time>
      </trkpt>
      <trkpt lat="47.26642" lon="-1.66094">
        <ele>28.8</ele>
        <time>2014-04-27T08:31:23Z</time>
      </trkpt>
      <trkpt lat="47.26646" lon="-1.66106">
        <ele>28.6</ele>
        <time>2014-04-27T08:31:26Z</time>
      </trkpt>
      <trkpt lat="47.26648" lon="-1.66122">
        <ele>28.5</ele>
        <time>2014-04-27T08:31:29Z</time>
      </trkpt>
      <trkpt lat="47.26649" lon="-1.66137">
        <ele>28.3</ele>
        <time>2014-04-27T08:31:33Z</time>
      </trkpt>
      <trkpt lat="47.26648" lon="-1.66152">
        <ele>28.5</ele>
        <time>2014-04-27T08:31:37Z</time>
      </trkpt>
      <trkpt lat="47.26637" lon="-1.6616">
        <ele>28.2</ele>
        <time>2014-04-27T08:31:41Z</time>
      </trkpt>
      <trkpt lat="47.26629" lon="-1.66163">
        <ele>27.3</ele>
        <time>2014-04-27T08:31:59Z</time>
      </trkpt>
      <trkpt lat="47.26613" lon="-1.66177">
        <ele>27.2</ele>
        <time>2014-04-27T08:32:16Z</time>
      </trkpt>
      <trkpt lat="47.26612" lon="-1.66191">
        <ele>26.9</ele>
        <time>2014-04-27T08:32:19Z</time>
      </trkpt>
      <trkpt lat="47.26617" lon="-1.66204">
        <ele>26.7</ele>
        <time>2014-04-27T08:32:21Z</time>
      </trkpt>
      <trkpt lat="47.26613" lon="-1.66219">
        <ele>27</ele>
        <time>2014-04-27T08:32:23Z</time>
      </trkpt>
      <trkpt lat="47.26605" lon="-1.66233">
        <ele>26.9</ele>
        <time>2014-04-27T08:32:26Z</time>
      </trkpt>
      <trkpt lat="47.26601" lon="-1.66246">
        <ele>26.6</ele>
        <time>2014-04-27T08:32:28Z</time>
      </trkpt>
      <trkpt lat="47.26602" lon="-1.6626">
        <ele>26.3</ele>
        <time>2014-04-27T08:32:30Z</time>
      </trkpt>
      <trkpt lat="47.26608" lon="-1.66277">
        <ele>25.9</ele>
        <time>2014-04-27T08:32:33Z</time>
      </trkpt>
      <trkpt lat="47.26614" lon="-1.66292">
        <ele>25.5</ele>
        <time>2014-04-27T08:32:36Z</time>
      </trkpt>
      <trkpt lat="47.26618" lon="-1.66306">
        <ele>25</ele>
        <time>2014-04-27T08:32:39Z</time>
      </trkpt>
      <trkpt lat="47.26623" lon="-1.66324">
        <ele>24.9</ele>
        <time>2014-04-27T08:32:42Z</time>
      </trkpt>
      <trkpt lat="47.26627" lon="-1.66338">
        <ele>24.8</ele>
        <time>2014-04-27T08:32:45Z</time>
      </trkpt>
      <trkpt lat="47.26631" lon="-1.66355">
        <ele>24.8</ele>
        <time>2014-04-27T08:32:48Z</time>
      </trkpt>
      <trkpt lat="47.26635" lon="-1.66372">
        <ele>24.6</ele>
        <time>2014-04-27T08:32:51Z</time>
      </trkpt>
      <trkpt lat="47.26637" lon="-1.66384">
        <ele>24.7</ele>
        <time>2014-04-27T08:32:54Z</time>
      </trkpt>
      <trkpt lat="47.26642" lon="-1.66402">
        <ele>24.9</ele>
        <time>2014-04-27T08:32:57Z</time>
      </trkpt>
      <trkpt lat="47.26647" lon="-1.66414">
        <ele>25.4</ele>
        <time>2014-04-27T08:33:00Z</time>
      </trkpt>
      <trkpt lat="47.26656" lon="-1.66441">
        <ele>26.4</ele>
        <time>2014-04-27T08:33:06Z</time>
      </trkpt>
      <trkpt lat="47.26659" lon="-1.66456">
        <ele>26.9</ele>
        <time>2014-04-27T08:33:09Z</time>
      </trkpt>
      <trkpt lat="47.26661" lon="-1.66471">
        <ele>27.4</ele>
        <time>2014-04-27T08:33:12Z</time>
      </trkpt>
      <trkpt lat="47.26663" lon="-1.66486">
        <ele>27.8</ele>
        <time>2014-04-27T08:33:16Z</time>
      </trkpt>
      <trkpt lat="47.26667" lon="-1.66502">
        <ele>28</ele>
        <time>2014-04-27T08:33:20Z</time>
      </trkpt>
      <trkpt lat="47.26671" lon="-1.66518">
        <ele>27.9</ele>
        <time>2014-04-27T08:33:24Z</time>
      </trkpt>
      <trkpt lat="47.26673" lon="-1.66533">
        <ele>27.8</ele>
        <time>2014-04-27T08:33:29Z</time>
      </trkpt>
      <trkpt lat="47.26676" lon="-1.66546">
        <ele>28.1</ele>
        <time>2014-04-27T08:33:33Z</time>
      </trkpt>
      <trkpt lat="47.26686" lon="-1.66558">
        <ele>27.8</ele>
        <time>2014-04-27T08:33:36Z</time>
      </trkpt>
      <trkpt lat="47.26692" lon="-1.66568">
        <ele>27.3</ele>
        <time>2014-04-27T08:33:39Z</time>
      </trkpt>
      <trkpt lat="47.26699" lon="-1.66581">
        <ele>26.4</ele>
        <time>2014-04-27T08:33:42Z</time>
      </trkpt>
      <trkpt lat="47.26703" lon="-1.66593">
        <ele>24.8</ele>
        <time>2014-04-27T08:33:46Z</time>
      </trkpt>
      <trkpt lat="47.26708" lon="-1.66606">
        <ele>22.4</ele>
        <time>2014-04-27T08:33:52Z</time>
      </trkpt>
      <trkpt lat="47.26718" lon="-1.66606">
        <ele>20.2</ele>
        <time>2014-04-27T08:34:08Z</time>
      </trkpt>
      <trkpt lat="47.26739" lon="-1.6661">
        <ele>23.4</ele>
        <time>2014-04-27T08:34:21Z</time>
      </trkpt>
      <trkpt lat="47.26751" lon="-1.66603">
        <ele>25.2</ele>
        <time>2014-04-27T08:34:24Z</time>
      </trkpt>
      <trkpt lat="47.26764" lon="-1.66607">
        <ele>25.5</ele>
        <time>2014-04-27T08:34:27Z</time>
      </trkpt>
      <trkpt lat="47.26773" lon="-1.66619">
        <ele>26.1</ele>
        <time>2014-04-27T08:34:30Z</time>
      </trkpt>
      <trkpt lat="47.26778" lon="-1.66631">
        <ele>26.5</ele>
        <time>2014-04-27T08:34:32Z</time>
      </trkpt>
      <trkpt lat="47.26784" lon="-1.66643">
        <ele>27</ele>
        <time>2014-04-27T08:34:34Z</time>
      </trkpt>
      <trkpt lat="47.26791" lon="-1.66659">
        <ele>28.1</ele>
        <time>2014-04-27T08:34:37Z</time>
      </trkpt>
      <trkpt lat="47.26798" lon="-1.66676">
        <ele>29.1</ele>
        <time>2014-04-27T08:34:40Z</time>
      </trkpt>
      <trkpt lat="47.26803" lon="-1.66688">
        <ele>29.7</ele>
        <time>2014-04-27T08:34:42Z</time>
      </trkpt>
      <trkpt lat="47.26808" lon="-1.667">
        <ele>30.2</ele>
        <time>2014-04-27T08:34:44Z</time>
      </trkpt>
      <trkpt lat="47.26813" lon="-1.66713">
        <ele>30.8</ele>
        <time>2014-04-27T08:34:46Z</time>
      </trkpt>
      <trkpt lat="47.26819" lon="-1.66726">
        <ele>31.3</ele>
        <time>2014-04-27T08:34:48Z</time>
      </trkpt>
      <trkpt lat="47.26827" lon="-1.6674">
        <ele>31.8</ele>
        <time>2014-04-27T08:34:51Z</time>
      </trkpt>
      <trkpt lat="47.26834" lon="-1.66749">
        <ele>31.8</ele>
        <time>2014-04-27T08:34:53Z</time>
      </trkpt>
      <trkpt lat="47.26842" lon="-1.66758">
        <ele>31.8</ele>
        <time>2014-04-27T08:34:55Z</time>
      </trkpt>
      <trkpt lat="47.26853" lon="-1.66765">
        <ele>31.5</ele>
        <time>2014-04-27T08:34:58Z</time>
      </trkpt>
      <trkpt lat="47.26862" lon="-1.66772">
        <ele>31.3</ele>
        <time>2014-04-27T08:35:00Z</time>
      </trkpt>
      <trkpt lat="47.26871" lon="-1.66781">
        <ele>31.2</ele>
        <time>2014-04-27T08:35:03Z</time>
      </trkpt>
      <trkpt lat="47.26878" lon="-1.6679">
        <ele>31.8</ele>
        <time>2014-04-27T08:35:06Z</time>
      </trkpt>
      <trkpt lat="47.26888" lon="-1.668">
        <ele>32.7</ele>
        <time>2014-04-27T08:35:09Z</time>
      </trkpt>
      <trkpt lat="47.26907" lon="-1.66819">
        <ele>33.4</ele>
        <time>2014-04-27T08:35:15Z</time>
      </trkpt>
      <trkpt lat="47.26917" lon="-1.66831">
        <ele>33.5</ele>
        <time>2014-04-27T08:35:18Z</time>
      </trkpt>
      <trkpt lat="47.26924" lon="-1.66847">
        <ele>34.1</ele>
        <time>2014-04-27T08:35:21Z</time>
      </trkpt>
      <trkpt lat="47.26926" lon="-1.66865">
        <ele>35.1</ele>
        <time>2014-04-27T08:35:24Z</time>
      </trkpt>
      <trkpt lat="47.26929" lon="-1.66883">
        <ele>35.6</ele>
        <time>2014-04-27T08:35:27Z</time>
      </trkpt>
      <trkpt lat="47.26933" lon="-1.66899">
        <ele>35.9</ele>
        <time>2014-04-27T08:35:30Z</time>
      </trkpt>
      <trkpt lat="47.26935" lon="-1.66916">
        <ele>36.1</ele>
        <time>2014-04-27T08:35:32Z</time>
      </trkpt>
      <trkpt lat="47.26935" lon="-1.66931">
        <ele>36.2</ele>
        <time>2014-04-27T08:35:34Z</time>
      </trkpt>
      <trkpt lat="47.26934" lon="-1.66945">
        <ele>35.9</ele>
        <time>2014-04-27T08:35:37Z</time>
      </trkpt>
      <trkpt lat="47.26928" lon="-1.66961">
        <ele>35.7</ele>
        <time>2014-04-27T08:35:40Z</time>
      </trkpt>
      <trkpt lat="47.26928" lon="-1.66977">
        <ele>35.4</ele>
        <time>2014-04-27T08:35:43Z</time>
      </trkpt>
      <trkpt lat="47.26926" lon="-1.66993">
        <ele>35.1</ele>
        <time>2014-04-27T08:35:46Z</time>
      </trkpt>
      <trkpt lat="47.26921" lon="-1.6701">
        <ele>34.7</ele>
        <time>2014-04-27T08:35:49Z</time>
      </trkpt>
      <trkpt lat="47.26918" lon="-1.67029">
        <ele>34.4</ele>
        <time>2014-04-27T08:35:52Z</time>
      </trkpt>
      <trkpt lat="47.26915" lon="-1.67047">
        <ele>34</ele>
        <time>2014-04-27T08:35:55Z</time>
      </trkpt>
      <trkpt lat="47.26915" lon="-1.6706">
        <ele>33.9</ele>
        <time>2014-04-27T08:35:57Z</time>
      </trkpt>
      <trkpt lat="47.26914" lon="-1.67077">
        <ele>34</ele>
        <time>2014-04-27T08:36:00Z</time>
      </trkpt>
      <trkpt lat="47.26908" lon="-1.67095">
        <ele>34</ele>
        <time>2014-04-27T08:36:03Z</time>
      </trkpt>
      <trkpt lat="47.26904" lon="-1.67111">
        <ele>34.1</ele>
        <time>2014-04-27T08:36:06Z</time>
      </trkpt>
      <trkpt lat="47.26902" lon="-1.67128">
        <ele>33.9</ele>
        <time>2014-04-27T08:36:09Z</time>
      </trkpt>
      <trkpt lat="47.26895" lon="-1.6714">
        <ele>33.7</ele>
        <time>2014-04-27T08:36:12Z</time>
      </trkpt>
      <trkpt lat="47.26872" lon="-1.67144">
        <ele>33.5</ele>
        <time>2014-04-27T08:36:18Z</time>
      </trkpt>
      <trkpt lat="47.26862" lon="-1.67139">
        <ele>33.7</ele>
        <time>2014-04-27T08:36:22Z</time>
      </trkpt>
      <trkpt lat="47.26853" lon="-1.67133">
        <ele>34.1</ele>
        <time>2014-04-27T08:36:26Z</time>
      </trkpt>
      <trkpt lat="47.26846" lon="-1.67121">
        <ele>34.8</ele>
        <time>2014-04-27T08:36:30Z</time>
      </trkpt>
      <trkpt lat="47.26838" lon="-1.67108">
        <ele>35.6</ele>
        <time>2014-04-27T08:36:34Z</time>
      </trkpt>
      <trkpt lat="47.26829" lon="-1.67099">
        <ele>36.1</ele>
        <time>2014-04-27T08:36:38Z</time>
      </trkpt>
      <trkpt lat="47.26821" lon="-1.67092">
        <ele>36.5</ele>
        <time>2014-04-27T08:36:41Z</time>
      </trkpt>
      <trkpt lat="47.26811" lon="-1.67098">
        <ele>37</ele>
        <time>2014-04-27T08:36:45Z</time>
      </trkpt>
      <trkpt lat="47.26806" lon="-1.67111">
        <ele>37.3</ele>
        <time>2014-04-27T08:36:48Z</time>
      </trkpt>
      <trkpt lat="47.26799" lon="-1.67124">
        <ele>37.5</ele>
        <time>2014-04-27T08:36:52Z</time>
      </trkpt>
      <trkpt lat="47.26789" lon="-1.6713">
        <ele>37.6</ele>
        <time>2014-04-27T08:36:55Z</time>
      </trkpt>
      <trkpt lat="47.26781" lon="-1.67135">
        <ele>37.5</ele>
        <time>2014-04-27T08:36:58Z</time>
      </trkpt>
      <trkpt lat="47.26792" lon="-1.67139">
        <ele>37.1</ele>
        <time>2014-04-27T08:37:08Z</time>
      </trkpt>
      <trkpt lat="47.26801" lon="-1.67141">
        <ele>37.1</ele>
        <time>2014-04-27T08:37:10Z</time>
      </trkpt>
      <trkpt lat="47.26811" lon="-1.67141">
        <ele>37</ele>
        <time>2014-04-27T08:37:12Z</time>
      </trkpt>
      <trkpt lat="47.26821" lon="-1.67142">
        <ele>35.9</ele>
        <time>2014-04-27T08:37:14Z</time>
      </trkpt>
      <trkpt lat="47.26838" lon="-1.67149">
        <ele>34.1</ele>
        <time>2014-04-27T08:37:18Z</time>
      </trkpt>
      <trkpt lat="47.26844" lon="-1.67165">
        <ele>33.5</ele>
        <time>2014-04-27T08:37:21Z</time>
      </trkpt>
      <trkpt lat="47.26846" lon="-1.67179">
        <ele>33.1</ele>
        <time>2014-04-27T08:37:23Z</time>
      </trkpt>
      <trkpt lat="47.26849" lon="-1.67192">
        <ele>32.7</ele>
        <time>2014-04-27T08:37:25Z</time>
      </trkpt>
      <trkpt lat="47.26853" lon="-1.6721">
        <ele>32</ele>
        <time>2014-04-27T08:37:28Z</time>
      </trkpt>
      <trkpt lat="47.26855" lon="-1.67226">
        <ele>31.6</ele>
        <time>2014-04-27T08:37:31Z</time>
      </trkpt>
      <trkpt lat="47.2686" lon="-1.6724">
        <ele>31.1</ele>
        <time>2014-04-27T08:37:34Z</time>
      </trkpt>
      <trkpt lat="47.26866" lon="-1.67252">
        <ele>30.4</ele>
        <time>2014-04-27T08:37:37Z</time>
      </trkpt>
      <trkpt lat="47.26876" lon="-1.67263">
        <ele>30</ele>
        <time>2014-04-27T08:37:40Z</time>
      </trkpt>
      <trkpt lat="47.26887" lon="-1.67268">
        <ele>29.8</ele>
        <time>2014-04-27T08:37:42Z</time>
      </trkpt>
      <trkpt lat="47.26897" lon="-1.6727">
        <ele>29.5</ele>
        <time>2014-04-27T08:37:44Z</time>
      </trkpt>
      <trkpt lat="47.26909" lon="-1.67266">
        <ele>29.2</ele>
        <time>2014-04-27T08:37:47Z</time>
      </trkpt>
      <trkpt lat="47.26918" lon="-1.6726">
        <ele>27.4</ele>
        <time>2014-04-27T08:37:49Z</time>
      </trkpt>
      <trkpt lat="47.26929" lon="-1.67257">
        <ele>27.6</ele>
        <time>2014-04-27T08:37:51Z</time>
      </trkpt>
      <trkpt lat="47.26942" lon="-1.67256">
        <ele>27.2</ele>
        <time>2014-04-27T08:37:54Z</time>
      </trkpt>
      <trkpt lat="47.26952" lon="-1.67254">
        <ele>27.1</ele>
        <time>2014-04-27T08:37:56Z</time>
      </trkpt>
      <trkpt lat="47.26961" lon="-1.67249">
        <ele>27.2</ele>
        <time>2014-04-27T08:37:58Z</time>
      </trkpt>
      <trkpt lat="47.26971" lon="-1.67247">
        <ele>27.3</ele>
        <time>2014-04-27T08:38:00Z</time>
      </trkpt>
      <trkpt lat="47.26984" lon="-1.67244">
        <ele>27.2</ele>
        <time>2014-04-27T08:38:03Z</time>
      </trkpt>
      <trkpt lat="47.26994" lon="-1.67242">
        <ele>27.2</ele>
        <time>2014-04-27T08:38:06Z</time>
      </trkpt>
      <trkpt lat="47.27006" lon="-1.67239">
        <ele>27.2</ele>
        <time>2014-04-27T08:38:09Z</time>
      </trkpt>
      <trkpt lat="47.27018" lon="-1.67235">
        <ele>26.8</ele>
        <time>2014-04-27T08:38:12Z</time>
      </trkpt>
      <trkpt lat="47.27027" lon="-1.67231">
        <ele>26.9</ele>
        <time>2014-04-27T08:38:14Z</time>
      </trkpt>
      <trkpt lat="47.27038" lon="-1.67228">
        <ele>26.9</ele>
        <time>2014-04-27T08:38:17Z</time>
      </trkpt>
      <trkpt lat="47.27058" lon="-1.67232">
        <ele>27.3</ele>
        <time>2014-04-27T08:38:21Z</time>
      </trkpt>
      <trkpt lat="47.27068" lon="-1.67238">
        <ele>27.7</ele>
        <time>2014-04-27T08:38:23Z</time>
      </trkpt>
      <trkpt lat="47.27077" lon="-1.67246">
        <ele>28</ele>
        <time>2014-04-27T08:38:25Z</time>
      </trkpt>
      <trkpt lat="47.27084" lon="-1.67256">
        <ele>28.3</ele>
        <time>2014-04-27T08:38:27Z</time>
      </trkpt>
      <trkpt lat="47.27091" lon="-1.67269">
        <ele>30.8</ele>
        <time>2014-04-27T08:38:30Z</time>
      </trkpt>
      <trkpt lat="47.2709" lon="-1.67288">
        <ele>30.6</ele>
        <time>2014-04-27T08:38:32Z</time>
      </trkpt>
      <trkpt lat="47.27087" lon="-1.67304">
        <ele>30.5</ele>
        <time>2014-04-27T08:38:34Z</time>
      </trkpt>
      <trkpt lat="47.27081" lon="-1.67316">
        <ele>30.4</ele>
        <time>2014-04-27T08:38:36Z</time>
      </trkpt>
      <trkpt lat="47.27072" lon="-1.67325">
        <ele>30.3</ele>
        <time>2014-04-27T08:38:39Z</time>
      </trkpt>
      <trkpt lat="47.27071" lon="-1.67343">
        <ele>29.7</ele>
        <time>2014-04-27T08:38:43Z</time>
      </trkpt>
      <trkpt lat="47.27068" lon="-1.67362">
        <ele>29.3</ele>
        <time>2014-04-27T08:38:46Z</time>
      </trkpt>
      <trkpt lat="47.27068" lon="-1.67376">
        <ele>28.9</ele>
        <time>2014-04-27T08:38:48Z</time>
      </trkpt>
      <trkpt lat="47.27071" lon="-1.67394">
        <ele>27.4</ele>
        <time>2014-04-27T08:38:50Z</time>
      </trkpt>
      <trkpt lat="47.27073" lon="-1.67411">
        <ele>26.4</ele>
        <time>2014-04-27T08:38:52Z</time>
      </trkpt>
      <trkpt lat="47.27074" lon="-1.67428">
        <ele>26.3</ele>
        <time>2014-04-27T08:38:54Z</time>
      </trkpt>
      <trkpt lat="47.27074" lon="-1.67444">
        <ele>26.1</ele>
        <time>2014-04-27T08:38:56Z</time>
      </trkpt>
      <trkpt lat="47.27073" lon="-1.67462">
        <ele>26.2</ele>
        <time>2014-04-27T08:38:58Z</time>
      </trkpt>
      <trkpt lat="47.27073" lon="-1.67477">
        <ele>26.5</ele>
        <time>2014-04-27T08:39:00Z</time>
      </trkpt>
      <trkpt lat="47.27075" lon="-1.67494">
        <ele>27.1</ele>
        <time>2014-04-27T08:39:03Z</time>
      </trkpt>
      <trkpt lat="47.27078" lon="-1.67509">
        <ele>27.5</ele>
        <time>2014-04-27T08:39:06Z</time>
      </trkpt>
      <trkpt lat="47.27076" lon="-1.67524">
        <ele>27.5</ele>
        <time>2014-04-27T08:39:08Z</time>
      </trkpt>
      <trkpt lat="47.27074" lon="-1.67541">
        <ele>27.8</ele>
        <time>2014-04-27T08:39:11Z</time>
      </trkpt>
      <trkpt lat="47.27077" lon="-1.67554">
        <ele>28.2</ele>
        <time>2014-04-27T08:39:14Z</time>
      </trkpt>
      <trkpt lat="47.27084" lon="-1.67568">
        <ele>28.6</ele>
        <time>2014-04-27T08:39:16Z</time>
      </trkpt>
      <trkpt lat="47.27089" lon="-1.6758">
        <ele>28.8</ele>
        <time>2014-04-27T08:39:18Z</time>
      </trkpt>
      <trkpt lat="47.27103" lon="-1.67607">
        <ele>29.3</ele>
        <time>2014-04-27T08:39:24Z</time>
      </trkpt>
      <trkpt lat="47.27105" lon="-1.67622">
        <ele>29.2</ele>
        <time>2014-04-27T08:39:27Z</time>
      </trkpt>
      <trkpt lat="47.27108" lon="-1.67636">
        <ele>28.9</ele>
        <time>2014-04-27T08:39:30Z</time>
      </trkpt>
      <trkpt lat="47.27109" lon="-1.6765">
        <ele>28.8</ele>
        <time>2014-04-27T08:39:33Z</time>
      </trkpt>
      <trkpt lat="47.27111" lon="-1.67671">
        <ele>28.8</ele>
        <time>2014-04-27T08:39:36Z</time>
      </trkpt>
      <trkpt lat="47.27111" lon="-1.67685">
        <ele>28.9</ele>
        <time>2014-04-27T08:39:38Z</time>
      </trkpt>
      <trkpt lat="47.27111" lon="-1.67699">
        <ele>29.2</ele>
        <time>2014-04-27T08:39:41Z</time>
      </trkpt>
      <trkpt lat="47.2711" lon="-1.67715">
        <ele>29.3</ele>
        <time>2014-04-27T08:39:44Z</time>
      </trkpt>
      <trkpt lat="47.27108" lon="-1.67729">
        <ele>29.3</ele>
        <time>2014-04-27T08:39:47Z</time>
      </trkpt>
      <trkpt lat="47.27106" lon="-1.67742">
        <ele>28.8</ele>
        <time>2014-04-27T08:39:50Z</time>
      </trkpt>
      <trkpt lat="47.27103" lon="-1.67756">
        <ele>28.7</ele>
        <time>2014-04-27T08:39:53Z</time>
      </trkpt>
      <trkpt lat="47.27101" lon="-1.67773">
        <ele>28.9</ele>
        <time>2014-04-27T08:39:56Z</time>
      </trkpt>
      <trkpt lat="47.27094" lon="-1.67791">
        <ele>29.3</ele>
        <time>2014-04-27T08:39:59Z</time>
      </trkpt>
      <trkpt lat="47.27088" lon="-1.67804">
        <ele>29.7</ele>
        <time>2014-04-27T08:40:01Z</time>
      </trkpt>
      <trkpt lat="47.27083" lon="-1.67817">
        <ele>29.9</ele>
        <time>2014-04-27T08:40:03Z</time>
      </trkpt>
      <trkpt lat="47.27077" lon="-1.67829">
        <ele>30.1</ele>
        <time>2014-04-27T08:40:05Z</time>
      </trkpt>
      <trkpt lat="47.2707" lon="-1.67846">
        <ele>30.9</ele>
        <time>2014-04-27T08:40:08Z</time>
      </trkpt>
      <trkpt lat="47.27064" lon="-1.67859">
        <ele>31.5</ele>
        <time>2014-04-27T08:40:10Z</time>
      </trkpt>
      <trkpt lat="47.27058" lon="-1.67873">
        <ele>32.5</ele>
        <time>2014-04-27T08:40:13Z</time>
      </trkpt>
      <trkpt lat="47.27052" lon="-1.67883">
        <ele>33.2</ele>
        <time>2014-04-27T08:40:16Z</time>
      </trkpt>
      <trkpt lat="47.27047" lon="-1.67895">
        <ele>33.5</ele>
        <time>2014-04-27T08:40:19Z</time>
      </trkpt>
      <trkpt lat="47.27041" lon="-1.67924">
        <ele>34</ele>
        <time>2014-04-27T08:40:27Z</time>
      </trkpt>
      <trkpt lat="47.27037" lon="-1.67938">
        <ele>34.1</ele>
        <time>2014-04-27T08:40:30Z</time>
      </trkpt>
      <trkpt lat="47.27034" lon="-1.67953">
        <ele>34.1</ele>
        <time>2014-04-27T08:40:33Z</time>
      </trkpt>
      <trkpt lat="47.27033" lon="-1.67968">
        <ele>34.2</ele>
        <time>2014-04-27T08:40:36Z</time>
      </trkpt>
      <trkpt lat="47.27033" lon="-1.67986">
        <ele>34.3</ele>
        <time>2014-04-27T08:40:40Z</time>
      </trkpt>
      <trkpt lat="47.27034" lon="-1.67999">
        <ele>34.4</ele>
        <time>2014-04-27T08:40:43Z</time>
      </trkpt>
      <trkpt lat="47.27033" lon="-1.68013">
        <ele>34.8</ele>
        <time>2014-04-27T08:40:48Z</time>
      </trkpt>
      <trkpt lat="47.27034" lon="-1.68029">
        <ele>35.1</ele>
        <time>2014-04-27T08:40:53Z</time>
      </trkpt>
      <trkpt lat="47.2704" lon="-1.6804">
        <ele>35.4</ele>
        <time>2014-04-27T08:40:56Z</time>
      </trkpt>
      <trkpt lat="47.27046" lon="-1.6806">
        <ele>35.6</ele>
        <time>2014-04-27T08:40:59Z</time>
      </trkpt>
      <trkpt lat="47.27053" lon="-1.68081">
        <ele>35.9</ele>
        <time>2014-04-27T08:41:02Z</time>
      </trkpt>
      <trkpt lat="47.27059" lon="-1.68093">
        <ele>36.2</ele>
        <time>2014-04-27T08:41:04Z</time>
      </trkpt>
      <trkpt lat="47.27068" lon="-1.68104">
        <ele>36.4</ele>
        <time>2014-04-27T08:41:06Z</time>
      </trkpt>
      <trkpt lat="47.27074" lon="-1.68117">
        <ele>36.6</ele>
        <time>2014-04-27T08:41:08Z</time>
      </trkpt>
      <trkpt lat="47.27079" lon="-1.6813">
        <ele>36.9</ele>
        <time>2014-04-27T08:41:10Z</time>
      </trkpt>
      <trkpt lat="47.27084" lon="-1.68148">
        <ele>37.1</ele>
        <time>2014-04-27T08:41:13Z</time>
      </trkpt>
      <trkpt lat="47.27079" lon="-1.68162">
        <ele>37.3</ele>
        <time>2014-04-27T08:41:16Z</time>
      </trkpt>
      <trkpt lat="47.27074" lon="-1.68174">
        <ele>37</ele>
        <time>2014-04-27T08:41:19Z</time>
      </trkpt>
      <trkpt lat="47.27082" lon="-1.68196">
        <ele>36.1</ele>
        <time>2014-04-27T08:41:27Z</time>
      </trkpt>
      <trkpt lat="47.27089" lon="-1.68204">
        <ele>36.2</ele>
        <time>2014-04-27T08:41:31Z</time>
      </trkpt>
      <trkpt lat="47.27096" lon="-1.68213">
        <ele>36.8</ele>
        <time>2014-04-27T08:41:35Z</time>
      </trkpt>
      <trkpt lat="47.27105" lon="-1.68221">
        <ele>37.8</ele>
        <time>2014-04-27T08:41:41Z</time>
      </trkpt>
      <trkpt lat="47.27115" lon="-1.6823">
        <ele>38.7</ele>
        <time>2014-04-27T08:41:45Z</time>
      </trkpt>
      <trkpt lat="47.27124" lon="-1.68239">
        <ele>39.5</ele>
        <time>2014-04-27T08:41:50Z</time>
      </trkpt>
      <trkpt lat="47.27132" lon="-1.68252">
        <ele>40.1</ele>
        <time>2014-04-27T08:41:55Z</time>
      </trkpt>
      <trkpt lat="47.27138" lon="-1.68264">
        <ele>40.6</ele>
        <time>2014-04-27T08:41:59Z</time>
      </trkpt>
      <trkpt lat="47.27145" lon="-1.68276">
        <ele>41</ele>
        <time>2014-04-27T08:42:03Z</time>
      </trkpt>
      <trkpt lat="47.27152" lon="-1.68287">
        <ele>41.5</ele>
        <time>2014-04-27T08:42:06Z</time>
      </trkpt>
      <trkpt lat="47.27159" lon="-1.68302">
        <ele>42.2</ele>
        <time>2014-04-27T08:42:10Z</time>
      </trkpt>
      <trkpt lat="47.27164" lon="-1.68318">
        <ele>42.5</ele>
        <time>2014-04-27T08:42:13Z</time>
      </trkpt>
      <trkpt lat="47.27168" lon="-1.68336">
        <ele>42.6</ele>
        <time>2014-04-27T08:42:16Z</time>
      </trkpt>
      <trkpt lat="47.27174" lon="-1.68351">
        <ele>42.7</ele>
        <time>2014-04-27T08:42:19Z</time>
      </trkpt>
      <trkpt lat="47.27181" lon="-1.68364">
        <ele>42.7</ele>
        <time>2014-04-27T08:42:22Z</time>
      </trkpt>
      <trkpt lat="47.27194" lon="-1.68389">
        <ele>42.9</ele>
        <time>2014-04-27T08:42:26Z</time>
      </trkpt>
      <trkpt lat="47.27202" lon="-1.684">
        <ele>43.1</ele>
        <time>2014-04-27T08:42:29Z</time>
      </trkpt>
      <trkpt lat="47.2721" lon="-1.68407">
        <ele>43.2</ele>
        <time>2014-04-27T08:42:32Z</time>
      </trkpt>
      <trkpt lat="47.2722" lon="-1.68419">
        <ele>43.2</ele>
        <time>2014-04-27T08:42:36Z</time>
      </trkpt>
      <trkpt lat="47.27221" lon="-1.68433">
        <ele>43.4</ele>
        <time>2014-04-27T08:42:39Z</time>
      </trkpt>
      <trkpt lat="47.27213" lon="-1.68442">
        <ele>43.6</ele>
        <time>2014-04-27T08:42:42Z</time>
      </trkpt>
      <trkpt lat="47.27206" lon="-1.68451">
        <ele>44.1</ele>
        <time>2014-04-27T08:42:46Z</time>
      </trkpt>
      <trkpt lat="47.27196" lon="-1.68459">
        <ele>46.4</ele>
        <time>2014-04-27T08:43:03Z</time>
      </trkpt>
      <trkpt lat="47.2719" lon="-1.6847">
        <ele>46.8</ele>
        <time>2014-04-27T08:43:11Z</time>
      </trkpt>
      <trkpt lat="47.27183" lon="-1.68482">
        <ele>47.4</ele>
        <time>2014-04-27T08:43:17Z</time>
      </trkpt>
      <trkpt lat="47.27177" lon="-1.68494">
        <ele>48.3</ele>
        <time>2014-04-27T08:43:23Z</time>
      </trkpt>
      <trkpt lat="47.27157" lon="-1.68503">
        <ele>49.1</ele>
        <time>2014-04-27T08:43:31Z</time>
      </trkpt>
      <trkpt lat="47.27147" lon="-1.68505">
        <ele>49.3</ele>
        <time>2014-04-27T08:43:34Z</time>
      </trkpt>
      <trkpt lat="47.27137" lon="-1.68505">
        <ele>49.5</ele>
        <time>2014-04-27T08:43:37Z</time>
      </trkpt>
      <trkpt lat="47.27126" lon="-1.68508">
        <ele>49.7</ele>
        <time>2014-04-27T08:43:40Z</time>
      </trkpt>
      <trkpt lat="47.27117" lon="-1.6851">
        <ele>50</ele>
        <time>2014-04-27T08:43:43Z</time>
      </trkpt>
      <trkpt lat="47.27107" lon="-1.68514">
        <ele>50.5</ele>
        <time>2014-04-27T08:43:46Z</time>
      </trkpt>
      <trkpt lat="47.271" lon="-1.68526">
        <ele>50.9</ele>
        <time>2014-04-27T08:43:49Z</time>
      </trkpt>
      <trkpt lat="47.27101" lon="-1.6854">
        <ele>51.2</ele>
        <time>2014-04-27T08:43:51Z</time>
      </trkpt>
      <trkpt lat="47.27102" lon="-1.68556">
        <ele>51.7</ele>
        <time>2014-04-27T08:43:54Z</time>
      </trkpt>
      <trkpt lat="47.27099" lon="-1.6857">
        <ele>52</ele>
        <time>2014-04-27T08:43:57Z</time>
      </trkpt>
      <trkpt lat="47.27094" lon="-1.68583">
        <ele>52.3</ele>
        <time>2014-04-27T08:44:00Z</time>
      </trkpt>
      <trkpt lat="47.27089" lon="-1.68596">
        <ele>52.5</ele>
        <time>2014-04-27T08:44:03Z</time>
      </trkpt>
      <trkpt lat="47.27083" lon="-1.68609">
        <ele>52.6</ele>
        <time>2014-04-27T08:44:06Z</time>
      </trkpt>
      <trkpt lat="47.27077" lon="-1.68625">
        <ele>52.7</ele>
        <time>2014-04-27T08:44:10Z</time>
      </trkpt>
      <trkpt lat="47.27079" lon="-1.6864">
        <ele>52.8</ele>
        <time>2014-04-27T08:44:14Z</time>
      </trkpt>
      <trkpt lat="47.27087" lon="-1.6865">
        <ele>53.1</ele>
        <time>2014-04-27T08:44:17Z</time>
      </trkpt>
      <trkpt lat="47.27095" lon="-1.6866">
        <ele>53.4</ele>
        <time>2014-04-27T08:44:19Z</time>
      </trkpt>
      <trkpt lat="47.27102" lon="-1.68669">
        <ele>54</ele>
        <time>2014-04-27T08:44:22Z</time>
      </trkpt>
      <trkpt lat="47.27109" lon="-1.68678">
        <ele>54.1</ele>
        <time>2014-04-27T08:44:25Z</time>
      </trkpt>
      <trkpt lat="47.27121" lon="-1.68705">
        <ele>55</ele>
        <time>2014-04-27T08:44:33Z</time>
      </trkpt>
      <trkpt lat="47.27118" lon="-1.6872">
        <ele>55.2</ele>
        <time>2014-04-27T08:44:38Z</time>
      </trkpt>
      <trkpt lat="47.27108" lon="-1.68734">
        <ele>55.2</ele>
        <time>2014-04-27T08:44:41Z</time>
      </trkpt>
      <trkpt lat="47.27099" lon="-1.68744">
        <ele>55.4</ele>
        <time>2014-04-27T08:44:43Z</time>
      </trkpt>
      <trkpt lat="47.27092" lon="-1.68756">
        <ele>55.9</ele>
        <time>2014-04-27T08:44:46Z</time>
      </trkpt>
      <trkpt lat="47.27086" lon="-1.68767">
        <ele>56.5</ele>
        <time>2014-04-27T08:44:49Z</time>
      </trkpt>
      <trkpt lat="47.27089" lon="-1.68781">
        <ele>57.5</ele>
        <time>2014-04-27T08:44:55Z</time>
      </trkpt>
      <trkpt lat="47.27097" lon="-1.68788">
        <ele>58.3</ele>
        <time>2014-04-27T08:44:59Z</time>
      </trkpt>
      <trkpt lat="47.27106" lon="-1.68797">
        <ele>59</ele>
        <time>2014-04-27T08:45:03Z</time>
      </trkpt>
      <trkpt lat="47.27118" lon="-1.68806">
        <ele>59.5</ele>
        <time>2014-04-27T08:45:06Z</time>
      </trkpt>
      <trkpt lat="47.27125" lon="-1.68815">
        <ele>61.2</ele>
        <time>2014-04-27T08:45:08Z</time>
      </trkpt>
      <trkpt lat="47.27134" lon="-1.68826">
        <ele>64.2</ele>
        <time>2014-04-27T08:45:11Z</time>
      </trkpt>
      <trkpt lat="47.27145" lon="-1.68839">
        <ele>64.9</ele>
        <time>2014-04-27T08:45:14Z</time>
      </trkpt>
      <trkpt lat="47.27152" lon="-1.68848">
        <ele>65.2</ele>
        <time>2014-04-27T08:45:16Z</time>
      </trkpt>
      <trkpt lat="47.27159" lon="-1.68856">
        <ele>65.6</ele>
        <time>2014-04-27T08:45:18Z</time>
      </trkpt>
      <trkpt lat="47.27168" lon="-1.68867">
        <ele>67.5</ele>
        <time>2014-04-27T08:45:21Z</time>
      </trkpt>
      <trkpt lat="47.27179" lon="-1.68863">
        <ele>67.3</ele>
        <time>2014-04-27T08:45:25Z</time>
      </trkpt>
      <trkpt lat="47.27187" lon="-1.6885">
        <ele>66.7</ele>
        <time>2014-04-27T08:45:27Z</time>
      </trkpt>
      <trkpt lat="47.272" lon="-1.68824">
        <ele>65.8</ele>
        <time>2014-04-27T08:45:31Z</time>
      </trkpt>
      <trkpt lat="47.27207" lon="-1.68815">
        <ele>65</ele>
        <time>2014-04-27T08:45:33Z</time>
      </trkpt>
      <trkpt lat="47.27216" lon="-1.68806">
        <ele>64.3</ele>
        <time>2014-04-27T08:45:35Z</time>
      </trkpt>
      <trkpt lat="47.27222" lon="-1.68794">
        <ele>62.9</ele>
        <time>2014-04-27T08:45:38Z</time>
      </trkpt>
      <trkpt lat="47.27229" lon="-1.68785">
        <ele>62.7</ele>
        <time>2014-04-27T08:45:41Z</time>
      </trkpt>
      <trkpt lat="47.27236" lon="-1.68774">
        <ele>62.5</ele>
        <time>2014-04-27T08:45:44Z</time>
      </trkpt>
      <trkpt lat="47.27243" lon="-1.68763">
        <ele>62.1</ele>
        <time>2014-04-27T08:45:48Z</time>
      </trkpt>
      <trkpt lat="47.27249" lon="-1.68749">
        <ele>53.2</ele>
        <time>2014-04-27T08:49:46Z</time>
      </trkpt>
      <trkpt lat="47.27265" lon="-1.6873">
        <ele>53.2</ele>
        <time>2014-04-27T08:49:53Z</time>
      </trkpt>
      <trkpt lat="47.27276" lon="-1.68719">
        <ele>53.4</ele>
        <time>2014-04-27T08:49:56Z</time>
      </trkpt>
      <trkpt lat="47.27289" lon="-1.68709">
        <ele>54</ele>
        <time>2014-04-27T08:49:59Z</time>
      </trkpt>
      <trkpt lat="47.27301" lon="-1.68704">
        <ele>53.8</ele>
        <time>2014-04-27T08:50:01Z</time>
      </trkpt>
      <trkpt lat="47.27315" lon="-1.687">
        <ele>53.9</ele>
        <time>2014-04-27T08:50:03Z</time>
      </trkpt>
      <trkpt lat="47.27326" lon="-1.68692">
        <ele>54.1</ele>
        <time>2014-04-27T08:50:05Z</time>
      </trkpt>
      <trkpt lat="47.27334" lon="-1.68682">
        <ele>54.9</ele>
        <time>2014-04-27T08:50:07Z</time>
      </trkpt>
      <trkpt lat="47.27341" lon="-1.68672">
        <ele>55.9</ele>
        <time>2014-04-27T08:50:09Z</time>
      </trkpt>
      <trkpt lat="47.27348" lon="-1.6866">
        <ele>56.7</ele>
        <time>2014-04-27T08:50:11Z</time>
      </trkpt>
      <trkpt lat="47.27355" lon="-1.68647">
        <ele>55.8</ele>
        <time>2014-04-27T08:50:13Z</time>
      </trkpt>
      <trkpt lat="47.27361" lon="-1.68636">
        <ele>54.2</ele>
        <time>2014-04-27T08:50:15Z</time>
      </trkpt>
      <trkpt lat="47.27369" lon="-1.68626">
        <ele>53.7</ele>
        <time>2014-04-27T08:50:17Z</time>
      </trkpt>
      <trkpt lat="47.27376" lon="-1.68616">
        <ele>52.3</ele>
        <time>2014-04-27T08:50:19Z</time>
      </trkpt>
      <trkpt lat="47.27386" lon="-1.68605">
        <ele>51.7</ele>
        <time>2014-04-27T08:50:21Z</time>
      </trkpt>
      <trkpt lat="47.27394" lon="-1.68598">
        <ele>51.5</ele>
        <time>2014-04-27T08:50:24Z</time>
      </trkpt>
      <trkpt lat="47.27402" lon="-1.6859">
        <ele>51.2</ele>
        <time>2014-04-27T08:50:27Z</time>
      </trkpt>
      <trkpt lat="47.27409" lon="-1.68579">
        <ele>50.6</ele>
        <time>2014-04-27T08:50:32Z</time>
      </trkpt>
      <trkpt lat="47.27418" lon="-1.68574">
        <ele>49.8</ele>
        <time>2014-04-27T08:50:36Z</time>
      </trkpt>
      <trkpt lat="47.27425" lon="-1.68566">
        <ele>48.4</ele>
        <time>2014-04-27T08:50:40Z</time>
      </trkpt>
      <trkpt lat="47.27433" lon="-1.68558">
        <ele>47.3</ele>
        <time>2014-04-27T08:50:43Z</time>
      </trkpt>
      <trkpt lat="47.27442" lon="-1.68549">
        <ele>45.2</ele>
        <time>2014-04-27T08:50:47Z</time>
      </trkpt>
      <trkpt lat="47.27442" lon="-1.68541">
        <ele>41.3</ele>
        <time>2014-04-27T08:51:33Z</time>
      </trkpt>
      <trkpt lat="47.27442" lon="-1.68528">
        <ele>39.5</ele>
        <time>2014-04-27T08:52:02Z</time>
      </trkpt>
      <trkpt lat="47.27456" lon="-1.6851">
        <ele>36.7</ele>
        <time>2014-04-27T08:52:29Z</time>
      </trkpt>
      <trkpt lat="47.27463" lon="-1.68501">
        <ele>37.4</ele>
        <time>2014-04-27T08:52:43Z</time>
      </trkpt>
      <trkpt lat="47.2747" lon="-1.68494">
        <ele>38</ele>
        <time>2014-04-27T08:53:13Z</time>
      </trkpt>
      <trkpt lat="47.27488" lon="-1.68504">
        <ele>37</ele>
        <time>2014-04-27T08:53:22Z</time>
      </trkpt>
      <trkpt lat="47.27494" lon="-1.68514">
        <ele>36.6</ele>
        <time>2014-04-27T08:53:27Z</time>
      </trkpt>
      <trkpt lat="47.27504" lon="-1.6852">
        <ele>35.6</ele>
        <time>2014-04-27T08:53:33Z</time>
      </trkpt>
      <trkpt lat="47.27511" lon="-1.68532">
        <ele>34.7</ele>
        <time>2014-04-27T08:53:38Z</time>
      </trkpt>
      <trkpt lat="47.27518" lon="-1.68541">
        <ele>34.7</ele>
        <time>2014-04-27T08:53:42Z</time>
      </trkpt>
      <trkpt lat="47.27527" lon="-1.68551">
        <ele>34.7</ele>
        <time>2014-04-27T08:53:47Z</time>
      </trkpt>
      <trkpt lat="47.27535" lon="-1.6856">
        <ele>34.7</ele>
        <time>2014-04-27T08:53:51Z</time>
      </trkpt>
      <trkpt lat="47.27545" lon="-1.68568">
        <ele>35</ele>
        <time>2014-04-27T08:53:55Z</time>
      </trkpt>
      <trkpt lat="47.27556" lon="-1.68576">
        <ele>34.8</ele>
        <time>2014-04-27T08:53:59Z</time>
      </trkpt>
      <trkpt lat="47.27565" lon="-1.68582">
        <ele>34.4</ele>
        <time>2014-04-27T08:54:02Z</time>
      </trkpt>
      <trkpt lat="47.27572" lon="-1.68591">
        <ele>33.3</ele>
        <time>2014-04-27T08:54:06Z</time>
      </trkpt>
      <trkpt lat="47.2758" lon="-1.68598">
        <ele>32.3</ele>
        <time>2014-04-27T08:54:09Z</time>
      </trkpt>
      <trkpt lat="47.27587" lon="-1.68609">
        <ele>31.7</ele>
        <time>2014-04-27T08:54:13Z</time>
      </trkpt>
      <trkpt lat="47.27594" lon="-1.6862">
        <ele>31.9</ele>
        <time>2014-04-27T08:54:19Z</time>
      </trkpt>
      <trkpt lat="47.276" lon="-1.68647">
        <ele>32.2</ele>
        <time>2014-04-27T08:54:27Z</time>
      </trkpt>
      <trkpt lat="47.27604" lon="-1.68661">
        <ele>32.8</ele>
        <time>2014-04-27T08:54:32Z</time>
      </trkpt>
      <trkpt lat="47.27611" lon="-1.68673">
        <ele>33.8</ele>
        <time>2014-04-27T08:54:38Z</time>
      </trkpt>
      <trkpt lat="47.27619" lon="-1.6868">
        <ele>34.1</ele>
        <time>2014-04-27T08:54:43Z</time>
      </trkpt>
      <trkpt lat="47.27629" lon="-1.68677">
        <ele>34.8</ele>
        <time>2014-04-27T08:54:49Z</time>
      </trkpt>
      <trkpt lat="47.27638" lon="-1.68672">
        <ele>35.6</ele>
        <time>2014-04-27T08:54:54Z</time>
      </trkpt>
      <trkpt lat="47.27647" lon="-1.68665">
        <ele>37.2</ele>
        <time>2014-04-27T08:55:00Z</time>
      </trkpt>
      <trkpt lat="47.27655" lon="-1.68658">
        <ele>38.9</ele>
        <time>2014-04-27T08:55:05Z</time>
      </trkpt>
      <trkpt lat="47.27664" lon="-1.68651">
        <ele>39.4</ele>
        <time>2014-04-27T08:55:10Z</time>
      </trkpt>
      <trkpt lat="47.27673" lon="-1.68645">
        <ele>41.4</ele>
        <time>2014-04-27T08:55:42Z</time>
      </trkpt>
      <trkpt lat="47.27692" lon="-1.68625">
        <ele>42.4</ele>
        <time>2014-04-27T08:55:50Z</time>
      </trkpt>
      <trkpt lat="47.27701" lon="-1.68619">
        <ele>42.7</ele>
        <time>2014-04-27T08:55:55Z</time>
      </trkpt>
      <trkpt lat="47.27709" lon="-1.68611">
        <ele>42.4</ele>
        <time>2014-04-27T08:55:59Z</time>
      </trkpt>
      <trkpt lat="47.27717" lon="-1.68604">
        <ele>42.1</ele>
        <time>2014-04-27T08:56:02Z</time>
      </trkpt>
      <trkpt lat="47.27727" lon="-1.68598">
        <ele>41.8</ele>
        <time>2014-04-27T08:56:06Z</time>
      </trkpt>
      <trkpt lat="47.27738" lon="-1.68594">
        <ele>42</ele>
        <time>2014-04-27T08:56:10Z</time>
      </trkpt>
      <trkpt lat="47.27747" lon="-1.68585">
        <ele>42</ele>
        <time>2014-04-27T08:56:13Z</time>
      </trkpt>
      <trkpt lat="47.27755" lon="-1.68573">
        <ele>41.8</ele>
        <time>2014-04-27T08:56:17Z</time>
      </trkpt>
      <trkpt lat="47.2776" lon="-1.68561">
        <ele>42.5</ele>
        <time>2014-04-27T08:56:25Z</time>
      </trkpt>
      <trkpt lat="47.27758" lon="-1.68547">
        <ele>44</ele>
        <time>2014-04-27T08:56:31Z</time>
      </trkpt>
      <trkpt lat="47.27756" lon="-1.68533">
        <ele>45.3</ele>
        <time>2014-04-27T08:56:36Z</time>
      </trkpt>
      <trkpt lat="47.2775" lon="-1.68521">
        <ele>47.4</ele>
        <time>2014-04-27T08:56:43Z</time>
      </trkpt>
      <trkpt lat="47.27734" lon="-1.68507">
        <ele>51.1</ele>
        <time>2014-04-27T08:56:57Z</time>
      </trkpt>
      <trkpt lat="47.27726" lon="-1.68503">
        <ele>52.8</ele>
        <time>2014-04-27T08:57:03Z</time>
      </trkpt>
      <trkpt lat="47.27719" lon="-1.68493">
        <ele>54.4</ele>
        <time>2014-04-27T08:57:10Z</time>
      </trkpt>
      <trkpt lat="47.27711" lon="-1.68482">
        <ele>55.5</ele>
        <time>2014-04-27T08:57:17Z</time>
      </trkpt>
      <trkpt lat="47.27704" lon="-1.68471">
        <ele>56.4</ele>
        <time>2014-04-27T08:57:22Z</time>
      </trkpt>
      <trkpt lat="47.27698" lon="-1.68458">
        <ele>57.9</ele>
        <time>2014-04-27T08:57:29Z</time>
      </trkpt>
      <trkpt lat="47.27692" lon="-1.68447">
        <ele>58.8</ele>
        <time>2014-04-27T08:57:34Z</time>
      </trkpt>
      <trkpt lat="47.27685" lon="-1.68436">
        <ele>59.4</ele>
        <time>2014-04-27T08:57:39Z</time>
      </trkpt>
      <trkpt lat="47.2768" lon="-1.68422">
        <ele>59.9</ele>
        <time>2014-04-27T08:57:42Z</time>
      </trkpt>
      <trkpt lat="47.27677" lon="-1.68409">
        <ele>60.5</ele>
        <time>2014-04-27T08:57:47Z</time>
      </trkpt>
      <trkpt lat="47.2768" lon="-1.68381">
        <ele>60.5</ele>
        <time>2014-04-27T08:57:57Z</time>
      </trkpt>
      <trkpt lat="47.27677" lon="-1.68365">
        <ele>58.9</ele>
        <time>2014-04-27T08:58:03Z</time>
      </trkpt>
      <trkpt lat="47.27675" lon="-1.68349">
        <ele>57.7</ele>
        <time>2014-04-27T08:58:08Z</time>
      </trkpt>
      <trkpt lat="47.27675" lon="-1.68334">
        <ele>57</ele>
        <time>2014-04-27T08:58:13Z</time>
      </trkpt>
      <trkpt lat="47.27675" lon="-1.68319">
        <ele>55.6</ele>
        <time>2014-04-27T08:58:18Z</time>
      </trkpt>
      <trkpt lat="47.27675" lon="-1.68305">
        <ele>55</ele>
        <time>2014-04-27T08:58:21Z</time>
      </trkpt>
      <trkpt lat="47.27675" lon="-1.68288">
        <ele>55</ele>
        <time>2014-04-27T08:58:24Z</time>
      </trkpt>
      <trkpt lat="47.27672" lon="-1.68273">
        <ele>55.1</ele>
        <time>2014-04-27T08:58:26Z</time>
      </trkpt>
      <trkpt lat="47.27669" lon="-1.68257">
        <ele>55.6</ele>
        <time>2014-04-27T08:58:28Z</time>
      </trkpt>
      <trkpt lat="47.27664" lon="-1.68243">
        <ele>56.1</ele>
        <time>2014-04-27T08:58:30Z</time>
      </trkpt>
      <trkpt lat="47.27658" lon="-1.68226">
        <ele>56.6</ele>
        <time>2014-04-27T08:58:32Z</time>
      </trkpt>
      <trkpt lat="47.27652" lon="-1.68213">
        <ele>57.2</ele>
        <time>2014-04-27T08:58:34Z</time>
      </trkpt>
      <trkpt lat="47.27643" lon="-1.68197">
        <ele>58.1</ele>
        <time>2014-04-27T08:58:37Z</time>
      </trkpt>
      <trkpt lat="47.27636" lon="-1.68182">
        <ele>59</ele>
        <time>2014-04-27T08:58:40Z</time>
      </trkpt>
      <trkpt lat="47.27631" lon="-1.68169">
        <ele>59.7</ele>
        <time>2014-04-27T08:58:44Z</time>
      </trkpt>
      <trkpt lat="47.27631" lon="-1.68151">
        <ele>60.1</ele>
        <time>2014-04-27T08:58:48Z</time>
      </trkpt>
      <trkpt lat="47.27641" lon="-1.68124">
        <ele>59.6</ele>
        <time>2014-04-27T08:58:54Z</time>
      </trkpt>
      <trkpt lat="47.27642" lon="-1.6811">
        <ele>59.2</ele>
        <time>2014-04-27T08:58:57Z</time>
      </trkpt>
      <trkpt lat="47.27641" lon="-1.68096">
        <ele>58.6</ele>
        <time>2014-04-27T08:59:01Z</time>
      </trkpt>
      <trkpt lat="47.27639" lon="-1.68081">
        <ele>57.9</ele>
        <time>2014-04-27T08:59:05Z</time>
      </trkpt>
      <trkpt lat="47.27638" lon="-1.68065">
        <ele>57.3</ele>
        <time>2014-04-27T08:59:09Z</time>
      </trkpt>
      <trkpt lat="47.27636" lon="-1.68049">
        <ele>56.1</ele>
        <time>2014-04-27T08:59:15Z</time>
      </trkpt>
      <trkpt lat="47.27633" lon="-1.68035">
        <ele>56.2</ele>
        <time>2014-04-27T08:59:18Z</time>
      </trkpt>
      <trkpt lat="47.27623" lon="-1.68026">
        <ele>56.9</ele>
        <time>2014-04-27T08:59:22Z</time>
      </trkpt>
      <trkpt lat="47.27611" lon="-1.68026">
        <ele>57.3</ele>
        <time>2014-04-27T08:59:26Z</time>
      </trkpt>
      <trkpt lat="47.27602" lon="-1.68024">
        <ele>57.5</ele>
        <time>2014-04-27T08:59:28Z</time>
      </trkpt>
      <trkpt lat="47.27591" lon="-1.68023">
        <ele>57.7</ele>
        <time>2014-04-27T08:59:31Z</time>
      </trkpt>
      <trkpt lat="47.27581" lon="-1.68021">
        <ele>58</ele>
        <time>2014-04-27T08:59:34Z</time>
      </trkpt>
      <trkpt lat="47.27572" lon="-1.68018">
        <ele>58.4</ele>
        <time>2014-04-27T08:59:37Z</time>
      </trkpt>
      <trkpt lat="47.27564" lon="-1.68011">
        <ele>58.7</ele>
        <time>2014-04-27T08:59:40Z</time>
      </trkpt>
      <trkpt lat="47.27555" lon="-1.67999">
        <ele>59.1</ele>
        <time>2014-04-27T08:59:43Z</time>
      </trkpt>
      <trkpt lat="47.2755" lon="-1.67988">
        <ele>59.6</ele>
        <time>2014-04-27T08:59:47Z</time>
      </trkpt>
      <trkpt lat="47.27557" lon="-1.67996">
        <ele>60</ele>
        <time>2014-04-27T08:59:56Z</time>
      </trkpt>
      <trkpt lat="47.27572" lon="-1.68015">
        <ele>60.4</ele>
        <time>2014-04-27T09:00:02Z</time>
      </trkpt>
      <trkpt lat="47.27583" lon="-1.68022">
        <ele>60.2</ele>
        <time>2014-04-27T09:00:06Z</time>
      </trkpt>
      <trkpt lat="47.27593" lon="-1.68023">
        <ele>60.1</ele>
        <time>2014-04-27T09:00:09Z</time>
      </trkpt>
      <trkpt lat="47.27603" lon="-1.68024">
        <ele>60.1</ele>
        <time>2014-04-27T09:00:11Z</time>
      </trkpt>
      <trkpt lat="47.27612" lon="-1.68024">
        <ele>60.1</ele>
        <time>2014-04-27T09:00:13Z</time>
      </trkpt>
      <trkpt lat="47.27621" lon="-1.68022">
        <ele>60</ele>
        <time>2014-04-27T09:00:15Z</time>
      </trkpt>
      <trkpt lat="47.27634" lon="-1.68017">
        <ele>60.4</ele>
        <time>2014-04-27T09:00:18Z</time>
      </trkpt>
      <trkpt lat="47.27645" lon="-1.68007">
        <ele>59.6</ele>
        <time>2014-04-27T09:00:21Z</time>
      </trkpt>
      <trkpt lat="47.27653" lon="-1.67999">
        <ele>59.1</ele>
        <time>2014-04-27T09:00:23Z</time>
      </trkpt>
      <trkpt lat="47.27661" lon="-1.67992">
        <ele>58.8</ele>
        <time>2014-04-27T09:00:25Z</time>
      </trkpt>
      <trkpt lat="47.2767" lon="-1.67984">
        <ele>58.6</ele>
        <time>2014-04-27T09:00:28Z</time>
      </trkpt>
      <trkpt lat="47.2768" lon="-1.67975">
        <ele>57.6</ele>
        <time>2014-04-27T09:00:31Z</time>
      </trkpt>
      <trkpt lat="47.2769" lon="-1.67969">
        <ele>55.7</ele>
        <time>2014-04-27T09:00:33Z</time>
      </trkpt>
      <trkpt lat="47.27701" lon="-1.67957">
        <ele>53.3</ele>
        <time>2014-04-27T09:00:35Z</time>
      </trkpt>
      <trkpt lat="47.2771" lon="-1.67945">
        <ele>51.3</ele>
        <time>2014-04-27T09:00:37Z</time>
      </trkpt>
      <trkpt lat="47.27717" lon="-1.67931">
        <ele>49.6</ele>
        <time>2014-04-27T09:00:39Z</time>
      </trkpt>
      <trkpt lat="47.27726" lon="-1.67919">
        <ele>48.8</ele>
        <time>2014-04-27T09:00:41Z</time>
      </trkpt>
      <trkpt lat="47.27734" lon="-1.67906">
        <ele>47.4</ele>
        <time>2014-04-27T09:00:43Z</time>
      </trkpt>
      <trkpt lat="47.27743" lon="-1.67893">
        <ele>46.7</ele>
        <time>2014-04-27T09:00:45Z</time>
      </trkpt>
      <trkpt lat="47.2775" lon="-1.67882">
        <ele>46.8</ele>
        <time>2014-04-27T09:00:47Z</time>
      </trkpt>
      <trkpt lat="47.27758" lon="-1.67869">
        <ele>47.6</ele>
        <time>2014-04-27T09:00:49Z</time>
      </trkpt>
      <trkpt lat="47.27766" lon="-1.67854">
        <ele>48.9</ele>
        <time>2014-04-27T09:00:51Z</time>
      </trkpt>
      <trkpt lat="47.27775" lon="-1.67837">
        <ele>50.9</ele>
        <time>2014-04-27T09:00:53Z</time>
      </trkpt>
      <trkpt lat="47.27783" lon="-1.67823">
        <ele>52.2</ele>
        <time>2014-04-27T09:00:55Z</time>
      </trkpt>
      <trkpt lat="47.27791" lon="-1.67811">
        <ele>53.7</ele>
        <time>2014-04-27T09:00:57Z</time>
      </trkpt>
      <trkpt lat="47.27806" lon="-1.67791">
        <ele>55.8</ele>
        <time>2014-04-27T09:01:01Z</time>
      </trkpt>
      <trkpt lat="47.27817" lon="-1.6778">
        <ele>55.3</ele>
        <time>2014-04-27T09:01:04Z</time>
      </trkpt>
      <trkpt lat="47.27828" lon="-1.67771">
        <ele>54</ele>
        <time>2014-04-27T09:01:07Z</time>
      </trkpt>
      <trkpt lat="47.27838" lon="-1.67766">
        <ele>53.5</ele>
        <time>2014-04-27T09:01:09Z</time>
      </trkpt>
      <trkpt lat="47.2785" lon="-1.67767">
        <ele>54.5</ele>
        <time>2014-04-27T09:01:11Z</time>
      </trkpt>
      <trkpt lat="47.2786" lon="-1.67774">
        <ele>55.9</ele>
        <time>2014-04-27T09:01:13Z</time>
      </trkpt>
      <trkpt lat="47.27873" lon="-1.67775">
        <ele>56.7</ele>
        <time>2014-04-27T09:01:16Z</time>
      </trkpt>
      <trkpt lat="47.27886" lon="-1.67772">
        <ele>56.9</ele>
        <time>2014-04-27T09:01:18Z</time>
      </trkpt>
      <trkpt lat="47.27898" lon="-1.67767">
        <ele>56.7</ele>
        <time>2014-04-27T09:01:20Z</time>
      </trkpt>
      <trkpt lat="47.2791" lon="-1.67761">
        <ele>55.4</ele>
        <time>2014-04-27T09:01:22Z</time>
      </trkpt>
      <trkpt lat="47.27922" lon="-1.67754">
        <ele>54</ele>
        <time>2014-04-27T09:01:24Z</time>
      </trkpt>
      <trkpt lat="47.27936" lon="-1.67749">
        <ele>52.9</ele>
        <time>2014-04-27T09:01:26Z</time>
      </trkpt>
      <trkpt lat="47.27951" lon="-1.67747">
        <ele>53.2</ele>
        <time>2014-04-27T09:01:28Z</time>
      </trkpt>
      <trkpt lat="47.27964" lon="-1.67747">
        <ele>53.7</ele>
        <time>2014-04-27T09:01:30Z</time>
      </trkpt>
      <trkpt lat="47.27977" lon="-1.67743">
        <ele>54.1</ele>
        <time>2014-04-27T09:01:32Z</time>
      </trkpt>
      <trkpt lat="47.27987" lon="-1.67732">
        <ele>54.4</ele>
        <time>2014-04-27T09:01:34Z</time>
      </trkpt>
      <trkpt lat="47.27994" lon="-1.67715">
        <ele>54.3</ele>
        <time>2014-04-27T09:01:36Z</time>
      </trkpt>
      <trkpt lat="47.27996" lon="-1.67698">
        <ele>54.3</ele>
        <time>2014-04-27T09:01:38Z</time>
      </trkpt>
      <trkpt lat="47.27998" lon="-1.67683">
        <ele>53.8</ele>
        <time>2014-04-27T09:01:40Z</time>
      </trkpt>
      <trkpt lat="47.27999" lon="-1.67668">
        <ele>53.6</ele>
        <time>2014-04-27T09:01:42Z</time>
      </trkpt>
      <trkpt lat="47.28" lon="-1.67652">
        <ele>54.1</ele>
        <time>2014-04-27T09:01:44Z</time>
      </trkpt>
      <trkpt lat="47.28" lon="-1.67638">
        <ele>54.2</ele>
        <time>2014-04-27T09:01:46Z</time>
      </trkpt>
      <trkpt lat="47.28001" lon="-1.67619">
        <ele>52.8</ele>
        <time>2014-04-27T09:01:49Z</time>
      </trkpt>
      <trkpt lat="47.28002" lon="-1.67605">
        <ele>53.2</ele>
        <time>2014-04-27T09:01:51Z</time>
      </trkpt>
      <trkpt lat="47.28003" lon="-1.67592">
        <ele>53.9</ele>
        <time>2014-04-27T09:01:53Z</time>
      </trkpt>
      <trkpt lat="47.28004" lon="-1.67578">
        <ele>55.7</ele>
        <time>2014-04-27T09:01:55Z</time>
      </trkpt>
      <trkpt lat="47.28007" lon="-1.67559">
        <ele>57.7</ele>
        <time>2014-04-27T09:01:58Z</time>
      </trkpt>
      <trkpt lat="47.28008" lon="-1.67522">
        <ele>57.7</ele>
        <time>2014-04-27T09:02:04Z</time>
      </trkpt>
      <trkpt lat="47.28008" lon="-1.67506">
        <ele>57.9</ele>
        <time>2014-04-27T09:02:07Z</time>
      </trkpt>
      <trkpt lat="47.28009" lon="-1.67489">
        <ele>57.9</ele>
        <time>2014-04-27T09:02:11Z</time>
      </trkpt>
      <trkpt lat="47.28008" lon="-1.67474">
        <ele>58</ele>
        <time>2014-04-27T09:02:15Z</time>
      </trkpt>
      <trkpt lat="47.27998" lon="-1.67465">
        <ele>58.2</ele>
        <time>2014-04-27T09:02:19Z</time>
      </trkpt>
      <trkpt lat="47.27988" lon="-1.6746">
        <ele>58.3</ele>
        <time>2014-04-27T09:02:22Z</time>
      </trkpt>
      <trkpt lat="47.27977" lon="-1.67455">
        <ele>58.2</ele>
        <time>2014-04-27T09:02:25Z</time>
      </trkpt>
      <trkpt lat="47.27965" lon="-1.6745">
        <ele>58.3</ele>
        <time>2014-04-27T09:02:28Z</time>
      </trkpt>
      <trkpt lat="47.27954" lon="-1.67447">
        <ele>58.4</ele>
        <time>2014-04-27T09:02:31Z</time>
      </trkpt>
      <trkpt lat="47.27943" lon="-1.67443">
        <ele>58.5</ele>
        <time>2014-04-27T09:02:34Z</time>
      </trkpt>
      <trkpt lat="47.27932" lon="-1.67439">
        <ele>58.8</ele>
        <time>2014-04-27T09:02:37Z</time>
      </trkpt>
      <trkpt lat="47.27921" lon="-1.67436">
        <ele>58.9</ele>
        <time>2014-04-27T09:02:40Z</time>
      </trkpt>
      <trkpt lat="47.27914" lon="-1.67424">
        <ele>58.8</ele>
        <time>2014-04-27T09:02:43Z</time>
      </trkpt>
      <trkpt lat="47.27916" lon="-1.67405">
        <ele>58.8</ele>
        <time>2014-04-27T09:02:47Z</time>
      </trkpt>
      <trkpt lat="47.2792" lon="-1.67391">
        <ele>59</ele>
        <time>2014-04-27T09:02:50Z</time>
      </trkpt>
      <trkpt lat="47.27926" lon="-1.67378">
        <ele>59.3</ele>
        <time>2014-04-27T09:02:53Z</time>
      </trkpt>
      <trkpt lat="47.27931" lon="-1.67363">
        <ele>59.4</ele>
        <time>2014-04-27T09:02:56Z</time>
      </trkpt>
      <trkpt lat="47.27935" lon="-1.6735">
        <ele>59.3</ele>
        <time>2014-04-27T09:02:58Z</time>
      </trkpt>
      <trkpt lat="47.27939" lon="-1.67339">
        <ele>59.3</ele>
        <time>2014-04-27T09:03:00Z</time>
      </trkpt>
      <trkpt lat="47.27947" lon="-1.67307">
        <ele>58.8</ele>
        <time>2014-04-27T09:03:07Z</time>
      </trkpt>
      <trkpt lat="47.27951" lon="-1.67293">
        <ele>58.7</ele>
        <time>2014-04-27T09:03:10Z</time>
      </trkpt>
      <trkpt lat="47.27956" lon="-1.67279">
        <ele>58.8</ele>
        <time>2014-04-27T09:03:13Z</time>
      </trkpt>
      <trkpt lat="47.27961" lon="-1.67265">
        <ele>59</ele>
        <time>2014-04-27T09:03:16Z</time>
      </trkpt>
      <trkpt lat="47.27967" lon="-1.67253">
        <ele>58.8</ele>
        <time>2014-04-27T09:03:19Z</time>
      </trkpt>
      <trkpt lat="47.27971" lon="-1.67241">
        <ele>58.8</ele>
        <time>2014-04-27T09:03:21Z</time>
      </trkpt>
      <trkpt lat="47.27975" lon="-1.67228">
        <ele>58.9</ele>
        <time>2014-04-27T09:03:23Z</time>
      </trkpt>
      <trkpt lat="47.27978" lon="-1.67215">
        <ele>58.9</ele>
        <time>2014-04-27T09:03:25Z</time>
      </trkpt>
      <trkpt lat="47.27981" lon="-1.67201">
        <ele>58.9</ele>
        <time>2014-04-27T09:03:28Z</time>
      </trkpt>
      <trkpt lat="47.27985" lon="-1.67186">
        <ele>58.9</ele>
        <time>2014-04-27T09:03:31Z</time>
      </trkpt>
      <trkpt lat="47.27989" lon="-1.67167">
        <ele>59.5</ele>
        <time>2014-04-27T09:03:34Z</time>
      </trkpt>
      <trkpt lat="47.27993" lon="-1.67153">
        <ele>60.5</ele>
        <time>2014-04-27T09:03:36Z</time>
      </trkpt>
      <trkpt lat="47.27997" lon="-1.67138">
        <ele>61.1</ele>
        <time>2014-04-27T09:03:38Z</time>
      </trkpt>
      <trkpt lat="47.28001" lon="-1.67122">
        <ele>60.8</ele>
        <time>2014-04-27T09:03:40Z</time>
      </trkpt>
      <trkpt lat="47.28005" lon="-1.67108">
        <ele>60.4</ele>
        <time>2014-04-27T09:03:42Z</time>
      </trkpt>
      <trkpt lat="47.28008" lon="-1.67094">
        <ele>60.4</ele>
        <time>2014-04-27T09:03:44Z</time>
      </trkpt>
      <trkpt lat="47.28011" lon="-1.67074">
        <ele>59.8</ele>
        <time>2014-04-27T09:03:47Z</time>
      </trkpt>
      <trkpt lat="47.28013" lon="-1.6706">
        <ele>58.2</ele>
        <time>2014-04-27T09:03:49Z</time>
      </trkpt>
      <trkpt lat="47.28017" lon="-1.6704">
        <ele>58</ele>
        <time>2014-04-27T09:03:52Z</time>
      </trkpt>
      <trkpt lat="47.2802" lon="-1.67027">
        <ele>57.9</ele>
        <time>2014-04-27T09:03:54Z</time>
      </trkpt>
      <trkpt lat="47.28023" lon="-1.67012">
        <ele>56.8</ele>
        <time>2014-04-27T09:03:56Z</time>
      </trkpt>
      <trkpt lat="47.28027" lon="-1.66998">
        <ele>54.6</ele>
        <time>2014-04-27T09:03:58Z</time>
      </trkpt>
      <trkpt lat="47.2803" lon="-1.66982">
        <ele>53.2</ele>
        <time>2014-04-27T09:04:00Z</time>
      </trkpt>
      <trkpt lat="47.28034" lon="-1.66964">
        <ele>51.6</ele>
        <time>2014-04-27T09:04:02Z</time>
      </trkpt>
      <trkpt lat="47.2804" lon="-1.66932">
        <ele>50.8</ele>
        <time>2014-04-27T09:04:06Z</time>
      </trkpt>
      <trkpt lat="47.28043" lon="-1.66916">
        <ele>50.9</ele>
        <time>2014-04-27T09:04:08Z</time>
      </trkpt>
      <trkpt lat="47.28045" lon="-1.669">
        <ele>51</ele>
        <time>2014-04-27T09:04:10Z</time>
      </trkpt>
      <trkpt lat="47.28046" lon="-1.66886">
        <ele>50.8</ele>
        <time>2014-04-27T09:04:12Z</time>
      </trkpt>
      <trkpt lat="47.28047" lon="-1.66866">
        <ele>51.2</ele>
        <time>2014-04-27T09:04:15Z</time>
      </trkpt>
      <trkpt lat="47.28049" lon="-1.66853">
        <ele>51.4</ele>
        <time>2014-04-27T09:04:17Z</time>
      </trkpt>
      <trkpt lat="47.28051" lon="-1.66839">
        <ele>51.6</ele>
        <time>2014-04-27T09:04:19Z</time>
      </trkpt>
      <trkpt lat="47.28053" lon="-1.66824">
        <ele>51.6</ele>
        <time>2014-04-27T09:04:21Z</time>
      </trkpt>
      <trkpt lat="47.28055" lon="-1.66808">
        <ele>51.7</ele>
        <time>2014-04-27T09:04:23Z</time>
      </trkpt>
      <trkpt lat="47.28057" lon="-1.66795">
        <ele>51.8</ele>
        <time>2014-04-27T09:04:25Z</time>
      </trkpt>
      <trkpt lat="47.28066" lon="-1.66778">
        <ele>51.8</ele>
        <time>2014-04-27T09:04:28Z</time>
      </trkpt>
      <trkpt lat="47.28073" lon="-1.66764">
        <ele>51.8</ele>
        <time>2014-04-27T09:04:30Z</time>
      </trkpt>
      <trkpt lat="47.28077" lon="-1.6675">
        <ele>51.6</ele>
        <time>2014-04-27T09:04:32Z</time>
      </trkpt>
      <trkpt lat="47.28081" lon="-1.66732">
        <ele>51.6</ele>
        <time>2014-04-27T09:04:35Z</time>
      </trkpt>
      <trkpt lat="47.28084" lon="-1.66713">
        <ele>50.9</ele>
        <time>2014-04-27T09:04:37Z</time>
      </trkpt>
      <trkpt lat="47.28087" lon="-1.66697">
        <ele>50.9</ele>
        <time>2014-04-27T09:04:39Z</time>
      </trkpt>
      <trkpt lat="47.2809" lon="-1.66684">
        <ele>50.7</ele>
        <time>2014-04-27T09:04:41Z</time>
      </trkpt>
      <trkpt lat="47.28094" lon="-1.66669">
        <ele>50.4</ele>
        <time>2014-04-27T09:04:45Z</time>
      </trkpt>
      <trkpt lat="47.28092" lon="-1.66655">
        <ele>50.1</ele>
        <time>2014-04-27T09:04:49Z</time>
      </trkpt>
      <trkpt lat="47.28086" lon="-1.6664">
        <ele>50</ele>
        <time>2014-04-27T09:04:52Z</time>
      </trkpt>
      <trkpt lat="47.28076" lon="-1.66628">
        <ele>50.3</ele>
        <time>2014-04-27T09:04:55Z</time>
      </trkpt>
      <trkpt lat="47.28067" lon="-1.66618">
        <ele>50.4</ele>
        <time>2014-04-27T09:04:58Z</time>
      </trkpt>
      <trkpt lat="47.2806" lon="-1.6661">
        <ele>50.1</ele>
        <time>2014-04-27T09:05:00Z</time>
      </trkpt>
      <trkpt lat="47.28053" lon="-1.66601">
        <ele>49.1</ele>
        <time>2014-04-27T09:05:02Z</time>
      </trkpt>
      <trkpt lat="47.28045" lon="-1.66592">
        <ele>47.9</ele>
        <time>2014-04-27T09:05:04Z</time>
      </trkpt>
      <trkpt lat="47.28029" lon="-1.66574">
        <ele>46.7</ele>
        <time>2014-04-27T09:05:08Z</time>
      </trkpt>
      <trkpt lat="47.2802" lon="-1.66562">
        <ele>47.7</ele>
        <time>2014-04-27T09:05:10Z</time>
      </trkpt>
      <trkpt lat="47.28013" lon="-1.66549">
        <ele>48.2</ele>
        <time>2014-04-27T09:05:12Z</time>
      </trkpt>
      <trkpt lat="47.28006" lon="-1.66536">
        <ele>48.7</ele>
        <time>2014-04-27T09:05:14Z</time>
      </trkpt>
      <trkpt lat="47.27998" lon="-1.66518">
        <ele>49.6</ele>
        <time>2014-04-27T09:05:17Z</time>
      </trkpt>
      <trkpt lat="47.27992" lon="-1.66508">
        <ele>50</ele>
        <time>2014-04-27T09:05:19Z</time>
      </trkpt>
      <trkpt lat="47.27985" lon="-1.66498">
        <ele>50.8</ele>
        <time>2014-04-27T09:05:22Z</time>
      </trkpt>
      <trkpt lat="47.27993" lon="-1.66488">
        <ele>51.3</ele>
        <time>2014-04-27T09:05:25Z</time>
      </trkpt>
      <trkpt lat="47.28003" lon="-1.66483">
        <ele>51.5</ele>
        <time>2014-04-27T09:05:28Z</time>
      </trkpt>
      <trkpt lat="47.28014" lon="-1.6648">
        <ele>51.7</ele>
        <time>2014-04-27T09:05:31Z</time>
      </trkpt>
      <trkpt lat="47.28026" lon="-1.66478">
        <ele>51.6</ele>
        <time>2014-04-27T09:05:34Z</time>
      </trkpt>
      <trkpt lat="47.28035" lon="-1.66475">
        <ele>51.6</ele>
        <time>2014-04-27T09:05:36Z</time>
      </trkpt>
      <trkpt lat="47.28046" lon="-1.66471">
        <ele>52.6</ele>
        <time>2014-04-27T09:05:38Z</time>
      </trkpt>
      <trkpt lat="47.28057" lon="-1.66466">
        <ele>53.6</ele>
        <time>2014-04-27T09:05:40Z</time>
      </trkpt>
      <trkpt lat="47.28068" lon="-1.66461">
        <ele>53.9</ele>
        <time>2014-04-27T09:05:43Z</time>
      </trkpt>
      <trkpt lat="47.2808" lon="-1.66455">
        <ele>54.2</ele>
        <time>2014-04-27T09:05:46Z</time>
      </trkpt>
      <trkpt lat="47.2809" lon="-1.66449">
        <ele>55.9</ele>
        <time>2014-04-27T09:05:48Z</time>
      </trkpt>
      <trkpt lat="47.28099" lon="-1.66441">
        <ele>57</ele>
        <time>2014-04-27T09:05:50Z</time>
      </trkpt>
      <trkpt lat="47.28109" lon="-1.66431">
        <ele>58</ele>
        <time>2014-04-27T09:05:53Z</time>
      </trkpt>
      <trkpt lat="47.28117" lon="-1.66423">
        <ele>58</ele>
        <time>2014-04-27T09:05:55Z</time>
      </trkpt>
      <trkpt lat="47.28127" lon="-1.66413">
        <ele>58.8</ele>
        <time>2014-04-27T09:05:58Z</time>
      </trkpt>
      <trkpt lat="47.28138" lon="-1.66403">
        <ele>58.8</ele>
        <time>2014-04-27T09:06:01Z</time>
      </trkpt>
      <trkpt lat="47.2815" lon="-1.66394">
        <ele>58.3</ele>
        <time>2014-04-27T09:06:04Z</time>
      </trkpt>
      <trkpt lat="47.28159" lon="-1.66388">
        <ele>58.5</ele>
        <time>2014-04-27T09:06:06Z</time>
      </trkpt>
      <trkpt lat="47.28179" lon="-1.66373">
        <ele>60.8</ele>
        <time>2014-04-27T09:06:11Z</time>
      </trkpt>
      <trkpt lat="47.28183" lon="-1.66357">
        <ele>60.7</ele>
        <time>2014-04-27T09:06:14Z</time>
      </trkpt>
      <trkpt lat="47.28178" lon="-1.6634">
        <ele>59.6</ele>
        <time>2014-04-27T09:06:16Z</time>
      </trkpt>
      <trkpt lat="47.28172" lon="-1.6632">
        <ele>59.2</ele>
        <time>2014-04-27T09:06:18Z</time>
      </trkpt>
      <trkpt lat="47.28167" lon="-1.66302">
        <ele>59.5</ele>
        <time>2014-04-27T09:06:20Z</time>
      </trkpt>
      <trkpt lat="47.28163" lon="-1.66285">
        <ele>59.9</ele>
        <time>2014-04-27T09:06:22Z</time>
      </trkpt>
      <trkpt lat="47.28159" lon="-1.66268">
        <ele>60.3</ele>
        <time>2014-04-27T09:06:24Z</time>
      </trkpt>
      <trkpt lat="47.28157" lon="-1.66252">
        <ele>61.2</ele>
        <time>2014-04-27T09:06:26Z</time>
      </trkpt>
      <trkpt lat="47.28154" lon="-1.66237">
        <ele>61.4</ele>
        <time>2014-04-27T09:06:28Z</time>
      </trkpt>
      <trkpt lat="47.2815" lon="-1.66218">
        <ele>60.9</ele>
        <time>2014-04-27T09:06:30Z</time>
      </trkpt>
      <trkpt lat="47.28146" lon="-1.66199">
        <ele>60.3</ele>
        <time>2014-04-27T09:06:32Z</time>
      </trkpt>
      <trkpt lat="47.28143" lon="-1.66183">
        <ele>60.6</ele>
        <time>2014-04-27T09:06:34Z</time>
      </trkpt>
      <trkpt lat="47.2814" lon="-1.66168">
        <ele>61</ele>
        <time>2014-04-27T09:06:36Z</time>
      </trkpt>
      <trkpt lat="47.28137" lon="-1.66149">
        <ele>61.5</ele>
        <time>2014-04-27T09:06:38Z</time>
      </trkpt>
      <trkpt lat="47.28132" lon="-1.6613">
        <ele>61.5</ele>
        <time>2014-04-27T09:06:40Z</time>
      </trkpt>
      <trkpt lat="47.28128" lon="-1.66113">
        <ele>60.8</ele>
        <time>2014-04-27T09:06:42Z</time>
      </trkpt>
      <trkpt lat="47.28126" lon="-1.66101">
        <ele>60.7</ele>
        <time>2014-04-27T09:06:44Z</time>
      </trkpt>
      <trkpt lat="47.28128" lon="-1.66088">
        <ele>61</ele>
        <time>2014-04-27T09:07:02Z</time>
      </trkpt>
      <trkpt lat="47.28119" lon="-1.66089">
        <ele>61.8</ele>
        <time>2014-04-27T09:07:20Z</time>
      </trkpt>
      <trkpt lat="47.28099" lon="-1.66086">
        <ele>61.6</ele>
        <time>2014-04-27T09:07:25Z</time>
      </trkpt>
      <trkpt lat="47.28087" lon="-1.66086">
        <ele>61.6</ele>
        <time>2014-04-27T09:07:28Z</time>
      </trkpt>
      <trkpt lat="47.28078" lon="-1.66086">
        <ele>61.6</ele>
        <time>2014-04-27T09:07:30Z</time>
      </trkpt>
      <trkpt lat="47.28065" lon="-1.66086">
        <ele>61.6</ele>
        <time>2014-04-27T09:07:33Z</time>
      </trkpt>
      <trkpt lat="47.28053" lon="-1.66085">
        <ele>62</ele>
        <time>2014-04-27T09:07:36Z</time>
      </trkpt>
      <trkpt lat="47.28042" lon="-1.66086">
        <ele>61.7</ele>
        <time>2014-04-27T09:07:39Z</time>
      </trkpt>
      <trkpt lat="47.2803" lon="-1.66086">
        <ele>61.4</ele>
        <time>2014-04-27T09:07:42Z</time>
      </trkpt>
      <trkpt lat="47.28019" lon="-1.66087">
        <ele>61.3</ele>
        <time>2014-04-27T09:07:45Z</time>
      </trkpt>
      <trkpt lat="47.2801" lon="-1.66088">
        <ele>61.2</ele>
        <time>2014-04-27T09:07:47Z</time>
      </trkpt>
      <trkpt lat="47.27998" lon="-1.6609">
        <ele>61.3</ele>
        <time>2014-04-27T09:07:50Z</time>
      </trkpt>
      <trkpt lat="47.27988" lon="-1.66091">
        <ele>61.8</ele>
        <time>2014-04-27T09:07:52Z</time>
      </trkpt>
      <trkpt lat="47.27975" lon="-1.66091">
        <ele>61.9</ele>
        <time>2014-04-27T09:07:55Z</time>
      </trkpt>
      <trkpt lat="47.27966" lon="-1.66092">
        <ele>62.9</ele>
        <time>2014-04-27T09:07:57Z</time>
      </trkpt>
      <trkpt lat="47.27953" lon="-1.66089">
        <ele>63.9</ele>
        <time>2014-04-27T09:08:00Z</time>
      </trkpt>
      <trkpt lat="47.27941" lon="-1.66083">
        <ele>64</ele>
        <time>2014-04-27T09:08:03Z</time>
      </trkpt>
      <trkpt lat="47.27935" lon="-1.66069">
        <ele>63.9</ele>
        <time>2014-04-27T09:08:06Z</time>
      </trkpt>
      <trkpt lat="47.27931" lon="-1.66051">
        <ele>63.8</ele>
        <time>2014-04-27T09:08:09Z</time>
      </trkpt>
      <trkpt lat="47.27926" lon="-1.66038">
        <ele>63.2</ele>
        <time>2014-04-27T09:08:11Z</time>
      </trkpt>
      <trkpt lat="47.27922" lon="-1.66024">
        <ele>62.5</ele>
        <time>2014-04-27T09:08:13Z</time>
      </trkpt>
      <trkpt lat="47.2792" lon="-1.66004">
        <ele>61.6</ele>
        <time>2014-04-27T09:08:15Z</time>
      </trkpt>
      <trkpt lat="47.27922" lon="-1.65988">
        <ele>61.5</ele>
        <time>2014-04-27T09:08:17Z</time>
      </trkpt>
      <trkpt lat="47.27923" lon="-1.65971">
        <ele>60.9</ele>
        <time>2014-04-27T09:08:19Z</time>
      </trkpt>
      <trkpt lat="47.27923" lon="-1.65956">
        <ele>59.9</ele>
        <time>2014-04-27T09:08:21Z</time>
      </trkpt>
      <trkpt lat="47.27918" lon="-1.65922">
        <ele>60.9</ele>
        <time>2014-04-27T09:08:25Z</time>
      </trkpt>
      <trkpt lat="47.27915" lon="-1.65903">
        <ele>61</ele>
        <time>2014-04-27T09:08:27Z</time>
      </trkpt>
      <trkpt lat="47.27914" lon="-1.65886">
        <ele>61.7</ele>
        <time>2014-04-27T09:08:29Z</time>
      </trkpt>
      <trkpt lat="47.27913" lon="-1.65867">
        <ele>61</ele>
        <time>2014-04-27T09:08:31Z</time>
      </trkpt>
      <trkpt lat="47.27913" lon="-1.65847">
        <ele>60.9</ele>
        <time>2014-04-27T09:08:33Z</time>
      </trkpt>
      <trkpt lat="47.27915" lon="-1.65828">
        <ele>61.2</ele>
        <time>2014-04-27T09:08:35Z</time>
      </trkpt>
      <trkpt lat="47.27918" lon="-1.6581">
        <ele>61.9</ele>
        <time>2014-04-27T09:08:37Z</time>
      </trkpt>
      <trkpt lat="47.27918" lon="-1.6579">
        <ele>62</ele>
        <time>2014-04-27T09:08:39Z</time>
      </trkpt>
      <trkpt lat="47.27918" lon="-1.65768">
        <ele>60.9</ele>
        <time>2014-04-27T09:08:41Z</time>
      </trkpt>
      <trkpt lat="47.27917" lon="-1.65744">
        <ele>60.2</ele>
        <time>2014-04-27T09:08:43Z</time>
      </trkpt>
      <trkpt lat="47.27917" lon="-1.65724">
        <ele>59.7</ele>
        <time>2014-04-27T09:08:45Z</time>
      </trkpt>
      <trkpt lat="47.27917" lon="-1.65705">
        <ele>59</ele>
        <time>2014-04-27T09:08:47Z</time>
      </trkpt>
      <trkpt lat="47.27918" lon="-1.65685">
        <ele>58</ele>
        <time>2014-04-27T09:08:49Z</time>
      </trkpt>
      <trkpt lat="47.27918" lon="-1.65665">
        <ele>56.8</ele>
        <time>2014-04-27T09:08:51Z</time>
      </trkpt>
      <trkpt lat="47.27918" lon="-1.65648">
        <ele>56.4</ele>
        <time>2014-04-27T09:08:53Z</time>
      </trkpt>
      <trkpt lat="47.27918" lon="-1.65631">
        <ele>56.5</ele>
        <time>2014-04-27T09:08:55Z</time>
      </trkpt>
      <trkpt lat="47.27916" lon="-1.65615">
        <ele>55.9</ele>
        <time>2014-04-27T09:08:57Z</time>
      </trkpt>
      <trkpt lat="47.27913" lon="-1.65598">
        <ele>55.9</ele>
        <time>2014-04-27T09:08:59Z</time>
      </trkpt>
      <trkpt lat="47.27911" lon="-1.65584">
        <ele>54.8</ele>
        <time>2014-04-27T09:09:01Z</time>
      </trkpt>
      <trkpt lat="47.2791" lon="-1.65569">
        <ele>54.3</ele>
        <time>2014-04-27T09:09:03Z</time>
      </trkpt>
      <trkpt lat="47.27908" lon="-1.65551">
        <ele>53.6</ele>
        <time>2014-04-27T09:09:05Z</time>
      </trkpt>
      <trkpt lat="47.27906" lon="-1.65533">
        <ele>51.9</ele>
        <time>2014-04-27T09:09:07Z</time>
      </trkpt>
      <trkpt lat="47.27901" lon="-1.65516">
        <ele>51.5</ele>
        <time>2014-04-27T09:09:10Z</time>
      </trkpt>
      <trkpt lat="47.27894" lon="-1.65504">
        <ele>50</ele>
        <time>2014-04-27T09:09:12Z</time>
      </trkpt>
      <trkpt lat="47.27887" lon="-1.65494">
        <ele>48</ele>
        <time>2014-04-27T09:09:14Z</time>
      </trkpt>
      <trkpt lat="47.27875" lon="-1.65483">
        <ele>47.7</ele>
        <time>2014-04-27T09:09:17Z</time>
      </trkpt>
      <trkpt lat="47.27866" lon="-1.65479">
        <ele>47.7</ele>
        <time>2014-04-27T09:09:19Z</time>
      </trkpt>
      <trkpt lat="47.27856" lon="-1.65474">
        <ele>47.7</ele>
        <time>2014-04-27T09:09:21Z</time>
      </trkpt>
      <trkpt lat="47.27844" lon="-1.65467">
        <ele>48.3</ele>
        <time>2014-04-27T09:09:24Z</time>
      </trkpt>
      <trkpt lat="47.27826" lon="-1.65462">
        <ele>49.3</ele>
        <time>2014-04-27T09:09:29Z</time>
      </trkpt>
      <trkpt lat="47.27814" lon="-1.65459">
        <ele>49.7</ele>
        <time>2014-04-27T09:09:32Z</time>
      </trkpt>
      <trkpt lat="47.27803" lon="-1.65457">
        <ele>50.1</ele>
        <time>2014-04-27T09:09:35Z</time>
      </trkpt>
      <trkpt lat="47.27792" lon="-1.65455">
        <ele>50.5</ele>
        <time>2014-04-27T09:09:38Z</time>
      </trkpt>
      <trkpt lat="47.27782" lon="-1.65453">
        <ele>50.9</ele>
        <time>2014-04-27T09:09:41Z</time>
      </trkpt>
      <trkpt lat="47.27771" lon="-1.6545">
        <ele>51.3</ele>
        <time>2014-04-27T09:09:45Z</time>
      </trkpt>
      <trkpt lat="47.27758" lon="-1.65444">
        <ele>51.6</ele>
        <time>2014-04-27T09:09:48Z</time>
      </trkpt>
      <trkpt lat="47.27749" lon="-1.65445">
        <ele>52.2</ele>
        <time>2014-04-27T09:09:51Z</time>
      </trkpt>
      <trkpt lat="47.27739" lon="-1.65446">
        <ele>52.8</ele>
        <time>2014-04-27T09:10:04Z</time>
      </trkpt>
      <trkpt lat="47.27729" lon="-1.65446">
        <ele>53.2</ele>
        <time>2014-04-27T09:10:07Z</time>
      </trkpt>
      <trkpt lat="47.2772" lon="-1.65441">
        <ele>53.7</ele>
        <time>2014-04-27T09:10:10Z</time>
      </trkpt>
      <trkpt lat="47.27712" lon="-1.65434">
        <ele>54</ele>
        <time>2014-04-27T09:10:13Z</time>
      </trkpt>
      <trkpt lat="47.27705" lon="-1.65421">
        <ele>54.5</ele>
        <time>2014-04-27T09:10:24Z</time>
      </trkpt>
      <trkpt lat="47.27704" lon="-1.65406">
        <ele>54.6</ele>
        <time>2014-04-27T09:10:28Z</time>
      </trkpt>
      <trkpt lat="47.27696" lon="-1.65375">
        <ele>54.7</ele>
        <time>2014-04-27T09:10:34Z</time>
      </trkpt>
      <trkpt lat="47.27691" lon="-1.65362">
        <ele>54.5</ele>
        <time>2014-04-27T09:10:38Z</time>
      </trkpt>
      <trkpt lat="47.27686" lon="-1.65345">
        <ele>53.6</ele>
        <time>2014-04-27T09:10:45Z</time>
      </trkpt>
      <trkpt lat="47.27675" lon="-1.65344">
        <ele>53.2</ele>
        <time>2014-04-27T09:10:48Z</time>
      </trkpt>
      <trkpt lat="47.27663" lon="-1.65343">
        <ele>53.1</ele>
        <time>2014-04-27T09:10:51Z</time>
      </trkpt>
      <trkpt lat="47.27654" lon="-1.65338">
        <ele>52.5</ele>
        <time>2014-04-27T09:10:59Z</time>
      </trkpt>
      <trkpt lat="47.27646" lon="-1.6533">
        <ele>52.3</ele>
        <time>2014-04-27T09:11:04Z</time>
      </trkpt>
      <trkpt lat="47.27641" lon="-1.65317">
        <ele>52.2</ele>
        <time>2014-04-27T09:11:08Z</time>
      </trkpt>
      <trkpt lat="47.27638" lon="-1.65303">
        <ele>52.4</ele>
        <time>2014-04-27T09:11:12Z</time>
      </trkpt>
      <trkpt lat="47.27636" lon="-1.65288">
        <ele>52.9</ele>
        <time>2014-04-27T09:11:17Z</time>
      </trkpt>
      <trkpt lat="47.27633" lon="-1.65272">
        <ele>52.9</ele>
        <time>2014-04-27T09:11:23Z</time>
      </trkpt>
      <trkpt lat="47.27628" lon="-1.65257">
        <ele>53</ele>
        <time>2014-04-27T09:11:27Z</time>
      </trkpt>
      <trkpt lat="47.2762" lon="-1.65243">
        <ele>53.6</ele>
        <time>2014-04-27T09:11:33Z</time>
      </trkpt>
      <trkpt lat="47.27604" lon="-1.65222">
        <ele>54.9</ele>
        <time>2014-04-27T09:11:41Z</time>
      </trkpt>
      <trkpt lat="47.27597" lon="-1.6521">
        <ele>55.6</ele>
        <time>2014-04-27T09:11:45Z</time>
      </trkpt>
      <trkpt lat="47.27594" lon="-1.65194">
        <ele>56.3</ele>
        <time>2014-04-27T09:11:50Z</time>
      </trkpt>
      <trkpt lat="47.2759" lon="-1.65179">
        <ele>56.4</ele>
        <time>2014-04-27T09:11:53Z</time>
      </trkpt>
      <trkpt lat="47.27583" lon="-1.65167">
        <ele>56.4</ele>
        <time>2014-04-27T09:11:57Z</time>
      </trkpt>
      <trkpt lat="47.27575" lon="-1.65155">
        <ele>56.3</ele>
        <time>2014-04-27T09:11:59Z</time>
      </trkpt>
      <trkpt lat="47.27567" lon="-1.65141">
        <ele>55.8</ele>
        <time>2014-04-27T09:12:02Z</time>
      </trkpt>
      <trkpt lat="47.27559" lon="-1.65131">
        <ele>55.2</ele>
        <time>2014-04-27T09:12:05Z</time>
      </trkpt>
      <trkpt lat="47.27555" lon="-1.65112">
        <ele>50.6</ele>
        <time>2014-04-27T09:12:08Z</time>
      </trkpt>
      <trkpt lat="47.27553" lon="-1.65097">
        <ele>48.1</ele>
        <time>2014-04-27T09:12:10Z</time>
      </trkpt>
      <trkpt lat="47.2755" lon="-1.65083">
        <ele>46.3</ele>
        <time>2014-04-27T09:12:12Z</time>
      </trkpt>
      <trkpt lat="47.27547" lon="-1.65069">
        <ele>46.1</ele>
        <time>2014-04-27T09:12:14Z</time>
      </trkpt>
      <trkpt lat="47.27542" lon="-1.65042">
        <ele>46.3</ele>
        <time>2014-04-27T09:12:16Z</time>
      </trkpt>
      <trkpt lat="47.27538" lon="-1.6502">
        <ele>48.4</ele>
        <time>2014-04-27T09:12:18Z</time>
      </trkpt>
      <trkpt lat="47.27535" lon="-1.65006">
        <ele>52</ele>
        <time>2014-04-27T09:12:20Z</time>
      </trkpt>
      <trkpt lat="47.27531" lon="-1.64989">
        <ele>54.2</ele>
        <time>2014-04-27T09:12:23Z</time>
      </trkpt>
      <trkpt lat="47.27529" lon="-1.64975">
        <ele>54.6</ele>
        <time>2014-04-27T09:12:26Z</time>
      </trkpt>
      <trkpt lat="47.27527" lon="-1.64958">
        <ele>55.1</ele>
        <time>2014-04-27T09:12:30Z</time>
      </trkpt>
      <trkpt lat="47.27528" lon="-1.64942">
        <ele>55.5</ele>
        <time>2014-04-27T09:12:33Z</time>
      </trkpt>
      <trkpt lat="47.27528" lon="-1.64928">
        <ele>55.7</ele>
        <time>2014-04-27T09:12:35Z</time>
      </trkpt>
      <trkpt lat="47.27527" lon="-1.64896">
        <ele>59.3</ele>
        <time>2014-04-27T09:12:40Z</time>
      </trkpt>
      <trkpt lat="47.27525" lon="-1.64883">
        <ele>60</ele>
        <time>2014-04-27T09:12:42Z</time>
      </trkpt>
      <trkpt lat="47.27523" lon="-1.64868">
        <ele>60.7</ele>
        <time>2014-04-27T09:12:44Z</time>
      </trkpt>
      <trkpt lat="47.27522" lon="-1.64853">
        <ele>61.2</ele>
        <time>2014-04-27T09:12:46Z</time>
      </trkpt>
      <trkpt lat="47.27521" lon="-1.64839">
        <ele>61.5</ele>
        <time>2014-04-27T09:12:48Z</time>
      </trkpt>
      <trkpt lat="47.27523" lon="-1.64819">
        <ele>61</ele>
        <time>2014-04-27T09:12:51Z</time>
      </trkpt>
      <trkpt lat="47.27526" lon="-1.64805">
        <ele>60.9</ele>
        <time>2014-04-27T09:12:53Z</time>
      </trkpt>
      <trkpt lat="47.2753" lon="-1.64793">
        <ele>59.9</ele>
        <time>2014-04-27T09:12:55Z</time>
      </trkpt>
      <trkpt lat="47.27534" lon="-1.64779">
        <ele>59.4</ele>
        <time>2014-04-27T09:12:57Z</time>
      </trkpt>
      <trkpt lat="47.27538" lon="-1.64766">
        <ele>59.8</ele>
        <time>2014-04-27T09:12:59Z</time>
      </trkpt>
      <trkpt lat="47.27542" lon="-1.64753">
        <ele>60.2</ele>
        <time>2014-04-27T09:13:01Z</time>
      </trkpt>
      <trkpt lat="47.27545" lon="-1.6474">
        <ele>59.7</ele>
        <time>2014-04-27T09:13:03Z</time>
      </trkpt>
      <trkpt lat="47.27547" lon="-1.64726">
        <ele>58.6</ele>
        <time>2014-04-27T09:13:05Z</time>
      </trkpt>
      <trkpt lat="47.27548" lon="-1.64711">
        <ele>58.1</ele>
        <time>2014-04-27T09:13:07Z</time>
      </trkpt>
      <trkpt lat="47.27548" lon="-1.64693">
        <ele>58.9</ele>
        <time>2014-04-27T09:13:09Z</time>
      </trkpt>
      <trkpt lat="47.27548" lon="-1.64672">
        <ele>59.7</ele>
        <time>2014-04-27T09:13:11Z</time>
      </trkpt>
      <trkpt lat="47.27549" lon="-1.64653">
        <ele>60</ele>
        <time>2014-04-27T09:13:13Z</time>
      </trkpt>
      <trkpt lat="47.27551" lon="-1.64631">
        <ele>60.6</ele>
        <time>2014-04-27T09:13:15Z</time>
      </trkpt>
      <trkpt lat="47.27555" lon="-1.64611">
        <ele>60</ele>
        <time>2014-04-27T09:13:17Z</time>
      </trkpt>
      <trkpt lat="47.27558" lon="-1.64592">
        <ele>59.3</ele>
        <time>2014-04-27T09:13:19Z</time>
      </trkpt>
      <trkpt lat="47.27561" lon="-1.64573">
        <ele>58.3</ele>
        <time>2014-04-27T09:13:21Z</time>
      </trkpt>
      <trkpt lat="47.27564" lon="-1.64551">
        <ele>57.3</ele>
        <time>2014-04-27T09:13:23Z</time>
      </trkpt>
      <trkpt lat="47.27565" lon="-1.64528">
        <ele>56.4</ele>
        <time>2014-04-27T09:13:25Z</time>
      </trkpt>
      <trkpt lat="47.27564" lon="-1.64509">
        <ele>56.3</ele>
        <time>2014-04-27T09:13:27Z</time>
      </trkpt>
      <trkpt lat="47.27563" lon="-1.64492">
        <ele>56.2</ele>
        <time>2014-04-27T09:13:29Z</time>
      </trkpt>
      <trkpt lat="47.2756" lon="-1.64475">
        <ele>57.4</ele>
        <time>2014-04-27T09:13:31Z</time>
      </trkpt>
      <trkpt lat="47.27558" lon="-1.6446">
        <ele>58.6</ele>
        <time>2014-04-27T09:13:33Z</time>
      </trkpt>
      <trkpt lat="47.27547" lon="-1.6445">
        <ele>58.6</ele>
        <time>2014-04-27T09:13:36Z</time>
      </trkpt>
      <trkpt lat="47.27524" lon="-1.64458">
        <ele>56</ele>
        <time>2014-04-27T09:13:40Z</time>
      </trkpt>
      <trkpt lat="47.27512" lon="-1.64468">
        <ele>54.1</ele>
        <time>2014-04-27T09:13:42Z</time>
      </trkpt>
      <trkpt lat="47.27499" lon="-1.64478">
        <ele>53.7</ele>
        <time>2014-04-27T09:13:44Z</time>
      </trkpt>
      <trkpt lat="47.27484" lon="-1.64486">
        <ele>52.5</ele>
        <time>2014-04-27T09:13:46Z</time>
      </trkpt>
      <trkpt lat="47.2747" lon="-1.64492">
        <ele>51.5</ele>
        <time>2014-04-27T09:13:48Z</time>
      </trkpt>
      <trkpt lat="47.27457" lon="-1.64494">
        <ele>50.9</ele>
        <time>2014-04-27T09:13:50Z</time>
      </trkpt>
      <trkpt lat="47.27445" lon="-1.64496">
        <ele>51</ele>
        <time>2014-04-27T09:13:52Z</time>
      </trkpt>
      <trkpt lat="47.27435" lon="-1.64496">
        <ele>50.2</ele>
        <time>2014-04-27T09:13:54Z</time>
      </trkpt>
      <trkpt lat="47.27424" lon="-1.64496">
        <ele>49.9</ele>
        <time>2014-04-27T09:13:57Z</time>
      </trkpt>
      <trkpt lat="47.27415" lon="-1.64493">
        <ele>50.1</ele>
        <time>2014-04-27T09:14:00Z</time>
      </trkpt>
      <trkpt lat="47.27405" lon="-1.64487">
        <ele>50.3</ele>
        <time>2014-04-27T09:14:05Z</time>
      </trkpt>
      <trkpt lat="47.27395" lon="-1.64475">
        <ele>49.5</ele>
        <time>2014-04-27T09:14:09Z</time>
      </trkpt>
      <trkpt lat="47.27387" lon="-1.64463">
        <ele>49.2</ele>
        <time>2014-04-27T09:14:11Z</time>
      </trkpt>
      <trkpt lat="47.2738" lon="-1.64452">
        <ele>48.8</ele>
        <time>2014-04-27T09:14:13Z</time>
      </trkpt>
      <trkpt lat="47.27372" lon="-1.64441">
        <ele>47.4</ele>
        <time>2014-04-27T09:14:23Z</time>
      </trkpt>
      <trkpt lat="47.27363" lon="-1.64432">
        <ele>47.1</ele>
        <time>2014-04-27T09:14:28Z</time>
      </trkpt>
      <trkpt lat="47.27356" lon="-1.64421">
        <ele>46.6</ele>
        <time>2014-04-27T09:14:32Z</time>
      </trkpt>
      <trkpt lat="47.27349" lon="-1.64402">
        <ele>45.6</ele>
        <time>2014-04-27T09:14:37Z</time>
      </trkpt>
      <trkpt lat="47.2733" lon="-1.64376">
        <ele>44.8</ele>
        <time>2014-04-27T09:14:42Z</time>
      </trkpt>
      <trkpt lat="47.27322" lon="-1.64363">
        <ele>44.5</ele>
        <time>2014-04-27T09:14:45Z</time>
      </trkpt>
      <trkpt lat="47.27316" lon="-1.64352">
        <ele>44.2</ele>
        <time>2014-04-27T09:14:47Z</time>
      </trkpt>
      <trkpt lat="47.27304" lon="-1.64338">
        <ele>43.7</ele>
        <time>2014-04-27T09:14:50Z</time>
      </trkpt>
      <trkpt lat="47.27292" lon="-1.64331">
        <ele>41.5</ele>
        <time>2014-04-27T09:14:52Z</time>
      </trkpt>
      <trkpt lat="47.27286" lon="-1.64318">
        <ele>41.2</ele>
        <time>2014-04-27T09:14:54Z</time>
      </trkpt>
      <trkpt lat="47.27282" lon="-1.64304">
        <ele>40.9</ele>
        <time>2014-04-27T09:14:56Z</time>
      </trkpt>
      <trkpt lat="47.27275" lon="-1.64292">
        <ele>40.7</ele>
        <time>2014-04-27T09:14:58Z</time>
      </trkpt>
      <trkpt lat="47.27266" lon="-1.64279">
        <ele>40.3</ele>
        <time>2014-04-27T09:15:01Z</time>
      </trkpt>
      <trkpt lat="47.27258" lon="-1.64267">
        <ele>40.3</ele>
        <time>2014-04-27T09:15:04Z</time>
      </trkpt>
      <trkpt lat="47.27251" lon="-1.64256">
        <ele>40.4</ele>
        <time>2014-04-27T09:15:06Z</time>
      </trkpt>
      <trkpt lat="47.27242" lon="-1.64245">
        <ele>40.4</ele>
        <time>2014-04-27T09:15:09Z</time>
      </trkpt>
      <trkpt lat="47.27233" lon="-1.64233">
        <ele>40.2</ele>
        <time>2014-04-27T09:15:12Z</time>
      </trkpt>
      <trkpt lat="47.27227" lon="-1.64219">
        <ele>40.5</ele>
        <time>2014-04-27T09:15:15Z</time>
      </trkpt>
      <trkpt lat="47.27223" lon="-1.64206">
        <ele>40.6</ele>
        <time>2014-04-27T09:15:18Z</time>
      </trkpt>
      <trkpt lat="47.27219" lon="-1.64192">
        <ele>40.8</ele>
        <time>2014-04-27T09:15:21Z</time>
      </trkpt>
      <trkpt lat="47.27214" lon="-1.64176">
        <ele>41</ele>
        <time>2014-04-27T09:15:24Z</time>
      </trkpt>
      <trkpt lat="47.2721" lon="-1.64164">
        <ele>41.3</ele>
        <time>2014-04-27T09:15:26Z</time>
      </trkpt>
      <trkpt lat="47.27205" lon="-1.64152">
        <ele>41.5</ele>
        <time>2014-04-27T09:15:29Z</time>
      </trkpt>
      <trkpt lat="47.27201" lon="-1.64139">
        <ele>42.1</ele>
        <time>2014-04-27T09:15:33Z</time>
      </trkpt>
      <trkpt lat="47.27194" lon="-1.64129">
        <ele>42.4</ele>
        <time>2014-04-27T09:15:37Z</time>
      </trkpt>
      <trkpt lat="47.2719" lon="-1.64117">
        <ele>42.9</ele>
        <time>2014-04-27T09:15:41Z</time>
      </trkpt>
      <trkpt lat="47.27177" lon="-1.64093">
        <ele>43.9</ele>
        <time>2014-04-27T09:15:51Z</time>
      </trkpt>
      <trkpt lat="47.27172" lon="-1.6408">
        <ele>44.1</ele>
        <time>2014-04-27T09:15:55Z</time>
      </trkpt>
      <trkpt lat="47.27166" lon="-1.6407">
        <ele>44.4</ele>
        <time>2014-04-27T09:15:59Z</time>
      </trkpt>
      <trkpt lat="47.2716" lon="-1.64059">
        <ele>44.8</ele>
        <time>2014-04-27T09:16:02Z</time>
      </trkpt>
      <trkpt lat="47.27154" lon="-1.64045">
        <ele>45.1</ele>
        <time>2014-04-27T09:16:06Z</time>
      </trkpt>
      <trkpt lat="47.27148" lon="-1.64031">
        <ele>45.4</ele>
        <time>2014-04-27T09:16:10Z</time>
      </trkpt>
      <trkpt lat="47.27143" lon="-1.6402">
        <ele>45.7</ele>
        <time>2014-04-27T09:16:14Z</time>
      </trkpt>
      <trkpt lat="47.27134" lon="-1.64007">
        <ele>45.9</ele>
        <time>2014-04-27T09:16:18Z</time>
      </trkpt>
      <trkpt lat="47.27127" lon="-1.63995">
        <ele>46</ele>
        <time>2014-04-27T09:16:21Z</time>
      </trkpt>
      <trkpt lat="47.27119" lon="-1.63981">
        <ele>46.3</ele>
        <time>2014-04-27T09:16:24Z</time>
      </trkpt>
      <trkpt lat="47.27111" lon="-1.63968">
        <ele>46.4</ele>
        <time>2014-04-27T09:16:27Z</time>
      </trkpt>
      <trkpt lat="47.27105" lon="-1.63958">
        <ele>46.4</ele>
        <time>2014-04-27T09:16:29Z</time>
      </trkpt>
      <trkpt lat="47.27099" lon="-1.63947">
        <ele>46.4</ele>
        <time>2014-04-27T09:16:31Z</time>
      </trkpt>
      <trkpt lat="47.27092" lon="-1.63933">
        <ele>46.5</ele>
        <time>2014-04-27T09:16:34Z</time>
      </trkpt>
      <trkpt lat="47.27088" lon="-1.6392">
        <ele>46.9</ele>
        <time>2014-04-27T09:16:37Z</time>
      </trkpt>
      <trkpt lat="47.2708" lon="-1.63909">
        <ele>47.2</ele>
        <time>2014-04-27T09:16:40Z</time>
      </trkpt>
      <trkpt lat="47.27064" lon="-1.639">
        <ele>49.4</ele>
        <time>2014-04-27T09:17:39Z</time>
      </trkpt>
      <trkpt lat="47.27052" lon="-1.63918">
        <ele>49</ele>
        <time>2014-04-27T09:18:20Z</time>
      </trkpt>
      <trkpt lat="47.27051" lon="-1.63932">
        <ele>48.4</ele>
        <time>2014-04-27T09:18:24Z</time>
      </trkpt>
      <trkpt lat="47.2705" lon="-1.63947">
        <ele>47.9</ele>
        <time>2014-04-27T09:18:27Z</time>
      </trkpt>
      <trkpt lat="47.27049" lon="-1.63964">
        <ele>47.3</ele>
        <time>2014-04-27T09:18:30Z</time>
      </trkpt>
      <trkpt lat="47.27047" lon="-1.63978">
        <ele>46.8</ele>
        <time>2014-04-27T09:18:32Z</time>
      </trkpt>
      <trkpt lat="47.27046" lon="-1.63993">
        <ele>46.2</ele>
        <time>2014-04-27T09:18:34Z</time>
      </trkpt>
      <trkpt lat="47.27047" lon="-1.6401">
        <ele>45.3</ele>
        <time>2014-04-27T09:18:37Z</time>
      </trkpt>
      <trkpt lat="47.27048" lon="-1.6403">
        <ele>43.7</ele>
        <time>2014-04-27T09:18:42Z</time>
      </trkpt>
      <trkpt lat="47.27036" lon="-1.64054">
        <ele>40.3</ele>
        <time>2014-04-27T09:18:52Z</time>
      </trkpt>
      <trkpt lat="47.27031" lon="-1.64068">
        <ele>37.2</ele>
        <time>2014-04-27T09:18:59Z</time>
      </trkpt>
      <trkpt lat="47.27025" lon="-1.64082">
        <ele>36.3</ele>
        <time>2014-04-27T09:19:02Z</time>
      </trkpt>
      <trkpt lat="47.27018" lon="-1.64092">
        <ele>35.3</ele>
        <time>2014-04-27T09:19:05Z</time>
      </trkpt>
      <trkpt lat="47.27013" lon="-1.64104">
        <ele>35.1</ele>
        <time>2014-04-27T09:19:45Z</time>
      </trkpt>
      <trkpt lat="47.27003" lon="-1.64127">
        <ele>36.9</ele>
        <time>2014-04-27T09:20:32Z</time>
      </trkpt>
      <trkpt lat="47.26998" lon="-1.64138">
        <ele>37.7</ele>
        <time>2014-04-27T09:20:39Z</time>
      </trkpt>
      <trkpt lat="47.26991" lon="-1.64147">
        <ele>36.9</ele>
        <time>2014-04-27T09:20:56Z</time>
      </trkpt>
      <trkpt lat="47.26987" lon="-1.64177">
        <ele>40</ele>
        <time>2014-04-27T09:21:45Z</time>
      </trkpt>
      <trkpt lat="47.26989" lon="-1.64191">
        <ele>39.7</ele>
        <time>2014-04-27T09:21:55Z</time>
      </trkpt>
      <trkpt lat="47.26977" lon="-1.64187">
        <ele>33.4</ele>
        <time>2014-04-27T09:22:32Z</time>
      </trkpt>
      <trkpt lat="47.26969" lon="-1.6416">
        <ele>31.9</ele>
        <time>2014-04-27T09:22:39Z</time>
      </trkpt>
      <trkpt lat="47.26965" lon="-1.64147">
        <ele>31</ele>
        <time>2014-04-27T09:22:42Z</time>
      </trkpt>
      <trkpt lat="47.26957" lon="-1.64136">
        <ele>29.8</ele>
        <time>2014-04-27T09:22:45Z</time>
      </trkpt>
      <trkpt lat="47.26948" lon="-1.64123">
        <ele>29</ele>
        <time>2014-04-27T09:22:47Z</time>
      </trkpt>
      <trkpt lat="47.26942" lon="-1.64112">
        <ele>25.2</ele>
        <time>2014-04-27T09:22:49Z</time>
      </trkpt>
      <trkpt lat="47.26935" lon="-1.64095">
        <ele>23.9</ele>
        <time>2014-04-27T09:22:53Z</time>
      </trkpt>
      <trkpt lat="47.26932" lon="-1.64078">
        <ele>23</ele>
        <time>2014-04-27T09:22:56Z</time>
      </trkpt>
      <trkpt lat="47.26931" lon="-1.64064">
        <ele>22.2</ele>
        <time>2014-04-27T09:22:59Z</time>
      </trkpt>
      <trkpt lat="47.2693" lon="-1.64049">
        <ele>21.6</ele>
        <time>2014-04-27T09:23:02Z</time>
      </trkpt>
      <trkpt lat="47.26928" lon="-1.64034">
        <ele>20.7</ele>
        <time>2014-04-27T09:23:12Z</time>
      </trkpt>
      <trkpt lat="47.26932" lon="-1.64021">
        <ele>20.9</ele>
        <time>2014-04-27T09:23:20Z</time>
      </trkpt>
      <trkpt lat="47.26931" lon="-1.64006">
        <ele>22.4</ele>
        <time>2014-04-27T09:23:37Z</time>
      </trkpt>
      <trkpt lat="47.2692" lon="-1.63983">
        <ele>24.4</ele>
        <time>2014-04-27T09:23:47Z</time>
      </trkpt>
      <trkpt lat="47.26915" lon="-1.63971">
        <ele>24.3</ele>
        <time>2014-04-27T09:23:52Z</time>
      </trkpt>
      <trkpt lat="47.26914" lon="-1.63956">
        <ele>25.2</ele>
        <time>2014-04-27T09:24:06Z</time>
      </trkpt>
      <trkpt lat="47.26908" lon="-1.63944">
        <ele>28.9</ele>
        <time>2014-04-27T09:24:21Z</time>
      </trkpt>
      <trkpt lat="47.26903" lon="-1.63934">
        <ele>32.3</ele>
        <time>2014-04-27T09:24:31Z</time>
      </trkpt>
      <trkpt lat="47.26899" lon="-1.63921">
        <ele>35.3</ele>
        <time>2014-04-27T09:24:43Z</time>
      </trkpt>
      <trkpt lat="47.26888" lon="-1.639">
        <ele>38.6</ele>
        <time>2014-04-27T09:25:03Z</time>
      </trkpt>
      <trkpt lat="47.26892" lon="-1.63888">
        <ele>39.3</ele>
        <time>2014-04-27T09:25:09Z</time>
      </trkpt>
      <trkpt lat="47.26895" lon="-1.63875">
        <ele>40.6</ele>
        <time>2014-04-27T09:25:27Z</time>
      </trkpt>
      <trkpt lat="47.26893" lon="-1.63861">
        <ele>39.8</ele>
        <time>2014-04-27T09:25:42Z</time>
      </trkpt>
      <trkpt lat="47.26885" lon="-1.63853">
        <ele>39.5</ele>
        <time>2014-04-27T09:25:50Z</time>
      </trkpt>
      <trkpt lat="47.26876" lon="-1.63828">
        <ele>40.2</ele>
        <time>2014-04-27T09:26:03Z</time>
      </trkpt>
      <trkpt lat="47.26866" lon="-1.63827">
        <ele>39.4</ele>
        <time>2014-04-27T09:26:11Z</time>
      </trkpt>
      <trkpt lat="47.26854" lon="-1.63831">
        <ele>38.2</ele>
        <time>2014-04-27T09:26:14Z</time>
      </trkpt>
      <trkpt lat="47.26845" lon="-1.63842">
        <ele>38.9</ele>
        <time>2014-04-27T09:26:17Z</time>
      </trkpt>
      <trkpt lat="47.26838" lon="-1.63855">
        <ele>39</ele>
        <time>2014-04-27T09:26:20Z</time>
      </trkpt>
      <trkpt lat="47.26833" lon="-1.63868">
        <ele>39.2</ele>
        <time>2014-04-27T09:26:23Z</time>
      </trkpt>
      <trkpt lat="47.26826" lon="-1.63881">
        <ele>39.2</ele>
        <time>2014-04-27T09:26:27Z</time>
      </trkpt>
      <trkpt lat="47.26818" lon="-1.63889">
        <ele>39.2</ele>
        <time>2014-04-27T09:26:30Z</time>
      </trkpt>
      <trkpt lat="47.26809" lon="-1.63895">
        <ele>39.1</ele>
        <time>2014-04-27T09:26:32Z</time>
      </trkpt>
      <trkpt lat="47.26801" lon="-1.63905">
        <ele>38.7</ele>
        <time>2014-04-27T09:26:35Z</time>
      </trkpt>
      <trkpt lat="47.26792" lon="-1.63916">
        <ele>38</ele>
        <time>2014-04-27T09:26:38Z</time>
      </trkpt>
      <trkpt lat="47.26785" lon="-1.63925">
        <ele>37.5</ele>
        <time>2014-04-27T09:26:40Z</time>
      </trkpt>
      <trkpt lat="47.26774" lon="-1.63935">
        <ele>32.9</ele>
        <time>2014-04-27T09:26:43Z</time>
      </trkpt>
      <trkpt lat="47.26766" lon="-1.63943">
        <ele>31.9</ele>
        <time>2014-04-27T09:26:46Z</time>
      </trkpt>
      <trkpt lat="47.26757" lon="-1.6394">
        <ele>30.9</ele>
        <time>2014-04-27T09:26:49Z</time>
      </trkpt>
      <trkpt lat="47.26748" lon="-1.63928">
        <ele>29.4</ele>
        <time>2014-04-27T09:26:53Z</time>
      </trkpt>
      <trkpt lat="47.26736" lon="-1.63903">
        <ele>26</ele>
        <time>2014-04-27T09:27:01Z</time>
      </trkpt>
      <trkpt lat="47.2673" lon="-1.63894">
        <ele>24.7</ele>
        <time>2014-04-27T09:27:06Z</time>
      </trkpt>
      <trkpt lat="47.26726" lon="-1.63881">
        <ele>24.5</ele>
        <time>2014-04-27T09:27:09Z</time>
      </trkpt>
      <trkpt lat="47.26724" lon="-1.63865">
        <ele>24.9</ele>
        <time>2014-04-27T09:27:13Z</time>
      </trkpt>
      <trkpt lat="47.26722" lon="-1.63849">
        <ele>25.4</ele>
        <time>2014-04-27T09:27:17Z</time>
      </trkpt>
      <trkpt lat="47.2672" lon="-1.63837">
        <ele>25.8</ele>
        <time>2014-04-27T09:27:21Z</time>
      </trkpt>
      <trkpt lat="47.26719" lon="-1.63823">
        <ele>26</ele>
        <time>2014-04-27T09:27:24Z</time>
      </trkpt>
      <trkpt lat="47.26721" lon="-1.63806">
        <ele>25.7</ele>
        <time>2014-04-27T09:27:27Z</time>
      </trkpt>
      <trkpt lat="47.26724" lon="-1.63793">
        <ele>25.4</ele>
        <time>2014-04-27T09:27:29Z</time>
      </trkpt>
      <trkpt lat="47.26728" lon="-1.63775">
        <ele>25.2</ele>
        <time>2014-04-27T09:27:32Z</time>
      </trkpt>
      <trkpt lat="47.26731" lon="-1.63761">
        <ele>24.9</ele>
        <time>2014-04-27T09:27:34Z</time>
      </trkpt>
      <trkpt lat="47.26734" lon="-1.63748">
        <ele>24.8</ele>
        <time>2014-04-27T09:27:36Z</time>
      </trkpt>
      <trkpt lat="47.26737" lon="-1.63734">
        <ele>24.8</ele>
        <time>2014-04-27T09:27:39Z</time>
      </trkpt>
      <trkpt lat="47.26743" lon="-1.63715">
        <ele>24.8</ele>
        <time>2014-04-27T09:27:42Z</time>
      </trkpt>
      <trkpt lat="47.26746" lon="-1.63702">
        <ele>24.9</ele>
        <time>2014-04-27T09:27:44Z</time>
      </trkpt>
      <trkpt lat="47.2675" lon="-1.63688">
        <ele>24.8</ele>
        <time>2014-04-27T09:27:46Z</time>
      </trkpt>
      <trkpt lat="47.26758" lon="-1.63675">
        <ele>24.8</ele>
        <time>2014-04-27T09:27:50Z</time>
      </trkpt>
      <trkpt lat="47.26768" lon="-1.63664">
        <ele>24.6</ele>
        <time>2014-04-27T09:27:54Z</time>
      </trkpt>
      <trkpt lat="47.26773" lon="-1.63635">
        <ele>23.8</ele>
        <time>2014-04-27T09:28:01Z</time>
      </trkpt>
      <trkpt lat="47.2678" lon="-1.6362">
        <ele>23.3</ele>
        <time>2014-04-27T09:28:05Z</time>
      </trkpt>
      <trkpt lat="47.26789" lon="-1.63611">
        <ele>23.2</ele>
        <time>2014-04-27T09:28:08Z</time>
      </trkpt>
      <trkpt lat="47.26799" lon="-1.63604">
        <ele>23.2</ele>
        <time>2014-04-27T09:28:11Z</time>
      </trkpt>
      <trkpt lat="47.26806" lon="-1.63597">
        <ele>23</ele>
        <time>2014-04-27T09:28:14Z</time>
      </trkpt>
      <trkpt lat="47.26814" lon="-1.63583">
        <ele>23.1</ele>
        <time>2014-04-27T09:28:18Z</time>
      </trkpt>
      <trkpt lat="47.2682" lon="-1.63572">
        <ele>23.1</ele>
        <time>2014-04-27T09:28:21Z</time>
      </trkpt>
      <trkpt lat="47.26828" lon="-1.63557">
        <ele>22.8</ele>
        <time>2014-04-27T09:28:24Z</time>
      </trkpt>
      <trkpt lat="47.26833" lon="-1.63544">
        <ele>23.6</ele>
        <time>2014-04-27T09:28:26Z</time>
      </trkpt>
      <trkpt lat="47.26839" lon="-1.6353">
        <ele>23.9</ele>
        <time>2014-04-27T09:28:29Z</time>
      </trkpt>
      <trkpt lat="47.26846" lon="-1.63515">
        <ele>24</ele>
        <time>2014-04-27T09:28:32Z</time>
      </trkpt>
      <trkpt lat="47.26849" lon="-1.635">
        <ele>24</ele>
        <time>2014-04-27T09:28:35Z</time>
      </trkpt>
      <trkpt lat="47.26854" lon="-1.63486">
        <ele>23.8</ele>
        <time>2014-04-27T09:28:38Z</time>
      </trkpt>
      <trkpt lat="47.2686" lon="-1.63472">
        <ele>23.6</ele>
        <time>2014-04-27T09:28:41Z</time>
      </trkpt>
      <trkpt lat="47.26864" lon="-1.63453">
        <ele>23.5</ele>
        <time>2014-04-27T09:28:44Z</time>
      </trkpt>
      <trkpt lat="47.26869" lon="-1.63438">
        <ele>23.4</ele>
        <time>2014-04-27T09:28:47Z</time>
      </trkpt>
      <trkpt lat="47.26872" lon="-1.63425">
        <ele>23</ele>
        <time>2014-04-27T09:28:49Z</time>
      </trkpt>
      <trkpt lat="47.26875" lon="-1.63412">
        <ele>22.6</ele>
        <time>2014-04-27T09:28:51Z</time>
      </trkpt>
      <trkpt lat="47.26876" lon="-1.63391">
        <ele>21.1</ele>
        <time>2014-04-27T09:28:54Z</time>
      </trkpt>
      <trkpt lat="47.26876" lon="-1.63373">
        <ele>19.7</ele>
        <time>2014-04-27T09:28:56Z</time>
      </trkpt>
      <trkpt lat="47.26887" lon="-1.63352">
        <ele>18.9</ele>
        <time>2014-04-27T09:29:04Z</time>
      </trkpt>
      <trkpt lat="47.26888" lon="-1.63337">
        <ele>19.1</ele>
        <time>2014-04-27T09:29:08Z</time>
      </trkpt>
      <trkpt lat="47.2689" lon="-1.63323">
        <ele>18.9</ele>
        <time>2014-04-27T09:29:11Z</time>
      </trkpt>
      <trkpt lat="47.26889" lon="-1.63306">
        <ele>17.9</ele>
        <time>2014-04-27T09:29:15Z</time>
      </trkpt>
      <trkpt lat="47.26888" lon="-1.63289">
        <ele>16.8</ele>
        <time>2014-04-27T09:29:19Z</time>
      </trkpt>
      <trkpt lat="47.26889" lon="-1.63276">
        <ele>14.5</ele>
        <time>2014-04-27T09:29:24Z</time>
      </trkpt>
      <trkpt lat="47.26888" lon="-1.63263">
        <ele>13.3</ele>
        <time>2014-04-27T09:29:30Z</time>
      </trkpt>
      <trkpt lat="47.26886" lon="-1.6325">
        <ele>12</ele>
        <time>2014-04-27T09:29:35Z</time>
      </trkpt>
      <trkpt lat="47.26882" lon="-1.63234">
        <ele>11.8</ele>
        <time>2014-04-27T09:29:43Z</time>
      </trkpt>
      <trkpt lat="47.26877" lon="-1.6322">
        <ele>12</ele>
        <time>2014-04-27T09:29:46Z</time>
      </trkpt>
      <trkpt lat="47.26874" lon="-1.63206">
        <ele>14</ele>
        <time>2014-04-27T09:29:59Z</time>
      </trkpt>
      <trkpt lat="47.26871" lon="-1.6318">
        <ele>15.9</ele>
        <time>2014-04-27T09:30:20Z</time>
      </trkpt>
      <trkpt lat="47.26863" lon="-1.63171">
        <ele>16</ele>
        <time>2014-04-27T09:30:23Z</time>
      </trkpt>
      <trkpt lat="47.26858" lon="-1.63161">
        <ele>16.5</ele>
        <time>2014-04-27T09:30:27Z</time>
      </trkpt>
      <trkpt lat="47.26852" lon="-1.63147">
        <ele>18.1</ele>
        <time>2014-04-27T09:30:34Z</time>
      </trkpt>
      <trkpt lat="47.26846" lon="-1.63134">
        <ele>19.1</ele>
        <time>2014-04-27T09:30:38Z</time>
      </trkpt>
      <trkpt lat="47.26842" lon="-1.63122">
        <ele>20.1</ele>
        <time>2014-04-27T09:30:42Z</time>
      </trkpt>
      <trkpt lat="47.26836" lon="-1.6311">
        <ele>20.4</ele>
        <time>2014-04-27T09:30:46Z</time>
      </trkpt>
      <trkpt lat="47.26832" lon="-1.63097">
        <ele>20.7</ele>
        <time>2014-04-27T09:30:49Z</time>
      </trkpt>
      <trkpt lat="47.26828" lon="-1.63081">
        <ele>20.6</ele>
        <time>2014-04-27T09:30:53Z</time>
      </trkpt>
      <trkpt lat="47.26823" lon="-1.63067">
        <ele>20.9</ele>
        <time>2014-04-27T09:31:11Z</time>
      </trkpt>
      <trkpt lat="47.26806" lon="-1.63059">
        <ele>18.8</ele>
        <time>2014-04-27T09:31:30Z</time>
      </trkpt>
      <trkpt lat="47.26794" lon="-1.63061">
        <ele>19.7</ele>
        <time>2014-04-27T09:31:32Z</time>
      </trkpt>
      <trkpt lat="47.26783" lon="-1.6306">
        <ele>20.1</ele>
        <time>2014-04-27T09:31:35Z</time>
      </trkpt>
      <trkpt lat="47.26772" lon="-1.6306">
        <ele>20.4</ele>
        <time>2014-04-27T09:31:38Z</time>
      </trkpt>
      <trkpt lat="47.2676" lon="-1.63056">
        <ele>20.3</ele>
        <time>2014-04-27T09:31:41Z</time>
      </trkpt>
      <trkpt lat="47.26752" lon="-1.63049">
        <ele>20.1</ele>
        <time>2014-04-27T09:31:44Z</time>
      </trkpt>
      <trkpt lat="47.26747" lon="-1.63038">
        <ele>20.1</ele>
        <time>2014-04-27T09:31:49Z</time>
      </trkpt>
      <trkpt lat="47.26748" lon="-1.63021">
        <ele>21</ele>
        <time>2014-04-27T09:31:56Z</time>
      </trkpt>
      <trkpt lat="47.26751" lon="-1.63007">
        <ele>21.4</ele>
        <time>2014-04-27T09:32:00Z</time>
      </trkpt>
      <trkpt lat="47.26747" lon="-1.62993">
        <ele>21.2</ele>
        <time>2014-04-27T09:32:03Z</time>
      </trkpt>
      <trkpt lat="47.26742" lon="-1.62977">
        <ele>20.8</ele>
        <time>2014-04-27T09:32:06Z</time>
      </trkpt>
      <trkpt lat="47.26739" lon="-1.62959">
        <ele>20.6</ele>
        <time>2014-04-27T09:32:09Z</time>
      </trkpt>
      <trkpt lat="47.2674" lon="-1.62942">
        <ele>20.3</ele>
        <time>2014-04-27T09:32:12Z</time>
      </trkpt>
      <trkpt lat="47.26748" lon="-1.62917">
        <ele>20.1</ele>
        <time>2014-04-27T09:32:16Z</time>
      </trkpt>
      <trkpt lat="47.26753" lon="-1.62905">
        <ele>20.3</ele>
        <time>2014-04-27T09:32:19Z</time>
      </trkpt>
      <trkpt lat="47.26754" lon="-1.62889">
        <ele>20.8</ele>
        <time>2014-04-27T09:32:23Z</time>
      </trkpt>
      <trkpt lat="47.26755" lon="-1.62872">
        <ele>21.2</ele>
        <time>2014-04-27T09:32:27Z</time>
      </trkpt>
      <trkpt lat="47.26756" lon="-1.62857">
        <ele>21.5</ele>
        <time>2014-04-27T09:32:31Z</time>
      </trkpt>
      <trkpt lat="47.26755" lon="-1.6284">
        <ele>21.3</ele>
        <time>2014-04-27T09:32:35Z</time>
      </trkpt>
      <trkpt lat="47.26754" lon="-1.62823">
        <ele>21.5</ele>
        <time>2014-04-27T09:32:38Z</time>
      </trkpt>
      <trkpt lat="47.26752" lon="-1.62807">
        <ele>21.7</ele>
        <time>2014-04-27T09:32:40Z</time>
      </trkpt>
      <trkpt lat="47.26753" lon="-1.62793">
        <ele>21.9</ele>
        <time>2014-04-27T09:32:43Z</time>
      </trkpt>
      <trkpt lat="47.26755" lon="-1.62778">
        <ele>22.1</ele>
        <time>2014-04-27T09:32:46Z</time>
      </trkpt>
      <trkpt lat="47.26758" lon="-1.62765">
        <ele>22.5</ele>
        <time>2014-04-27T09:32:50Z</time>
      </trkpt>
      <trkpt lat="47.26761" lon="-1.62751">
        <ele>22.4</ele>
        <time>2014-04-27T09:32:54Z</time>
      </trkpt>
      <trkpt lat="47.26761" lon="-1.62734">
        <ele>22.2</ele>
        <time>2014-04-27T09:32:58Z</time>
      </trkpt>
      <trkpt lat="47.26762" lon="-1.6272">
        <ele>22.2</ele>
        <time>2014-04-27T09:33:00Z</time>
      </trkpt>
      <trkpt lat="47.26764" lon="-1.62706">
        <ele>22.8</ele>
        <time>2014-04-27T09:33:06Z</time>
      </trkpt>
      <trkpt lat="47.26765" lon="-1.6269">
        <ele>23.2</ele>
        <time>2014-04-27T09:33:09Z</time>
      </trkpt>
      <trkpt lat="47.26766" lon="-1.62672">
        <ele>24</ele>
        <time>2014-04-27T09:33:13Z</time>
      </trkpt>
      <trkpt lat="47.26763" lon="-1.62645">
        <ele>28.1</ele>
        <time>2014-04-27T09:33:37Z</time>
      </trkpt>
      <trkpt lat="47.26761" lon="-1.62631">
        <ele>31</ele>
        <time>2014-04-27T09:33:43Z</time>
      </trkpt>
      <trkpt lat="47.26766" lon="-1.62615">
        <ele>33</ele>
        <time>2014-04-27T09:33:51Z</time>
      </trkpt>
      <trkpt lat="47.26765" lon="-1.62597">
        <ele>33.5</ele>
        <time>2014-04-27T09:33:54Z</time>
      </trkpt>
      <trkpt lat="47.26758" lon="-1.62582">
        <ele>34</ele>
        <time>2014-04-27T09:33:57Z</time>
      </trkpt>
      <trkpt lat="47.26749" lon="-1.62566">
        <ele>35.8</ele>
        <time>2014-04-27T09:33:59Z</time>
      </trkpt>
      <trkpt lat="47.26743" lon="-1.62554">
        <ele>36.6</ele>
        <time>2014-04-27T09:34:01Z</time>
      </trkpt>
      <trkpt lat="47.26742" lon="-1.62539">
        <ele>36.5</ele>
        <time>2014-04-27T09:34:03Z</time>
      </trkpt>
      <trkpt lat="47.26742" lon="-1.6252">
        <ele>36.1</ele>
        <time>2014-04-27T09:34:05Z</time>
      </trkpt>
      <trkpt lat="47.26743" lon="-1.62506">
        <ele>35.2</ele>
        <time>2014-04-27T09:34:10Z</time>
      </trkpt>
      <trkpt lat="47.26744" lon="-1.6249">
        <ele>34.2</ele>
        <time>2014-04-27T09:34:14Z</time>
      </trkpt>
      <trkpt lat="47.26747" lon="-1.62457">
        <ele>33.3</ele>
        <time>2014-04-27T09:34:25Z</time>
      </trkpt>
      <trkpt lat="47.26745" lon="-1.62442">
        <ele>33.4</ele>
        <time>2014-04-27T09:34:27Z</time>
      </trkpt>
      <trkpt lat="47.26748" lon="-1.62428">
        <ele>33.4</ele>
        <time>2014-04-27T09:34:33Z</time>
      </trkpt>
      <trkpt lat="47.26753" lon="-1.62413">
        <ele>33.2</ele>
        <time>2014-04-27T09:34:38Z</time>
      </trkpt>
      <trkpt lat="47.26755" lon="-1.62399">
        <ele>33.3</ele>
        <time>2014-04-27T09:34:48Z</time>
      </trkpt>
      <trkpt lat="47.26755" lon="-1.62383">
        <ele>33</ele>
        <time>2014-04-27T09:34:54Z</time>
      </trkpt>
      <trkpt lat="47.26753" lon="-1.62369">
        <ele>31.6</ele>
        <time>2014-04-27T09:35:00Z</time>
      </trkpt>
      <trkpt lat="47.2675" lon="-1.62354">
        <ele>30.2</ele>
        <time>2014-04-27T09:35:09Z</time>
      </trkpt>
      <trkpt lat="47.26749" lon="-1.62339">
        <ele>30</ele>
        <time>2014-04-27T09:35:16Z</time>
      </trkpt>
      <trkpt lat="47.26739" lon="-1.62313">
        <ele>32.7</ele>
        <time>2014-04-27T09:35:32Z</time>
      </trkpt>
      <trkpt lat="47.26735" lon="-1.62301">
        <ele>34.8</ele>
        <time>2014-04-27T09:35:49Z</time>
      </trkpt>
      <trkpt lat="47.26736" lon="-1.62287">
        <ele>36.3</ele>
        <time>2014-04-27T09:35:58Z</time>
      </trkpt>
      <trkpt lat="47.26731" lon="-1.62273">
        <ele>37.5</ele>
        <time>2014-04-27T09:36:28Z</time>
      </trkpt>
      <trkpt lat="47.2672" lon="-1.62249">
        <ele>37.3</ele>
        <time>2014-04-27T09:36:38Z</time>
      </trkpt>
      <trkpt lat="47.26717" lon="-1.62236">
        <ele>36.7</ele>
        <time>2014-04-27T09:36:43Z</time>
      </trkpt>
      <trkpt lat="47.26716" lon="-1.62219">
        <ele>36.5</ele>
        <time>2014-04-27T09:36:47Z</time>
      </trkpt>
      <trkpt lat="47.26716" lon="-1.62204">
        <ele>36.7</ele>
        <time>2014-04-27T09:36:51Z</time>
      </trkpt>
      <trkpt lat="47.2672" lon="-1.62218">
        <ele>36.3</ele>
        <time>2014-04-27T09:37:00Z</time>
      </trkpt>
      <trkpt lat="47.26719" lon="-1.62232">
        <ele>36.2</ele>
        <time>2014-04-27T09:37:04Z</time>
      </trkpt>
      <trkpt lat="47.26731" lon="-1.62235">
        <ele>35.8</ele>
        <time>2014-04-27T09:37:14Z</time>
      </trkpt>
      <trkpt lat="47.26735" lon="-1.6222">
        <ele>35.2</ele>
        <time>2014-04-27T09:37:20Z</time>
      </trkpt>
      <trkpt lat="47.26735" lon="-1.62207">
        <ele>34.5</ele>
        <time>2014-04-27T09:37:24Z</time>
      </trkpt>
      <trkpt lat="47.26737" lon="-1.62189">
        <ele>33.7</ele>
        <time>2014-04-27T09:37:27Z</time>
      </trkpt>
      <trkpt lat="47.2674" lon="-1.62172">
        <ele>33.1</ele>
        <time>2014-04-27T09:37:30Z</time>
      </trkpt>
      <trkpt lat="47.26747" lon="-1.62141">
        <ele>29.8</ele>
        <time>2014-04-27T09:37:34Z</time>
      </trkpt>
      <trkpt lat="47.26747" lon="-1.62124">
        <ele>29.5</ele>
        <time>2014-04-27T09:37:36Z</time>
      </trkpt>
      <trkpt lat="47.26747" lon="-1.62107">
        <ele>27.9</ele>
        <time>2014-04-27T09:37:38Z</time>
      </trkpt>
      <trkpt lat="47.26748" lon="-1.62093">
        <ele>27.5</ele>
        <time>2014-04-27T09:37:40Z</time>
      </trkpt>
      <trkpt lat="47.26756" lon="-1.62084">
        <ele>27</ele>
        <time>2014-04-27T09:37:46Z</time>
      </trkpt>
      <trkpt lat="47.26767" lon="-1.6209">
        <ele>26.5</ele>
        <time>2014-04-27T09:37:50Z</time>
      </trkpt>
      <trkpt lat="47.26775" lon="-1.62096">
        <ele>25.8</ele>
        <time>2014-04-27T09:37:53Z</time>
      </trkpt>
      <trkpt lat="47.26785" lon="-1.62103">
        <ele>23.8</ele>
        <time>2014-04-27T09:37:56Z</time>
      </trkpt>
      <trkpt lat="47.26794" lon="-1.6211">
        <ele>22</ele>
        <time>2014-04-27T09:37:58Z</time>
      </trkpt>
      <trkpt lat="47.26803" lon="-1.62116">
        <ele>19.6</ele>
        <time>2014-04-27T09:38:00Z</time>
      </trkpt>
      <trkpt lat="47.26813" lon="-1.62117">
        <ele>18.1</ele>
        <time>2014-04-27T09:38:03Z</time>
      </trkpt>
      <trkpt lat="47.26822" lon="-1.62119">
        <ele>17.5</ele>
        <time>2014-04-27T09:38:08Z</time>
      </trkpt>
      <trkpt lat="47.26833" lon="-1.62117">
        <ele>18.2</ele>
        <time>2014-04-27T09:38:14Z</time>
      </trkpt>
      <trkpt lat="47.26843" lon="-1.62112">
        <ele>19.2</ele>
        <time>2014-04-27T09:38:19Z</time>
      </trkpt>
      <trkpt lat="47.26853" lon="-1.62105">
        <ele>19.3</ele>
        <time>2014-04-27T09:38:22Z</time>
      </trkpt>
      <trkpt lat="47.26862" lon="-1.62096">
        <ele>19.3</ele>
        <time>2014-04-27T09:38:25Z</time>
      </trkpt>
      <trkpt lat="47.26869" lon="-1.62086">
        <ele>19.6</ele>
        <time>2014-04-27T09:38:29Z</time>
      </trkpt>
      <trkpt lat="47.26863" lon="-1.62096">
        <ele>19.4</ele>
        <time>2014-04-27T09:38:47Z</time>
      </trkpt>
      <trkpt lat="47.26845" lon="-1.62108">
        <ele>19.9</ele>
        <time>2014-04-27T09:38:55Z</time>
      </trkpt>
      <trkpt lat="47.26855" lon="-1.62102">
        <ele>20.7</ele>
        <time>2014-04-27T09:39:10Z</time>
      </trkpt>
      <trkpt lat="47.26863" lon="-1.62095">
        <ele>20.3</ele>
        <time>2014-04-27T09:39:15Z</time>
      </trkpt>
      <trkpt lat="47.2687" lon="-1.62085">
        <ele>19.8</ele>
        <time>2014-04-27T09:39:20Z</time>
      </trkpt>
      <trkpt lat="47.2688" lon="-1.62081">
        <ele>19.2</ele>
        <time>2014-04-27T09:39:26Z</time>
      </trkpt>
      <trkpt lat="47.26888" lon="-1.62076">
        <ele>18.2</ele>
        <time>2014-04-27T09:39:34Z</time>
      </trkpt>
      <trkpt lat="47.26888" lon="-1.62061">
        <ele>18.1</ele>
        <time>2014-04-27T09:39:44Z</time>
      </trkpt>
      <trkpt lat="47.2689" lon="-1.62046">
        <ele>17.2</ele>
        <time>2014-04-27T09:39:50Z</time>
      </trkpt>
      <trkpt lat="47.26905" lon="-1.62024">
        <ele>16.6</ele>
        <time>2014-04-27T09:40:00Z</time>
      </trkpt>
      <trkpt lat="47.26911" lon="-1.62012">
        <ele>16.8</ele>
        <time>2014-04-27T09:40:07Z</time>
      </trkpt>
      <trkpt lat="47.26917" lon="-1.62002">
        <ele>17.5</ele>
        <time>2014-04-27T09:40:15Z</time>
      </trkpt>
      <trkpt lat="47.26924" lon="-1.61992">
        <ele>18.4</ele>
        <time>2014-04-27T09:40:22Z</time>
      </trkpt>
      <trkpt lat="47.26932" lon="-1.61984">
        <ele>19</ele>
        <time>2014-04-27T09:40:28Z</time>
      </trkpt>
      <trkpt lat="47.26932" lon="-1.61971">
        <ele>20</ele>
        <time>2014-04-27T09:40:37Z</time>
      </trkpt>
      <trkpt lat="47.26927" lon="-1.61959">
        <ele>22.8</ele>
        <time>2014-04-27T09:40:50Z</time>
      </trkpt>
      <trkpt lat="47.2692" lon="-1.6195">
        <ele>25</ele>
        <time>2014-04-27T09:40:59Z</time>
      </trkpt>
      <trkpt lat="47.26901" lon="-1.61944">
        <ele>27.3</ele>
        <time>2014-04-27T09:41:17Z</time>
      </trkpt>
      <trkpt lat="47.26892" lon="-1.61944">
        <ele>27.7</ele>
        <time>2014-04-27T09:41:24Z</time>
      </trkpt>
      <trkpt lat="47.26885" lon="-1.61935">
        <ele>28.1</ele>
        <time>2014-04-27T09:41:32Z</time>
      </trkpt>
      <trkpt lat="47.26876" lon="-1.61927">
        <ele>28.3</ele>
        <time>2014-04-27T09:41:38Z</time>
      </trkpt>
      <trkpt lat="47.26868" lon="-1.61931">
        <ele>28.2</ele>
        <time>2014-04-27T09:41:44Z</time>
      </trkpt>
      <trkpt lat="47.26858" lon="-1.61931">
        <ele>27.8</ele>
        <time>2014-04-27T09:41:52Z</time>
      </trkpt>
      <trkpt lat="47.26863" lon="-1.61918">
        <ele>28.4</ele>
        <time>2014-04-27T09:42:01Z</time>
      </trkpt>
      <trkpt lat="47.26858" lon="-1.61889">
        <ele>30.2</ele>
        <time>2014-04-27T09:42:11Z</time>
      </trkpt>
      <trkpt lat="47.26855" lon="-1.61876">
        <ele>30.5</ele>
        <time>2014-04-27T09:42:13Z</time>
      </trkpt>
      <trkpt lat="47.26856" lon="-1.61863">
        <ele>31.1</ele>
        <time>2014-04-27T09:42:17Z</time>
      </trkpt>
      <trkpt lat="47.2686" lon="-1.61849">
        <ele>31.7</ele>
        <time>2014-04-27T09:42:22Z</time>
      </trkpt>
      <trkpt lat="47.26866" lon="-1.61838">
        <ele>32.5</ele>
        <time>2014-04-27T09:42:29Z</time>
      </trkpt>
      <trkpt lat="47.26867" lon="-1.61824">
        <ele>33.5</ele>
        <time>2014-04-27T09:42:37Z</time>
      </trkpt>
      <trkpt lat="47.2687" lon="-1.61811">
        <ele>34.2</ele>
        <time>2014-04-27T09:42:42Z</time>
      </trkpt>
      <trkpt lat="47.26869" lon="-1.61797">
        <ele>35.2</ele>
        <time>2014-04-27T09:42:49Z</time>
      </trkpt>
      <trkpt lat="47.26871" lon="-1.61783">
        <ele>37.2</ele>
        <time>2014-04-27T09:42:57Z</time>
      </trkpt>
      <trkpt lat="47.26876" lon="-1.6177">
        <ele>38.5</ele>
        <time>2014-04-27T09:43:03Z</time>
      </trkpt>
      <trkpt lat="47.26869" lon="-1.61746">
        <ele>40.5</ele>
        <time>2014-04-27T09:43:22Z</time>
      </trkpt>
      <trkpt lat="47.2686" lon="-1.61751">
        <ele>40.8</ele>
        <time>2014-04-27T09:43:27Z</time>
      </trkpt>
      <trkpt lat="47.2685" lon="-1.61748">
        <ele>40.6</ele>
        <time>2014-04-27T09:43:37Z</time>
      </trkpt>
      <trkpt lat="47.26841" lon="-1.6175">
        <ele>39.6</ele>
        <time>2014-04-27T09:43:43Z</time>
      </trkpt>
      <trkpt lat="47.26831" lon="-1.61742">
        <ele>39.1</ele>
        <time>2014-04-27T09:43:48Z</time>
      </trkpt>
      <trkpt lat="47.26826" lon="-1.6173">
        <ele>38.4</ele>
        <time>2014-04-27T09:43:54Z</time>
      </trkpt>
      <trkpt lat="47.2682" lon="-1.61718">
        <ele>38.1</ele>
        <time>2014-04-27T09:44:00Z</time>
      </trkpt>
      <trkpt lat="47.26815" lon="-1.61706">
        <ele>37.9</ele>
        <time>2014-04-27T09:44:05Z</time>
      </trkpt>
      <trkpt lat="47.26799" lon="-1.61708">
        <ele>37.8</ele>
        <time>2014-04-27T09:44:14Z</time>
      </trkpt>
      <trkpt lat="47.2679" lon="-1.61714">
        <ele>37.9</ele>
        <time>2014-04-27T09:44:17Z</time>
      </trkpt>
      <trkpt lat="47.26779" lon="-1.61713">
        <ele>37.7</ele>
        <time>2014-04-27T09:44:21Z</time>
      </trkpt>
      <trkpt lat="47.26771" lon="-1.61703">
        <ele>37.5</ele>
        <time>2014-04-27T09:44:28Z</time>
      </trkpt>
      <trkpt lat="47.26762" lon="-1.61689">
        <ele>37.2</ele>
        <time>2014-04-27T09:44:31Z</time>
      </trkpt>
      <trkpt lat="47.26754" lon="-1.61681">
        <ele>36.8</ele>
        <time>2014-04-27T09:44:34Z</time>
      </trkpt>
      <trkpt lat="47.26746" lon="-1.6167">
        <ele>36</ele>
        <time>2014-04-27T09:44:39Z</time>
      </trkpt>
      <trkpt lat="47.26735" lon="-1.61671">
        <ele>35.3</ele>
        <time>2014-04-27T09:44:43Z</time>
      </trkpt>
      <trkpt lat="47.26724" lon="-1.61666">
        <ele>34.3</ele>
        <time>2014-04-27T09:44:47Z</time>
      </trkpt>
      <trkpt lat="47.26714" lon="-1.61657">
        <ele>33.4</ele>
        <time>2014-04-27T09:44:50Z</time>
      </trkpt>
      <trkpt lat="47.26706" lon="-1.6165">
        <ele>32.4</ele>
        <time>2014-04-27T09:44:53Z</time>
      </trkpt>
      <trkpt lat="47.26696" lon="-1.61652">
        <ele>31.3</ele>
        <time>2014-04-27T09:44:57Z</time>
      </trkpt>
      <trkpt lat="47.26687" lon="-1.61649">
        <ele>30.4</ele>
        <time>2014-04-27T09:45:01Z</time>
      </trkpt>
      <trkpt lat="47.26675" lon="-1.61643">
        <ele>29.4</ele>
        <time>2014-04-27T09:45:05Z</time>
      </trkpt>
      <trkpt lat="47.26667" lon="-1.61634">
        <ele>28.6</ele>
        <time>2014-04-27T09:45:11Z</time>
      </trkpt>
      <trkpt lat="47.26652" lon="-1.61614">
        <ele>28.7</ele>
        <time>2014-04-27T09:45:22Z</time>
      </trkpt>
      <trkpt lat="47.26649" lon="-1.61599">
        <ele>28.9</ele>
        <time>2014-04-27T09:45:27Z</time>
      </trkpt>
      <trkpt lat="47.26645" lon="-1.61587">
        <ele>28.4</ele>
        <time>2014-04-27T09:45:32Z</time>
      </trkpt>
      <trkpt lat="47.2664" lon="-1.61574">
        <ele>27.8</ele>
        <time>2014-04-27T09:45:37Z</time>
      </trkpt>
      <trkpt lat="47.26637" lon="-1.61558">
        <ele>27.3</ele>
        <time>2014-04-27T09:45:41Z</time>
      </trkpt>
      <trkpt lat="47.26633" lon="-1.61546">
        <ele>26.7</ele>
        <time>2014-04-27T09:45:45Z</time>
      </trkpt>
      <trkpt lat="47.26631" lon="-1.6153">
        <ele>26.6</ele>
        <time>2014-04-27T09:45:53Z</time>
      </trkpt>
      <trkpt lat="47.26624" lon="-1.61518">
        <ele>27.1</ele>
        <time>2014-04-27T09:45:59Z</time>
      </trkpt>
      <trkpt lat="47.26615" lon="-1.61515">
        <ele>26.8</ele>
        <time>2014-04-27T09:46:02Z</time>
      </trkpt>
      <trkpt lat="47.26605" lon="-1.61514">
        <ele>26.7</ele>
        <time>2014-04-27T09:46:06Z</time>
      </trkpt>
      <trkpt lat="47.26594" lon="-1.61517">
        <ele>26.8</ele>
        <time>2014-04-27T09:46:09Z</time>
      </trkpt>
      <trkpt lat="47.26584" lon="-1.61515">
        <ele>27.6</ele>
        <time>2014-04-27T09:46:17Z</time>
      </trkpt>
      <trkpt lat="47.26567" lon="-1.61516">
        <ele>28.5</ele>
        <time>2014-04-27T09:46:27Z</time>
      </trkpt>
      <trkpt lat="47.26558" lon="-1.61519">
        <ele>29</ele>
        <time>2014-04-27T09:46:33Z</time>
      </trkpt>
      <trkpt lat="47.2655" lon="-1.61527">
        <ele>40.2</ele>
        <time>2014-04-27T09:49:57Z</time>
      </trkpt>
      <trkpt lat="47.26577" lon="-1.61544">
        <ele>24.1</ele>
        <time>2014-04-27T09:54:59Z</time>
      </trkpt>
      <trkpt lat="47.26563" lon="-1.61525">
        <ele>47.6</ele>
        <time>2014-04-27T09:55:11Z</time>
      </trkpt>
      <trkpt lat="47.26553" lon="-1.61507">
        <ele>40</ele>
        <time>2014-04-27T09:56:12Z</time>
      </trkpt>
      <trkpt lat="47.26537" lon="-1.61487">
        <ele>38.2</ele>
        <time>2014-04-27T09:56:50Z</time>
      </trkpt>
      <trkpt lat="47.26529" lon="-1.61492">
        <ele>36.2</ele>
        <time>2014-04-27T09:57:00Z</time>
      </trkpt>
      <trkpt lat="47.26518" lon="-1.61493">
        <ele>34.7</ele>
        <time>2014-04-27T09:57:07Z</time>
      </trkpt>
      <trkpt lat="47.2651" lon="-1.61486">
        <ele>33.8</ele>
        <time>2014-04-27T09:57:12Z</time>
      </trkpt>
      <trkpt lat="47.265" lon="-1.61478">
        <ele>32.7</ele>
        <time>2014-04-27T09:57:16Z</time>
      </trkpt>
      <trkpt lat="47.2648" lon="-1.61456">
        <ele>30</ele>
        <time>2014-04-27T09:57:23Z</time>
      </trkpt>
      <trkpt lat="47.2647" lon="-1.61448">
        <ele>28.7</ele>
        <time>2014-04-27T09:57:26Z</time>
      </trkpt>
      <trkpt lat="47.26461" lon="-1.61445">
        <ele>27.1</ele>
        <time>2014-04-27T09:57:30Z</time>
      </trkpt>
      <trkpt lat="47.2645" lon="-1.61442">
        <ele>25.3</ele>
        <time>2014-04-27T09:57:35Z</time>
      </trkpt>
      <trkpt lat="47.26439" lon="-1.61435">
        <ele>24.3</ele>
        <time>2014-04-27T09:57:39Z</time>
      </trkpt>
      <trkpt lat="47.2643" lon="-1.61431">
        <ele>23.5</ele>
        <time>2014-04-27T09:57:43Z</time>
      </trkpt>
      <trkpt lat="47.26422" lon="-1.61423">
        <ele>23</ele>
        <time>2014-04-27T09:57:46Z</time>
      </trkpt>
      <trkpt lat="47.26409" lon="-1.61422">
        <ele>21.7</ele>
        <time>2014-04-27T09:57:52Z</time>
      </trkpt>
      <trkpt lat="47.26398" lon="-1.61415">
        <ele>20.9</ele>
        <time>2014-04-27T09:57:55Z</time>
      </trkpt>
      <trkpt lat="47.26387" lon="-1.6141">
        <ele>19.9</ele>
        <time>2014-04-27T09:57:58Z</time>
      </trkpt>
      <trkpt lat="47.26375" lon="-1.6141">
        <ele>19.1</ele>
        <time>2014-04-27T09:58:01Z</time>
      </trkpt>
      <trkpt lat="47.26367" lon="-1.61413">
        <ele>18.3</ele>
        <time>2014-04-27T09:58:04Z</time>
      </trkpt>
      <trkpt lat="47.26359" lon="-1.61427">
        <ele>17.6</ele>
        <time>2014-04-27T09:58:08Z</time>
      </trkpt>
      <trkpt lat="47.26361" lon="-1.61441">
        <ele>17</ele>
        <time>2014-04-27T09:58:12Z</time>
      </trkpt>
      <trkpt lat="47.26366" lon="-1.61458">
        <ele>16.6</ele>
        <time>2014-04-27T09:58:17Z</time>
      </trkpt>
      <trkpt lat="47.26378" lon="-1.61483">
        <ele>16.1</ele>
        <time>2014-04-27T09:58:23Z</time>
      </trkpt>
      <trkpt lat="47.26389" lon="-1.61491">
        <ele>15.9</ele>
        <time>2014-04-27T09:58:26Z</time>
      </trkpt>
      <trkpt lat="47.26398" lon="-1.61498">
        <ele>15.7</ele>
        <time>2014-04-27T09:58:29Z</time>
      </trkpt>
      <trkpt lat="47.26409" lon="-1.61506">
        <ele>15.7</ele>
        <time>2014-04-27T09:58:32Z</time>
      </trkpt>
      <trkpt lat="47.26417" lon="-1.61517">
        <ele>15.7</ele>
        <time>2014-04-27T09:58:35Z</time>
      </trkpt>
      <trkpt lat="47.26424" lon="-1.6153">
        <ele>15.4</ele>
        <time>2014-04-27T09:58:38Z</time>
      </trkpt>
      <trkpt lat="47.26432" lon="-1.61546">
        <ele>14.9</ele>
        <time>2014-04-27T09:58:41Z</time>
      </trkpt>
      <trkpt lat="47.26437" lon="-1.6156">
        <ele>14.8</ele>
        <time>2014-04-27T09:58:44Z</time>
      </trkpt>
      <trkpt lat="47.26445" lon="-1.6157">
        <ele>14.3</ele>
        <time>2014-04-27T09:58:47Z</time>
      </trkpt>
      <trkpt lat="47.26456" lon="-1.61574">
        <ele>13.8</ele>
        <time>2014-04-27T09:58:50Z</time>
      </trkpt>
      <trkpt lat="47.26466" lon="-1.61577">
        <ele>11.2</ele>
        <time>2014-04-27T09:58:52Z</time>
      </trkpt>
      <trkpt lat="47.26476" lon="-1.61581">
        <ele>11</ele>
        <time>2014-04-27T09:58:54Z</time>
      </trkpt>
      <trkpt lat="47.26488" lon="-1.61586">
        <ele>10.6</ele>
        <time>2014-04-27T09:58:56Z</time>
      </trkpt>
      <trkpt lat="47.265" lon="-1.6159">
        <ele>10.2</ele>
        <time>2014-04-27T09:58:58Z</time>
      </trkpt>
      <trkpt lat="47.26509" lon="-1.61593">
        <ele>10.2</ele>
        <time>2014-04-27T09:59:00Z</time>
      </trkpt>
      <trkpt lat="47.26519" lon="-1.61601">
        <ele>10.1</ele>
        <time>2014-04-27T09:59:02Z</time>
      </trkpt>
      <trkpt lat="47.26527" lon="-1.61614">
        <ele>10.6</ele>
        <time>2014-04-27T09:59:04Z</time>
      </trkpt>
      <trkpt lat="47.26531" lon="-1.6163">
        <ele>12.5</ele>
        <time>2014-04-27T09:59:06Z</time>
      </trkpt>
      <trkpt lat="47.26535" lon="-1.61644">
        <ele>12.9</ele>
        <time>2014-04-27T09:59:08Z</time>
      </trkpt>
      <trkpt lat="47.26539" lon="-1.61656">
        <ele>13.1</ele>
        <time>2014-04-27T09:59:10Z</time>
      </trkpt>
      <trkpt lat="47.26546" lon="-1.61672">
        <ele>13.6</ele>
        <time>2014-04-27T09:59:13Z</time>
      </trkpt>
      <trkpt lat="47.26553" lon="-1.61684">
        <ele>15.1</ele>
        <time>2014-04-27T09:59:15Z</time>
      </trkpt>
      <trkpt lat="47.26562" lon="-1.61697">
        <ele>17.2</ele>
        <time>2014-04-27T09:59:17Z</time>
      </trkpt>
      <trkpt lat="47.26569" lon="-1.61707">
        <ele>18.5</ele>
        <time>2014-04-27T09:59:18Z</time>
      </trkpt>
      <trkpt lat="47.26585" lon="-1.61729">
        <ele>19.1</ele>
        <time>2014-04-27T09:59:22Z</time>
      </trkpt>
      <trkpt lat="47.26594" lon="-1.61739">
        <ele>19</ele>
        <time>2014-04-27T09:59:24Z</time>
      </trkpt>
      <trkpt lat="47.26604" lon="-1.61749">
        <ele>17.5</ele>
        <time>2014-04-27T09:59:27Z</time>
      </trkpt>
      <trkpt lat="47.26614" lon="-1.61754">
        <ele>16.5</ele>
        <time>2014-04-27T09:59:29Z</time>
      </trkpt>
      <trkpt lat="47.26626" lon="-1.61759">
        <ele>17.6</ele>
        <time>2014-04-27T09:59:31Z</time>
      </trkpt>
      <trkpt lat="47.26637" lon="-1.61762">
        <ele>18</ele>
        <time>2014-04-27T09:59:33Z</time>
      </trkpt>
      <trkpt lat="47.26648" lon="-1.61767">
        <ele>17.4</ele>
        <time>2014-04-27T09:59:35Z</time>
      </trkpt>
      <trkpt lat="47.26657" lon="-1.61773">
        <ele>16.4</ele>
        <time>2014-04-27T09:59:37Z</time>
      </trkpt>
      <trkpt lat="47.2667" lon="-1.61781">
        <ele>14.1</ele>
        <time>2014-04-27T09:59:40Z</time>
      </trkpt>
      <trkpt lat="47.26682" lon="-1.61787">
        <ele>12.3</ele>
        <time>2014-04-27T09:59:43Z</time>
      </trkpt>
      <trkpt lat="47.26694" lon="-1.61792">
        <ele>12</ele>
        <time>2014-04-27T09:59:46Z</time>
      </trkpt>
      <trkpt lat="47.26704" lon="-1.61795">
        <ele>11.6</ele>
        <time>2014-04-27T09:59:49Z</time>
      </trkpt>
      <trkpt lat="47.26712" lon="-1.61806">
        <ele>10.2</ele>
        <time>2014-04-27T09:59:54Z</time>
      </trkpt>
      <trkpt lat="47.26717" lon="-1.61819">
        <ele>8.8</ele>
        <time>2014-04-27T09:59:58Z</time>
      </trkpt>
      <trkpt lat="47.26722" lon="-1.61834">
        <ele>7.8</ele>
        <time>2014-04-27T10:00:01Z</time>
      </trkpt>
      <trkpt lat="47.26726" lon="-1.6185">
        <ele>3.5</ele>
        <time>2014-04-27T10:00:03Z</time>
      </trkpt>
      <trkpt lat="47.26727" lon="-1.61865">
        <ele>2.5</ele>
        <time>2014-04-27T10:00:05Z</time>
      </trkpt>
      <trkpt lat="47.2673" lon="-1.61886">
        <ele>2.5</ele>
        <time>2014-04-27T10:00:08Z</time>
      </trkpt>
      <trkpt lat="47.26737" lon="-1.61903">
        <ele>2.8</ele>
        <time>2014-04-27T10:00:10Z</time>
      </trkpt>
      <trkpt lat="47.26742" lon="-1.61919">
        <ele>3.2</ele>
        <time>2014-04-27T10:00:12Z</time>
      </trkpt>
      <trkpt lat="47.26744" lon="-1.61939">
        <ele>3.7</ele>
        <time>2014-04-27T10:00:15Z</time>
      </trkpt>
      <trkpt lat="47.26743" lon="-1.61956">
        <ele>6</ele>
        <time>2014-04-27T10:00:17Z</time>
      </trkpt>
      <trkpt lat="47.26743" lon="-1.61972">
        <ele>9.1</ele>
        <time>2014-04-27T10:00:19Z</time>
      </trkpt>
      <trkpt lat="47.2674" lon="-1.62008">
        <ele>15.1</ele>
        <time>2014-04-27T10:00:23Z</time>
      </trkpt>
      <trkpt lat="47.26738" lon="-1.62025">
        <ele>16.2</ele>
        <time>2014-04-27T10:00:25Z</time>
      </trkpt>
      <trkpt lat="47.26736" lon="-1.62041">
        <ele>17.2</ele>
        <time>2014-04-27T10:00:27Z</time>
      </trkpt>
      <trkpt lat="47.26737" lon="-1.62056">
        <ele>18.4</ele>
        <time>2014-04-27T10:00:29Z</time>
      </trkpt>
      <trkpt lat="47.2674" lon="-1.62071">
        <ele>18.9</ele>
        <time>2014-04-27T10:00:31Z</time>
      </trkpt>
      <trkpt lat="47.26744" lon="-1.62084">
        <ele>19.4</ele>
        <time>2014-04-27T10:00:33Z</time>
      </trkpt>
      <trkpt lat="47.2675" lon="-1.62098">
        <ele>20.9</ele>
        <time>2014-04-27T10:00:35Z</time>
      </trkpt>
      <trkpt lat="47.26753" lon="-1.62114">
        <ele>22.8</ele>
        <time>2014-04-27T10:00:37Z</time>
      </trkpt>
      <trkpt lat="47.26758" lon="-1.6213">
        <ele>23.2</ele>
        <time>2014-04-27T10:00:39Z</time>
      </trkpt>
      <trkpt lat="47.26759" lon="-1.62145">
        <ele>23.4</ele>
        <time>2014-04-27T10:00:41Z</time>
      </trkpt>
      <trkpt lat="47.26755" lon="-1.62159">
        <ele>23.8</ele>
        <time>2014-04-27T10:00:43Z</time>
      </trkpt>
      <trkpt lat="47.26749" lon="-1.62171">
        <ele>23.7</ele>
        <time>2014-04-27T10:00:46Z</time>
      </trkpt>
      <trkpt lat="47.26744" lon="-1.62183">
        <ele>23.3</ele>
        <time>2014-04-27T10:00:50Z</time>
      </trkpt>
      <trkpt lat="47.26739" lon="-1.62195">
        <ele>22.8</ele>
        <time>2014-04-27T10:00:55Z</time>
      </trkpt>
      <trkpt lat="47.26733" lon="-1.62206">
        <ele>22.6</ele>
        <time>2014-04-27T10:00:59Z</time>
      </trkpt>
      <trkpt lat="47.26728" lon="-1.62221">
        <ele>22.8</ele>
        <time>2014-04-27T10:01:04Z</time>
      </trkpt>
      <trkpt lat="47.26726" lon="-1.62206">
        <ele>22</ele>
        <time>2014-04-27T10:01:19Z</time>
      </trkpt>
      <trkpt lat="47.26732" lon="-1.62196">
        <ele>21.1</ele>
        <time>2014-04-27T10:01:24Z</time>
      </trkpt>
      <trkpt lat="47.26741" lon="-1.62169">
        <ele>17.9</ele>
        <time>2014-04-27T10:01:34Z</time>
      </trkpt>
      <trkpt lat="47.2674" lon="-1.62156">
        <ele>15.6</ele>
        <time>2014-04-27T10:01:40Z</time>
      </trkpt>
      <trkpt lat="47.26741" lon="-1.62141">
        <ele>13.3</ele>
        <time>2014-04-27T10:01:47Z</time>
      </trkpt>
      <trkpt lat="47.26741" lon="-1.62127">
        <ele>12.3</ele>
        <time>2014-04-27T10:01:51Z</time>
      </trkpt>
      <trkpt lat="47.26737" lon="-1.62113">
        <ele>12.1</ele>
        <time>2014-04-27T10:01:54Z</time>
      </trkpt>
      <trkpt lat="47.26732" lon="-1.62096">
        <ele>12</ele>
        <time>2014-04-27T10:01:57Z</time>
      </trkpt>
      <trkpt lat="47.26728" lon="-1.6208">
        <ele>12.3</ele>
        <time>2014-04-27T10:02:00Z</time>
      </trkpt>
      <trkpt lat="47.26723" lon="-1.62066">
        <ele>13.1</ele>
        <time>2014-04-27T10:02:04Z</time>
      </trkpt>
      <trkpt lat="47.26718" lon="-1.62052">
        <ele>14.1</ele>
        <time>2014-04-27T10:02:09Z</time>
      </trkpt>
      <trkpt lat="47.26715" lon="-1.62039">
        <ele>15.5</ele>
        <time>2014-04-27T10:02:15Z</time>
      </trkpt>
      <trkpt lat="47.26708" lon="-1.62029">
        <ele>16.4</ele>
        <time>2014-04-27T10:02:21Z</time>
      </trkpt>
      <trkpt lat="47.26702" lon="-1.62018">
        <ele>17.2</ele>
        <time>2014-04-27T10:02:26Z</time>
      </trkpt>
      <trkpt lat="47.26688" lon="-1.61997">
        <ele>19</ele>
        <time>2014-04-27T10:02:36Z</time>
      </trkpt>
      <trkpt lat="47.26693" lon="-1.61986">
        <ele>20.4</ele>
        <time>2014-04-27T10:02:43Z</time>
      </trkpt>
      <trkpt lat="47.26701" lon="-1.61976">
        <ele>21.1</ele>
        <time>2014-04-27T10:02:59Z</time>
      </trkpt>
      <trkpt lat="47.26706" lon="-1.61964">
        <ele>22.1</ele>
        <time>2014-04-27T10:03:07Z</time>
      </trkpt>
      <trkpt lat="47.26709" lon="-1.61951">
        <ele>22.4</ele>
        <time>2014-04-27T10:03:23Z</time>
      </trkpt>
      <trkpt lat="47.26703" lon="-1.61942">
        <ele>23.7</ele>
        <time>2014-04-27T10:04:05Z</time>
      </trkpt>
      <trkpt lat="47.26716" lon="-1.61912">
        <ele>27.4</ele>
        <time>2014-04-27T10:06:00Z</time>
      </trkpt>
      <trkpt lat="47.26711" lon="-1.61897">
        <ele>26.7</ele>
        <time>2014-04-27T10:06:03Z</time>
      </trkpt>
      <trkpt lat="47.26706" lon="-1.61885">
        <ele>25.7</ele>
        <time>2014-04-27T10:06:08Z</time>
      </trkpt>
      <trkpt lat="47.26699" lon="-1.61874">
        <ele>25.4</ele>
        <time>2014-04-27T10:06:11Z</time>
      </trkpt>
      <trkpt lat="47.2669" lon="-1.61867">
        <ele>25</ele>
        <time>2014-04-27T10:06:15Z</time>
      </trkpt>
      <trkpt lat="47.26682" lon="-1.61858">
        <ele>23.9</ele>
        <time>2014-04-27T10:06:23Z</time>
      </trkpt>
      <trkpt lat="47.26673" lon="-1.61856">
        <ele>23.1</ele>
        <time>2014-04-27T10:07:07Z</time>
      </trkpt>
      <trkpt lat="47.26656" lon="-1.61845">
        <ele>23.9</ele>
        <time>2014-04-27T10:08:11Z</time>
      </trkpt>
      <trkpt lat="47.26648" lon="-1.6182">
        <ele>22.1</ele>
        <time>2014-04-27T10:08:35Z</time>
      </trkpt>
      <trkpt lat="47.26642" lon="-1.61809">
        <ele>20.1</ele>
        <time>2014-04-27T10:08:54Z</time>
      </trkpt>
      <trkpt lat="47.26636" lon="-1.61796">
        <ele>19.3</ele>
        <time>2014-04-27T10:09:00Z</time>
      </trkpt>
      <trkpt lat="47.26626" lon="-1.61792">
        <ele>18.1</ele>
        <time>2014-04-27T10:09:07Z</time>
      </trkpt>
      <trkpt lat="47.26617" lon="-1.61793">
        <ele>17</ele>
        <time>2014-04-27T10:09:16Z</time>
      </trkpt>
      <trkpt lat="47.26598" lon="-1.61784">
        <ele>15.8</ele>
        <time>2014-04-27T10:09:31Z</time>
      </trkpt>
      <trkpt lat="47.26593" lon="-1.61771">
        <ele>15.8</ele>
        <time>2014-04-27T10:09:36Z</time>
      </trkpt>
      <trkpt lat="47.2659" lon="-1.61758">
        <ele>16.1</ele>
        <time>2014-04-27T10:09:40Z</time>
      </trkpt>
      <trkpt lat="47.26582" lon="-1.61748">
        <ele>16.5</ele>
        <time>2014-04-27T10:09:46Z</time>
      </trkpt>
      <trkpt lat="47.26573" lon="-1.61741">
        <ele>17</ele>
        <time>2014-04-27T10:09:51Z</time>
      </trkpt>
      <trkpt lat="47.26565" lon="-1.61734">
        <ele>17.1</ele>
        <time>2014-04-27T10:09:56Z</time>
      </trkpt>
      <trkpt lat="47.26558" lon="-1.61727">
        <ele>16.6</ele>
        <time>2014-04-27T10:10:02Z</time>
      </trkpt>
      <trkpt lat="47.26554" lon="-1.61713">
        <ele>16.3</ele>
        <time>2014-04-27T10:10:08Z</time>
      </trkpt>
      <trkpt lat="47.26549" lon="-1.617">
        <ele>15.8</ele>
        <time>2014-04-27T10:10:14Z</time>
      </trkpt>
      <trkpt lat="47.26541" lon="-1.61689">
        <ele>15.3</ele>
        <time>2014-04-27T10:10:20Z</time>
      </trkpt>
      <trkpt lat="47.26526" lon="-1.6167">
        <ele>19.3</ele>
        <time>2014-04-27T10:10:48Z</time>
      </trkpt>
      <trkpt lat="47.26517" lon="-1.61667">
        <ele>20</ele>
        <time>2014-04-27T10:11:05Z</time>
      </trkpt>
      <trkpt lat="47.26506" lon="-1.61671">
        <ele>20.7</ele>
        <time>2014-04-27T10:11:19Z</time>
      </trkpt>
      <trkpt lat="47.26495" lon="-1.61672">
        <ele>20.9</ele>
        <time>2014-04-27T10:11:23Z</time>
      </trkpt>
      <trkpt lat="47.26477" lon="-1.61664">
        <ele>20.5</ele>
        <time>2014-04-27T10:11:30Z</time>
      </trkpt>
      <trkpt lat="47.26466" lon="-1.6166">
        <ele>20</ele>
        <time>2014-04-27T10:11:36Z</time>
      </trkpt>
      <trkpt lat="47.26456" lon="-1.61666">
        <ele>19.3</ele>
        <time>2014-04-27T10:11:43Z</time>
      </trkpt>
      <trkpt lat="47.26447" lon="-1.6167">
        <ele>19</ele>
        <time>2014-04-27T10:11:49Z</time>
      </trkpt>
      <trkpt lat="47.26439" lon="-1.61674">
        <ele>21.4</ele>
        <time>2014-04-27T10:12:08Z</time>
      </trkpt>
      <trkpt lat="47.2643" lon="-1.61678">
        <ele>21.9</ele>
        <time>2014-04-27T10:12:12Z</time>
      </trkpt>
      <trkpt lat="47.26419" lon="-1.61679">
        <ele>22.1</ele>
        <time>2014-04-27T10:12:20Z</time>
      </trkpt>
      <trkpt lat="47.26409" lon="-1.61674">
        <ele>21.8</ele>
        <time>2014-04-27T10:12:28Z</time>
      </trkpt>
      <trkpt lat="47.264" lon="-1.6165">
        <ele>22.7</ele>
        <time>2014-04-27T10:12:47Z</time>
      </trkpt>
      <trkpt lat="47.26401" lon="-1.61637">
        <ele>22.4</ele>
        <time>2014-04-27T10:12:59Z</time>
      </trkpt>
      <trkpt lat="47.26398" lon="-1.61623">
        <ele>22.1</ele>
        <time>2014-04-27T10:13:02Z</time>
      </trkpt>
      <trkpt lat="47.26394" lon="-1.6161">
        <ele>21.5</ele>
        <time>2014-04-27T10:13:07Z</time>
      </trkpt>
      <trkpt lat="47.26386" lon="-1.61604">
        <ele>21.3</ele>
        <time>2014-04-27T10:13:11Z</time>
      </trkpt>
      <trkpt lat="47.26379" lon="-1.61595">
        <ele>21</ele>
        <time>2014-04-27T10:13:16Z</time>
      </trkpt>
      <trkpt lat="47.26371" lon="-1.61587">
        <ele>20.5</ele>
        <time>2014-04-27T10:13:20Z</time>
      </trkpt>
      <trkpt lat="47.26365" lon="-1.61573">
        <ele>19.8</ele>
        <time>2014-04-27T10:13:24Z</time>
      </trkpt>
      <trkpt lat="47.26358" lon="-1.61558">
        <ele>19.3</ele>
        <time>2014-04-27T10:13:27Z</time>
      </trkpt>
      <trkpt lat="47.26351" lon="-1.61547">
        <ele>18.6</ele>
        <time>2014-04-27T10:13:31Z</time>
      </trkpt>
      <trkpt lat="47.2634" lon="-1.61522">
        <ele>17</ele>
        <time>2014-04-27T10:13:42Z</time>
      </trkpt>
      <trkpt lat="47.26333" lon="-1.61509">
        <ele>16.4</ele>
        <time>2014-04-27T10:13:45Z</time>
      </trkpt>
      <trkpt lat="47.26326" lon="-1.61496">
        <ele>16</ele>
        <time>2014-04-27T10:13:47Z</time>
      </trkpt>
      <trkpt lat="47.26319" lon="-1.61484">
        <ele>15.5</ele>
        <time>2014-04-27T10:13:50Z</time>
      </trkpt>
      <trkpt lat="47.2631" lon="-1.61479">
        <ele>15.1</ele>
        <time>2014-04-27T10:13:56Z</time>
      </trkpt>
      <trkpt lat="47.263" lon="-1.61481">
        <ele>14.7</ele>
        <time>2014-04-27T10:14:05Z</time>
      </trkpt>
      <trkpt lat="47.26293" lon="-1.61488">
        <ele>14.4</ele>
        <time>2014-04-27T10:14:17Z</time>
      </trkpt>
      <trkpt lat="47.26284" lon="-1.61497">
        <ele>14.4</ele>
        <time>2014-04-27T10:14:22Z</time>
      </trkpt>
      <trkpt lat="47.26277" lon="-1.61506">
        <ele>14.7</ele>
        <time>2014-04-27T10:14:35Z</time>
      </trkpt>
      <trkpt lat="47.26265" lon="-1.61526">
        <ele>14.3</ele>
        <time>2014-04-27T10:14:55Z</time>
      </trkpt>
      <trkpt lat="47.2626" lon="-1.61538">
        <ele>13.4</ele>
        <time>2014-04-27T10:15:02Z</time>
      </trkpt>
      <trkpt lat="47.26252" lon="-1.61547">
        <ele>13.4</ele>
        <time>2014-04-27T10:15:10Z</time>
      </trkpt>
      <trkpt lat="47.2624" lon="-1.61544">
        <ele>13.5</ele>
        <time>2014-04-27T10:15:14Z</time>
      </trkpt>
      <trkpt lat="47.26231" lon="-1.61547">
        <ele>13.7</ele>
        <time>2014-04-27T10:15:18Z</time>
      </trkpt>
      <trkpt lat="47.26224" lon="-1.61562">
        <ele>13.7</ele>
        <time>2014-04-27T10:15:23Z</time>
      </trkpt>
      <trkpt lat="47.26218" lon="-1.61574">
        <ele>14.3</ele>
        <time>2014-04-27T10:15:28Z</time>
      </trkpt>
      <trkpt lat="47.2621" lon="-1.61583">
        <ele>15.1</ele>
        <time>2014-04-27T10:15:33Z</time>
      </trkpt>
      <trkpt lat="47.26201" lon="-1.61588">
        <ele>16.1</ele>
        <time>2014-04-27T10:15:38Z</time>
      </trkpt>
      <trkpt lat="47.26184" lon="-1.61605">
        <ele>17.3</ele>
        <time>2014-04-27T10:15:51Z</time>
      </trkpt>
      <trkpt lat="47.2618" lon="-1.61617">
        <ele>17.6</ele>
        <time>2014-04-27T10:15:59Z</time>
      </trkpt>
      <trkpt lat="47.26173" lon="-1.61626">
        <ele>18.6</ele>
        <time>2014-04-27T10:16:24Z</time>
      </trkpt>
      <trkpt lat="47.26168" lon="-1.6164">
        <ele>19.3</ele>
        <time>2014-04-27T10:16:28Z</time>
      </trkpt>
      <trkpt lat="47.26165" lon="-1.61654">
        <ele>20.1</ele>
        <time>2014-04-27T10:16:33Z</time>
      </trkpt>
      <trkpt lat="47.26163" lon="-1.61669">
        <ele>20.7</ele>
        <time>2014-04-27T10:16:38Z</time>
      </trkpt>
      <trkpt lat="47.26162" lon="-1.61684">
        <ele>20.6</ele>
        <time>2014-04-27T10:16:44Z</time>
      </trkpt>
      <trkpt lat="47.26162" lon="-1.61711">
        <ele>20.2</ele>
        <time>2014-04-27T10:17:02Z</time>
      </trkpt>
      <trkpt lat="47.26163" lon="-1.61725">
        <ele>21.5</ele>
        <time>2014-04-27T10:17:20Z</time>
      </trkpt>
      <trkpt lat="47.26162" lon="-1.61739">
        <ele>25.1</ele>
        <time>2014-04-27T10:17:28Z</time>
      </trkpt>
      <trkpt lat="47.26154" lon="-1.61748">
        <ele>27.8</ele>
        <time>2014-04-27T10:17:41Z</time>
      </trkpt>
      <trkpt lat="47.26149" lon="-1.61737">
        <ele>30.1</ele>
        <time>2014-04-27T10:18:00Z</time>
      </trkpt>
      <trkpt lat="47.26152" lon="-1.61707">
        <ele>28.7</ele>
        <time>2014-04-27T10:18:11Z</time>
      </trkpt>
      <trkpt lat="47.26154" lon="-1.61692">
        <ele>27.5</ele>
        <time>2014-04-27T10:18:14Z</time>
      </trkpt>
      <trkpt lat="47.26154" lon="-1.61678">
        <ele>26.2</ele>
        <time>2014-04-27T10:18:17Z</time>
      </trkpt>
      <trkpt lat="47.26155" lon="-1.61663">
        <ele>24.9</ele>
        <time>2014-04-27T10:18:22Z</time>
      </trkpt>
      <trkpt lat="47.26155" lon="-1.61649">
        <ele>24.4</ele>
        <time>2014-04-27T10:18:26Z</time>
      </trkpt>
      <trkpt lat="47.26159" lon="-1.61636">
        <ele>24</ele>
        <time>2014-04-27T10:18:30Z</time>
      </trkpt>
      <trkpt lat="47.26162" lon="-1.61621">
        <ele>25</ele>
        <time>2014-04-27T10:18:36Z</time>
      </trkpt>
      <trkpt lat="47.26171" lon="-1.61605">
        <ele>25.4</ele>
        <time>2014-04-27T10:18:39Z</time>
      </trkpt>
      <trkpt lat="47.2618" lon="-1.61593">
        <ele>25.9</ele>
        <time>2014-04-27T10:18:43Z</time>
      </trkpt>
      <trkpt lat="47.26186" lon="-1.61583">
        <ele>25.9</ele>
        <time>2014-04-27T10:18:46Z</time>
      </trkpt>
      <trkpt lat="47.26194" lon="-1.61573">
        <ele>25.6</ele>
        <time>2014-04-27T10:18:49Z</time>
      </trkpt>
      <trkpt lat="47.26202" lon="-1.61567">
        <ele>24.9</ele>
        <time>2014-04-27T10:18:52Z</time>
      </trkpt>
      <trkpt lat="47.2621" lon="-1.61559">
        <ele>24</ele>
        <time>2014-04-27T10:18:56Z</time>
      </trkpt>
      <trkpt lat="47.2622" lon="-1.6155">
        <ele>23.1</ele>
        <time>2014-04-27T10:19:00Z</time>
      </trkpt>
      <trkpt lat="47.26228" lon="-1.61538">
        <ele>22.5</ele>
        <time>2014-04-27T10:19:03Z</time>
      </trkpt>
      <trkpt lat="47.26241" lon="-1.61513">
        <ele>21.2</ele>
        <time>2014-04-27T10:19:09Z</time>
      </trkpt>
      <trkpt lat="47.26244" lon="-1.61498">
        <ele>19.9</ele>
        <time>2014-04-27T10:19:14Z</time>
      </trkpt>
      <trkpt lat="47.26244" lon="-1.61484">
        <ele>18.6</ele>
        <time>2014-04-27T10:19:18Z</time>
      </trkpt>
      <trkpt lat="47.26241" lon="-1.61468">
        <ele>17.3</ele>
        <time>2014-04-27T10:19:23Z</time>
      </trkpt>
      <trkpt lat="47.26243" lon="-1.61455">
        <ele>15.6</ele>
        <time>2014-04-27T10:19:29Z</time>
      </trkpt>
      <trkpt lat="47.2624" lon="-1.61439">
        <ele>13.9</ele>
        <time>2014-04-27T10:19:35Z</time>
      </trkpt>
      <trkpt lat="47.26242" lon="-1.61425">
        <ele>13.1</ele>
        <time>2014-04-27T10:19:39Z</time>
      </trkpt>
      <trkpt lat="47.26237" lon="-1.6141">
        <ele>12.8</ele>
        <time>2014-04-27T10:19:43Z</time>
      </trkpt>
      <trkpt lat="47.26233" lon="-1.61398">
        <ele>12.4</ele>
        <time>2014-04-27T10:19:49Z</time>
      </trkpt>
      <trkpt lat="47.26227" lon="-1.61387">
        <ele>12.1</ele>
        <time>2014-04-27T10:19:57Z</time>
      </trkpt>
      <trkpt lat="47.26219" lon="-1.61394">
        <ele>15.8</ele>
        <time>2014-04-27T10:20:39Z</time>
      </trkpt>
      <trkpt lat="47.26199" lon="-1.61396">
        <ele>18.3</ele>
        <time>2014-04-27T10:21:02Z</time>
      </trkpt>
      <trkpt lat="47.26202" lon="-1.61382">
        <ele>18.3</ele>
        <time>2014-04-27T10:21:27Z</time>
      </trkpt>
      <trkpt lat="47.26193" lon="-1.61378">
        <ele>18.9</ele>
        <time>2014-04-27T10:21:39Z</time>
      </trkpt>
      <trkpt lat="47.26184" lon="-1.61383">
        <ele>20.4</ele>
        <time>2014-04-27T10:21:46Z</time>
      </trkpt>
      <trkpt lat="47.26164" lon="-1.61376">
        <ele>23.8</ele>
        <time>2014-04-27T10:21:58Z</time>
      </trkpt>
      <trkpt lat="47.26155" lon="-1.6137">
        <ele>25.1</ele>
        <time>2014-04-27T10:22:05Z</time>
      </trkpt>
      <trkpt lat="47.26146" lon="-1.61363">
        <ele>25.9</ele>
        <time>2014-04-27T10:22:12Z</time>
      </trkpt>
      <trkpt lat="47.26137" lon="-1.61362">
        <ele>27.6</ele>
        <time>2014-04-27T10:22:41Z</time>
      </trkpt>
      <trkpt lat="47.2613" lon="-1.61353">
        <ele>28.2</ele>
        <time>2014-04-27T10:22:52Z</time>
      </trkpt>
      <trkpt lat="47.26132" lon="-1.61327">
        <ele>31.3</ele>
        <time>2014-04-27T10:23:42Z</time>
      </trkpt>
      <trkpt lat="47.26137" lon="-1.61311">
        <ele>31.4</ele>
        <time>2014-04-27T10:23:46Z</time>
      </trkpt>
      <trkpt lat="47.26142" lon="-1.61297">
        <ele>31.1</ele>
        <time>2014-04-27T10:23:50Z</time>
      </trkpt>
      <trkpt lat="47.26146" lon="-1.61282">
        <ele>30.5</ele>
        <time>2014-04-27T10:23:55Z</time>
      </trkpt>
      <trkpt lat="47.26154" lon="-1.61255">
        <ele>29.8</ele>
        <time>2014-04-27T10:24:02Z</time>
      </trkpt>
      <trkpt lat="47.26161" lon="-1.6124">
        <ele>29.5</ele>
        <time>2014-04-27T10:24:05Z</time>
      </trkpt>
      <trkpt lat="47.26165" lon="-1.61227">
        <ele>29.3</ele>
        <time>2014-04-27T10:24:09Z</time>
      </trkpt>
      <trkpt lat="47.26163" lon="-1.61214">
        <ele>29.6</ele>
        <time>2014-04-27T10:24:20Z</time>
      </trkpt>
      <trkpt lat="47.26165" lon="-1.612">
        <ele>29.4</ele>
        <time>2014-04-27T10:24:28Z</time>
      </trkpt>
      <trkpt lat="47.26168" lon="-1.61185">
        <ele>29.1</ele>
        <time>2014-04-27T10:24:31Z</time>
      </trkpt>
      <trkpt lat="47.26174" lon="-1.61167">
        <ele>28.8</ele>
        <time>2014-04-27T10:24:35Z</time>
      </trkpt>
      <trkpt lat="47.26179" lon="-1.61154">
        <ele>28.3</ele>
        <time>2014-04-27T10:24:37Z</time>
      </trkpt>
      <trkpt lat="47.26183" lon="-1.61142">
        <ele>28</ele>
        <time>2014-04-27T10:24:39Z</time>
      </trkpt>
      <trkpt lat="47.26189" lon="-1.6113">
        <ele>27.6</ele>
        <time>2014-04-27T10:24:43Z</time>
      </trkpt>
      <trkpt lat="47.26194" lon="-1.61117">
        <ele>27.3</ele>
        <time>2014-04-27T10:24:46Z</time>
      </trkpt>
      <trkpt lat="47.26198" lon="-1.61101">
        <ele>27.1</ele>
        <time>2014-04-27T10:24:49Z</time>
      </trkpt>
      <trkpt lat="47.26202" lon="-1.61084">
        <ele>26.7</ele>
        <time>2014-04-27T10:24:52Z</time>
      </trkpt>
      <trkpt lat="47.26203" lon="-1.61071">
        <ele>26.4</ele>
        <time>2014-04-27T10:24:55Z</time>
      </trkpt>
      <trkpt lat="47.26206" lon="-1.61054">
        <ele>26.3</ele>
        <time>2014-04-27T10:24:59Z</time>
      </trkpt>
      <trkpt lat="47.26214" lon="-1.61024">
        <ele>26.5</ele>
        <time>2014-04-27T10:25:05Z</time>
      </trkpt>
      <trkpt lat="47.26217" lon="-1.61011">
        <ele>26.6</ele>
        <time>2014-04-27T10:25:08Z</time>
      </trkpt>
      <trkpt lat="47.26217" lon="-1.60998">
        <ele>26.6</ele>
        <time>2014-04-27T10:25:11Z</time>
      </trkpt>
      <trkpt lat="47.26221" lon="-1.60983">
        <ele>26.5</ele>
        <time>2014-04-27T10:25:14Z</time>
      </trkpt>
      <trkpt lat="47.26225" lon="-1.60968">
        <ele>26.5</ele>
        <time>2014-04-27T10:25:17Z</time>
      </trkpt>
      <trkpt lat="47.2623" lon="-1.60953">
        <ele>26.4</ele>
        <time>2014-04-27T10:25:21Z</time>
      </trkpt>
      <trkpt lat="47.26231" lon="-1.60938">
        <ele>26.3</ele>
        <time>2014-04-27T10:25:25Z</time>
      </trkpt>
      <trkpt lat="47.26228" lon="-1.60925">
        <ele>26.7</ele>
        <time>2014-04-27T10:25:30Z</time>
      </trkpt>
      <trkpt lat="47.26231" lon="-1.60912">
        <ele>27</ele>
        <time>2014-04-27T10:25:35Z</time>
      </trkpt>
      <trkpt lat="47.26232" lon="-1.60898">
        <ele>26.5</ele>
        <time>2014-04-27T10:25:39Z</time>
      </trkpt>
      <trkpt lat="47.2623" lon="-1.60883">
        <ele>25.6</ele>
        <time>2014-04-27T10:25:44Z</time>
      </trkpt>
      <trkpt lat="47.26232" lon="-1.60867">
        <ele>24.5</ele>
        <time>2014-04-27T10:25:51Z</time>
      </trkpt>
      <trkpt lat="47.26238" lon="-1.60852">
        <ele>23.5</ele>
        <time>2014-04-27T10:25:55Z</time>
      </trkpt>
      <trkpt lat="47.26246" lon="-1.60841">
        <ele>22.4</ele>
        <time>2014-04-27T10:25:58Z</time>
      </trkpt>
      <trkpt lat="47.26255" lon="-1.6083">
        <ele>20.8</ele>
        <time>2014-04-27T10:26:02Z</time>
      </trkpt>
      <trkpt lat="47.26265" lon="-1.6081">
        <ele>18.5</ele>
        <time>2014-04-27T10:26:10Z</time>
      </trkpt>
      <trkpt lat="47.26265" lon="-1.60795">
        <ele>16.6</ele>
        <time>2014-04-27T10:26:15Z</time>
      </trkpt>
      <trkpt lat="47.26264" lon="-1.60781">
        <ele>14.8</ele>
        <time>2014-04-27T10:26:19Z</time>
      </trkpt>
      <trkpt lat="47.26256" lon="-1.60771">
        <ele>13.7</ele>
        <time>2014-04-27T10:26:23Z</time>
      </trkpt>
      <trkpt lat="47.26248" lon="-1.60759">
        <ele>13.1</ele>
        <time>2014-04-27T10:26:26Z</time>
      </trkpt>
      <trkpt lat="47.26239" lon="-1.60752">
        <ele>12.6</ele>
        <time>2014-04-27T10:26:29Z</time>
      </trkpt>
      <trkpt lat="47.26234" lon="-1.60738">
        <ele>11.5</ele>
        <time>2014-04-27T10:26:35Z</time>
      </trkpt>
      <trkpt lat="47.26225" lon="-1.60731">
        <ele>11.2</ele>
        <time>2014-04-27T10:26:38Z</time>
      </trkpt>
      <trkpt lat="47.26216" lon="-1.6072">
        <ele>11.1</ele>
        <time>2014-04-27T10:26:41Z</time>
      </trkpt>
      <trkpt lat="47.26208" lon="-1.60711">
        <ele>10.8</ele>
        <time>2014-04-27T10:26:44Z</time>
      </trkpt>
      <trkpt lat="47.26197" lon="-1.60705">
        <ele>10.8</ele>
        <time>2014-04-27T10:26:48Z</time>
      </trkpt>
      <trkpt lat="47.26187" lon="-1.60712">
        <ele>10.6</ele>
        <time>2014-04-27T10:26:53Z</time>
      </trkpt>
      <trkpt lat="47.26177" lon="-1.60716">
        <ele>10.3</ele>
        <time>2014-04-27T10:26:57Z</time>
      </trkpt>
      <trkpt lat="47.26166" lon="-1.60719">
        <ele>10.2</ele>
        <time>2014-04-27T10:27:01Z</time>
      </trkpt>
      <trkpt lat="47.26157" lon="-1.60712">
        <ele>10</ele>
        <time>2014-04-27T10:27:04Z</time>
      </trkpt>
      <trkpt lat="47.2614" lon="-1.60699">
        <ele>10.3</ele>
        <time>2014-04-27T10:27:11Z</time>
      </trkpt>
      <trkpt lat="47.2613" lon="-1.60702">
        <ele>10.3</ele>
        <time>2014-04-27T10:27:16Z</time>
      </trkpt>
      <trkpt lat="47.26121" lon="-1.60704">
        <ele>10.2</ele>
        <time>2014-04-27T10:27:22Z</time>
      </trkpt>
      <trkpt lat="47.26111" lon="-1.60702">
        <ele>10.1</ele>
        <time>2014-04-27T10:27:27Z</time>
      </trkpt>
      <trkpt lat="47.26102" lon="-1.60704">
        <ele>10.7</ele>
        <time>2014-04-27T10:27:33Z</time>
      </trkpt>
      <trkpt lat="47.26092" lon="-1.6071">
        <ele>11.7</ele>
        <time>2014-04-27T10:27:40Z</time>
      </trkpt>
      <trkpt lat="47.26083" lon="-1.60714">
        <ele>13</ele>
        <time>2014-04-27T10:27:47Z</time>
      </trkpt>
      <trkpt lat="47.26073" lon="-1.60716">
        <ele>14.2</ele>
        <time>2014-04-27T10:28:01Z</time>
      </trkpt>
      <trkpt lat="47.26062" lon="-1.60713">
        <ele>14.8</ele>
        <time>2014-04-27T10:28:07Z</time>
      </trkpt>
      <trkpt lat="47.26043" lon="-1.60708">
        <ele>16.2</ele>
        <time>2014-04-27T10:28:15Z</time>
      </trkpt>
      <trkpt lat="47.26033" lon="-1.60702">
        <ele>16.5</ele>
        <time>2014-04-27T10:28:19Z</time>
      </trkpt>
      <trkpt lat="47.26025" lon="-1.60696">
        <ele>16.4</ele>
        <time>2014-04-27T10:28:24Z</time>
      </trkpt>
      <trkpt lat="47.26016" lon="-1.607">
        <ele>16.4</ele>
        <time>2014-04-27T10:28:31Z</time>
      </trkpt>
      <trkpt lat="47.26007" lon="-1.60702">
        <ele>16.7</ele>
        <time>2014-04-27T10:28:37Z</time>
      </trkpt>
      <trkpt lat="47.26" lon="-1.60693">
        <ele>19.8</ele>
        <time>2014-04-27T10:29:02Z</time>
      </trkpt>
      <trkpt lat="47.25994" lon="-1.60683">
        <ele>22.4</ele>
        <time>2014-04-27T10:29:26Z</time>
      </trkpt>
      <trkpt lat="47.25997" lon="-1.60654">
        <ele>24.3</ele>
        <time>2014-04-27T10:29:36Z</time>
      </trkpt>
      <trkpt lat="47.25996" lon="-1.60637">
        <ele>24.8</ele>
        <time>2014-04-27T10:29:40Z</time>
      </trkpt>
      <trkpt lat="47.2599" lon="-1.60623">
        <ele>25.5</ele>
        <time>2014-04-27T10:29:44Z</time>
      </trkpt>
      <trkpt lat="47.25978" lon="-1.60621">
        <ele>25.4</ele>
        <time>2014-04-27T10:29:48Z</time>
      </trkpt>
      <trkpt lat="47.25968" lon="-1.60623">
        <ele>25.5</ele>
        <time>2014-04-27T10:29:51Z</time>
      </trkpt>
      <trkpt lat="47.25959" lon="-1.60626">
        <ele>25.1</ele>
        <time>2014-04-27T10:29:54Z</time>
      </trkpt>
      <trkpt lat="47.25949" lon="-1.60634">
        <ele>24.7</ele>
        <time>2014-04-27T10:29:58Z</time>
      </trkpt>
      <trkpt lat="47.25939" lon="-1.60642">
        <ele>24.3</ele>
        <time>2014-04-27T10:30:01Z</time>
      </trkpt>
      <trkpt lat="47.25929" lon="-1.60649">
        <ele>23.8</ele>
        <time>2014-04-27T10:30:04Z</time>
      </trkpt>
      <trkpt lat="47.25917" lon="-1.60656">
        <ele>23.6</ele>
        <time>2014-04-27T10:30:08Z</time>
      </trkpt>
      <trkpt lat="47.25907" lon="-1.60663">
        <ele>23.8</ele>
        <time>2014-04-27T10:30:12Z</time>
      </trkpt>
      <trkpt lat="47.25897" lon="-1.60674">
        <ele>24</ele>
        <time>2014-04-27T10:30:16Z</time>
      </trkpt>
      <trkpt lat="47.2589" lon="-1.60682">
        <ele>24.4</ele>
        <time>2014-04-27T10:30:19Z</time>
      </trkpt>
      <trkpt lat="47.2588" lon="-1.60688">
        <ele>24.5</ele>
        <time>2014-04-27T10:30:23Z</time>
      </trkpt>
      <trkpt lat="47.25868" lon="-1.60693">
        <ele>24.4</ele>
        <time>2014-04-27T10:30:28Z</time>
      </trkpt>
      <trkpt lat="47.25849" lon="-1.607">
        <ele>25</ele>
        <time>2014-04-27T10:30:34Z</time>
      </trkpt>
      <trkpt lat="47.25838" lon="-1.60702">
        <ele>25.8</ele>
        <time>2014-04-27T10:30:38Z</time>
      </trkpt>
      <trkpt lat="47.25828" lon="-1.60704">
        <ele>26.5</ele>
        <time>2014-04-27T10:30:42Z</time>
      </trkpt>
      <trkpt lat="47.25818" lon="-1.60706">
        <ele>26.8</ele>
        <time>2014-04-27T10:30:46Z</time>
      </trkpt>
      <trkpt lat="47.25808" lon="-1.60707">
        <ele>27.2</ele>
        <time>2014-04-27T10:30:50Z</time>
      </trkpt>
      <trkpt lat="47.25798" lon="-1.60709">
        <ele>27.5</ele>
        <time>2014-04-27T10:30:54Z</time>
      </trkpt>
      <trkpt lat="47.25786" lon="-1.60712">
        <ele>27.9</ele>
        <time>2014-04-27T10:30:57Z</time>
      </trkpt>
      <trkpt lat="47.25774" lon="-1.60711">
        <ele>28.5</ele>
        <time>2014-04-27T10:31:01Z</time>
      </trkpt>
      <trkpt lat="47.25764" lon="-1.60707">
        <ele>28.8</ele>
        <time>2014-04-27T10:31:04Z</time>
      </trkpt>
      <trkpt lat="47.25754" lon="-1.60702">
        <ele>29.5</ele>
        <time>2014-04-27T10:31:08Z</time>
      </trkpt>
      <trkpt lat="47.25744" lon="-1.607">
        <ele>30.2</ele>
        <time>2014-04-27T10:31:12Z</time>
      </trkpt>
      <trkpt lat="47.25735" lon="-1.60695">
        <ele>30.7</ele>
        <time>2014-04-27T10:31:16Z</time>
      </trkpt>
      <trkpt lat="47.25727" lon="-1.60687">
        <ele>31.2</ele>
        <time>2014-04-27T10:31:19Z</time>
      </trkpt>
      <trkpt lat="47.2572" lon="-1.60678">
        <ele>31.8</ele>
        <time>2014-04-27T10:31:22Z</time>
      </trkpt>
      <trkpt lat="47.25712" lon="-1.60667">
        <ele>32.9</ele>
        <time>2014-04-27T10:31:26Z</time>
      </trkpt>
      <trkpt lat="47.25706" lon="-1.60655">
        <ele>33.9</ele>
        <time>2014-04-27T10:31:30Z</time>
      </trkpt>
      <trkpt lat="47.25697" lon="-1.60626">
        <ele>36.6</ele>
        <time>2014-04-27T10:31:40Z</time>
      </trkpt>
      <trkpt lat="47.25687" lon="-1.60632">
        <ele>37.5</ele>
        <time>2014-04-27T10:31:49Z</time>
      </trkpt>
      <trkpt lat="47.2568" lon="-1.6064">
        <ele>37.6</ele>
        <time>2014-04-27T10:31:53Z</time>
      </trkpt>
      <trkpt lat="47.25673" lon="-1.60651">
        <ele>37.8</ele>
        <time>2014-04-27T10:31:57Z</time>
      </trkpt>
      <trkpt lat="47.25666" lon="-1.60662">
        <ele>38.1</ele>
        <time>2014-04-27T10:32:25Z</time>
      </trkpt>
      <trkpt lat="47.25658" lon="-1.6067">
        <ele>38.3</ele>
        <time>2014-04-27T10:32:28Z</time>
      </trkpt>
      <trkpt lat="47.2565" lon="-1.60679">
        <ele>38.4</ele>
        <time>2014-04-27T10:32:31Z</time>
      </trkpt>
      <trkpt lat="47.25635" lon="-1.607">
        <ele>38.3</ele>
        <time>2014-04-27T10:32:38Z</time>
      </trkpt>
      <trkpt lat="47.25631" lon="-1.60712">
        <ele>38</ele>
        <time>2014-04-27T10:32:42Z</time>
      </trkpt>
      <trkpt lat="47.25626" lon="-1.60726">
        <ele>36.9</ele>
        <time>2014-04-27T10:32:47Z</time>
      </trkpt>
      <trkpt lat="47.25623" lon="-1.60743">
        <ele>36.3</ele>
        <time>2014-04-27T10:32:51Z</time>
      </trkpt>
      <trkpt lat="47.25611" lon="-1.6074">
        <ele>39.3</ele>
        <time>2014-04-27T10:32:56Z</time>
      </trkpt>
      <trkpt lat="47.25604" lon="-1.60732">
        <ele>40.9</ele>
        <time>2014-04-27T10:32:58Z</time>
      </trkpt>
      <trkpt lat="47.25592" lon="-1.60723">
        <ele>41.1</ele>
        <time>2014-04-27T10:33:01Z</time>
      </trkpt>
      <trkpt lat="47.25582" lon="-1.60715">
        <ele>42.1</ele>
        <time>2014-04-27T10:33:04Z</time>
      </trkpt>
      <trkpt lat="47.2557" lon="-1.60705">
        <ele>43.2</ele>
        <time>2014-04-27T10:33:07Z</time>
      </trkpt>
      <trkpt lat="47.25561" lon="-1.60695">
        <ele>44.3</ele>
        <time>2014-04-27T10:33:10Z</time>
      </trkpt>
      <trkpt lat="47.2555" lon="-1.60682">
        <ele>44.4</ele>
        <time>2014-04-27T10:33:13Z</time>
      </trkpt>
      <trkpt lat="47.25543" lon="-1.60673">
        <ele>43.8</ele>
        <time>2014-04-27T10:33:15Z</time>
      </trkpt>
      <trkpt lat="47.25534" lon="-1.6066">
        <ele>42.7</ele>
        <time>2014-04-27T10:33:18Z</time>
      </trkpt>
      <trkpt lat="47.25529" lon="-1.60648">
        <ele>41.8</ele>
        <time>2014-04-27T10:33:20Z</time>
      </trkpt>
      <trkpt lat="47.25524" lon="-1.60637">
        <ele>42.1</ele>
        <time>2014-04-27T10:33:22Z</time>
      </trkpt>
      <trkpt lat="47.25519" lon="-1.60624">
        <ele>43.2</ele>
        <time>2014-04-27T10:33:24Z</time>
      </trkpt>
      <trkpt lat="47.25515" lon="-1.60611">
        <ele>43.9</ele>
        <time>2014-04-27T10:33:26Z</time>
      </trkpt>
      <trkpt lat="47.25509" lon="-1.60598">
        <ele>44.7</ele>
        <time>2014-04-27T10:33:28Z</time>
      </trkpt>
      <trkpt lat="47.25504" lon="-1.60586">
        <ele>45.9</ele>
        <time>2014-04-27T10:33:30Z</time>
      </trkpt>
      <trkpt lat="47.25497" lon="-1.6057">
        <ele>47.9</ele>
        <time>2014-04-27T10:33:33Z</time>
      </trkpt>
      <trkpt lat="47.25486" lon="-1.60547">
        <ele>48.1</ele>
        <time>2014-04-27T10:33:37Z</time>
      </trkpt>
      <trkpt lat="47.2548" lon="-1.60534">
        <ele>47</ele>
        <time>2014-04-27T10:33:39Z</time>
      </trkpt>
      <trkpt lat="47.25475" lon="-1.60522">
        <ele>47.1</ele>
        <time>2014-04-27T10:33:41Z</time>
      </trkpt>
      <trkpt lat="47.25469" lon="-1.60508">
        <ele>46.9</ele>
        <time>2014-04-27T10:33:43Z</time>
      </trkpt>
      <trkpt lat="47.25464" lon="-1.60495">
        <ele>47.3</ele>
        <time>2014-04-27T10:33:45Z</time>
      </trkpt>
      <trkpt lat="47.25459" lon="-1.60484">
        <ele>49.4</ele>
        <time>2014-04-27T10:33:47Z</time>
      </trkpt>
      <trkpt lat="47.25453" lon="-1.60472">
        <ele>51.4</ele>
        <time>2014-04-27T10:33:49Z</time>
      </trkpt>
      <trkpt lat="47.25446" lon="-1.60456">
        <ele>51.9</ele>
        <time>2014-04-27T10:33:52Z</time>
      </trkpt>
      <trkpt lat="47.25434" lon="-1.6045">
        <ele>51.1</ele>
        <time>2014-04-27T10:33:55Z</time>
      </trkpt>
      <trkpt lat="47.25425" lon="-1.60452">
        <ele>49.5</ele>
        <time>2014-04-27T10:33:57Z</time>
      </trkpt>
      <trkpt lat="47.25413" lon="-1.60459">
        <ele>46.7</ele>
        <time>2014-04-27T10:34:00Z</time>
      </trkpt>
      <trkpt lat="47.25402" lon="-1.60466">
        <ele>45</ele>
        <time>2014-04-27T10:34:03Z</time>
      </trkpt>
      <trkpt lat="47.25392" lon="-1.6047">
        <ele>46.3</ele>
        <time>2014-04-27T10:34:05Z</time>
      </trkpt>
      <trkpt lat="47.25382" lon="-1.60473">
        <ele>47.6</ele>
        <time>2014-04-27T10:34:07Z</time>
      </trkpt>
      <trkpt lat="47.25373" lon="-1.60476">
        <ele>48.2</ele>
        <time>2014-04-27T10:34:09Z</time>
      </trkpt>
      <trkpt lat="47.25364" lon="-1.60479">
        <ele>48.5</ele>
        <time>2014-04-27T10:34:11Z</time>
      </trkpt>
      <trkpt lat="47.25354" lon="-1.60481">
        <ele>48.7</ele>
        <time>2014-04-27T10:34:13Z</time>
      </trkpt>
      <trkpt lat="47.25345" lon="-1.60484">
        <ele>49</ele>
        <time>2014-04-27T10:34:15Z</time>
      </trkpt>
      <trkpt lat="47.25335" lon="-1.60488">
        <ele>49.5</ele>
        <time>2014-04-27T10:34:17Z</time>
      </trkpt>
      <trkpt lat="47.25325" lon="-1.60491">
        <ele>49.8</ele>
        <time>2014-04-27T10:34:19Z</time>
      </trkpt>
      <trkpt lat="47.25312" lon="-1.60493">
        <ele>50.7</ele>
        <time>2014-04-27T10:34:22Z</time>
      </trkpt>
      <trkpt lat="47.25302" lon="-1.60496">
        <ele>51.3</ele>
        <time>2014-04-27T10:34:24Z</time>
      </trkpt>
      <trkpt lat="47.25293" lon="-1.60499">
        <ele>51.4</ele>
        <time>2014-04-27T10:34:26Z</time>
      </trkpt>
      <trkpt lat="47.25283" lon="-1.60503">
        <ele>51.2</ele>
        <time>2014-04-27T10:34:28Z</time>
      </trkpt>
      <trkpt lat="47.25272" lon="-1.60508">
        <ele>50.9</ele>
        <time>2014-04-27T10:34:30Z</time>
      </trkpt>
      <trkpt lat="47.25262" lon="-1.60514">
        <ele>50.2</ele>
        <time>2014-04-27T10:34:32Z</time>
      </trkpt>
      <trkpt lat="47.25251" lon="-1.60521">
        <ele>50.2</ele>
        <time>2014-04-27T10:34:34Z</time>
      </trkpt>
      <trkpt lat="47.2523" lon="-1.60536">
        <ele>50.9</ele>
        <time>2014-04-27T10:34:38Z</time>
      </trkpt>
      <trkpt lat="47.2522" lon="-1.60544">
        <ele>51.1</ele>
        <time>2014-04-27T10:34:40Z</time>
      </trkpt>
      <trkpt lat="47.2521" lon="-1.60551">
        <ele>51.6</ele>
        <time>2014-04-27T10:34:42Z</time>
      </trkpt>
      <trkpt lat="47.252" lon="-1.60561">
        <ele>51.7</ele>
        <time>2014-04-27T10:34:44Z</time>
      </trkpt>
      <trkpt lat="47.2519" lon="-1.60572">
        <ele>52.3</ele>
        <time>2014-04-27T10:34:46Z</time>
      </trkpt>
      <trkpt lat="47.2518" lon="-1.60584">
        <ele>52.4</ele>
        <time>2014-04-27T10:34:48Z</time>
      </trkpt>
      <trkpt lat="47.25173" lon="-1.60593">
        <ele>52.4</ele>
        <time>2014-04-27T10:34:50Z</time>
      </trkpt>
      <trkpt lat="47.25164" lon="-1.60603">
        <ele>52</ele>
        <time>2014-04-27T10:34:53Z</time>
      </trkpt>
      <trkpt lat="47.25157" lon="-1.60614">
        <ele>52</ele>
        <time>2014-04-27T10:34:55Z</time>
      </trkpt>
      <trkpt lat="47.25148" lon="-1.60626">
        <ele>52</ele>
        <time>2014-04-27T10:34:58Z</time>
      </trkpt>
      <trkpt lat="47.25139" lon="-1.60634">
        <ele>51.9</ele>
        <time>2014-04-27T10:35:00Z</time>
      </trkpt>
      <trkpt lat="47.2513" lon="-1.60646">
        <ele>52.9</ele>
        <time>2014-04-27T10:35:03Z</time>
      </trkpt>
      <trkpt lat="47.2512" lon="-1.60658">
        <ele>53</ele>
        <time>2014-04-27T10:35:06Z</time>
      </trkpt>
      <trkpt lat="47.25111" lon="-1.60668">
        <ele>53.1</ele>
        <time>2014-04-27T10:35:09Z</time>
      </trkpt>
      <trkpt lat="47.25102" lon="-1.60678">
        <ele>52.4</ele>
        <time>2014-04-27T10:35:12Z</time>
      </trkpt>
      <trkpt lat="47.25092" lon="-1.60688">
        <ele>51.3</ele>
        <time>2014-04-27T10:35:15Z</time>
      </trkpt>
      <trkpt lat="47.25082" lon="-1.60698">
        <ele>52.1</ele>
        <time>2014-04-27T10:35:18Z</time>
      </trkpt>
      <trkpt lat="47.25072" lon="-1.6071">
        <ele>52.9</ele>
        <time>2014-04-27T10:35:21Z</time>
      </trkpt>
      <trkpt lat="47.25063" lon="-1.60721">
        <ele>52.9</ele>
        <time>2014-04-27T10:35:24Z</time>
      </trkpt>
      <trkpt lat="47.25054" lon="-1.60731">
        <ele>52.6</ele>
        <time>2014-04-27T10:35:27Z</time>
      </trkpt>
      <trkpt lat="47.25047" lon="-1.60739">
        <ele>50.8</ele>
        <time>2014-04-27T10:35:29Z</time>
      </trkpt>
      <trkpt lat="47.2504" lon="-1.60748">
        <ele>49.8</ele>
        <time>2014-04-27T10:35:31Z</time>
      </trkpt>
      <trkpt lat="47.2503" lon="-1.60758">
        <ele>49.3</ele>
        <time>2014-04-27T10:35:34Z</time>
      </trkpt>
      <trkpt lat="47.2502" lon="-1.60771">
        <ele>50.7</ele>
        <time>2014-04-27T10:35:37Z</time>
      </trkpt>
      <trkpt lat="47.25004" lon="-1.6079">
        <ele>52.2</ele>
        <time>2014-04-27T10:35:41Z</time>
      </trkpt>
      <trkpt lat="47.24997" lon="-1.60801">
        <ele>53.3</ele>
        <time>2014-04-27T10:35:43Z</time>
      </trkpt>
      <trkpt lat="47.24989" lon="-1.60815">
        <ele>54.7</ele>
        <time>2014-04-27T10:35:46Z</time>
      </trkpt>
      <trkpt lat="47.24981" lon="-1.60824">
        <ele>54.7</ele>
        <time>2014-04-27T10:35:48Z</time>
      </trkpt>
      <trkpt lat="47.24973" lon="-1.60831">
        <ele>54.3</ele>
        <time>2014-04-27T10:35:50Z</time>
      </trkpt>
      <trkpt lat="47.24965" lon="-1.60836">
        <ele>53.9</ele>
        <time>2014-04-27T10:35:52Z</time>
      </trkpt>
      <trkpt lat="47.24954" lon="-1.60846">
        <ele>54</ele>
        <time>2014-04-27T10:35:55Z</time>
      </trkpt>
      <trkpt lat="47.24944" lon="-1.60857">
        <ele>54.3</ele>
        <time>2014-04-27T10:35:58Z</time>
      </trkpt>
      <trkpt lat="47.24934" lon="-1.60869">
        <ele>55.2</ele>
        <time>2014-04-27T10:36:01Z</time>
      </trkpt>
      <trkpt lat="47.24923" lon="-1.60881">
        <ele>55.9</ele>
        <time>2014-04-27T10:36:04Z</time>
      </trkpt>
      <trkpt lat="47.24913" lon="-1.60893">
        <ele>56.6</ele>
        <time>2014-04-27T10:36:07Z</time>
      </trkpt>
      <trkpt lat="47.24904" lon="-1.60906">
        <ele>57.6</ele>
        <time>2014-04-27T10:36:10Z</time>
      </trkpt>
      <trkpt lat="47.24895" lon="-1.60918">
        <ele>56.8</ele>
        <time>2014-04-27T10:36:13Z</time>
      </trkpt>
      <trkpt lat="47.24885" lon="-1.60929">
        <ele>56.6</ele>
        <time>2014-04-27T10:36:16Z</time>
      </trkpt>
      <trkpt lat="47.24877" lon="-1.60937">
        <ele>55.8</ele>
        <time>2014-04-27T10:36:18Z</time>
      </trkpt>
      <trkpt lat="47.24867" lon="-1.60949">
        <ele>54.7</ele>
        <time>2014-04-27T10:36:21Z</time>
      </trkpt>
      <trkpt lat="47.2486" lon="-1.60958">
        <ele>54.6</ele>
        <time>2014-04-27T10:36:24Z</time>
      </trkpt>
      <trkpt lat="47.24851" lon="-1.60952">
        <ele>54.4</ele>
        <time>2014-04-27T10:36:27Z</time>
      </trkpt>
      <trkpt lat="47.24842" lon="-1.60948">
        <ele>54</ele>
        <time>2014-04-27T10:36:31Z</time>
      </trkpt>
      <trkpt lat="47.24833" lon="-1.60954">
        <ele>54</ele>
        <time>2014-04-27T10:36:36Z</time>
      </trkpt>
      <trkpt lat="47.24824" lon="-1.60959">
        <ele>54.1</ele>
        <time>2014-04-27T10:36:39Z</time>
      </trkpt>
      <trkpt lat="47.24818" lon="-1.60927">
        <ele>53.9</ele>
        <time>2014-04-27T10:36:50Z</time>
      </trkpt>
      <trkpt lat="47.24814" lon="-1.60913">
        <ele>53.4</ele>
        <time>2014-04-27T10:36:52Z</time>
      </trkpt>
      <trkpt lat="47.2481" lon="-1.609">
        <ele>53.6</ele>
        <time>2014-04-27T10:36:54Z</time>
      </trkpt>
      <trkpt lat="47.24806" lon="-1.60888">
        <ele>54.4</ele>
        <time>2014-04-27T10:36:56Z</time>
      </trkpt>
      <trkpt lat="47.24802" lon="-1.60874">
        <ele>55</ele>
        <time>2014-04-27T10:36:58Z</time>
      </trkpt>
      <trkpt lat="47.24797" lon="-1.6086">
        <ele>55.5</ele>
        <time>2014-04-27T10:37:00Z</time>
      </trkpt>
      <trkpt lat="47.24794" lon="-1.60844">
        <ele>55.1</ele>
        <time>2014-04-27T10:37:02Z</time>
      </trkpt>
      <trkpt lat="47.2479" lon="-1.60828">
        <ele>53.9</ele>
        <time>2014-04-27T10:37:04Z</time>
      </trkpt>
      <trkpt lat="47.24786" lon="-1.60813">
        <ele>53.4</ele>
        <time>2014-04-27T10:37:06Z</time>
      </trkpt>
      <trkpt lat="47.24782" lon="-1.60799">
        <ele>54.3</ele>
        <time>2014-04-27T10:37:08Z</time>
      </trkpt>
      <trkpt lat="47.24778" lon="-1.60785">
        <ele>54.8</ele>
        <time>2014-04-27T10:37:10Z</time>
      </trkpt>
      <trkpt lat="47.24776" lon="-1.60771">
        <ele>54.8</ele>
        <time>2014-04-27T10:37:12Z</time>
      </trkpt>
      <trkpt lat="47.24771" lon="-1.60758">
        <ele>54.4</ele>
        <time>2014-04-27T10:37:14Z</time>
      </trkpt>
      <trkpt lat="47.24759" lon="-1.6075">
        <ele>53.7</ele>
        <time>2014-04-27T10:37:17Z</time>
      </trkpt>
      <trkpt lat="47.24752" lon="-1.6074">
        <ele>53.6</ele>
        <time>2014-04-27T10:37:19Z</time>
      </trkpt>
      <trkpt lat="47.24745" lon="-1.60725">
        <ele>53.3</ele>
        <time>2014-04-27T10:37:21Z</time>
      </trkpt>
      <trkpt lat="47.24739" lon="-1.6071">
        <ele>53.1</ele>
        <time>2014-04-27T10:37:23Z</time>
      </trkpt>
      <trkpt lat="47.2473" lon="-1.60694">
        <ele>52.5</ele>
        <time>2014-04-27T10:37:25Z</time>
      </trkpt>
      <trkpt lat="47.24722" lon="-1.60677">
        <ele>50.7</ele>
        <time>2014-04-27T10:37:27Z</time>
      </trkpt>
      <trkpt lat="47.24713" lon="-1.6066">
        <ele>49.1</ele>
        <time>2014-04-27T10:37:29Z</time>
      </trkpt>
      <trkpt lat="47.24706" lon="-1.60642">
        <ele>49.4</ele>
        <time>2014-04-27T10:37:31Z</time>
      </trkpt>
      <trkpt lat="47.24701" lon="-1.60628">
        <ele>49.8</ele>
        <time>2014-04-27T10:37:33Z</time>
      </trkpt>
      <trkpt lat="47.24695" lon="-1.60614">
        <ele>49.4</ele>
        <time>2014-04-27T10:37:35Z</time>
      </trkpt>
      <trkpt lat="47.2469" lon="-1.606">
        <ele>49.7</ele>
        <time>2014-04-27T10:37:37Z</time>
      </trkpt>
      <trkpt lat="47.24683" lon="-1.6059">
        <ele>49.3</ele>
        <time>2014-04-27T10:37:39Z</time>
      </trkpt>
      <trkpt lat="47.24671" lon="-1.60593">
        <ele>50.5</ele>
        <time>2014-04-27T10:37:42Z</time>
      </trkpt>
      <trkpt lat="47.24651" lon="-1.60605">
        <ele>50.6</ele>
        <time>2014-04-27T10:37:46Z</time>
      </trkpt>
      <trkpt lat="47.24641" lon="-1.60616">
        <ele>50.4</ele>
        <time>2014-04-27T10:37:49Z</time>
      </trkpt>
      <trkpt lat="47.24633" lon="-1.60622">
        <ele>51</ele>
        <time>2014-04-27T10:37:51Z</time>
      </trkpt>
      <trkpt lat="47.24624" lon="-1.60629">
        <ele>55.5</ele>
        <time>2014-04-27T10:37:53Z</time>
      </trkpt>
      <trkpt lat="47.24615" lon="-1.60635">
        <ele>59.3</ele>
        <time>2014-04-27T10:37:55Z</time>
      </trkpt>
      <trkpt lat="47.24605" lon="-1.6064">
        <ele>61.4</ele>
        <time>2014-04-27T10:37:57Z</time>
      </trkpt>
      <trkpt lat="47.24595" lon="-1.60646">
        <ele>64</ele>
        <time>2014-04-27T10:37:59Z</time>
      </trkpt>
      <trkpt lat="47.24586" lon="-1.6065">
        <ele>66.1</ele>
        <time>2014-04-27T10:38:01Z</time>
      </trkpt>
      <trkpt lat="47.24577" lon="-1.60655">
        <ele>67</ele>
        <time>2014-04-27T10:38:03Z</time>
      </trkpt>
      <trkpt lat="47.24568" lon="-1.60661">
        <ele>67.7</ele>
        <time>2014-04-27T10:38:05Z</time>
      </trkpt>
      <trkpt lat="47.24558" lon="-1.60665">
        <ele>68.1</ele>
        <time>2014-04-27T10:38:07Z</time>
      </trkpt>
      <trkpt lat="47.24549" lon="-1.6067">
        <ele>68</ele>
        <time>2014-04-27T10:38:09Z</time>
      </trkpt>
      <trkpt lat="47.24542" lon="-1.60679">
        <ele>67.8</ele>
        <time>2014-04-27T10:38:11Z</time>
      </trkpt>
      <trkpt lat="47.24533" lon="-1.60693">
        <ele>67.7</ele>
        <time>2014-04-27T10:38:15Z</time>
      </trkpt>
      <trkpt lat="47.24525" lon="-1.60699">
        <ele>65.4</ele>
        <time>2014-04-27T10:38:17Z</time>
      </trkpt>
      <trkpt lat="47.24513" lon="-1.6071">
        <ele>62.6</ele>
        <time>2014-04-27T10:38:20Z</time>
      </trkpt>
      <trkpt lat="47.245" lon="-1.60713">
        <ele>59.8</ele>
        <time>2014-04-27T10:38:23Z</time>
      </trkpt>
      <trkpt lat="47.24492" lon="-1.6071">
        <ele>57.6</ele>
        <time>2014-04-27T10:38:25Z</time>
      </trkpt>
      <trkpt lat="47.24481" lon="-1.60706">
        <ele>56</ele>
        <time>2014-04-27T10:38:27Z</time>
      </trkpt>
      <trkpt lat="47.2447" lon="-1.60703">
        <ele>55</ele>
        <time>2014-04-27T10:38:29Z</time>
      </trkpt>
      <trkpt lat="47.2446" lon="-1.60699">
        <ele>53.9</ele>
        <time>2014-04-27T10:38:31Z</time>
      </trkpt>
      <trkpt lat="47.24449" lon="-1.60697">
        <ele>53.7</ele>
        <time>2014-04-27T10:38:33Z</time>
      </trkpt>
      <trkpt lat="47.24439" lon="-1.60694">
        <ele>53.2</ele>
        <time>2014-04-27T10:38:35Z</time>
      </trkpt>
      <trkpt lat="47.24429" lon="-1.6069">
        <ele>53.2</ele>
        <time>2014-04-27T10:38:38Z</time>
      </trkpt>
      <trkpt lat="47.24419" lon="-1.60685">
        <ele>53</ele>
        <time>2014-04-27T10:38:41Z</time>
      </trkpt>
      <trkpt lat="47.24411" lon="-1.60678">
        <ele>52.8</ele>
        <time>2014-04-27T10:38:44Z</time>
      </trkpt>
      <trkpt lat="47.24392" lon="-1.6068">
        <ele>52.7</ele>
        <time>2014-04-27T10:38:53Z</time>
      </trkpt>
      <trkpt lat="47.24384" lon="-1.60687">
        <ele>52.5</ele>
        <time>2014-04-27T10:38:55Z</time>
      </trkpt>
      <trkpt lat="47.24375" lon="-1.60695">
        <ele>52.2</ele>
        <time>2014-04-27T10:38:58Z</time>
      </trkpt>
      <trkpt lat="47.24365" lon="-1.60703">
        <ele>51.1</ele>
        <time>2014-04-27T10:39:01Z</time>
      </trkpt>
      <trkpt lat="47.24354" lon="-1.60714">
        <ele>50.6</ele>
        <time>2014-04-27T10:39:04Z</time>
      </trkpt>
      <trkpt lat="47.24343" lon="-1.60724">
        <ele>52.1</ele>
        <time>2014-04-27T10:39:07Z</time>
      </trkpt>
      <trkpt lat="47.24332" lon="-1.60734">
        <ele>51.8</ele>
        <time>2014-04-27T10:39:10Z</time>
      </trkpt>
      <trkpt lat="47.24322" lon="-1.60743">
        <ele>50.5</ele>
        <time>2014-04-27T10:39:12Z</time>
      </trkpt>
      <trkpt lat="47.24311" lon="-1.60752">
        <ele>49.2</ele>
        <time>2014-04-27T10:39:14Z</time>
      </trkpt>
      <trkpt lat="47.243" lon="-1.6076">
        <ele>48.3</ele>
        <time>2014-04-27T10:39:16Z</time>
      </trkpt>
      <trkpt lat="47.24289" lon="-1.6077">
        <ele>47.3</ele>
        <time>2014-04-27T10:39:18Z</time>
      </trkpt>
      <trkpt lat="47.24279" lon="-1.60779">
        <ele>46.5</ele>
        <time>2014-04-27T10:39:20Z</time>
      </trkpt>
      <trkpt lat="47.24268" lon="-1.60787">
        <ele>45.6</ele>
        <time>2014-04-27T10:39:22Z</time>
      </trkpt>
      <trkpt lat="47.24258" lon="-1.60794">
        <ele>45.3</ele>
        <time>2014-04-27T10:39:24Z</time>
      </trkpt>
      <trkpt lat="47.24248" lon="-1.60802">
        <ele>44.8</ele>
        <time>2014-04-27T10:39:26Z</time>
      </trkpt>
      <trkpt lat="47.24239" lon="-1.6081">
        <ele>44.9</ele>
        <time>2014-04-27T10:39:28Z</time>
      </trkpt>
      <trkpt lat="47.2423" lon="-1.60824">
        <ele>46.2</ele>
        <time>2014-04-27T10:39:31Z</time>
      </trkpt>
      <trkpt lat="47.24223" lon="-1.60834">
        <ele>46.9</ele>
        <time>2014-04-27T10:39:33Z</time>
      </trkpt>
      <trkpt lat="47.24213" lon="-1.60841">
        <ele>47.6</ele>
        <time>2014-04-27T10:39:35Z</time>
      </trkpt>
      <trkpt lat="47.242" lon="-1.60846">
        <ele>46.8</ele>
        <time>2014-04-27T10:39:38Z</time>
      </trkpt>
      <trkpt lat="47.2419" lon="-1.6085">
        <ele>47.2</ele>
        <time>2014-04-27T10:39:40Z</time>
      </trkpt>
      <trkpt lat="47.24181" lon="-1.60854">
        <ele>47.4</ele>
        <time>2014-04-27T10:39:42Z</time>
      </trkpt>
      <trkpt lat="47.24172" lon="-1.60857">
        <ele>48.1</ele>
        <time>2014-04-27T10:39:44Z</time>
      </trkpt>
      <trkpt lat="47.24162" lon="-1.60856">
        <ele>47.2</ele>
        <time>2014-04-27T10:39:46Z</time>
      </trkpt>
      <trkpt lat="47.24142" lon="-1.60842">
        <ele>45.1</ele>
        <time>2014-04-27T10:39:51Z</time>
      </trkpt>
      <trkpt lat="47.24135" lon="-1.60832">
        <ele>44.9</ele>
        <time>2014-04-27T10:39:53Z</time>
      </trkpt>
      <trkpt lat="47.24129" lon="-1.60818">
        <ele>44.6</ele>
        <time>2014-04-27T10:39:55Z</time>
      </trkpt>
      <trkpt lat="47.24124" lon="-1.60805">
        <ele>44.5</ele>
        <time>2014-04-27T10:40:00Z</time>
      </trkpt>
      <trkpt lat="47.24117" lon="-1.60816">
        <ele>44.3</ele>
        <time>2014-04-27T10:40:08Z</time>
      </trkpt>
      <trkpt lat="47.24125" lon="-1.60811">
        <ele>44.6</ele>
        <time>2014-04-27T10:40:46Z</time>
      </trkpt>
      <trkpt lat="47.24129" lon="-1.60823">
        <ele>43.9</ele>
        <time>2014-04-27T10:41:43Z</time>
      </trkpt>
      <trkpt lat="47.24122" lon="-1.60803">
        <ele>50.5</ele>
        <time>2014-04-27T10:49:17Z</time>
      </trkpt>
      <trkpt lat="47.24112" lon="-1.60774">
        <ele>52.7</ele>
        <time>2014-04-27T10:49:24Z</time>
      </trkpt>
      <trkpt lat="47.24102" lon="-1.60779">
        <ele>52.3</ele>
        <time>2014-04-27T10:49:30Z</time>
      </trkpt>
      <trkpt lat="47.24092" lon="-1.60785">
        <ele>51.7</ele>
        <time>2014-04-27T10:49:34Z</time>
      </trkpt>
      <trkpt lat="47.24082" lon="-1.60782">
        <ele>49.4</ele>
        <time>2014-04-27T10:49:37Z</time>
      </trkpt>
      <trkpt lat="47.24072" lon="-1.6079">
        <ele>49</ele>
        <time>2014-04-27T10:49:40Z</time>
      </trkpt>
      <trkpt lat="47.24064" lon="-1.60799">
        <ele>48.6</ele>
        <time>2014-04-27T10:49:43Z</time>
      </trkpt>
      <trkpt lat="47.24066" lon="-1.60812">
        <ele>47.3</ele>
        <time>2014-04-27T10:49:48Z</time>
      </trkpt>
      <trkpt lat="47.24068" lon="-1.60826">
        <ele>45.8</ele>
        <time>2014-04-27T10:49:53Z</time>
      </trkpt>
      <trkpt lat="47.24061" lon="-1.6084">
        <ele>45.7</ele>
        <time>2014-04-27T10:49:58Z</time>
      </trkpt>
      <trkpt lat="47.24048" lon="-1.60851">
        <ele>45.9</ele>
        <time>2014-04-27T10:50:01Z</time>
      </trkpt>
      <trkpt lat="47.24041" lon="-1.60862">
        <ele>46.2</ele>
        <time>2014-04-27T10:50:05Z</time>
      </trkpt>
      <trkpt lat="47.24039" lon="-1.60877">
        <ele>46.1</ele>
        <time>2014-04-27T10:50:10Z</time>
      </trkpt>
      <trkpt lat="47.2403" lon="-1.60885">
        <ele>46.5</ele>
        <time>2014-04-27T10:50:14Z</time>
      </trkpt>
      <trkpt lat="47.24022" lon="-1.60891">
        <ele>46.9</ele>
        <time>2014-04-27T10:50:17Z</time>
      </trkpt>
      <trkpt lat="47.24012" lon="-1.60894">
        <ele>47.4</ele>
        <time>2014-04-27T10:50:20Z</time>
      </trkpt>
      <trkpt lat="47.23991" lon="-1.60899">
        <ele>47.3</ele>
        <time>2014-04-27T10:50:28Z</time>
      </trkpt>
      <trkpt lat="47.2398" lon="-1.60902">
        <ele>46.6</ele>
        <time>2014-04-27T10:50:31Z</time>
      </trkpt>
      <trkpt lat="47.23971" lon="-1.60905">
        <ele>45.9</ele>
        <time>2014-04-27T10:50:34Z</time>
      </trkpt>
      <trkpt lat="47.2396" lon="-1.60909">
        <ele>45.1</ele>
        <time>2014-04-27T10:50:37Z</time>
      </trkpt>
      <trkpt lat="47.23946" lon="-1.60915">
        <ele>41.4</ele>
        <time>2014-04-27T10:50:40Z</time>
      </trkpt>
      <trkpt lat="47.23937" lon="-1.60918">
        <ele>40.8</ele>
        <time>2014-04-27T10:50:42Z</time>
      </trkpt>
      <trkpt lat="47.23925" lon="-1.60922">
        <ele>40.3</ele>
        <time>2014-04-27T10:50:45Z</time>
      </trkpt>
      <trkpt lat="47.23912" lon="-1.60928">
        <ele>40.2</ele>
        <time>2014-04-27T10:50:48Z</time>
      </trkpt>
      <trkpt lat="47.23902" lon="-1.60931">
        <ele>39.2</ele>
        <time>2014-04-27T10:50:51Z</time>
      </trkpt>
      <trkpt lat="47.2389" lon="-1.60934">
        <ele>38.1</ele>
        <time>2014-04-27T10:50:54Z</time>
      </trkpt>
      <trkpt lat="47.23881" lon="-1.60937">
        <ele>37.5</ele>
        <time>2014-04-27T10:50:56Z</time>
      </trkpt>
      <trkpt lat="47.23868" lon="-1.60941">
        <ele>37.4</ele>
        <time>2014-04-27T10:50:59Z</time>
      </trkpt>
      <trkpt lat="47.23857" lon="-1.60948">
        <ele>37.2</ele>
        <time>2014-04-27T10:51:02Z</time>
      </trkpt>
      <trkpt lat="47.23845" lon="-1.60955">
        <ele>37.1</ele>
        <time>2014-04-27T10:51:05Z</time>
      </trkpt>
      <trkpt lat="47.23835" lon="-1.60963">
        <ele>37.1</ele>
        <time>2014-04-27T10:51:08Z</time>
      </trkpt>
      <trkpt lat="47.23826" lon="-1.60973">
        <ele>37</ele>
        <time>2014-04-27T10:51:11Z</time>
      </trkpt>
      <trkpt lat="47.23816" lon="-1.60981">
        <ele>36.8</ele>
        <time>2014-04-27T10:51:14Z</time>
      </trkpt>
      <trkpt lat="47.23805" lon="-1.60991">
        <ele>34.7</ele>
        <time>2014-04-27T10:51:17Z</time>
      </trkpt>
      <trkpt lat="47.23796" lon="-1.60999">
        <ele>32.3</ele>
        <time>2014-04-27T10:51:19Z</time>
      </trkpt>
      <trkpt lat="47.23785" lon="-1.61008">
        <ele>31.1</ele>
        <time>2014-04-27T10:51:21Z</time>
      </trkpt>
      <trkpt lat="47.23762" lon="-1.61025">
        <ele>30</ele>
        <time>2014-04-27T10:51:25Z</time>
      </trkpt>
      <trkpt lat="47.23751" lon="-1.61034">
        <ele>30.1</ele>
        <time>2014-04-27T10:51:27Z</time>
      </trkpt>
      <trkpt lat="47.2374" lon="-1.61043">
        <ele>29.7</ele>
        <time>2014-04-27T10:51:29Z</time>
      </trkpt>
      <trkpt lat="47.2373" lon="-1.6105">
        <ele>28.4</ele>
        <time>2014-04-27T10:51:31Z</time>
      </trkpt>
      <trkpt lat="47.23721" lon="-1.61057">
        <ele>27.2</ele>
        <time>2014-04-27T10:51:33Z</time>
      </trkpt>
      <trkpt lat="47.23711" lon="-1.61063">
        <ele>27.1</ele>
        <time>2014-04-27T10:51:36Z</time>
      </trkpt>
      <trkpt lat="47.23702" lon="-1.61068">
        <ele>26.9</ele>
        <time>2014-04-27T10:51:39Z</time>
      </trkpt>
      <trkpt lat="47.23693" lon="-1.61074">
        <ele>26.7</ele>
        <time>2014-04-27T10:51:43Z</time>
      </trkpt>
      <trkpt lat="47.23684" lon="-1.61074">
        <ele>26.7</ele>
        <time>2014-04-27T10:51:47Z</time>
      </trkpt>
      <trkpt lat="47.23676" lon="-1.61082">
        <ele>26.1</ele>
        <time>2014-04-27T10:51:53Z</time>
      </trkpt>
      <trkpt lat="47.23668" lon="-1.61072">
        <ele>25.7</ele>
        <time>2014-04-27T10:51:57Z</time>
      </trkpt>
      <trkpt lat="47.23661" lon="-1.61061">
        <ele>24.7</ele>
        <time>2014-04-27T10:52:01Z</time>
      </trkpt>
      <trkpt lat="47.23656" lon="-1.6105">
        <ele>23.9</ele>
        <time>2014-04-27T10:52:05Z</time>
      </trkpt>
      <trkpt lat="47.23655" lon="-1.61034">
        <ele>23.1</ele>
        <time>2014-04-27T10:52:09Z</time>
      </trkpt>
      <trkpt lat="47.23659" lon="-1.61021">
        <ele>22.6</ele>
        <time>2014-04-27T10:52:12Z</time>
      </trkpt>
      <trkpt lat="47.2366" lon="-1.61006">
        <ele>21.9</ele>
        <time>2014-04-27T10:52:15Z</time>
      </trkpt>
      <trkpt lat="47.23657" lon="-1.6099">
        <ele>17.6</ele>
        <time>2014-04-27T10:52:18Z</time>
      </trkpt>
      <trkpt lat="47.23655" lon="-1.6097">
        <ele>14.2</ele>
        <time>2014-04-27T10:52:20Z</time>
      </trkpt>
      <trkpt lat="47.23654" lon="-1.60953">
        <ele>10.1</ele>
        <time>2014-04-27T10:52:22Z</time>
      </trkpt>
      <trkpt lat="47.23649" lon="-1.60923">
        <ele>8</ele>
        <time>2014-04-27T10:52:26Z</time>
      </trkpt>
      <trkpt lat="47.23639" lon="-1.60913">
        <ele>7.7</ele>
        <time>2014-04-27T10:52:30Z</time>
      </trkpt>
      <trkpt lat="47.23631" lon="-1.60906">
        <ele>7.2</ele>
        <time>2014-04-27T10:52:32Z</time>
      </trkpt>
      <trkpt lat="47.23622" lon="-1.60896">
        <ele>6.6</ele>
        <time>2014-04-27T10:52:34Z</time>
      </trkpt>
      <trkpt lat="47.23616" lon="-1.60885">
        <ele>5.6</ele>
        <time>2014-04-27T10:52:38Z</time>
      </trkpt>
      <trkpt lat="47.23614" lon="-1.6087">
        <ele>4.7</ele>
        <time>2014-04-27T10:52:43Z</time>
      </trkpt>
      <trkpt lat="47.23614" lon="-1.60855">
        <ele>4.5</ele>
        <time>2014-04-27T10:52:47Z</time>
      </trkpt>
      <trkpt lat="47.23613" lon="-1.6084">
        <ele>4.5</ele>
        <time>2014-04-27T10:52:50Z</time>
      </trkpt>
      <trkpt lat="47.23613" lon="-1.60826">
        <ele>4.9</ele>
        <time>2014-04-27T10:52:54Z</time>
      </trkpt>
      <trkpt lat="47.23607" lon="-1.60814">
        <ele>5.7</ele>
        <time>2014-04-27T10:52:57Z</time>
      </trkpt>
      <trkpt lat="47.23599" lon="-1.60806">
        <ele>6.3</ele>
        <time>2014-04-27T10:53:00Z</time>
      </trkpt>
      <trkpt lat="47.23588" lon="-1.60801">
        <ele>6.5</ele>
        <time>2014-04-27T10:53:03Z</time>
      </trkpt>
      <trkpt lat="47.23579" lon="-1.60799">
        <ele>6.4</ele>
        <time>2014-04-27T10:53:06Z</time>
      </trkpt>
      <trkpt lat="47.2357" lon="-1.60793">
        <ele>6.3</ele>
        <time>2014-04-27T10:53:10Z</time>
      </trkpt>
      <trkpt lat="47.23562" lon="-1.60776">
        <ele>6.7</ele>
        <time>2014-04-27T10:53:13Z</time>
      </trkpt>
      <trkpt lat="47.23555" lon="-1.60762">
        <ele>7</ele>
        <time>2014-04-27T10:53:16Z</time>
      </trkpt>
      <trkpt lat="47.23549" lon="-1.60749">
        <ele>7.4</ele>
        <time>2014-04-27T10:53:19Z</time>
      </trkpt>
      <trkpt lat="47.23544" lon="-1.60737">
        <ele>7.7</ele>
        <time>2014-04-27T10:53:22Z</time>
      </trkpt>
      <trkpt lat="47.23537" lon="-1.60722">
        <ele>8.4</ele>
        <time>2014-04-27T10:53:26Z</time>
      </trkpt>
      <trkpt lat="47.23525" lon="-1.60693">
        <ele>9.6</ele>
        <time>2014-04-27T10:53:33Z</time>
      </trkpt>
      <trkpt lat="47.23518" lon="-1.60678">
        <ele>9.6</ele>
        <time>2014-04-27T10:53:36Z</time>
      </trkpt>
      <trkpt lat="47.23515" lon="-1.60665">
        <ele>9.6</ele>
        <time>2014-04-27T10:53:39Z</time>
      </trkpt>
      <trkpt lat="47.23512" lon="-1.60649">
        <ele>9.5</ele>
        <time>2014-04-27T10:53:42Z</time>
      </trkpt>
      <trkpt lat="47.23507" lon="-1.60635">
        <ele>8.4</ele>
        <time>2014-04-27T10:53:44Z</time>
      </trkpt>
      <trkpt lat="47.23502" lon="-1.60619">
        <ele>7</ele>
        <time>2014-04-27T10:53:46Z</time>
      </trkpt>
      <trkpt lat="47.23495" lon="-1.60603">
        <ele>5.3</ele>
        <time>2014-04-27T10:53:48Z</time>
      </trkpt>
      <trkpt lat="47.23491" lon="-1.60589">
        <ele>4.7</ele>
        <time>2014-04-27T10:53:50Z</time>
      </trkpt>
      <trkpt lat="47.23489" lon="-1.60573">
        <ele>5.1</ele>
        <time>2014-04-27T10:53:54Z</time>
      </trkpt>
      <trkpt lat="47.2349" lon="-1.60552">
        <ele>5.7</ele>
        <time>2014-04-27T10:53:58Z</time>
      </trkpt>
      <trkpt lat="47.23485" lon="-1.60534">
        <ele>5.8</ele>
        <time>2014-04-27T10:54:00Z</time>
      </trkpt>
      <trkpt lat="47.2348" lon="-1.6052">
        <ele>6.2</ele>
        <time>2014-04-27T10:54:03Z</time>
      </trkpt>
      <trkpt lat="47.23472" lon="-1.60509">
        <ele>6.5</ele>
        <time>2014-04-27T10:54:08Z</time>
      </trkpt>
      <trkpt lat="47.23463" lon="-1.60503">
        <ele>7.1</ele>
        <time>2014-04-27T10:54:14Z</time>
      </trkpt>
      <trkpt lat="47.23454" lon="-1.60496">
        <ele>7.6</ele>
        <time>2014-04-27T10:54:20Z</time>
      </trkpt>
      <trkpt lat="47.23445" lon="-1.60491">
        <ele>7.9</ele>
        <time>2014-04-27T10:54:25Z</time>
      </trkpt>
      <trkpt lat="47.23437" lon="-1.60483">
        <ele>8.8</ele>
        <time>2014-04-27T10:54:30Z</time>
      </trkpt>
      <trkpt lat="47.23425" lon="-1.60462">
        <ele>10.1</ele>
        <time>2014-04-27T10:54:38Z</time>
      </trkpt>
      <trkpt lat="47.23417" lon="-1.60453">
        <ele>11.4</ele>
        <time>2014-04-27T10:54:44Z</time>
      </trkpt>
      <trkpt lat="47.2341" lon="-1.60445">
        <ele>12.1</ele>
        <time>2014-04-27T10:54:48Z</time>
      </trkpt>
      <trkpt lat="47.23402" lon="-1.60434">
        <ele>12.5</ele>
        <time>2014-04-27T10:54:52Z</time>
      </trkpt>
      <trkpt lat="47.23394" lon="-1.60425">
        <ele>13.4</ele>
        <time>2014-04-27T10:54:57Z</time>
      </trkpt>
      <trkpt lat="47.23387" lon="-1.60415">
        <ele>14.3</ele>
        <time>2014-04-27T10:55:00Z</time>
      </trkpt>
      <trkpt lat="47.23382" lon="-1.60404">
        <ele>15</ele>
        <time>2014-04-27T10:55:03Z</time>
      </trkpt>
      <trkpt lat="47.23374" lon="-1.60392">
        <ele>15.9</ele>
        <time>2014-04-27T10:55:07Z</time>
      </trkpt>
      <trkpt lat="47.23367" lon="-1.60381">
        <ele>16.5</ele>
        <time>2014-04-27T10:55:10Z</time>
      </trkpt>
      <trkpt lat="47.23356" lon="-1.60376">
        <ele>17.3</ele>
        <time>2014-04-27T10:55:14Z</time>
      </trkpt>
      <trkpt lat="47.23346" lon="-1.60376">
        <ele>17.7</ele>
        <time>2014-04-27T10:55:17Z</time>
      </trkpt>
      <trkpt lat="47.23335" lon="-1.60379">
        <ele>18</ele>
        <time>2014-04-27T10:55:21Z</time>
      </trkpt>
      <trkpt lat="47.23325" lon="-1.60384">
        <ele>18.3</ele>
        <time>2014-04-27T10:55:25Z</time>
      </trkpt>
      <trkpt lat="47.23315" lon="-1.60392">
        <ele>18.9</ele>
        <time>2014-04-27T10:55:29Z</time>
      </trkpt>
      <trkpt lat="47.23306" lon="-1.604">
        <ele>19.1</ele>
        <time>2014-04-27T10:55:33Z</time>
      </trkpt>
      <trkpt lat="47.2329" lon="-1.60417">
        <ele>20.3</ele>
        <time>2014-04-27T10:55:41Z</time>
      </trkpt>
      <trkpt lat="47.23279" lon="-1.60413">
        <ele>20.8</ele>
        <time>2014-04-27T10:55:47Z</time>
      </trkpt>
      <trkpt lat="47.23271" lon="-1.60402">
        <ele>20.9</ele>
        <time>2014-04-27T10:55:51Z</time>
      </trkpt>
      <trkpt lat="47.23262" lon="-1.6039">
        <ele>21</ele>
        <time>2014-04-27T10:55:55Z</time>
      </trkpt>
      <trkpt lat="47.23251" lon="-1.60385">
        <ele>21</ele>
        <time>2014-04-27T10:55:59Z</time>
      </trkpt>
      <trkpt lat="47.23241" lon="-1.60392">
        <ele>21.1</ele>
        <time>2014-04-27T10:56:03Z</time>
      </trkpt>
      <trkpt lat="47.23233" lon="-1.604">
        <ele>21.2</ele>
        <time>2014-04-27T10:56:09Z</time>
      </trkpt>
      <trkpt lat="47.23227" lon="-1.60411">
        <ele>21</ele>
        <time>2014-04-27T10:56:13Z</time>
      </trkpt>
      <trkpt lat="47.23221" lon="-1.60422">
        <ele>20.9</ele>
        <time>2014-04-27T10:56:17Z</time>
      </trkpt>
      <trkpt lat="47.23215" lon="-1.60435">
        <ele>21.3</ele>
        <time>2014-04-27T10:56:21Z</time>
      </trkpt>
      <trkpt lat="47.23208" lon="-1.60446">
        <ele>21.6</ele>
        <time>2014-04-27T10:56:25Z</time>
      </trkpt>
      <trkpt lat="47.23202" lon="-1.60457">
        <ele>22</ele>
        <time>2014-04-27T10:56:29Z</time>
      </trkpt>
      <trkpt lat="47.23195" lon="-1.60468">
        <ele>22.4</ele>
        <time>2014-04-27T10:56:33Z</time>
      </trkpt>
      <trkpt lat="47.23189" lon="-1.6048">
        <ele>22.8</ele>
        <time>2014-04-27T10:56:38Z</time>
      </trkpt>
      <trkpt lat="47.23174" lon="-1.60501">
        <ele>23.6</ele>
        <time>2014-04-27T10:56:47Z</time>
      </trkpt>
      <trkpt lat="47.23165" lon="-1.6051">
        <ele>23.7</ele>
        <time>2014-04-27T10:56:52Z</time>
      </trkpt>
      <trkpt lat="47.23158" lon="-1.60521">
        <ele>24</ele>
        <time>2014-04-27T10:56:56Z</time>
      </trkpt>
      <trkpt lat="47.23152" lon="-1.60531">
        <ele>24.3</ele>
        <time>2014-04-27T10:57:01Z</time>
      </trkpt>
      <trkpt lat="47.23142" lon="-1.60535">
        <ele>24.4</ele>
        <time>2014-04-27T10:57:05Z</time>
      </trkpt>
      <trkpt lat="47.23131" lon="-1.60537">
        <ele>25</ele>
        <time>2014-04-27T10:57:09Z</time>
      </trkpt>
      <trkpt lat="47.2312" lon="-1.60535">
        <ele>25.4</ele>
        <time>2014-04-27T10:57:13Z</time>
      </trkpt>
      <trkpt lat="47.23112" lon="-1.60527">
        <ele>25.5</ele>
        <time>2014-04-27T10:57:18Z</time>
      </trkpt>
      <trkpt lat="47.23103" lon="-1.60521">
        <ele>25.8</ele>
        <time>2014-04-27T10:57:22Z</time>
      </trkpt>
      <trkpt lat="47.23093" lon="-1.6052">
        <ele>26.3</ele>
        <time>2014-04-27T10:57:26Z</time>
      </trkpt>
      <trkpt lat="47.23084" lon="-1.60527">
        <ele>26.8</ele>
        <time>2014-04-27T10:57:30Z</time>
      </trkpt>
      <trkpt lat="47.23076" lon="-1.60537">
        <ele>27.4</ele>
        <time>2014-04-27T10:57:34Z</time>
      </trkpt>
      <trkpt lat="47.23068" lon="-1.60542">
        <ele>28.2</ele>
        <time>2014-04-27T10:57:39Z</time>
      </trkpt>
      <trkpt lat="47.23049" lon="-1.60547">
        <ele>29</ele>
        <time>2014-04-27T10:57:48Z</time>
      </trkpt>
      <trkpt lat="47.2304" lon="-1.60556">
        <ele>28.9</ele>
        <time>2014-04-27T10:57:52Z</time>
      </trkpt>
      <trkpt lat="47.2303" lon="-1.60555">
        <ele>28.9</ele>
        <time>2014-04-27T10:57:56Z</time>
      </trkpt>
      <trkpt lat="47.23021" lon="-1.60562">
        <ele>29.1</ele>
        <time>2014-04-27T10:58:00Z</time>
      </trkpt>
      <trkpt lat="47.23013" lon="-1.60572">
        <ele>29.6</ele>
        <time>2014-04-27T10:58:04Z</time>
      </trkpt>
      <trkpt lat="47.23004" lon="-1.60583">
        <ele>30.1</ele>
        <time>2014-04-27T10:58:08Z</time>
      </trkpt>
      <trkpt lat="47.22997" lon="-1.60591">
        <ele>30.6</ele>
        <time>2014-04-27T10:58:12Z</time>
      </trkpt>
      <trkpt lat="47.22989" lon="-1.60601">
        <ele>31</ele>
        <time>2014-04-27T10:58:16Z</time>
      </trkpt>
      <trkpt lat="47.22981" lon="-1.60608">
        <ele>31.9</ele>
        <time>2014-04-27T10:58:20Z</time>
      </trkpt>
      <trkpt lat="47.22982" lon="-1.60624">
        <ele>32.6</ele>
        <time>2014-04-27T10:58:26Z</time>
      </trkpt>
      <trkpt lat="47.22989" lon="-1.60638">
        <ele>32.7</ele>
        <time>2014-04-27T10:58:30Z</time>
      </trkpt>
      <trkpt lat="47.22995" lon="-1.60652">
        <ele>32.9</ele>
        <time>2014-04-27T10:58:34Z</time>
      </trkpt>
      <trkpt lat="47.22999" lon="-1.60666">
        <ele>33.2</ele>
        <time>2014-04-27T10:58:38Z</time>
      </trkpt>
      <trkpt lat="47.23003" lon="-1.60679">
        <ele>33.5</ele>
        <time>2014-04-27T10:58:42Z</time>
      </trkpt>
      <trkpt lat="47.23006" lon="-1.60709">
        <ele>34.6</ele>
        <time>2014-04-27T10:58:50Z</time>
      </trkpt>
      <trkpt lat="47.23012" lon="-1.60723">
        <ele>35.1</ele>
        <time>2014-04-27T10:58:55Z</time>
      </trkpt>
      <trkpt lat="47.23016" lon="-1.60735">
        <ele>35.3</ele>
        <time>2014-04-27T10:58:59Z</time>
      </trkpt>
      <trkpt lat="47.23023" lon="-1.60748">
        <ele>35.5</ele>
        <time>2014-04-27T10:59:03Z</time>
      </trkpt>
      <trkpt lat="47.23029" lon="-1.60758">
        <ele>35.9</ele>
        <time>2014-04-27T10:59:07Z</time>
      </trkpt>
      <trkpt lat="47.23036" lon="-1.60768">
        <ele>36.4</ele>
        <time>2014-04-27T10:59:11Z</time>
      </trkpt>
      <trkpt lat="47.23045" lon="-1.60766">
        <ele>36.3</ele>
        <time>2014-04-27T10:59:15Z</time>
      </trkpt>
      <trkpt lat="47.23055" lon="-1.60759">
        <ele>35.8</ele>
        <time>2014-04-27T10:59:19Z</time>
      </trkpt>
      <trkpt lat="47.23066" lon="-1.60753">
        <ele>35.2</ele>
        <time>2014-04-27T10:59:23Z</time>
      </trkpt>
      <trkpt lat="47.23074" lon="-1.60746">
        <ele>35</ele>
        <time>2014-04-27T10:59:26Z</time>
      </trkpt>
      <trkpt lat="47.23078" lon="-1.60734">
        <ele>34.5</ele>
        <time>2014-04-27T10:59:30Z</time>
      </trkpt>
      <trkpt lat="47.23076" lon="-1.6072">
        <ele>34.2</ele>
        <time>2014-04-27T10:59:34Z</time>
      </trkpt>
      <trkpt lat="47.23074" lon="-1.60704">
        <ele>34.1</ele>
        <time>2014-04-27T10:59:38Z</time>
      </trkpt>
      <trkpt lat="47.2307" lon="-1.6069">
        <ele>34</ele>
        <time>2014-04-27T10:59:41Z</time>
      </trkpt>
      <trkpt lat="47.23071" lon="-1.60676">
        <ele>33.9</ele>
        <time>2014-04-27T10:59:44Z</time>
      </trkpt>
      <trkpt lat="47.23076" lon="-1.60654">
        <ele>34.1</ele>
        <time>2014-04-27T11:00:02Z</time>
      </trkpt>
      <trkpt lat="47.23077" lon="-1.60648">
        <ele>33.6</ele>
        <time>2014-04-27T11:00:53Z</time>
      </trkpt>
    </trkseg>
  </trk>
</gpx>